<?xml version="1.0" encoding="UTF-8"?><gpx xmlns="http://www.topografix.com/GPX/1/1" version="1.1" creator="iOrient"><trk><name>QRогейн Ёлкино</name><trkseg><trkpt lat="55.2959900" lon="38.8513050"><time>2020-06-27T06:03:05.397</time></trkpt><trkpt lat="55.2958990" lon="38.8511540"><time>2020-06-27T06:03:06.397</time></trkpt><trkpt lat="55.2959100" lon="38.8510000"><time>2020-06-27T06:03:08.397</time></trkpt><trkpt lat="55.2959250" lon="38.8509170"><time>2020-06-27T06:03:09.397</time></trkpt><trkpt lat="55.2958870" lon="38.8509610"><time>2020-06-27T06:03:10.403</time></trkpt><trkpt lat="55.2959190" lon="38.8509030"><time>2020-06-27T06:03:17.453</time></trkpt><trkpt lat="55.2958710" lon="38.8509530"><time>2020-06-27T06:03:36.723</time></trkpt><trkpt lat="55.2958160" lon="38.8510050"><time>2020-06-27T06:03:39.463</time></trkpt><trkpt lat="55.2957710" lon="38.8510670"><time>2020-06-27T06:03:41.723</time></trkpt><trkpt lat="55.2957130" lon="38.8511200"><time>2020-06-27T06:03:43.723</time></trkpt><trkpt lat="55.2956650" lon="38.8511680"><time>2020-06-27T06:03:45.463</time></trkpt><trkpt lat="55.2956210" lon="38.8512580"><time>2020-06-27T06:03:47.737</time></trkpt><trkpt lat="55.2955930" lon="38.8513430"><time>2020-06-27T06:03:49.717</time></trkpt><trkpt lat="55.2955930" lon="38.8514240"><time>2020-06-27T06:03:51.760</time></trkpt><trkpt lat="55.2955960" lon="38.8515400"><time>2020-06-27T06:03:54.757</time></trkpt><trkpt lat="55.2955940" lon="38.8517060"><time>2020-06-27T06:03:55.740</time></trkpt><trkpt lat="55.2955620" lon="38.8518250"><time>2020-06-27T06:03:57.707</time></trkpt><trkpt lat="55.2955460" lon="38.8519240"><time>2020-06-27T06:03:59.727</time></trkpt><trkpt lat="55.2955330" lon="38.8520090"><time>2020-06-27T06:04:01.737</time></trkpt><trkpt lat="55.2955660" lon="38.8520660"><time>2020-06-27T06:04:03.720</time></trkpt><trkpt lat="55.2956050" lon="38.8521130"><time>2020-06-27T06:04:06.760</time></trkpt><trkpt lat="55.2956860" lon="38.8521820"><time>2020-06-27T06:04:08.727</time></trkpt><trkpt lat="55.2957470" lon="38.8522070"><time>2020-06-27T06:04:09.757</time></trkpt><trkpt lat="55.2958030" lon="38.8522640"><time>2020-06-27T06:04:11.687</time></trkpt><trkpt lat="55.2958500" lon="38.8522870"><time>2020-06-27T06:04:13.710</time></trkpt><trkpt lat="55.2959050" lon="38.8523120"><time>2020-06-27T06:04:15.707</time></trkpt><trkpt lat="55.2959450" lon="38.8524260"><time>2020-06-27T06:04:17.727</time></trkpt><trkpt lat="55.2959520" lon="38.8525450"><time>2020-06-27T06:04:19.763</time></trkpt><trkpt lat="55.2959490" lon="38.8526250"><time>2020-06-27T06:04:22.703</time></trkpt><trkpt lat="55.2959220" lon="38.8527090"><time>2020-06-27T06:04:25.787</time></trkpt><trkpt lat="55.2959210" lon="38.8528080"><time>2020-06-27T06:04:28.737</time></trkpt><trkpt lat="55.2959330" lon="38.8528870"><time>2020-06-27T06:04:30.500</time></trkpt><trkpt lat="55.2959470" lon="38.8529680"><time>2020-06-27T06:04:32.743</time></trkpt><trkpt lat="55.2959560" lon="38.8530530"><time>2020-06-27T06:04:34.730</time></trkpt><trkpt lat="55.2959620" lon="38.8531600"><time>2020-06-27T06:04:36.747</time></trkpt><trkpt lat="55.2959720" lon="38.8532590"><time>2020-06-27T06:04:38.750</time></trkpt><trkpt lat="55.2959960" lon="38.8533480"><time>2020-06-27T06:04:41.773</time></trkpt><trkpt lat="55.2960450" lon="38.8533960"><time>2020-06-27T06:04:43.487</time></trkpt><trkpt lat="55.2961070" lon="38.8533870"><time>2020-06-27T06:04:46.777</time></trkpt><trkpt lat="55.2961750" lon="38.8533740"><time>2020-06-27T06:04:49.503</time></trkpt><trkpt lat="55.2962400" lon="38.8533790"><time>2020-06-27T06:04:50.767</time></trkpt><trkpt lat="55.2962840" lon="38.8534340"><time>2020-06-27T06:04:51.727</time></trkpt><trkpt lat="55.2963460" lon="38.8535130"><time>2020-06-27T06:04:53.743</time></trkpt><trkpt lat="55.2964050" lon="38.8536230"><time>2020-06-27T06:04:54.740</time></trkpt><trkpt lat="55.2963980" lon="38.8537020"><time>2020-06-27T06:04:55.750</time></trkpt><trkpt lat="55.2963620" lon="38.8538280"><time>2020-06-27T06:04:57.740</time></trkpt><trkpt lat="55.2963240" lon="38.8539460"><time>2020-06-27T06:04:59.743</time></trkpt><trkpt lat="55.2963150" lon="38.8540310"><time>2020-06-27T06:05:02.520</time></trkpt><trkpt lat="55.2962920" lon="38.8541500"><time>2020-06-27T06:05:03.783</time></trkpt><trkpt lat="55.2962870" lon="38.8542320"><time>2020-06-27T06:05:04.750</time></trkpt><trkpt lat="55.2962650" lon="38.8543720"><time>2020-06-27T06:05:06.707</time></trkpt><trkpt lat="55.2962600" lon="38.8545030"><time>2020-06-27T06:05:08.750</time></trkpt><trkpt lat="55.2962540" lon="38.8546160"><time>2020-06-27T06:05:10.760</time></trkpt><trkpt lat="55.2962390" lon="38.8547220"><time>2020-06-27T06:05:13.777</time></trkpt><trkpt lat="55.2962250" lon="38.8548030"><time>2020-06-27T06:05:15.783</time></trkpt><trkpt lat="55.2961920" lon="38.8549060"><time>2020-06-27T06:05:17.743</time></trkpt><trkpt lat="55.2961460" lon="38.8550180"><time>2020-06-27T06:05:18.823</time></trkpt><trkpt lat="55.2960840" lon="38.8550720"><time>2020-06-27T06:05:19.827</time></trkpt><trkpt lat="55.2960590" lon="38.8551730"><time>2020-06-27T06:05:21.740</time></trkpt><trkpt lat="55.2959890" lon="38.8552480"><time>2020-06-27T06:05:23.470</time></trkpt><trkpt lat="55.2959430" lon="38.8553490"><time>2020-06-27T06:05:25.723</time></trkpt><trkpt lat="55.2959020" lon="38.8554610"><time>2020-06-27T06:05:27.743</time></trkpt><trkpt lat="55.2958580" lon="38.8555710"><time>2020-06-27T06:05:29.763</time></trkpt><trkpt lat="55.2958330" lon="38.8556990"><time>2020-06-27T06:05:31.750</time></trkpt><trkpt lat="55.2958000" lon="38.8558330"><time>2020-06-27T06:05:33.750</time></trkpt><trkpt lat="55.2957820" lon="38.8559120"><time>2020-06-27T06:05:34.760</time></trkpt><trkpt lat="55.2957730" lon="38.8560370"><time>2020-06-27T06:05:36.473</time></trkpt><trkpt lat="55.2957330" lon="38.8561770"><time>2020-06-27T06:05:38.720</time></trkpt><trkpt lat="55.2956610" lon="38.8562830"><time>2020-06-27T06:05:40.727</time></trkpt><trkpt lat="55.2956110" lon="38.8563420"><time>2020-06-27T06:05:41.743</time></trkpt><trkpt lat="55.2955610" lon="38.8563770"><time>2020-06-27T06:05:42.747</time></trkpt><trkpt lat="55.2955290" lon="38.8564870"><time>2020-06-27T06:05:44.467</time></trkpt><trkpt lat="55.2955140" lon="38.8565920"><time>2020-06-27T06:05:46.743</time></trkpt><trkpt lat="55.2954730" lon="38.8567210"><time>2020-06-27T06:05:48.727</time></trkpt><trkpt lat="55.2954440" lon="38.8567840"><time>2020-06-27T06:05:49.470</time></trkpt><trkpt lat="55.2953690" lon="38.8568520"><time>2020-06-27T06:05:50.470</time></trkpt><trkpt lat="55.2953380" lon="38.8569860"><time>2020-06-27T06:05:52.467</time></trkpt><trkpt lat="55.2953170" lon="38.8570690"><time>2020-06-27T06:05:54.480</time></trkpt><trkpt lat="55.2952830" lon="38.8571750"><time>2020-06-27T06:05:57.767</time></trkpt><trkpt lat="55.2952410" lon="38.8572600"><time>2020-06-27T06:05:59.777</time></trkpt><trkpt lat="55.2951880" lon="38.8573550"><time>2020-06-27T06:06:01.757</time></trkpt><trkpt lat="55.2951300" lon="38.8574610"><time>2020-06-27T06:06:03.767</time></trkpt><trkpt lat="55.2950820" lon="38.8575710"><time>2020-06-27T06:06:05.750</time></trkpt><trkpt lat="55.2950570" lon="38.8576420"><time>2020-06-27T06:06:06.727</time></trkpt><trkpt lat="55.2950380" lon="38.8577120"><time>2020-06-27T06:06:07.730</time></trkpt><trkpt lat="55.2949940" lon="38.8578480"><time>2020-06-27T06:06:09.767</time></trkpt><trkpt lat="55.2949660" lon="38.8579220"><time>2020-06-27T06:06:10.733</time></trkpt><trkpt lat="55.2949350" lon="38.8579930"><time>2020-06-27T06:06:11.760</time></trkpt><trkpt lat="55.2949040" lon="38.8580630"><time>2020-06-27T06:06:12.773</time></trkpt><trkpt lat="55.2948820" lon="38.8581350"><time>2020-06-27T06:06:13.783</time></trkpt><trkpt lat="55.2948410" lon="38.8582630"><time>2020-06-27T06:06:15.493</time></trkpt><trkpt lat="55.2948150" lon="38.8583810"><time>2020-06-27T06:06:16.767</time></trkpt><trkpt lat="55.2948040" lon="38.8585110"><time>2020-06-27T06:06:19.697</time></trkpt><trkpt lat="55.2947280" lon="38.8586190"><time>2020-06-27T06:06:21.717</time></trkpt><trkpt lat="55.2946690" lon="38.8587250"><time>2020-06-27T06:06:23.717</time></trkpt><trkpt lat="55.2946340" lon="38.8587870"><time>2020-06-27T06:06:24.713</time></trkpt><trkpt lat="55.2945940" lon="38.8588560"><time>2020-06-27T06:06:26.723</time></trkpt><trkpt lat="55.2945700" lon="38.8589380"><time>2020-06-27T06:06:28.780</time></trkpt><trkpt lat="55.2945530" lon="38.8590590"><time>2020-06-27T06:06:29.767</time></trkpt><trkpt lat="55.2945520" lon="38.8591390"><time>2020-06-27T06:06:31.710</time></trkpt><trkpt lat="55.2944990" lon="38.8592400"><time>2020-06-27T06:06:33.723</time></trkpt><trkpt lat="55.2944480" lon="38.8593640"><time>2020-06-27T06:06:35.717</time></trkpt><trkpt lat="55.2944180" lon="38.8594290"><time>2020-06-27T06:06:37.707</time></trkpt><trkpt lat="55.2943780" lon="38.8595190"><time>2020-06-27T06:06:40.503</time></trkpt><trkpt lat="55.2943380" lon="38.8596170"><time>2020-06-27T06:06:42.750</time></trkpt><trkpt lat="55.2942450" lon="38.8597580"><time>2020-06-27T06:06:43.733</time></trkpt><trkpt lat="55.2941540" lon="38.8600170"><time>2020-06-27T06:06:44.740</time></trkpt><trkpt lat="55.2941210" lon="38.8600940"><time>2020-06-27T06:06:45.690</time></trkpt><trkpt lat="55.2940890" lon="38.8601770"><time>2020-06-27T06:06:46.687</time></trkpt><trkpt lat="55.2940390" lon="38.8603020"><time>2020-06-27T06:06:48.717</time></trkpt><trkpt lat="55.2940130" lon="38.8603760"><time>2020-06-27T06:06:49.723</time></trkpt><trkpt lat="55.2939820" lon="38.8604520"><time>2020-06-27T06:06:50.717</time></trkpt><trkpt lat="55.2939550" lon="38.8605280"><time>2020-06-27T06:06:51.747</time></trkpt><trkpt lat="55.2939050" lon="38.8606030"><time>2020-06-27T06:06:52.727</time></trkpt><trkpt lat="55.2938570" lon="38.8606470"><time>2020-06-27T06:06:53.470</time></trkpt><trkpt lat="55.2938210" lon="38.8607090"><time>2020-06-27T06:06:54.737</time></trkpt><trkpt lat="55.2937880" lon="38.8607700"><time>2020-06-27T06:06:55.717</time></trkpt><trkpt lat="55.2937490" lon="38.8608980"><time>2020-06-27T06:06:57.473</time></trkpt><trkpt lat="55.2937010" lon="38.8609330"><time>2020-06-27T06:06:58.737</time></trkpt><trkpt lat="55.2936570" lon="38.8610480"><time>2020-06-27T06:07:00.737</time></trkpt><trkpt lat="55.2936330" lon="38.8611290"><time>2020-06-27T06:07:03.777</time></trkpt><trkpt lat="55.2936760" lon="38.8611990"><time>2020-06-27T06:07:11.500</time></trkpt><trkpt lat="55.2937160" lon="38.8612650"><time>2020-06-27T06:07:15.747</time></trkpt><trkpt lat="55.2937490" lon="38.8613200"><time>2020-06-27T06:07:17.743</time></trkpt><trkpt lat="55.2937950" lon="38.8614250"><time>2020-06-27T06:07:20.773</time></trkpt><trkpt lat="55.2938290" lon="38.8615220"><time>2020-06-27T06:07:22.780</time></trkpt><trkpt lat="55.2938500" lon="38.8615950"><time>2020-06-27T06:07:24.743</time></trkpt><trkpt lat="55.2938930" lon="38.8616560"><time>2020-06-27T06:07:26.597</time></trkpt><trkpt lat="55.2939210" lon="38.8617300"><time>2020-06-27T06:07:29.497</time></trkpt><trkpt lat="55.2938870" lon="38.8617980"><time>2020-06-27T06:07:34.503</time></trkpt><trkpt lat="55.2938790" lon="38.8618010"><time>2020-06-27T06:07:35.947</time></trkpt><trkpt lat="55.2938680" lon="38.8617060"><time>2020-06-27T06:07:44.760</time></trkpt><trkpt lat="55.2938220" lon="38.8616990"><time>2020-06-27T06:07:46.750</time></trkpt><trkpt lat="55.2937800" lon="38.8616650"><time>2020-06-27T06:07:49.487</time></trkpt><trkpt lat="55.2937230" lon="38.8616550"><time>2020-06-27T06:07:52.807</time></trkpt><trkpt lat="55.2936640" lon="38.8616340"><time>2020-06-27T06:07:55.737</time></trkpt><trkpt lat="55.2936410" lon="38.8615560"><time>2020-06-27T06:07:59.750</time></trkpt><trkpt lat="55.2936450" lon="38.8614740"><time>2020-06-27T06:08:03.777</time></trkpt><trkpt lat="55.2936110" lon="38.8613900"><time>2020-06-27T06:08:07.477</time></trkpt><trkpt lat="55.2935600" lon="38.8613410"><time>2020-06-27T06:08:10.750</time></trkpt><trkpt lat="55.2935220" lon="38.8613000"><time>2020-06-27T06:08:12.763</time></trkpt><trkpt lat="55.2934620" lon="38.8612860"><time>2020-06-27T06:08:15.767</time></trkpt><trkpt lat="55.2934350" lon="38.8613600"><time>2020-06-27T06:08:19.760</time></trkpt><trkpt lat="55.2934140" lon="38.8614450"><time>2020-06-27T06:08:23.733</time></trkpt><trkpt lat="55.2933670" lon="38.8615270"><time>2020-06-27T06:08:26.500</time></trkpt><trkpt lat="55.2933380" lon="38.8615940"><time>2020-06-27T06:08:28.503</time></trkpt><trkpt lat="55.2932910" lon="38.8616570"><time>2020-06-27T06:08:31.553</time></trkpt><trkpt lat="55.2931330" lon="38.8619320"><time>2020-06-27T06:08:32.480</time></trkpt><trkpt lat="55.2931080" lon="38.8620010"><time>2020-06-27T06:08:33.453</time></trkpt><trkpt lat="55.2930600" lon="38.8620700"><time>2020-06-27T06:08:35.467</time></trkpt><trkpt lat="55.2930070" lon="38.8621750"><time>2020-06-27T06:08:37.467</time></trkpt><trkpt lat="55.2929990" lon="38.8622600"><time>2020-06-27T06:08:38.697</time></trkpt><trkpt lat="55.2929580" lon="38.8623350"><time>2020-06-27T06:08:40.727</time></trkpt><trkpt lat="55.2929130" lon="38.8624300"><time>2020-06-27T06:08:42.717</time></trkpt><trkpt lat="55.2928610" lon="38.8625110"><time>2020-06-27T06:08:44.503</time></trkpt><trkpt lat="55.2927970" lon="38.8626820"><time>2020-06-27T06:08:46.747</time></trkpt><trkpt lat="55.2927500" lon="38.8627210"><time>2020-06-27T06:08:47.703</time></trkpt><trkpt lat="55.2927040" lon="38.8627840"><time>2020-06-27T06:08:48.690</time></trkpt><trkpt lat="55.2926660" lon="38.8628450"><time>2020-06-27T06:08:49.690</time></trkpt><trkpt lat="55.2925990" lon="38.8629450"><time>2020-06-27T06:08:51.697</time></trkpt><trkpt lat="55.2925610" lon="38.8630000"><time>2020-06-27T06:08:54.717</time></trkpt><trkpt lat="55.2925610" lon="38.8630890"><time>2020-06-27T06:08:56.710</time></trkpt><trkpt lat="55.2925260" lon="38.8631950"><time>2020-06-27T06:08:58.710</time></trkpt><trkpt lat="55.2924650" lon="38.8633020"><time>2020-06-27T06:09:00.693</time></trkpt><trkpt lat="55.2923930" lon="38.8633390"><time>2020-06-27T06:09:02.743</time></trkpt><trkpt lat="55.2923110" lon="38.8633570"><time>2020-06-27T06:09:04.457</time></trkpt><trkpt lat="55.2922240" lon="38.8633730"><time>2020-06-27T06:09:06.477</time></trkpt><trkpt lat="55.2921790" lon="38.8633790"><time>2020-06-27T06:09:07.477</time></trkpt><trkpt lat="55.2921330" lon="38.8633890"><time>2020-06-27T06:09:08.470</time></trkpt><trkpt lat="55.2920860" lon="38.8634080"><time>2020-06-27T06:09:09.760</time></trkpt><trkpt lat="55.2920420" lon="38.8634320"><time>2020-06-27T06:09:10.717</time></trkpt><trkpt lat="55.2919740" lon="38.8634830"><time>2020-06-27T06:09:12.723</time></trkpt><trkpt lat="55.2919030" lon="38.8635670"><time>2020-06-27T06:09:15.747</time></trkpt><trkpt lat="55.2918680" lon="38.8636260"><time>2020-06-27T06:09:16.723</time></trkpt><trkpt lat="55.2918280" lon="38.8636970"><time>2020-06-27T06:09:18.733</time></trkpt><trkpt lat="55.2917430" lon="38.8638660"><time>2020-06-27T06:09:19.720</time></trkpt><trkpt lat="55.2916960" lon="38.8639950"><time>2020-06-27T06:09:21.450</time></trkpt><trkpt lat="55.2916620" lon="38.8641320"><time>2020-06-27T06:09:23.740</time></trkpt><trkpt lat="55.2916430" lon="38.8642080"><time>2020-06-27T06:09:24.720</time></trkpt><trkpt lat="55.2916130" lon="38.8643510"><time>2020-06-27T06:09:26.720</time></trkpt><trkpt lat="55.2915940" lon="38.8644250"><time>2020-06-27T06:09:27.723</time></trkpt><trkpt lat="55.2915650" lon="38.8645670"><time>2020-06-27T06:09:29.757</time></trkpt><trkpt lat="55.2915430" lon="38.8647180"><time>2020-06-27T06:09:31.753</time></trkpt><trkpt lat="55.2915230" lon="38.8647970"><time>2020-06-27T06:09:32.743</time></trkpt><trkpt lat="55.2915000" lon="38.8648690"><time>2020-06-27T06:09:33.723</time></trkpt><trkpt lat="55.2914630" lon="38.8649950"><time>2020-06-27T06:09:35.727</time></trkpt><trkpt lat="55.2914380" lon="38.8651420"><time>2020-06-27T06:09:37.710</time></trkpt><trkpt lat="55.2914160" lon="38.8652700"><time>2020-06-27T06:09:39.740</time></trkpt><trkpt lat="55.2914000" lon="38.8653890"><time>2020-06-27T06:09:41.717</time></trkpt><trkpt lat="55.2913820" lon="38.8655180"><time>2020-06-27T06:09:43.470</time></trkpt><trkpt lat="55.2913690" lon="38.8656240"><time>2020-06-27T06:09:45.743</time></trkpt><trkpt lat="55.2913660" lon="38.8657370"><time>2020-06-27T06:09:47.733</time></trkpt><trkpt lat="55.2913730" lon="38.8658770"><time>2020-06-27T06:09:49.747</time></trkpt><trkpt lat="55.2913900" lon="38.8660320"><time>2020-06-27T06:09:51.727</time></trkpt><trkpt lat="55.2913990" lon="38.8661100"><time>2020-06-27T06:09:52.750</time></trkpt><trkpt lat="55.2914100" lon="38.8661960"><time>2020-06-27T06:09:53.713</time></trkpt><trkpt lat="55.2914230" lon="38.8662740"><time>2020-06-27T06:09:54.783</time></trkpt><trkpt lat="55.2914400" lon="38.8663550"><time>2020-06-27T06:09:55.723</time></trkpt><trkpt lat="55.2914660" lon="38.8664390"><time>2020-06-27T06:09:56.707</time></trkpt><trkpt lat="55.2914770" lon="38.8665460"><time>2020-06-27T06:09:57.723</time></trkpt><trkpt lat="55.2915130" lon="38.8666430"><time>2020-06-27T06:09:58.727</time></trkpt><trkpt lat="55.2915450" lon="38.8667360"><time>2020-06-27T06:09:59.737</time></trkpt><trkpt lat="55.2915640" lon="38.8668330"><time>2020-06-27T06:10:00.713</time></trkpt><trkpt lat="55.2915960" lon="38.8669250"><time>2020-06-27T06:10:01.767</time></trkpt><trkpt lat="55.2916010" lon="38.8670160"><time>2020-06-27T06:10:02.507</time></trkpt><trkpt lat="55.2915840" lon="38.8671180"><time>2020-06-27T06:10:04.470</time></trkpt><trkpt lat="55.2915290" lon="38.8671500"><time>2020-06-27T06:10:06.473</time></trkpt><trkpt lat="55.2914720" lon="38.8671140"><time>2020-06-27T06:10:08.747</time></trkpt><trkpt lat="55.2914310" lon="38.8670720"><time>2020-06-27T06:10:10.757</time></trkpt><trkpt lat="55.2913720" lon="38.8670160"><time>2020-06-27T06:10:12.737</time></trkpt><trkpt lat="55.2913120" lon="38.8669540"><time>2020-06-27T06:10:14.467</time></trkpt><trkpt lat="55.2912520" lon="38.8669170"><time>2020-06-27T06:10:16.740</time></trkpt><trkpt lat="55.2912050" lon="38.8668520"><time>2020-06-27T06:10:18.457</time></trkpt><trkpt lat="55.2911490" lon="38.8668000"><time>2020-06-27T06:10:20.467</time></trkpt><trkpt lat="55.2910900" lon="38.8667590"><time>2020-06-27T06:10:22.467</time></trkpt><trkpt lat="55.2910360" lon="38.8667020"><time>2020-06-27T06:10:25.510</time></trkpt><trkpt lat="55.2909900" lon="38.8666540"><time>2020-06-27T06:10:27.507</time></trkpt><trkpt lat="55.2909410" lon="38.8666020"><time>2020-06-27T06:10:29.477</time></trkpt><trkpt lat="55.2908910" lon="38.8665380"><time>2020-06-27T06:10:31.483</time></trkpt><trkpt lat="55.2908290" lon="38.8664810"><time>2020-06-27T06:10:33.490</time></trkpt><trkpt lat="55.2907620" lon="38.8664180"><time>2020-06-27T06:10:35.507</time></trkpt><trkpt lat="55.2906960" lon="38.8663710"><time>2020-06-27T06:10:37.503</time></trkpt><trkpt lat="55.2906440" lon="38.8664030"><time>2020-06-27T06:10:40.497</time></trkpt><trkpt lat="55.2906800" lon="38.8664610"><time>2020-06-27T06:10:45.493</time></trkpt><trkpt lat="55.2907400" lon="38.8664730"><time>2020-06-27T06:10:48.497</time></trkpt><trkpt lat="55.2907920" lon="38.8664960"><time>2020-06-27T06:10:50.500</time></trkpt><trkpt lat="55.2908320" lon="38.8665480"><time>2020-06-27T06:10:52.507</time></trkpt><trkpt lat="55.2908450" lon="38.8666440"><time>2020-06-27T06:10:55.480</time></trkpt><trkpt lat="55.2908220" lon="38.8667250"><time>2020-06-27T06:10:57.493</time></trkpt><trkpt lat="55.2907800" lon="38.8668010"><time>2020-06-27T06:10:59.497</time></trkpt><trkpt lat="55.2907500" lon="38.8669200"><time>2020-06-27T06:11:01.503</time></trkpt><trkpt lat="55.2907300" lon="38.8670160"><time>2020-06-27T06:11:03.507</time></trkpt><trkpt lat="55.2907020" lon="38.8671140"><time>2020-06-27T06:11:06.493</time></trkpt><trkpt lat="55.2906770" lon="38.8671820"><time>2020-06-27T06:11:08.483</time></trkpt><trkpt lat="55.2906560" lon="38.8672580"><time>2020-06-27T06:11:10.483</time></trkpt><trkpt lat="55.2906540" lon="38.8673670"><time>2020-06-27T06:11:13.490</time></trkpt><trkpt lat="55.2906460" lon="38.8674640"><time>2020-06-27T06:11:15.497</time></trkpt><trkpt lat="55.2906260" lon="38.8675770"><time>2020-06-27T06:11:18.497</time></trkpt><trkpt lat="55.2905910" lon="38.8676430"><time>2020-06-27T06:11:20.497</time></trkpt><trkpt lat="55.2905600" lon="38.8677250"><time>2020-06-27T06:11:22.483</time></trkpt><trkpt lat="55.2905430" lon="38.8678090"><time>2020-06-27T06:11:24.507</time></trkpt><trkpt lat="55.2904920" lon="38.8678870"><time>2020-06-27T06:11:27.503</time></trkpt><trkpt lat="55.2904370" lon="38.8679020"><time>2020-06-27T06:11:29.497</time></trkpt><trkpt lat="55.2903550" lon="38.8678990"><time>2020-06-27T06:11:31.487</time></trkpt><trkpt lat="55.2902730" lon="38.8678890"><time>2020-06-27T06:11:33.513</time></trkpt><trkpt lat="55.2902020" lon="38.8678600"><time>2020-06-27T06:11:35.520</time></trkpt><trkpt lat="55.2901450" lon="38.8678160"><time>2020-06-27T06:11:37.503</time></trkpt><trkpt lat="55.2900860" lon="38.8677790"><time>2020-06-27T06:11:39.503</time></trkpt><trkpt lat="55.2900270" lon="38.8677350"><time>2020-06-27T06:11:41.540</time></trkpt><trkpt lat="55.2899650" lon="38.8676980"><time>2020-06-27T06:11:43.503</time></trkpt><trkpt lat="55.2899070" lon="38.8676580"><time>2020-06-27T06:11:45.507</time></trkpt><trkpt lat="55.2898380" lon="38.8676160"><time>2020-06-27T06:11:47.497</time></trkpt><trkpt lat="55.2897740" lon="38.8675850"><time>2020-06-27T06:11:49.500</time></trkpt><trkpt lat="55.2897140" lon="38.8675280"><time>2020-06-27T06:11:51.503</time></trkpt><trkpt lat="55.2896440" lon="38.8674680"><time>2020-06-27T06:11:53.500</time></trkpt><trkpt lat="55.2895750" lon="38.8674130"><time>2020-06-27T06:11:55.507</time></trkpt><trkpt lat="55.2894980" lon="38.8673660"><time>2020-06-27T06:11:57.500</time></trkpt><trkpt lat="55.2894520" lon="38.8673700"><time>2020-06-27T06:11:58.507</time></trkpt><trkpt lat="55.2893750" lon="38.8673550"><time>2020-06-27T06:12:00.510</time></trkpt><trkpt lat="55.2893020" lon="38.8673250"><time>2020-06-27T06:12:02.487</time></trkpt><trkpt lat="55.2892420" lon="38.8672970"><time>2020-06-27T06:12:04.507</time></trkpt><trkpt lat="55.2891730" lon="38.8672610"><time>2020-06-27T06:12:06.497</time></trkpt><trkpt lat="55.2891180" lon="38.8672390"><time>2020-06-27T06:12:08.510</time></trkpt><trkpt lat="55.2890510" lon="38.8672120"><time>2020-06-27T06:12:11.503</time></trkpt><trkpt lat="55.2890030" lon="38.8671730"><time>2020-06-27T06:12:13.480</time></trkpt><trkpt lat="55.2889510" lon="38.8671220"><time>2020-06-27T06:12:15.493</time></trkpt><trkpt lat="55.2888900" lon="38.8670560"><time>2020-06-27T06:12:17.477</time></trkpt><trkpt lat="55.2888220" lon="38.8669750"><time>2020-06-27T06:12:19.473</time></trkpt><trkpt lat="55.2887420" lon="38.8669470"><time>2020-06-27T06:12:21.457</time></trkpt><trkpt lat="55.2886670" lon="38.8669090"><time>2020-06-27T06:12:23.473</time></trkpt><trkpt lat="55.2886000" lon="38.8668640"><time>2020-06-27T06:12:25.463</time></trkpt><trkpt lat="55.2885370" lon="38.8667870"><time>2020-06-27T06:12:27.467</time></trkpt><trkpt lat="55.2884860" lon="38.8667500"><time>2020-06-27T06:12:30.507</time></trkpt><trkpt lat="55.2883900" lon="38.8667250"><time>2020-06-27T06:12:32.493</time></trkpt><trkpt lat="55.2883350" lon="38.8666970"><time>2020-06-27T06:12:34.453</time></trkpt><trkpt lat="55.2882760" lon="38.8666610"><time>2020-06-27T06:12:37.467</time></trkpt><trkpt lat="55.2882080" lon="38.8665970"><time>2020-06-27T06:12:39.467</time></trkpt><trkpt lat="55.2881290" lon="38.8665550"><time>2020-06-27T06:12:41.467</time></trkpt><trkpt lat="55.2880660" lon="38.8665150"><time>2020-06-27T06:12:44.500</time></trkpt><trkpt lat="55.2880090" lon="38.8664700"><time>2020-06-27T06:12:46.497</time></trkpt><trkpt lat="55.2879430" lon="38.8664240"><time>2020-06-27T06:12:48.490</time></trkpt><trkpt lat="55.2878660" lon="38.8663390"><time>2020-06-27T06:12:50.497</time></trkpt><trkpt lat="55.2877940" lon="38.8662500"><time>2020-06-27T06:12:52.510</time></trkpt><trkpt lat="55.2877190" lon="38.8661550"><time>2020-06-27T06:12:53.500</time></trkpt><trkpt lat="55.2876550" lon="38.8661530"><time>2020-06-27T06:12:54.480</time></trkpt><trkpt lat="55.2876100" lon="38.8661250"><time>2020-06-27T06:12:55.447</time></trkpt><trkpt lat="55.2875340" lon="38.8660830"><time>2020-06-27T06:12:57.460</time></trkpt><trkpt lat="55.2874670" lon="38.8661020"><time>2020-06-27T06:12:59.463</time></trkpt><trkpt lat="55.2873850" lon="38.8661360"><time>2020-06-27T06:13:01.720</time></trkpt><trkpt lat="55.2873020" lon="38.8661280"><time>2020-06-27T06:13:03.467</time></trkpt><trkpt lat="55.2872160" lon="38.8660950"><time>2020-06-27T06:13:05.723</time></trkpt><trkpt lat="55.2871770" lon="38.8660580"><time>2020-06-27T06:13:06.737</time></trkpt><trkpt lat="55.2871060" lon="38.8660620"><time>2020-06-27T06:13:08.747</time></trkpt><trkpt lat="55.2870590" lon="38.8660410"><time>2020-06-27T06:13:10.717</time></trkpt><trkpt lat="55.2870130" lon="38.8660130"><time>2020-06-27T06:13:12.733</time></trkpt><trkpt lat="55.2869560" lon="38.8659730"><time>2020-06-27T06:13:14.740</time></trkpt><trkpt lat="55.2869110" lon="38.8659340"><time>2020-06-27T06:13:16.463</time></trkpt><trkpt lat="55.2868600" lon="38.8658840"><time>2020-06-27T06:13:20.753</time></trkpt><trkpt lat="55.2868090" lon="38.8658120"><time>2020-06-27T06:13:23.743</time></trkpt><trkpt lat="55.2867570" lon="38.8657550"><time>2020-06-27T06:13:26.743</time></trkpt><trkpt lat="55.2867150" lon="38.8657240"><time>2020-06-27T06:13:28.497</time></trkpt><trkpt lat="55.2866750" lon="38.8656650"><time>2020-06-27T06:13:30.723</time></trkpt><trkpt lat="55.2866440" lon="38.8655840"><time>2020-06-27T06:13:43.753</time></trkpt><trkpt lat="55.2866530" lon="38.8654850"><time>2020-06-27T06:13:46.733</time></trkpt><trkpt lat="55.2866210" lon="38.8654050"><time>2020-06-27T06:13:49.777</time></trkpt><trkpt lat="55.2865720" lon="38.8653620"><time>2020-06-27T06:13:52.743</time></trkpt><trkpt lat="55.2865940" lon="38.8652740"><time>2020-06-27T06:13:56.733</time></trkpt><trkpt lat="55.2865490" lon="38.8652830"><time>2020-06-27T06:14:04.747</time></trkpt><trkpt lat="55.2864970" lon="38.8653010"><time>2020-06-27T06:14:11.790</time></trkpt><trkpt lat="55.2864460" lon="38.8652860"><time>2020-06-27T06:14:14.727</time></trkpt><trkpt lat="55.2863930" lon="38.8652560"><time>2020-06-27T06:14:17.757</time></trkpt><trkpt lat="55.2863430" lon="38.8652420"><time>2020-06-27T06:14:21.777</time></trkpt><trkpt lat="55.2863020" lon="38.8651540"><time>2020-06-27T06:14:24.507</time></trkpt><trkpt lat="55.2862610" lon="38.8650980"><time>2020-06-27T06:14:26.490</time></trkpt><trkpt lat="55.2862090" lon="38.8650530"><time>2020-06-27T06:14:28.727</time></trkpt><trkpt lat="55.2861550" lon="38.8650310"><time>2020-06-27T06:14:30.760</time></trkpt><trkpt lat="55.2860830" lon="38.8649560"><time>2020-06-27T06:14:32.760</time></trkpt><trkpt lat="55.2860320" lon="38.8648660"><time>2020-06-27T06:14:34.763</time></trkpt><trkpt lat="55.2859810" lon="38.8647800"><time>2020-06-27T06:14:36.757</time></trkpt><trkpt lat="55.2859350" lon="38.8646950"><time>2020-06-27T06:14:38.773</time></trkpt><trkpt lat="55.2859070" lon="38.8646130"><time>2020-06-27T06:14:40.763</time></trkpt><trkpt lat="55.2858660" lon="38.8645660"><time>2020-06-27T06:14:45.783</time></trkpt><trkpt lat="55.2858220" lon="38.8645320"><time>2020-06-27T06:14:48.507</time></trkpt><trkpt lat="55.2857790" lon="38.8644600"><time>2020-06-27T06:14:50.780</time></trkpt><trkpt lat="55.2857480" lon="38.8643870"><time>2020-06-27T06:14:53.787</time></trkpt><trkpt lat="55.2857090" lon="38.8643090"><time>2020-06-27T06:15:05.787</time></trkpt><trkpt lat="55.2857610" lon="38.8642510"><time>2020-06-27T06:15:10.763</time></trkpt><trkpt lat="55.2857860" lon="38.8641680"><time>2020-06-27T06:15:14.770</time></trkpt><trkpt lat="55.2858240" lon="38.8641000"><time>2020-06-27T06:15:17.503</time></trkpt><trkpt lat="55.2858520" lon="38.8640020"><time>2020-06-27T06:15:19.497</time></trkpt><trkpt lat="55.2858010" lon="38.8639480"><time>2020-06-27T06:15:24.767</time></trkpt><trkpt lat="55.2857560" lon="38.8639720"><time>2020-06-27T06:15:29.777</time></trkpt><trkpt lat="55.2857150" lon="38.8640090"><time>2020-06-27T06:15:32.780</time></trkpt><trkpt lat="55.2856850" lon="38.8639390"><time>2020-06-27T06:15:35.783</time></trkpt><trkpt lat="55.2857410" lon="38.8638850"><time>2020-06-27T06:15:40.600</time></trkpt><trkpt lat="55.2857690" lon="38.8638390"><time>2020-06-27T06:15:43.810</time></trkpt><trkpt lat="55.2857690" lon="38.8638230"><time>2020-06-27T06:15:45.480</time></trkpt><trkpt lat="55.2858120" lon="38.8638880"><time>2020-06-27T06:15:50.770</time></trkpt><trkpt lat="55.2858600" lon="38.8639170"><time>2020-06-27T06:15:54.763</time></trkpt><trkpt lat="55.2859100" lon="38.8639060"><time>2020-06-27T06:15:57.773</time></trkpt><trkpt lat="55.2859410" lon="38.8640040"><time>2020-06-27T06:16:04.490</time></trkpt><trkpt lat="55.2859280" lon="38.8640960"><time>2020-06-27T06:16:06.490</time></trkpt><trkpt lat="55.2859530" lon="38.8641640"><time>2020-06-27T06:16:11.500</time></trkpt><trkpt lat="55.2859430" lon="38.8642440"><time>2020-06-27T06:16:14.500</time></trkpt><trkpt lat="55.2859280" lon="38.8643230"><time>2020-06-27T06:16:26.473</time></trkpt><trkpt lat="55.2858760" lon="38.8643840"><time>2020-06-27T06:16:31.497</time></trkpt><trkpt lat="55.2858170" lon="38.8643830"><time>2020-06-27T06:16:33.500</time></trkpt><trkpt lat="55.2857570" lon="38.8643780"><time>2020-06-27T06:16:35.497</time></trkpt><trkpt lat="55.2857080" lon="38.8643860"><time>2020-06-27T06:16:37.507</time></trkpt><trkpt lat="55.2856520" lon="38.8643840"><time>2020-06-27T06:16:40.510</time></trkpt><trkpt lat="55.2855990" lon="38.8643570"><time>2020-06-27T06:16:46.497</time></trkpt><trkpt lat="55.2855410" lon="38.8643370"><time>2020-06-27T06:16:50.503</time></trkpt><trkpt lat="55.2855050" lon="38.8642760"><time>2020-06-27T06:16:52.497</time></trkpt><trkpt lat="55.2854530" lon="38.8642410"><time>2020-06-27T06:16:56.500</time></trkpt><trkpt lat="55.2854110" lon="38.8642010"><time>2020-06-27T06:17:01.500</time></trkpt><trkpt lat="55.2853630" lon="38.8641770"><time>2020-06-27T06:17:06.507</time></trkpt><trkpt lat="55.2853030" lon="38.8641390"><time>2020-06-27T06:17:10.497</time></trkpt><trkpt lat="55.2852710" lon="38.8640550"><time>2020-06-27T06:17:13.497</time></trkpt><trkpt lat="55.2852560" lon="38.8639690"><time>2020-06-27T06:17:17.497</time></trkpt><trkpt lat="55.2852100" lon="38.8639360"><time>2020-06-27T06:17:20.503</time></trkpt><trkpt lat="55.2851610" lon="38.8638950"><time>2020-06-27T06:17:23.487</time></trkpt><trkpt lat="55.2851240" lon="38.8638290"><time>2020-06-27T06:17:27.467</time></trkpt><trkpt lat="55.2850810" lon="38.8637590"><time>2020-06-27T06:17:30.490</time></trkpt><trkpt lat="55.2850470" lon="38.8636740"><time>2020-06-27T06:17:33.507</time></trkpt><trkpt lat="55.2850100" lon="38.8635870"><time>2020-06-27T06:17:36.490</time></trkpt><trkpt lat="55.2849830" lon="38.8635040"><time>2020-06-27T06:17:39.497</time></trkpt><trkpt lat="55.2849600" lon="38.8634260"><time>2020-06-27T06:17:42.490</time></trkpt><trkpt lat="55.2849290" lon="38.8633490"><time>2020-06-27T06:17:45.507</time></trkpt><trkpt lat="55.2848990" lon="38.8632860"><time>2020-06-27T06:17:48.490</time></trkpt><trkpt lat="55.2848760" lon="38.8631810"><time>2020-06-27T06:17:51.510</time></trkpt><trkpt lat="55.2848300" lon="38.8629330"><time>2020-06-27T06:17:53.470</time></trkpt><trkpt lat="55.2847870" lon="38.8627580"><time>2020-06-27T06:17:55.457</time></trkpt><trkpt lat="55.2847390" lon="38.8626660"><time>2020-06-27T06:17:57.473</time></trkpt><trkpt lat="55.2847040" lon="38.8625900"><time>2020-06-27T06:17:59.473</time></trkpt><trkpt lat="55.2846710" lon="38.8625220"><time>2020-06-27T06:18:01.510</time></trkpt><trkpt lat="55.2846370" lon="38.8624560"><time>2020-06-27T06:18:04.500</time></trkpt><trkpt lat="55.2845780" lon="38.8623210"><time>2020-06-27T06:18:06.773</time></trkpt><trkpt lat="55.2845550" lon="38.8622230"><time>2020-06-27T06:18:07.743</time></trkpt><trkpt lat="55.2845190" lon="38.8620950"><time>2020-06-27T06:18:09.740</time></trkpt><trkpt lat="55.2845050" lon="38.8620100"><time>2020-06-27T06:18:10.743</time></trkpt><trkpt lat="55.2844830" lon="38.8619410"><time>2020-06-27T06:18:11.467</time></trkpt><trkpt lat="55.2844500" lon="38.8618760"><time>2020-06-27T06:18:12.760</time></trkpt><trkpt lat="55.2843960" lon="38.8618090"><time>2020-06-27T06:18:14.747</time></trkpt><trkpt lat="55.2843590" lon="38.8617640"><time>2020-06-27T06:18:17.747</time></trkpt><trkpt lat="55.2843130" lon="38.8616880"><time>2020-06-27T06:18:20.750</time></trkpt><trkpt lat="55.2842680" lon="38.8616010"><time>2020-06-27T06:18:23.740</time></trkpt><trkpt lat="55.2842370" lon="38.8615260"><time>2020-06-27T06:18:25.747</time></trkpt><trkpt lat="55.2842070" lon="38.8614430"><time>2020-06-27T06:18:27.473</time></trkpt><trkpt lat="55.2841620" lon="38.8613550"><time>2020-06-27T06:18:29.467</time></trkpt><trkpt lat="55.2841010" lon="38.8612890"><time>2020-06-27T06:18:31.750</time></trkpt><trkpt lat="55.2840590" lon="38.8612020"><time>2020-06-27T06:18:33.760</time></trkpt><trkpt lat="55.2840390" lon="38.8610670"><time>2020-06-27T06:18:35.750</time></trkpt><trkpt lat="55.2840030" lon="38.8609490"><time>2020-06-27T06:18:37.783</time></trkpt><trkpt lat="55.2839430" lon="38.8608340"><time>2020-06-27T06:18:39.730</time></trkpt><trkpt lat="55.2839100" lon="38.8607650"><time>2020-06-27T06:18:40.733</time></trkpt><trkpt lat="55.2838780" lon="38.8606930"><time>2020-06-27T06:18:41.793</time></trkpt><trkpt lat="55.2838440" lon="38.8606200"><time>2020-06-27T06:18:42.737</time></trkpt><trkpt lat="55.2838150" lon="38.8605500"><time>2020-06-27T06:18:43.733</time></trkpt><trkpt lat="55.2837870" lon="38.8604880"><time>2020-06-27T06:18:44.740</time></trkpt><trkpt lat="55.2837420" lon="38.8603540"><time>2020-06-27T06:18:46.757</time></trkpt><trkpt lat="55.2837280" lon="38.8602740"><time>2020-06-27T06:18:47.720</time></trkpt><trkpt lat="55.2837020" lon="38.8602030"><time>2020-06-27T06:18:48.733</time></trkpt><trkpt lat="55.2836520" lon="38.8601160"><time>2020-06-27T06:18:50.783</time></trkpt><trkpt lat="55.2836100" lon="38.8600610"><time>2020-06-27T06:18:52.787</time></trkpt><trkpt lat="55.2835130" lon="38.8599180"><time>2020-06-27T06:18:55.737</time></trkpt><trkpt lat="55.2835340" lon="38.8597590"><time>2020-06-27T06:18:56.730</time></trkpt><trkpt lat="55.2835340" lon="38.8596510"><time>2020-06-27T06:18:58.707</time></trkpt><trkpt lat="55.2835140" lon="38.8595450"><time>2020-06-27T06:19:00.713</time></trkpt><trkpt lat="55.2834670" lon="38.8594410"><time>2020-06-27T06:19:02.703</time></trkpt><trkpt lat="55.2834660" lon="38.8593350"><time>2020-06-27T06:19:04.717</time></trkpt><trkpt lat="55.2834710" lon="38.8592210"><time>2020-06-27T06:19:06.740</time></trkpt><trkpt lat="55.2834970" lon="38.8591390"><time>2020-06-27T06:19:08.703</time></trkpt><trkpt lat="55.2835080" lon="38.8590340"><time>2020-06-27T06:19:11.760</time></trkpt><trkpt lat="55.2835180" lon="38.8589500"><time>2020-06-27T06:19:13.780</time></trkpt><trkpt lat="55.2835100" lon="38.8588620"><time>2020-06-27T06:19:15.740</time></trkpt><trkpt lat="55.2834750" lon="38.8587590"><time>2020-06-27T06:19:17.500</time></trkpt><trkpt lat="55.2834820" lon="38.8586360"><time>2020-06-27T06:19:19.770</time></trkpt><trkpt lat="55.2834850" lon="38.8585190"><time>2020-06-27T06:19:21.737</time></trkpt><trkpt lat="55.2834880" lon="38.8584040"><time>2020-06-27T06:19:23.573</time></trkpt><trkpt lat="55.2834930" lon="38.8583080"><time>2020-06-27T06:19:25.760</time></trkpt><trkpt lat="55.2835110" lon="38.8581860"><time>2020-06-27T06:19:27.723</time></trkpt><trkpt lat="55.2835320" lon="38.8580720"><time>2020-06-27T06:19:29.730</time></trkpt><trkpt lat="55.2835460" lon="38.8579820"><time>2020-06-27T06:19:31.497</time></trkpt><trkpt lat="55.2835480" lon="38.8578650"><time>2020-06-27T06:19:33.500</time></trkpt><trkpt lat="55.2835320" lon="38.8577590"><time>2020-06-27T06:19:35.727</time></trkpt><trkpt lat="55.2835360" lon="38.8576760"><time>2020-06-27T06:19:37.753</time></trkpt><trkpt lat="55.2835510" lon="38.8575620"><time>2020-06-27T06:19:40.740</time></trkpt><trkpt lat="55.2835710" lon="38.8574580"><time>2020-06-27T06:19:43.487</time></trkpt><trkpt lat="55.2835840" lon="38.8573520"><time>2020-06-27T06:19:46.493</time></trkpt><trkpt lat="55.2835860" lon="38.8572660"><time>2020-06-27T06:19:48.707</time></trkpt><trkpt lat="55.2836030" lon="38.8571680"><time>2020-06-27T06:19:50.777</time></trkpt><trkpt lat="55.2836000" lon="38.8570670"><time>2020-06-27T06:19:52.747</time></trkpt><trkpt lat="55.2835980" lon="38.8569780"><time>2020-06-27T06:19:54.743</time></trkpt><trkpt lat="55.2835910" lon="38.8568730"><time>2020-06-27T06:19:57.743</time></trkpt><trkpt lat="55.2836040" lon="38.8567660"><time>2020-06-27T06:20:00.763</time></trkpt><trkpt lat="55.2836120" lon="38.8566620"><time>2020-06-27T06:20:03.733</time></trkpt><trkpt lat="55.2836380" lon="38.8565590"><time>2020-06-27T06:20:06.757</time></trkpt><trkpt lat="55.2836510" lon="38.8564760"><time>2020-06-27T06:20:08.723</time></trkpt><trkpt lat="55.2836460" lon="38.8563890"><time>2020-06-27T06:20:10.777</time></trkpt><trkpt lat="55.2836440" lon="38.8563000"><time>2020-06-27T06:20:12.723</time></trkpt><trkpt lat="55.2836540" lon="38.8562150"><time>2020-06-27T06:20:14.723</time></trkpt><trkpt lat="55.2836690" lon="38.8561300"><time>2020-06-27T06:20:16.743</time></trkpt><trkpt lat="55.2836850" lon="38.8560420"><time>2020-06-27T06:20:18.777</time></trkpt><trkpt lat="55.2837220" lon="38.8559970"><time>2020-06-27T06:20:19.740</time></trkpt><trkpt lat="55.2837720" lon="38.8559460"><time>2020-06-27T06:20:21.753</time></trkpt><trkpt lat="55.2837250" lon="38.8559550"><time>2020-06-27T06:20:27.740</time></trkpt><trkpt lat="55.2836820" lon="38.8558840"><time>2020-06-27T06:20:30.700</time></trkpt><trkpt lat="55.2836600" lon="38.8558130"><time>2020-06-27T06:20:33.743</time></trkpt><trkpt lat="55.2836710" lon="38.8557020"><time>2020-06-27T06:20:37.727</time></trkpt><trkpt lat="55.2836930" lon="38.8556330"><time>2020-06-27T06:20:39.733</time></trkpt><trkpt lat="55.2837010" lon="38.8555280"><time>2020-06-27T06:20:41.723</time></trkpt><trkpt lat="55.2837040" lon="38.8554140"><time>2020-06-27T06:20:43.757</time></trkpt><trkpt lat="55.2836890" lon="38.8553250"><time>2020-06-27T06:20:45.737</time></trkpt><trkpt lat="55.2836730" lon="38.8552480"><time>2020-06-27T06:20:47.737</time></trkpt><trkpt lat="55.2836730" lon="38.8551490"><time>2020-06-27T06:20:49.717</time></trkpt><trkpt lat="55.2836990" lon="38.8550510"><time>2020-06-27T06:20:51.777</time></trkpt><trkpt lat="55.2837310" lon="38.8549600"><time>2020-06-27T06:20:53.760</time></trkpt><trkpt lat="55.2837460" lon="38.8548560"><time>2020-06-27T06:20:55.767</time></trkpt><trkpt lat="55.2837420" lon="38.8547450"><time>2020-06-27T06:20:57.727</time></trkpt><trkpt lat="55.2837560" lon="38.8546410"><time>2020-06-27T06:20:59.747</time></trkpt><trkpt lat="55.2837780" lon="38.8545560"><time>2020-06-27T06:21:01.740</time></trkpt><trkpt lat="55.2837970" lon="38.8544830"><time>2020-06-27T06:21:03.747</time></trkpt><trkpt lat="55.2837700" lon="38.8543940"><time>2020-06-27T06:21:06.793</time></trkpt><trkpt lat="55.2837680" lon="38.8542930"><time>2020-06-27T06:21:09.737</time></trkpt><trkpt lat="55.2837600" lon="38.8542090"><time>2020-06-27T06:21:11.477</time></trkpt><trkpt lat="55.2837630" lon="38.8541270"><time>2020-06-27T06:21:13.770</time></trkpt><trkpt lat="55.2837670" lon="38.8540080"><time>2020-06-27T06:21:16.733</time></trkpt><trkpt lat="55.2837740" lon="38.8539260"><time>2020-06-27T06:21:18.480</time></trkpt><trkpt lat="55.2837260" lon="38.8538880"><time>2020-06-27T06:21:26.773</time></trkpt><trkpt lat="55.2836350" lon="38.8538220"><time>2020-06-27T06:21:28.720</time></trkpt><trkpt lat="55.2835880" lon="38.8537480"><time>2020-06-27T06:21:30.697</time></trkpt><trkpt lat="55.2835420" lon="38.8536580"><time>2020-06-27T06:21:32.693</time></trkpt><trkpt lat="55.2834860" lon="38.8535890"><time>2020-06-27T06:21:34.757</time></trkpt><trkpt lat="55.2834430" lon="38.8535080"><time>2020-06-27T06:21:36.460</time></trkpt><trkpt lat="55.2833760" lon="38.8534500"><time>2020-06-27T06:21:38.700</time></trkpt><trkpt lat="55.2833130" lon="38.8533660"><time>2020-06-27T06:21:40.707</time></trkpt><trkpt lat="55.2832560" lon="38.8532700"><time>2020-06-27T06:21:42.753</time></trkpt><trkpt lat="55.2832150" lon="38.8531970"><time>2020-06-27T06:21:44.717</time></trkpt><trkpt lat="55.2831620" lon="38.8531280"><time>2020-06-27T06:21:46.470</time></trkpt><trkpt lat="55.2831040" lon="38.8530560"><time>2020-06-27T06:21:48.467</time></trkpt><trkpt lat="55.2830560" lon="38.8529920"><time>2020-06-27T06:21:50.717</time></trkpt><trkpt lat="55.2829990" lon="38.8529250"><time>2020-06-27T06:21:53.493</time></trkpt><trkpt lat="55.2829400" lon="38.8528670"><time>2020-06-27T06:21:55.703</time></trkpt><trkpt lat="55.2828800" lon="38.8528110"><time>2020-06-27T06:21:57.717</time></trkpt><trkpt lat="55.2828170" lon="38.8527530"><time>2020-06-27T06:21:59.697</time></trkpt><trkpt lat="55.2827520" lon="38.8527020"><time>2020-06-27T06:22:02.723</time></trkpt><trkpt lat="55.2827130" lon="38.8526590"><time>2020-06-27T06:22:04.737</time></trkpt><trkpt lat="55.2826670" lon="38.8526000"><time>2020-06-27T06:22:06.757</time></trkpt><trkpt lat="55.2826110" lon="38.8525380"><time>2020-06-27T06:22:08.510</time></trkpt><trkpt lat="55.2825410" lon="38.8524750"><time>2020-06-27T06:22:10.710</time></trkpt><trkpt lat="55.2825000" lon="38.8524390"><time>2020-06-27T06:22:11.743</time></trkpt><trkpt lat="55.2824340" lon="38.8523730"><time>2020-06-27T06:22:13.747</time></trkpt><trkpt lat="55.2823620" lon="38.8523030"><time>2020-06-27T06:22:15.707</time></trkpt><trkpt lat="55.2822940" lon="38.8522450"><time>2020-06-27T06:22:17.730</time></trkpt><trkpt lat="55.2822300" lon="38.8521990"><time>2020-06-27T06:22:19.720</time></trkpt><trkpt lat="55.2821600" lon="38.8520820"><time>2020-06-27T06:22:20.703</time></trkpt><trkpt lat="55.2821070" lon="38.8520020"><time>2020-06-27T06:22:22.707</time></trkpt><trkpt lat="55.2820490" lon="38.8519740"><time>2020-06-27T06:22:24.710</time></trkpt><trkpt lat="55.2819930" lon="38.8519390"><time>2020-06-27T06:22:26.740</time></trkpt><trkpt lat="55.2819200" lon="38.8519070"><time>2020-06-27T06:22:28.467</time></trkpt><trkpt lat="55.2818500" lon="38.8518130"><time>2020-06-27T06:22:30.707</time></trkpt><trkpt lat="55.2817880" lon="38.8517230"><time>2020-06-27T06:22:32.707</time></trkpt><trkpt lat="55.2817280" lon="38.8516560"><time>2020-06-27T06:22:33.727</time></trkpt><trkpt lat="55.2816540" lon="38.8516110"><time>2020-06-27T06:22:35.470</time></trkpt><trkpt lat="55.2815870" lon="38.8515540"><time>2020-06-27T06:22:37.703</time></trkpt><trkpt lat="55.2815220" lon="38.8515080"><time>2020-06-27T06:22:39.733</time></trkpt><trkpt lat="55.2814760" lon="38.8514700"><time>2020-06-27T06:22:41.737</time></trkpt><trkpt lat="55.2814340" lon="38.8514050"><time>2020-06-27T06:22:44.737</time></trkpt><trkpt lat="55.2813750" lon="38.8513440"><time>2020-06-27T06:22:46.750</time></trkpt><trkpt lat="55.2813260" lon="38.8512830"><time>2020-06-27T06:22:48.733</time></trkpt><trkpt lat="55.2812780" lon="38.8512370"><time>2020-06-27T06:22:50.743</time></trkpt><trkpt lat="55.2812270" lon="38.8512070"><time>2020-06-27T06:22:52.727</time></trkpt><trkpt lat="55.2811810" lon="38.8511470"><time>2020-06-27T06:22:54.770</time></trkpt><trkpt lat="55.2811250" lon="38.8510930"><time>2020-06-27T06:22:56.717</time></trkpt><trkpt lat="55.2810760" lon="38.8510520"><time>2020-06-27T06:22:58.807</time></trkpt><trkpt lat="55.2810150" lon="38.8510000"><time>2020-06-27T06:23:00.490</time></trkpt><trkpt lat="55.2809510" lon="38.8509380"><time>2020-06-27T06:23:02.717</time></trkpt><trkpt lat="55.2808980" lon="38.8508740"><time>2020-06-27T06:23:04.747</time></trkpt><trkpt lat="55.2808510" lon="38.8508140"><time>2020-06-27T06:23:06.487</time></trkpt><trkpt lat="55.2807950" lon="38.8507590"><time>2020-06-27T06:23:08.750</time></trkpt><trkpt lat="55.2807550" lon="38.8506630"><time>2020-06-27T06:23:10.767</time></trkpt><trkpt lat="55.2807290" lon="38.8505390"><time>2020-06-27T06:23:12.747</time></trkpt><trkpt lat="55.2807030" lon="38.8504350"><time>2020-06-27T06:23:14.720</time></trkpt><trkpt lat="55.2806830" lon="38.8503230"><time>2020-06-27T06:23:15.717</time></trkpt><trkpt lat="55.2806540" lon="38.8502020"><time>2020-06-27T06:23:17.693</time></trkpt><trkpt lat="55.2806210" lon="38.8500730"><time>2020-06-27T06:23:19.683</time></trkpt><trkpt lat="55.2805940" lon="38.8500050"><time>2020-06-27T06:23:20.703</time></trkpt><trkpt lat="55.2805750" lon="38.8499330"><time>2020-06-27T06:23:21.737</time></trkpt><trkpt lat="55.2805490" lon="38.8498590"><time>2020-06-27T06:23:23.747</time></trkpt><trkpt lat="55.2805150" lon="38.8497780"><time>2020-06-27T06:23:25.730</time></trkpt><trkpt lat="55.2804780" lon="38.8496760"><time>2020-06-27T06:23:27.750</time></trkpt><trkpt lat="55.2804430" lon="38.8495890"><time>2020-06-27T06:23:28.720</time></trkpt><trkpt lat="55.2803840" lon="38.8494680"><time>2020-06-27T06:23:29.720</time></trkpt><trkpt lat="55.2803410" lon="38.8493690"><time>2020-06-27T06:23:30.710</time></trkpt><trkpt lat="55.2803130" lon="38.8493080"><time>2020-06-27T06:23:31.697</time></trkpt><trkpt lat="55.2802810" lon="38.8492350"><time>2020-06-27T06:23:32.723</time></trkpt><trkpt lat="55.2802550" lon="38.8491540"><time>2020-06-27T06:23:33.707</time></trkpt><trkpt lat="55.2802060" lon="38.8490140"><time>2020-06-27T06:23:35.730</time></trkpt><trkpt lat="55.2801820" lon="38.8489360"><time>2020-06-27T06:23:36.700</time></trkpt><trkpt lat="55.2801590" lon="38.8488600"><time>2020-06-27T06:23:37.463</time></trkpt><trkpt lat="55.2801310" lon="38.8487900"><time>2020-06-27T06:23:38.460</time></trkpt><trkpt lat="55.2801150" lon="38.8486940"><time>2020-06-27T06:23:39.730</time></trkpt><trkpt lat="55.2800940" lon="38.8486080"><time>2020-06-27T06:23:40.723</time></trkpt><trkpt lat="55.2800640" lon="38.8485280"><time>2020-06-27T06:23:41.697</time></trkpt><trkpt lat="55.2800430" lon="38.8484500"><time>2020-06-27T06:23:42.717</time></trkpt><trkpt lat="55.2800100" lon="38.8483580"><time>2020-06-27T06:23:43.703</time></trkpt><trkpt lat="55.2799840" lon="38.8482890"><time>2020-06-27T06:23:44.700</time></trkpt><trkpt lat="55.2799590" lon="38.8481900"><time>2020-06-27T06:23:45.747</time></trkpt><trkpt lat="55.2799350" lon="38.8481030"><time>2020-06-27T06:23:46.747</time></trkpt><trkpt lat="55.2799150" lon="38.8480210"><time>2020-06-27T06:23:47.697</time></trkpt><trkpt lat="55.2798950" lon="38.8479480"><time>2020-06-27T06:23:48.693</time></trkpt><trkpt lat="55.2798770" lon="38.8478690"><time>2020-06-27T06:23:49.697</time></trkpt><trkpt lat="55.2798590" lon="38.8477970"><time>2020-06-27T06:23:50.690</time></trkpt><trkpt lat="55.2798410" lon="38.8477130"><time>2020-06-27T06:23:51.707</time></trkpt><trkpt lat="55.2798240" lon="38.8476310"><time>2020-06-27T06:23:52.697</time></trkpt><trkpt lat="55.2798030" lon="38.8475570"><time>2020-06-27T06:23:53.693</time></trkpt><trkpt lat="55.2797820" lon="38.8474860"><time>2020-06-27T06:23:54.710</time></trkpt><trkpt lat="55.2797390" lon="38.8473680"><time>2020-06-27T06:23:56.723</time></trkpt><trkpt lat="55.2797030" lon="38.8472670"><time>2020-06-27T06:23:58.717</time></trkpt><trkpt lat="55.2796840" lon="38.8471790"><time>2020-06-27T06:24:00.707</time></trkpt><trkpt lat="55.2796550" lon="38.8470920"><time>2020-06-27T06:24:02.710</time></trkpt><trkpt lat="55.2796330" lon="38.8469990"><time>2020-06-27T06:24:05.790</time></trkpt><trkpt lat="55.2796070" lon="38.8468950"><time>2020-06-27T06:24:07.730</time></trkpt><trkpt lat="55.2795840" lon="38.8467940"><time>2020-06-27T06:24:09.730</time></trkpt><trkpt lat="55.2795600" lon="38.8466980"><time>2020-06-27T06:24:11.730</time></trkpt><trkpt lat="55.2795450" lon="38.8465970"><time>2020-06-27T06:24:13.733</time></trkpt><trkpt lat="55.2795210" lon="38.8464930"><time>2020-06-27T06:24:16.750</time></trkpt><trkpt lat="55.2795030" lon="38.8463830"><time>2020-06-27T06:24:18.503</time></trkpt><trkpt lat="55.2794800" lon="38.8462780"><time>2020-06-27T06:24:20.750</time></trkpt><trkpt lat="55.2794480" lon="38.8461930"><time>2020-06-27T06:24:22.733</time></trkpt><trkpt lat="55.2794470" lon="38.8460900"><time>2020-06-27T06:24:24.737</time></trkpt><trkpt lat="55.2794720" lon="38.8459860"><time>2020-06-27T06:24:26.773</time></trkpt><trkpt lat="55.2795170" lon="38.8459800"><time>2020-06-27T06:24:31.713</time></trkpt><trkpt lat="55.2795190" lon="38.8460730"><time>2020-06-27T06:24:34.630</time></trkpt><trkpt lat="55.2795220" lon="38.8461620"><time>2020-06-27T06:24:37.713</time></trkpt><trkpt lat="55.2795330" lon="38.8462550"><time>2020-06-27T06:24:40.753</time></trkpt><trkpt lat="55.2795410" lon="38.8463420"><time>2020-06-27T06:24:43.477</time></trkpt><trkpt lat="55.2794920" lon="38.8462860"><time>2020-06-27T06:24:48.717</time></trkpt><trkpt lat="55.2794810" lon="38.8461610"><time>2020-06-27T06:24:50.727</time></trkpt><trkpt lat="55.2794900" lon="38.8460190"><time>2020-06-27T06:24:52.750</time></trkpt><trkpt lat="55.2794920" lon="38.8459060"><time>2020-06-27T06:24:54.700</time></trkpt><trkpt lat="55.2794940" lon="38.8457710"><time>2020-06-27T06:24:56.700</time></trkpt><trkpt lat="55.2795050" lon="38.8456500"><time>2020-06-27T06:24:58.703</time></trkpt><trkpt lat="55.2795230" lon="38.8455540"><time>2020-06-27T06:25:00.713</time></trkpt><trkpt lat="55.2795470" lon="38.8454430"><time>2020-06-27T06:25:02.717</time></trkpt><trkpt lat="55.2795580" lon="38.8453360"><time>2020-06-27T06:25:03.747</time></trkpt><trkpt lat="55.2795840" lon="38.8452040"><time>2020-06-27T06:25:05.697</time></trkpt><trkpt lat="55.2796180" lon="38.8450060"><time>2020-06-27T06:25:07.753</time></trkpt><trkpt lat="55.2796340" lon="38.8449280"><time>2020-06-27T06:25:08.690</time></trkpt><trkpt lat="55.2796290" lon="38.8448180"><time>2020-06-27T06:25:10.703</time></trkpt><trkpt lat="55.2796280" lon="38.8446960"><time>2020-06-27T06:25:12.700</time></trkpt><trkpt lat="55.2796400" lon="38.8445560"><time>2020-06-27T06:25:14.743</time></trkpt><trkpt lat="55.2796260" lon="38.8444390"><time>2020-06-27T06:25:16.720</time></trkpt><trkpt lat="55.2796220" lon="38.8443500"><time>2020-06-27T06:25:19.733</time></trkpt><trkpt lat="55.2796130" lon="38.8441380"><time>2020-06-27T06:25:21.690</time></trkpt><trkpt lat="55.2796170" lon="38.8439990"><time>2020-06-27T06:25:23.710</time></trkpt><trkpt lat="55.2796180" lon="38.8438670"><time>2020-06-27T06:25:25.710</time></trkpt><trkpt lat="55.2796070" lon="38.8437320"><time>2020-06-27T06:25:27.697</time></trkpt><trkpt lat="55.2795940" lon="38.8436160"><time>2020-06-27T06:25:29.770</time></trkpt><trkpt lat="55.2796010" lon="38.8434900"><time>2020-06-27T06:25:31.733</time></trkpt><trkpt lat="55.2796170" lon="38.8433540"><time>2020-06-27T06:25:33.730</time></trkpt><trkpt lat="55.2796350" lon="38.8432220"><time>2020-06-27T06:25:35.487</time></trkpt><trkpt lat="55.2796640" lon="38.8431100"><time>2020-06-27T06:25:37.717</time></trkpt><trkpt lat="55.2796800" lon="38.8429760"><time>2020-06-27T06:25:39.720</time></trkpt><trkpt lat="55.2796710" lon="38.8428910"><time>2020-06-27T06:25:40.700</time></trkpt><trkpt lat="55.2796750" lon="38.8427870"><time>2020-06-27T06:25:42.707</time></trkpt><trkpt lat="55.2796600" lon="38.8425790"><time>2020-06-27T06:25:45.740</time></trkpt><trkpt lat="55.2796690" lon="38.8424500"><time>2020-06-27T06:25:47.453</time></trkpt><trkpt lat="55.2796590" lon="38.8423720"><time>2020-06-27T06:25:48.747</time></trkpt><trkpt lat="55.2796790" lon="38.8422260"><time>2020-06-27T06:25:50.693</time></trkpt><trkpt lat="55.2796930" lon="38.8421480"><time>2020-06-27T06:25:51.703</time></trkpt><trkpt lat="55.2797020" lon="38.8420650"><time>2020-06-27T06:25:52.717</time></trkpt><trkpt lat="55.2797050" lon="38.8419750"><time>2020-06-27T06:25:53.737</time></trkpt><trkpt lat="55.2797120" lon="38.8418210"><time>2020-06-27T06:25:55.753</time></trkpt><trkpt lat="55.2797030" lon="38.8416730"><time>2020-06-27T06:25:57.703</time></trkpt><trkpt lat="55.2797080" lon="38.8415290"><time>2020-06-27T06:25:59.697</time></trkpt><trkpt lat="55.2797140" lon="38.8414030"><time>2020-06-27T06:26:01.697</time></trkpt><trkpt lat="55.2797250" lon="38.8412630"><time>2020-06-27T06:26:03.700</time></trkpt><trkpt lat="55.2797470" lon="38.8411890"><time>2020-06-27T06:26:04.723</time></trkpt><trkpt lat="55.2797400" lon="38.8410980"><time>2020-06-27T06:26:06.720</time></trkpt><trkpt lat="55.2797450" lon="38.8410120"><time>2020-06-27T06:26:08.807</time></trkpt><trkpt lat="55.2797520" lon="38.8408680"><time>2020-06-27T06:26:10.520</time></trkpt><trkpt lat="55.2797480" lon="38.8407770"><time>2020-06-27T06:26:11.497</time></trkpt><trkpt lat="55.2797360" lon="38.8406990"><time>2020-06-27T06:26:12.497</time></trkpt><trkpt lat="55.2797570" lon="38.8406190"><time>2020-06-27T06:26:13.507</time></trkpt><trkpt lat="55.2797590" lon="38.8404750"><time>2020-06-27T06:26:15.517</time></trkpt><trkpt lat="55.2797560" lon="38.8403020"><time>2020-06-27T06:26:17.513</time></trkpt><trkpt lat="55.2797530" lon="38.8401650"><time>2020-06-27T06:26:19.503</time></trkpt><trkpt lat="55.2797600" lon="38.8400850"><time>2020-06-27T06:26:20.500</time></trkpt><trkpt lat="55.2797370" lon="38.8399940"><time>2020-06-27T06:26:21.493</time></trkpt><trkpt lat="55.2797280" lon="38.8398550"><time>2020-06-27T06:26:23.457</time></trkpt><trkpt lat="55.2797340" lon="38.8397130"><time>2020-06-27T06:26:25.463</time></trkpt><trkpt lat="55.2797360" lon="38.8395840"><time>2020-06-27T06:26:27.460</time></trkpt><trkpt lat="55.2797400" lon="38.8394470"><time>2020-06-27T06:26:29.460</time></trkpt><trkpt lat="55.2797530" lon="38.8393140"><time>2020-06-27T06:26:31.477</time></trkpt><trkpt lat="55.2797570" lon="38.8391880"><time>2020-06-27T06:26:33.473</time></trkpt><trkpt lat="55.2797590" lon="38.8390600"><time>2020-06-27T06:26:35.487</time></trkpt><trkpt lat="55.2797550" lon="38.8389580"><time>2020-06-27T06:26:37.470</time></trkpt><trkpt lat="55.2797440" lon="38.8388680"><time>2020-06-27T06:26:39.470</time></trkpt><trkpt lat="55.2797200" lon="38.8387770"><time>2020-06-27T06:26:41.460</time></trkpt><trkpt lat="55.2796860" lon="38.8385820"><time>2020-06-27T06:26:45.483</time></trkpt><trkpt lat="55.2796710" lon="38.8385080"><time>2020-06-27T06:26:46.450</time></trkpt><trkpt lat="55.2796440" lon="38.8383670"><time>2020-06-27T06:26:48.463</time></trkpt><trkpt lat="55.2796060" lon="38.8382500"><time>2020-06-27T06:26:50.467</time></trkpt><trkpt lat="55.2795840" lon="38.8381300"><time>2020-06-27T06:26:52.467</time></trkpt><trkpt lat="55.2795520" lon="38.8380020"><time>2020-06-27T06:26:54.470</time></trkpt><trkpt lat="55.2795050" lon="38.8378580"><time>2020-06-27T06:26:57.520</time></trkpt><trkpt lat="55.2794740" lon="38.8377440"><time>2020-06-27T06:26:59.487</time></trkpt><trkpt lat="55.2794320" lon="38.8376240"><time>2020-06-27T06:27:01.477</time></trkpt><trkpt lat="55.2793910" lon="38.8374790"><time>2020-06-27T06:27:03.460</time></trkpt><trkpt lat="55.2793670" lon="38.8373790"><time>2020-06-27T06:27:05.453</time></trkpt><trkpt lat="55.2793300" lon="38.8372790"><time>2020-06-27T06:27:07.470</time></trkpt><trkpt lat="55.2793030" lon="38.8371600"><time>2020-06-27T06:27:09.470</time></trkpt><trkpt lat="55.2792670" lon="38.8370350"><time>2020-06-27T06:27:11.467</time></trkpt><trkpt lat="55.2792320" lon="38.8369280"><time>2020-06-27T06:27:13.467</time></trkpt><trkpt lat="55.2791870" lon="38.8367890"><time>2020-06-27T06:27:16.513</time></trkpt><trkpt lat="55.2791400" lon="38.8366790"><time>2020-06-27T06:27:18.527</time></trkpt><trkpt lat="55.2791040" lon="38.8365630"><time>2020-06-27T06:27:20.477</time></trkpt><trkpt lat="55.2790880" lon="38.8364520"><time>2020-06-27T06:27:21.467</time></trkpt><trkpt lat="55.2790750" lon="38.8363480"><time>2020-06-27T06:27:23.453</time></trkpt><trkpt lat="55.2790750" lon="38.8362470"><time>2020-06-27T06:27:25.700</time></trkpt><trkpt lat="55.2790900" lon="38.8361440"><time>2020-06-27T06:27:27.693</time></trkpt><trkpt lat="55.2791120" lon="38.8360520"><time>2020-06-27T06:27:30.790</time></trkpt><trkpt lat="55.2791490" lon="38.8359850"><time>2020-06-27T06:27:32.503</time></trkpt><trkpt lat="55.2792120" lon="38.8358050"><time>2020-06-27T06:27:35.720</time></trkpt><trkpt lat="55.2792280" lon="38.8356740"><time>2020-06-27T06:27:36.700</time></trkpt><trkpt lat="55.2792630" lon="38.8355690"><time>2020-06-27T06:27:38.690</time></trkpt><trkpt lat="55.2793050" lon="38.8354940"><time>2020-06-27T06:27:40.697</time></trkpt><trkpt lat="55.2793500" lon="38.8354040"><time>2020-06-27T06:27:42.687</time></trkpt><trkpt lat="55.2793940" lon="38.8353110"><time>2020-06-27T06:27:44.693</time></trkpt><trkpt lat="55.2794440" lon="38.8352370"><time>2020-06-27T06:27:46.740</time></trkpt><trkpt lat="55.2794880" lon="38.8351660"><time>2020-06-27T06:27:48.693</time></trkpt><trkpt lat="55.2795430" lon="38.8351000"><time>2020-06-27T06:27:50.487</time></trkpt><trkpt lat="55.2796070" lon="38.8350320"><time>2020-06-27T06:27:52.463</time></trkpt><trkpt lat="55.2796800" lon="38.8349420"><time>2020-06-27T06:27:54.697</time></trkpt><trkpt lat="55.2797210" lon="38.8348220"><time>2020-06-27T06:27:56.720</time></trkpt><trkpt lat="55.2797420" lon="38.8347100"><time>2020-06-27T06:27:58.697</time></trkpt><trkpt lat="55.2797290" lon="38.8346110"><time>2020-06-27T06:28:00.460</time></trkpt><trkpt lat="55.2797010" lon="38.8345090"><time>2020-06-27T06:28:02.733</time></trkpt><trkpt lat="55.2796840" lon="38.8344080"><time>2020-06-27T06:28:04.707</time></trkpt><trkpt lat="55.2796650" lon="38.8343110"><time>2020-06-27T06:28:06.700</time></trkpt><trkpt lat="55.2796490" lon="38.8342030"><time>2020-06-27T06:28:08.747</time></trkpt><trkpt lat="55.2796360" lon="38.8341260"><time>2020-06-27T06:28:10.780</time></trkpt><trkpt lat="55.2796180" lon="38.8340430"><time>2020-06-27T06:28:12.727</time></trkpt><trkpt lat="55.2795740" lon="38.8338880"><time>2020-06-27T06:28:14.710</time></trkpt><trkpt lat="55.2795380" lon="38.8337670"><time>2020-06-27T06:28:16.683</time></trkpt><trkpt lat="55.2795010" lon="38.8336610"><time>2020-06-27T06:28:18.707</time></trkpt><trkpt lat="55.2794660" lon="38.8335820"><time>2020-06-27T06:28:20.693</time></trkpt><trkpt lat="55.2794300" lon="38.8334850"><time>2020-06-27T06:28:22.697</time></trkpt><trkpt lat="55.2793990" lon="38.8333630"><time>2020-06-27T06:28:24.710</time></trkpt><trkpt lat="55.2793680" lon="38.8332710"><time>2020-06-27T06:28:26.717</time></trkpt><trkpt lat="55.2793530" lon="38.8331680"><time>2020-06-27T06:28:28.720</time></trkpt><trkpt lat="55.2793220" lon="38.8330910"><time>2020-06-27T06:28:30.697</time></trkpt><trkpt lat="55.2792870" lon="38.8330040"><time>2020-06-27T06:28:33.743</time></trkpt><trkpt lat="55.2792440" lon="38.8329570"><time>2020-06-27T06:28:38.750</time></trkpt><trkpt lat="55.2792130" lon="38.8328610"><time>2020-06-27T06:28:41.693</time></trkpt><trkpt lat="55.2791950" lon="38.8327890"><time>2020-06-27T06:28:43.720</time></trkpt><trkpt lat="55.2791890" lon="38.8327070"><time>2020-06-27T06:28:45.753</time></trkpt><trkpt lat="55.2791760" lon="38.8326110"><time>2020-06-27T06:28:49.753</time></trkpt><trkpt lat="55.2791610" lon="38.8325300"><time>2020-06-27T06:28:52.727</time></trkpt><trkpt lat="55.2791420" lon="38.8324480"><time>2020-06-27T06:28:55.717</time></trkpt><trkpt lat="55.2791390" lon="38.8323420"><time>2020-06-27T06:28:58.777</time></trkpt><trkpt lat="55.2791790" lon="38.8322890"><time>2020-06-27T06:29:07.480</time></trkpt><trkpt lat="55.2791980" lon="38.8322000"><time>2020-06-27T06:29:10.733</time></trkpt><trkpt lat="55.2791780" lon="38.8321070"><time>2020-06-27T06:29:14.490</time></trkpt><trkpt lat="55.2791800" lon="38.8320110"><time>2020-06-27T06:29:17.760</time></trkpt><trkpt lat="55.2791470" lon="38.8319510"><time>2020-06-27T06:29:22.797</time></trkpt><trkpt lat="55.2791000" lon="38.8318820"><time>2020-06-27T06:29:26.497</time></trkpt><trkpt lat="55.2790460" lon="38.8318430"><time>2020-06-27T06:29:31.753</time></trkpt><trkpt lat="55.2790120" lon="38.8317800"><time>2020-06-27T06:29:33.750</time></trkpt><trkpt lat="55.2789860" lon="38.8317090"><time>2020-06-27T06:29:35.717</time></trkpt><trkpt lat="55.2789550" lon="38.8316440"><time>2020-06-27T06:29:37.747</time></trkpt><trkpt lat="55.2789240" lon="38.8315790"><time>2020-06-27T06:29:39.730</time></trkpt><trkpt lat="55.2789020" lon="38.8315020"><time>2020-06-27T06:29:41.507</time></trkpt><trkpt lat="55.2788770" lon="38.8314040"><time>2020-06-27T06:29:44.473</time></trkpt><trkpt lat="55.2788520" lon="38.8313270"><time>2020-06-27T06:29:46.783</time></trkpt><trkpt lat="55.2788270" lon="38.8312440"><time>2020-06-27T06:29:48.497</time></trkpt><trkpt lat="55.2788100" lon="38.8311510"><time>2020-06-27T06:29:50.740</time></trkpt><trkpt lat="55.2788080" lon="38.8310560"><time>2020-06-27T06:29:52.737</time></trkpt><trkpt lat="55.2788070" lon="38.8309470"><time>2020-06-27T06:29:55.723</time></trkpt><trkpt lat="55.2787940" lon="38.8308500"><time>2020-06-27T06:29:58.727</time></trkpt><trkpt lat="55.2787880" lon="38.8307710"><time>2020-06-27T06:30:02.757</time></trkpt><trkpt lat="55.2787760" lon="38.8306610"><time>2020-06-27T06:30:06.730</time></trkpt><trkpt lat="55.2787910" lon="38.8305530"><time>2020-06-27T06:30:09.767</time></trkpt><trkpt lat="55.2787760" lon="38.8304420"><time>2020-06-27T06:30:11.737</time></trkpt><trkpt lat="55.2787520" lon="38.8303560"><time>2020-06-27T06:30:13.750</time></trkpt><trkpt lat="55.2787330" lon="38.8302650"><time>2020-06-27T06:30:15.753</time></trkpt><trkpt lat="55.2787070" lon="38.8301800"><time>2020-06-27T06:30:18.740</time></trkpt><trkpt lat="55.2786810" lon="38.8301000"><time>2020-06-27T06:30:20.730</time></trkpt><trkpt lat="55.2786730" lon="38.8299840"><time>2020-06-27T06:30:22.737</time></trkpt><trkpt lat="55.2786590" lon="38.8298860"><time>2020-06-27T06:30:24.747</time></trkpt><trkpt lat="55.2786470" lon="38.8298010"><time>2020-06-27T06:30:26.510</time></trkpt><trkpt lat="55.2786330" lon="38.8297200"><time>2020-06-27T06:30:28.767</time></trkpt><trkpt lat="55.2786140" lon="38.8296410"><time>2020-06-27T06:30:31.767</time></trkpt><trkpt lat="55.2785590" lon="38.8296110"><time>2020-06-27T06:30:50.723</time></trkpt><trkpt lat="55.2785090" lon="38.8296120"><time>2020-06-27T06:30:54.733</time></trkpt><trkpt lat="55.2784600" lon="38.8296570"><time>2020-06-27T06:30:57.497</time></trkpt><trkpt lat="55.2784150" lon="38.8296720"><time>2020-06-27T06:31:06.507</time></trkpt><trkpt lat="55.2784550" lon="38.8297320"><time>2020-06-27T06:31:10.763</time></trkpt><trkpt lat="55.2784750" lon="38.8298310"><time>2020-06-27T06:31:14.497</time></trkpt><trkpt lat="55.2784440" lon="38.8298950"><time>2020-06-27T06:31:17.713</time></trkpt><trkpt lat="55.2784150" lon="38.8299310"><time>2020-06-27T06:31:21.733</time></trkpt><trkpt lat="55.2783860" lon="38.8299560"><time>2020-06-27T06:31:22.070</time></trkpt><trkpt lat="55.2784040" lon="38.8298630"><time>2020-06-27T06:31:29.657</time></trkpt><trkpt lat="55.2784030" lon="38.8297760"><time>2020-06-27T06:31:33.737</time></trkpt><trkpt lat="55.2783570" lon="38.8297360"><time>2020-06-27T06:31:37.770</time></trkpt><trkpt lat="55.2783320" lon="38.8296690"><time>2020-06-27T06:31:45.490</time></trkpt><trkpt lat="55.2783610" lon="38.8295810"><time>2020-06-27T06:31:50.463</time></trkpt><trkpt lat="55.2784180" lon="38.8295300"><time>2020-06-27T06:31:53.497</time></trkpt><trkpt lat="55.2784670" lon="38.8295460"><time>2020-06-27T06:31:58.883</time></trkpt><trkpt lat="55.2784930" lon="38.8294760"><time>2020-06-27T06:32:03.497</time></trkpt><trkpt lat="55.2785380" lon="38.8294410"><time>2020-06-27T06:32:06.517</time></trkpt><trkpt lat="55.2785960" lon="38.8294270"><time>2020-06-27T06:32:09.497</time></trkpt><trkpt lat="55.2786490" lon="38.8294200"><time>2020-06-27T06:32:12.497</time></trkpt><trkpt lat="55.2786090" lon="38.8293560"><time>2020-06-27T06:32:18.483</time></trkpt><trkpt lat="55.2785950" lon="38.8292730"><time>2020-06-27T06:32:21.500</time></trkpt><trkpt lat="55.2785810" lon="38.8291910"><time>2020-06-27T06:32:24.493</time></trkpt><trkpt lat="55.2785600" lon="38.8291170"><time>2020-06-27T06:32:27.473</time></trkpt><trkpt lat="55.2785280" lon="38.8290180"><time>2020-06-27T06:32:30.487</time></trkpt><trkpt lat="55.2784980" lon="38.8289160"><time>2020-06-27T06:32:33.507</time></trkpt><trkpt lat="55.2784780" lon="38.8288040"><time>2020-06-27T06:32:36.500</time></trkpt><trkpt lat="55.2784650" lon="38.8287170"><time>2020-06-27T06:32:38.500</time></trkpt><trkpt lat="55.2784410" lon="38.8286000"><time>2020-06-27T06:32:40.483</time></trkpt><trkpt lat="55.2784230" lon="38.8285000"><time>2020-06-27T06:32:42.487</time></trkpt><trkpt lat="55.2784040" lon="38.8284280"><time>2020-06-27T06:32:44.500</time></trkpt><trkpt lat="55.2783830" lon="38.8283510"><time>2020-06-27T06:32:46.503</time></trkpt><trkpt lat="55.2783780" lon="38.8282470"><time>2020-06-27T06:32:48.500</time></trkpt><trkpt lat="55.2783720" lon="38.8281570"><time>2020-06-27T06:32:50.487</time></trkpt><trkpt lat="55.2783500" lon="38.8280510"><time>2020-06-27T06:32:52.477</time></trkpt><trkpt lat="55.2783470" lon="38.8279440"><time>2020-06-27T06:32:54.497</time></trkpt><trkpt lat="55.2783620" lon="38.8278480"><time>2020-06-27T06:32:56.487</time></trkpt><trkpt lat="55.2783770" lon="38.8277410"><time>2020-06-27T06:32:58.490</time></trkpt><trkpt lat="55.2783820" lon="38.8276470"><time>2020-06-27T06:33:01.517</time></trkpt><trkpt lat="55.2783470" lon="38.8275970"><time>2020-06-27T06:33:05.477</time></trkpt><trkpt lat="55.2782900" lon="38.8275490"><time>2020-06-27T06:33:07.490</time></trkpt><trkpt lat="55.2782470" lon="38.8274570"><time>2020-06-27T06:33:10.497</time></trkpt><trkpt lat="55.2782260" lon="38.8273680"><time>2020-06-27T06:33:12.503</time></trkpt><trkpt lat="55.2782070" lon="38.8272620"><time>2020-06-27T06:33:14.503</time></trkpt><trkpt lat="55.2781780" lon="38.8271680"><time>2020-06-27T06:33:16.497</time></trkpt><trkpt lat="55.2781450" lon="38.8270560"><time>2020-06-27T06:33:18.513</time></trkpt><trkpt lat="55.2781200" lon="38.8269540"><time>2020-06-27T06:33:20.500</time></trkpt><trkpt lat="55.2780940" lon="38.8268350"><time>2020-06-27T06:33:22.507</time></trkpt><trkpt lat="55.2780610" lon="38.8267260"><time>2020-06-27T06:33:24.500</time></trkpt><trkpt lat="55.2780270" lon="38.8266240"><time>2020-06-27T06:33:26.510</time></trkpt><trkpt lat="55.2779940" lon="38.8265530"><time>2020-06-27T06:33:28.507</time></trkpt><trkpt lat="55.2779570" lon="38.8264960"><time>2020-06-27T06:33:30.497</time></trkpt><trkpt lat="55.2779320" lon="38.8264230"><time>2020-06-27T06:33:33.483</time></trkpt><trkpt lat="55.2779250" lon="38.8263440"><time>2020-06-27T06:33:35.497</time></trkpt><trkpt lat="55.2779140" lon="38.8262490"><time>2020-06-27T06:33:37.503</time></trkpt><trkpt lat="55.2778940" lon="38.8261600"><time>2020-06-27T06:33:39.510</time></trkpt><trkpt lat="55.2778700" lon="38.8260840"><time>2020-06-27T06:33:41.500</time></trkpt><trkpt lat="55.2778400" lon="38.8260140"><time>2020-06-27T06:33:43.503</time></trkpt><trkpt lat="55.2778000" lon="38.8259460"><time>2020-06-27T06:33:46.463</time></trkpt><trkpt lat="55.2777750" lon="38.8258450"><time>2020-06-27T06:33:48.483</time></trkpt><trkpt lat="55.2777550" lon="38.8257160"><time>2020-06-27T06:33:50.490</time></trkpt><trkpt lat="55.2777370" lon="38.8256040"><time>2020-06-27T06:33:52.500</time></trkpt><trkpt lat="55.2777140" lon="38.8255050"><time>2020-06-27T06:33:54.500</time></trkpt><trkpt lat="55.2776930" lon="38.8254110"><time>2020-06-27T06:33:56.503</time></trkpt><trkpt lat="55.2776790" lon="38.8253340"><time>2020-06-27T06:33:58.493</time></trkpt><trkpt lat="55.2776520" lon="38.8252210"><time>2020-06-27T06:34:01.503</time></trkpt><trkpt lat="55.2776400" lon="38.8251270"><time>2020-06-27T06:34:05.500</time></trkpt><trkpt lat="55.2776440" lon="38.8250420"><time>2020-06-27T06:34:08.503</time></trkpt><trkpt lat="55.2776350" lon="38.8249580"><time>2020-06-27T06:34:10.503</time></trkpt><trkpt lat="55.2776100" lon="38.8248670"><time>2020-06-27T06:34:12.500</time></trkpt><trkpt lat="55.2775830" lon="38.8247850"><time>2020-06-27T06:34:14.517</time></trkpt><trkpt lat="55.2775530" lon="38.8247160"><time>2020-06-27T06:34:16.520</time></trkpt><trkpt lat="55.2775210" lon="38.8246330"><time>2020-06-27T06:34:18.517</time></trkpt><trkpt lat="55.2775070" lon="38.8245360"><time>2020-06-27T06:34:20.497</time></trkpt><trkpt lat="55.2775030" lon="38.8244330"><time>2020-06-27T06:34:22.753</time></trkpt><trkpt lat="55.2774970" lon="38.8243420"><time>2020-06-27T06:34:24.730</time></trkpt><trkpt lat="55.2774860" lon="38.8242460"><time>2020-06-27T06:34:26.757</time></trkpt><trkpt lat="55.2774500" lon="38.8241510"><time>2020-06-27T06:34:29.737</time></trkpt><trkpt lat="55.2774350" lon="38.8240770"><time>2020-06-27T06:34:31.750</time></trkpt><trkpt lat="55.2774090" lon="38.8239990"><time>2020-06-27T06:34:33.740</time></trkpt><trkpt lat="55.2773580" lon="38.8239340"><time>2020-06-27T06:34:36.727</time></trkpt><trkpt lat="55.2773590" lon="38.8238030"><time>2020-06-27T06:34:38.717</time></trkpt><trkpt lat="55.2773340" lon="38.8236800"><time>2020-06-27T06:34:40.737</time></trkpt><trkpt lat="55.2773210" lon="38.8235610"><time>2020-06-27T06:34:42.733</time></trkpt><trkpt lat="55.2772870" lon="38.8234470"><time>2020-06-27T06:34:44.733</time></trkpt><trkpt lat="55.2772510" lon="38.8233340"><time>2020-06-27T06:34:46.497</time></trkpt><trkpt lat="55.2772160" lon="38.8232160"><time>2020-06-27T06:34:48.717</time></trkpt><trkpt lat="55.2771880" lon="38.8231130"><time>2020-06-27T06:34:50.737</time></trkpt><trkpt lat="55.2771590" lon="38.8230230"><time>2020-06-27T06:34:52.757</time></trkpt><trkpt lat="55.2771400" lon="38.8229250"><time>2020-06-27T06:34:54.717</time></trkpt><trkpt lat="55.2771270" lon="38.8228340"><time>2020-06-27T06:34:56.737</time></trkpt><trkpt lat="55.2771220" lon="38.8227380"><time>2020-06-27T06:34:58.733</time></trkpt><trkpt lat="55.2771010" lon="38.8226430"><time>2020-06-27T06:35:00.730</time></trkpt><trkpt lat="55.2770600" lon="38.8226000"><time>2020-06-27T06:35:20.707</time></trkpt><trkpt lat="55.2770270" lon="38.8225350"><time>2020-06-27T06:35:24.723</time></trkpt><trkpt lat="55.2769870" lon="38.8224940"><time>2020-06-27T06:35:27.727</time></trkpt><trkpt lat="55.2769410" lon="38.8225180"><time>2020-06-27T06:35:31.737</time></trkpt><trkpt lat="55.2769530" lon="38.8224290"><time>2020-06-27T06:35:45.727</time></trkpt><trkpt lat="55.2769580" lon="38.8223370"><time>2020-06-27T06:35:48.720</time></trkpt><trkpt lat="55.2769460" lon="38.8222550"><time>2020-06-27T06:35:51.767</time></trkpt><trkpt lat="55.2769640" lon="38.8221520"><time>2020-06-27T06:35:54.750</time></trkpt><trkpt lat="55.2769370" lon="38.8220760"><time>2020-06-27T06:35:58.507</time></trkpt><trkpt lat="55.2769170" lon="38.8219820"><time>2020-06-27T06:36:04.737</time></trkpt><trkpt lat="55.2769310" lon="38.8218990"><time>2020-06-27T06:36:08.727</time></trkpt><trkpt lat="55.2769210" lon="38.8218070"><time>2020-06-27T06:36:11.493</time></trkpt><trkpt lat="55.2768860" lon="38.8217250"><time>2020-06-27T06:36:17.740</time></trkpt><trkpt lat="55.2768690" lon="38.8216380"><time>2020-06-27T06:36:19.750</time></trkpt><trkpt lat="55.2768500" lon="38.8215560"><time>2020-06-27T06:36:21.497</time></trkpt><trkpt lat="55.2768240" lon="38.8214900"><time>2020-06-27T06:36:23.773</time></trkpt><trkpt lat="55.2767990" lon="38.8214190"><time>2020-06-27T06:36:25.750</time></trkpt><trkpt lat="55.2767660" lon="38.8213180"><time>2020-06-27T06:36:28.743</time></trkpt><trkpt lat="55.2767460" lon="38.8212400"><time>2020-06-27T06:36:30.497</time></trkpt><trkpt lat="55.2767210" lon="38.8211670"><time>2020-06-27T06:36:32.717</time></trkpt><trkpt lat="55.2766860" lon="38.8210630"><time>2020-06-27T06:36:35.493</time></trkpt><trkpt lat="55.2766580" lon="38.8209600"><time>2020-06-27T06:36:37.747</time></trkpt><trkpt lat="55.2766330" lon="38.8208710"><time>2020-06-27T06:36:39.743</time></trkpt><trkpt lat="55.2766210" lon="38.8207950"><time>2020-06-27T06:36:41.737</time></trkpt><trkpt lat="55.2765860" lon="38.8206830"><time>2020-06-27T06:36:44.767</time></trkpt><trkpt lat="55.2765670" lon="38.8205810"><time>2020-06-27T06:36:46.717</time></trkpt><trkpt lat="55.2765570" lon="38.8204830"><time>2020-06-27T06:36:48.743</time></trkpt><trkpt lat="55.2765320" lon="38.8203770"><time>2020-06-27T06:36:50.737</time></trkpt><trkpt lat="55.2765020" lon="38.8202870"><time>2020-06-27T06:36:52.760</time></trkpt><trkpt lat="55.2764750" lon="38.8202150"><time>2020-06-27T06:36:54.730</time></trkpt><trkpt lat="55.2764560" lon="38.8201080"><time>2020-06-27T06:36:56.740</time></trkpt><trkpt lat="55.2764390" lon="38.8200150"><time>2020-06-27T06:36:58.503</time></trkpt><trkpt lat="55.2764410" lon="38.8199220"><time>2020-06-27T06:37:00.773</time></trkpt><trkpt lat="55.2764230" lon="38.8198310"><time>2020-06-27T06:37:02.503</time></trkpt><trkpt lat="55.2763910" lon="38.8197330"><time>2020-06-27T06:37:04.737</time></trkpt><trkpt lat="55.2763620" lon="38.8196140"><time>2020-06-27T06:37:06.697</time></trkpt><trkpt lat="55.2763410" lon="38.8195300"><time>2020-06-27T06:37:08.497</time></trkpt><trkpt lat="55.2763090" lon="38.8194660"><time>2020-06-27T06:37:10.730</time></trkpt><trkpt lat="55.2762870" lon="38.8193740"><time>2020-06-27T06:37:12.717</time></trkpt><trkpt lat="55.2762680" lon="38.8192610"><time>2020-06-27T06:37:14.737</time></trkpt><trkpt lat="55.2762440" lon="38.8191680"><time>2020-06-27T06:37:16.767</time></trkpt><trkpt lat="55.2762330" lon="38.8190690"><time>2020-06-27T06:37:18.480</time></trkpt><trkpt lat="55.2762240" lon="38.8189610"><time>2020-06-27T06:37:20.710</time></trkpt><trkpt lat="55.2762080" lon="38.8188580"><time>2020-06-27T06:37:22.737</time></trkpt><trkpt lat="55.2761920" lon="38.8187820"><time>2020-06-27T06:37:24.497</time></trkpt><trkpt lat="55.2761510" lon="38.8186840"><time>2020-06-27T06:37:27.720</time></trkpt><trkpt lat="55.2761350" lon="38.8186040"><time>2020-06-27T06:37:29.767</time></trkpt><trkpt lat="55.2761120" lon="38.8185160"><time>2020-06-27T06:37:31.717</time></trkpt><trkpt lat="55.2760880" lon="38.8184240"><time>2020-06-27T06:37:33.500</time></trkpt><trkpt lat="55.2760690" lon="38.8183200"><time>2020-06-27T06:37:35.710</time></trkpt><trkpt lat="55.2760510" lon="38.8182270"><time>2020-06-27T06:37:37.477</time></trkpt><trkpt lat="55.2760390" lon="38.8181400"><time>2020-06-27T06:37:39.783</time></trkpt><trkpt lat="55.2760150" lon="38.8180400"><time>2020-06-27T06:37:41.740</time></trkpt><trkpt lat="55.2760000" lon="38.8179390"><time>2020-06-27T06:37:43.743</time></trkpt><trkpt lat="55.2759780" lon="38.8178480"><time>2020-06-27T06:37:45.713</time></trkpt><trkpt lat="55.2759480" lon="38.8177590"><time>2020-06-27T06:37:47.743</time></trkpt><trkpt lat="55.2759050" lon="38.8176750"><time>2020-06-27T06:37:50.707</time></trkpt><trkpt lat="55.2758760" lon="38.8175880"><time>2020-06-27T06:37:53.720</time></trkpt><trkpt lat="55.2758700" lon="38.8175020"><time>2020-06-27T06:37:56.707</time></trkpt><trkpt lat="55.2758510" lon="38.8174250"><time>2020-06-27T06:37:58.713</time></trkpt><trkpt lat="55.2758230" lon="38.8173280"><time>2020-06-27T06:38:00.747</time></trkpt><trkpt lat="55.2758010" lon="38.8172250"><time>2020-06-27T06:38:02.737</time></trkpt><trkpt lat="55.2757780" lon="38.8171460"><time>2020-06-27T06:38:04.733</time></trkpt><trkpt lat="55.2757520" lon="38.8170710"><time>2020-06-27T06:38:06.730</time></trkpt><trkpt lat="55.2757350" lon="38.8169600"><time>2020-06-27T06:38:08.503</time></trkpt><trkpt lat="55.2757230" lon="38.8168600"><time>2020-06-27T06:38:10.717</time></trkpt><trkpt lat="55.2756980" lon="38.8167740"><time>2020-06-27T06:38:12.507</time></trkpt><trkpt lat="55.2756650" lon="38.8166920"><time>2020-06-27T06:38:15.747</time></trkpt><trkpt lat="55.2756400" lon="38.8166180"><time>2020-06-27T06:38:17.730</time></trkpt><trkpt lat="55.2756140" lon="38.8165370"><time>2020-06-27T06:38:19.730</time></trkpt><trkpt lat="55.2755900" lon="38.8164630"><time>2020-06-27T06:38:21.737</time></trkpt><trkpt lat="55.2755670" lon="38.8163640"><time>2020-06-27T06:38:23.737</time></trkpt><trkpt lat="55.2755490" lon="38.8162820"><time>2020-06-27T06:38:25.767</time></trkpt><trkpt lat="55.2755330" lon="38.8161880"><time>2020-06-27T06:38:27.710</time></trkpt><trkpt lat="55.2755180" lon="38.8160810"><time>2020-06-27T06:38:29.717</time></trkpt><trkpt lat="55.2755180" lon="38.8159970"><time>2020-06-27T06:38:31.720</time></trkpt><trkpt lat="55.2754970" lon="38.8158980"><time>2020-06-27T06:38:34.727</time></trkpt><trkpt lat="55.2754480" lon="38.8159200"><time>2020-06-27T06:38:45.730</time></trkpt><trkpt lat="55.2753930" lon="38.8158680"><time>2020-06-27T06:38:49.713</time></trkpt><trkpt lat="55.2753440" lon="38.8158370"><time>2020-06-27T06:38:55.737</time></trkpt><trkpt lat="55.2753040" lon="38.8158000"><time>2020-06-27T06:38:58.737</time></trkpt><trkpt lat="55.2752570" lon="38.8158330"><time>2020-06-27T06:39:05.710</time></trkpt><trkpt lat="55.2753000" lon="38.8158130"><time>2020-06-27T06:39:09.493</time></trkpt><trkpt lat="55.2753460" lon="38.8158140"><time>2020-06-27T06:39:11.727</time></trkpt><trkpt lat="55.2753920" lon="38.8158250"><time>2020-06-27T06:39:15.727</time></trkpt><trkpt lat="55.2754140" lon="38.8159080"><time>2020-06-27T06:39:19.707</time></trkpt><trkpt lat="55.2754040" lon="38.8159880"><time>2020-06-27T06:39:22.773</time></trkpt><trkpt lat="55.2754210" lon="38.8160730"><time>2020-06-27T06:39:26.737</time></trkpt><trkpt lat="55.2753730" lon="38.8161360"><time>2020-06-27T06:39:31.703</time></trkpt><trkpt lat="55.2753320" lon="38.8160820"><time>2020-06-27T06:39:34.723</time></trkpt><trkpt lat="55.2752870" lon="38.8161250"><time>2020-06-27T06:39:38.727</time></trkpt><trkpt lat="55.2753270" lon="38.8160400"><time>2020-06-27T06:39:42.753</time></trkpt><trkpt lat="55.2753900" lon="38.8160350"><time>2020-06-27T06:39:46.723</time></trkpt><trkpt lat="55.2754150" lon="38.8161240"><time>2020-06-27T06:39:49.737</time></trkpt><trkpt lat="55.2754500" lon="38.8161820"><time>2020-06-27T06:39:52.720</time></trkpt><trkpt lat="55.2754420" lon="38.8162700"><time>2020-06-27T06:39:56.747</time></trkpt><trkpt lat="55.2754050" lon="38.8163360"><time>2020-06-27T06:39:59.490</time></trkpt><trkpt lat="55.2753530" lon="38.8163390"><time>2020-06-27T06:40:01.487</time></trkpt><trkpt lat="55.2753030" lon="38.8163610"><time>2020-06-27T06:40:03.717</time></trkpt><trkpt lat="55.2752410" lon="38.8163700"><time>2020-06-27T06:40:06.733</time></trkpt><trkpt lat="55.2752030" lon="38.8164550"><time>2020-06-27T06:40:09.487</time></trkpt><trkpt lat="55.2752030" lon="38.8165370"><time>2020-06-27T06:40:11.707</time></trkpt><trkpt lat="55.2752470" lon="38.8165620"><time>2020-06-27T06:40:14.723</time></trkpt><trkpt lat="55.2752970" lon="38.8165730"><time>2020-06-27T06:40:16.717</time></trkpt><trkpt lat="55.2753430" lon="38.8166000"><time>2020-06-27T06:40:20.713</time></trkpt><trkpt lat="55.2753630" lon="38.8165730"><time>2020-06-27T06:40:24.107</time></trkpt><trkpt lat="55.2753010" lon="38.8165650"><time>2020-06-27T06:40:29.510</time></trkpt><trkpt lat="55.2752570" lon="38.8165250"><time>2020-06-27T06:40:31.747</time></trkpt><trkpt lat="55.2752150" lon="38.8164640"><time>2020-06-27T06:40:33.797</time></trkpt><trkpt lat="55.2752410" lon="38.8163910"><time>2020-06-27T06:40:39.737</time></trkpt><trkpt lat="55.2752830" lon="38.8163500"><time>2020-06-27T06:40:41.737</time></trkpt><trkpt lat="55.2753250" lon="38.8162870"><time>2020-06-27T06:40:46.710</time></trkpt><trkpt lat="55.2753470" lon="38.8161990"><time>2020-06-27T06:40:49.500</time></trkpt><trkpt lat="55.2753310" lon="38.8161220"><time>2020-06-27T06:40:53.727</time></trkpt><trkpt lat="55.2752830" lon="38.8160680"><time>2020-06-27T06:40:58.727</time></trkpt><trkpt lat="55.2752510" lon="38.8159810"><time>2020-06-27T06:41:02.727</time></trkpt><trkpt lat="55.2752510" lon="38.8158950"><time>2020-06-27T06:41:05.717</time></trkpt><trkpt lat="55.2752760" lon="38.8158290"><time>2020-06-27T06:41:07.723</time></trkpt><trkpt lat="55.2752700" lon="38.8157440"><time>2020-06-27T06:41:10.740</time></trkpt><trkpt lat="55.2752980" lon="38.8156410"><time>2020-06-27T06:41:13.483</time></trkpt><trkpt lat="55.2753480" lon="38.8155950"><time>2020-06-27T06:41:16.713</time></trkpt><trkpt lat="55.2753990" lon="38.8156550"><time>2020-06-27T06:41:19.753</time></trkpt><trkpt lat="55.2754450" lon="38.8156590"><time>2020-06-27T06:41:22.737</time></trkpt><trkpt lat="55.2754880" lon="38.8156850"><time>2020-06-27T06:41:26.737</time></trkpt><trkpt lat="55.2755390" lon="38.8156610"><time>2020-06-27T06:41:30.767</time></trkpt><trkpt lat="55.2755830" lon="38.8156140"><time>2020-06-27T06:41:34.723</time></trkpt><trkpt lat="55.2755310" lon="38.8156500"><time>2020-06-27T06:41:41.483</time></trkpt><trkpt lat="55.2755040" lon="38.8155700"><time>2020-06-27T06:41:51.717</time></trkpt><trkpt lat="55.2754780" lon="38.8154900"><time>2020-06-27T06:41:53.727</time></trkpt><trkpt lat="55.2754780" lon="38.8154040"><time>2020-06-27T06:41:55.730</time></trkpt><trkpt lat="55.2754620" lon="38.8153200"><time>2020-06-27T06:41:57.713</time></trkpt><trkpt lat="55.2754510" lon="38.8152390"><time>2020-06-27T06:41:59.770</time></trkpt><trkpt lat="55.2754260" lon="38.8151540"><time>2020-06-27T06:42:01.723</time></trkpt><trkpt lat="55.2754030" lon="38.8150730"><time>2020-06-27T06:42:05.767</time></trkpt><trkpt lat="55.2753840" lon="38.8149870"><time>2020-06-27T06:42:13.737</time></trkpt><trkpt lat="55.2753360" lon="38.8149290"><time>2020-06-27T06:42:18.723</time></trkpt><trkpt lat="55.2753040" lon="38.8148410"><time>2020-06-27T06:42:22.490</time></trkpt><trkpt lat="55.2752960" lon="38.8147590"><time>2020-06-27T06:42:25.500</time></trkpt><trkpt lat="55.2752930" lon="38.8146770"><time>2020-06-27T06:42:28.747</time></trkpt><trkpt lat="55.2752570" lon="38.8146060"><time>2020-06-27T06:42:31.490</time></trkpt><trkpt lat="55.2752290" lon="38.8145430"><time>2020-06-27T06:42:33.727</time></trkpt><trkpt lat="55.2751830" lon="38.8145110"><time>2020-06-27T06:42:36.740</time></trkpt><trkpt lat="55.2751480" lon="38.8144590"><time>2020-06-27T06:42:40.710</time></trkpt><trkpt lat="55.2751450" lon="38.8143650"><time>2020-06-27T06:42:45.483</time></trkpt><trkpt lat="55.2751280" lon="38.8142820"><time>2020-06-27T06:42:48.713</time></trkpt><trkpt lat="55.2751210" lon="38.8141890"><time>2020-06-27T06:42:51.717</time></trkpt><trkpt lat="55.2751320" lon="38.8140880"><time>2020-06-27T06:42:56.730</time></trkpt><trkpt lat="55.2751600" lon="38.8140260"><time>2020-06-27T06:42:59.750</time></trkpt><trkpt lat="55.2751400" lon="38.8139220"><time>2020-06-27T06:43:02.723</time></trkpt><trkpt lat="55.2751160" lon="38.8138240"><time>2020-06-27T06:43:05.740</time></trkpt><trkpt lat="55.2751010" lon="38.8137430"><time>2020-06-27T06:43:08.760</time></trkpt><trkpt lat="55.2750760" lon="38.8136750"><time>2020-06-27T06:43:11.793</time></trkpt><trkpt lat="55.2750950" lon="38.8135740"><time>2020-06-27T06:43:15.727</time></trkpt><trkpt lat="55.2750760" lon="38.8134810"><time>2020-06-27T06:43:18.717</time></trkpt><trkpt lat="55.2750380" lon="38.8133900"><time>2020-06-27T06:43:21.497</time></trkpt><trkpt lat="55.2750170" lon="38.8133180"><time>2020-06-27T06:43:23.730</time></trkpt><trkpt lat="55.2749850" lon="38.8132450"><time>2020-06-27T06:43:25.720</time></trkpt><trkpt lat="55.2749480" lon="38.8131820"><time>2020-06-27T06:43:27.737</time></trkpt><trkpt lat="55.2749210" lon="38.8131150"><time>2020-06-27T06:43:29.727</time></trkpt><trkpt lat="55.2748970" lon="38.8130000"><time>2020-06-27T06:43:32.707</time></trkpt><trkpt lat="55.2748690" lon="38.8129080"><time>2020-06-27T06:43:35.700</time></trkpt><trkpt lat="55.2748440" lon="38.8128120"><time>2020-06-27T06:43:37.730</time></trkpt><trkpt lat="55.2748100" lon="38.8127050"><time>2020-06-27T06:43:39.767</time></trkpt><trkpt lat="55.2747660" lon="38.8126090"><time>2020-06-27T06:43:41.717</time></trkpt><trkpt lat="55.2747070" lon="38.8124960"><time>2020-06-27T06:43:43.737</time></trkpt><trkpt lat="55.2746580" lon="38.8123960"><time>2020-06-27T06:43:45.500</time></trkpt><trkpt lat="55.2746130" lon="38.8122710"><time>2020-06-27T06:43:47.480</time></trkpt><trkpt lat="55.2745970" lon="38.8121940"><time>2020-06-27T06:43:48.500</time></trkpt><trkpt lat="55.2745810" lon="38.8121190"><time>2020-06-27T06:43:49.770</time></trkpt><trkpt lat="55.2745520" lon="38.8119850"><time>2020-06-27T06:43:51.713</time></trkpt><trkpt lat="55.2745360" lon="38.8118430"><time>2020-06-27T06:43:53.737</time></trkpt><trkpt lat="55.2745210" lon="38.8117170"><time>2020-06-27T06:43:55.737</time></trkpt><trkpt lat="55.2745120" lon="38.8115540"><time>2020-06-27T06:43:57.483</time></trkpt><trkpt lat="55.2745130" lon="38.8114730"><time>2020-06-27T06:43:58.760</time></trkpt><trkpt lat="55.2745150" lon="38.8113930"><time>2020-06-27T06:43:59.740</time></trkpt><trkpt lat="55.2745170" lon="38.8112500"><time>2020-06-27T06:44:01.720</time></trkpt><trkpt lat="55.2745230" lon="38.8111090"><time>2020-06-27T06:44:03.737</time></trkpt><trkpt lat="55.2745320" lon="38.8109760"><time>2020-06-27T06:44:05.697</time></trkpt><trkpt lat="55.2745660" lon="38.8108510"><time>2020-06-27T06:44:07.743</time></trkpt><trkpt lat="55.2745890" lon="38.8107820"><time>2020-06-27T06:44:08.737</time></trkpt><trkpt lat="55.2746420" lon="38.8106750"><time>2020-06-27T06:44:10.503</time></trkpt><trkpt lat="55.2746870" lon="38.8105920"><time>2020-06-27T06:44:12.733</time></trkpt><trkpt lat="55.2747270" lon="38.8104690"><time>2020-06-27T06:44:14.720</time></trkpt><trkpt lat="55.2747760" lon="38.8103430"><time>2020-06-27T06:44:16.507</time></trkpt><trkpt lat="55.2748380" lon="38.8102310"><time>2020-06-27T06:44:18.740</time></trkpt><trkpt lat="55.2748980" lon="38.8101340"><time>2020-06-27T06:44:20.733</time></trkpt><trkpt lat="55.2749600" lon="38.8101000"><time>2020-06-27T06:44:22.717</time></trkpt><trkpt lat="55.2750200" lon="38.8101140"><time>2020-06-27T06:44:24.737</time></trkpt><trkpt lat="55.2750980" lon="38.8101570"><time>2020-06-27T06:44:26.747</time></trkpt><trkpt lat="55.2751460" lon="38.8101910"><time>2020-06-27T06:44:27.753</time></trkpt><trkpt lat="55.2751880" lon="38.8102310"><time>2020-06-27T06:44:28.737</time></trkpt><trkpt lat="55.2752600" lon="38.8102880"><time>2020-06-27T06:44:30.713</time></trkpt><trkpt lat="55.2753230" lon="38.8103770"><time>2020-06-27T06:44:32.733</time></trkpt><trkpt lat="55.2753640" lon="38.8104690"><time>2020-06-27T06:44:34.743</time></trkpt><trkpt lat="55.2754310" lon="38.8105570"><time>2020-06-27T06:44:36.727</time></trkpt><trkpt lat="55.2754810" lon="38.8106300"><time>2020-06-27T06:44:38.750</time></trkpt><trkpt lat="55.2755420" lon="38.8107250"><time>2020-06-27T06:44:40.787</time></trkpt><trkpt lat="55.2756030" lon="38.8108200"><time>2020-06-27T06:44:42.730</time></trkpt><trkpt lat="55.2756690" lon="38.8108780"><time>2020-06-27T06:44:44.727</time></trkpt><trkpt lat="55.2757350" lon="38.8109100"><time>2020-06-27T06:44:46.733</time></trkpt><trkpt lat="55.2758070" lon="38.8109750"><time>2020-06-27T06:44:48.720</time></trkpt><trkpt lat="55.2758640" lon="38.8110450"><time>2020-06-27T06:44:50.733</time></trkpt><trkpt lat="55.2759200" lon="38.8111350"><time>2020-06-27T06:44:52.753</time></trkpt><trkpt lat="55.2759820" lon="38.8112240"><time>2020-06-27T06:44:54.730</time></trkpt><trkpt lat="55.2760220" lon="38.8112690"><time>2020-06-27T06:44:55.743</time></trkpt><trkpt lat="55.2760640" lon="38.8113110"><time>2020-06-27T06:44:56.710</time></trkpt><trkpt lat="55.2761280" lon="38.8113750"><time>2020-06-27T06:44:58.500</time></trkpt><trkpt lat="55.2761840" lon="38.8114500"><time>2020-06-27T06:45:00.760</time></trkpt><trkpt lat="55.2762290" lon="38.8115070"><time>2020-06-27T06:45:02.693</time></trkpt><trkpt lat="55.2762860" lon="38.8115670"><time>2020-06-27T06:45:04.717</time></trkpt><trkpt lat="55.2763540" lon="38.8116500"><time>2020-06-27T06:45:06.747</time></trkpt><trkpt lat="55.2764060" lon="38.8117060"><time>2020-06-27T06:45:08.713</time></trkpt><trkpt lat="55.2764500" lon="38.8117590"><time>2020-06-27T06:45:10.493</time></trkpt><trkpt lat="55.2765040" lon="38.8118250"><time>2020-06-27T06:45:12.777</time></trkpt><trkpt lat="55.2765660" lon="38.8118810"><time>2020-06-27T06:45:14.747</time></trkpt><trkpt lat="55.2766310" lon="38.8119470"><time>2020-06-27T06:45:16.770</time></trkpt><trkpt lat="55.2766920" lon="38.8120160"><time>2020-06-27T06:45:18.723</time></trkpt><trkpt lat="55.2767520" lon="38.8120650"><time>2020-06-27T06:45:20.717</time></trkpt><trkpt lat="55.2768020" lon="38.8121020"><time>2020-06-27T06:45:22.727</time></trkpt><trkpt lat="55.2768470" lon="38.8121510"><time>2020-06-27T06:45:24.760</time></trkpt><trkpt lat="55.2769030" lon="38.8122090"><time>2020-06-27T06:45:26.740</time></trkpt><trkpt lat="55.2769510" lon="38.8122530"><time>2020-06-27T06:45:28.707</time></trkpt><trkpt lat="55.2770000" lon="38.8123200"><time>2020-06-27T06:45:30.720</time></trkpt><trkpt lat="55.2770520" lon="38.8123480"><time>2020-06-27T06:45:32.720</time></trkpt><trkpt lat="55.2771220" lon="38.8123220"><time>2020-06-27T06:45:36.717</time></trkpt><trkpt lat="55.2771750" lon="38.8123260"><time>2020-06-27T06:45:38.790</time></trkpt><trkpt lat="55.2772330" lon="38.8123250"><time>2020-06-27T06:45:41.753</time></trkpt><trkpt lat="55.2772840" lon="38.8123770"><time>2020-06-27T06:45:43.727</time></trkpt><trkpt lat="55.2773470" lon="38.8124210"><time>2020-06-27T06:45:45.503</time></trkpt><trkpt lat="55.2774020" lon="38.8124770"><time>2020-06-27T06:45:47.703</time></trkpt><trkpt lat="55.2774190" lon="38.8125830"><time>2020-06-27T06:45:49.730</time></trkpt><trkpt lat="55.2774250" lon="38.8126680"><time>2020-06-27T06:45:51.703</time></trkpt><trkpt lat="55.2774340" lon="38.8127630"><time>2020-06-27T06:45:53.720</time></trkpt><trkpt lat="55.2774760" lon="38.8127990"><time>2020-06-27T06:45:55.717</time></trkpt><trkpt lat="55.2775280" lon="38.8128070"><time>2020-06-27T06:45:57.737</time></trkpt><trkpt lat="55.2775820" lon="38.8128100"><time>2020-06-27T06:45:59.727</time></trkpt><trkpt lat="55.2776330" lon="38.8128420"><time>2020-06-27T06:46:01.717</time></trkpt><trkpt lat="55.2776580" lon="38.8129130"><time>2020-06-27T06:46:03.753</time></trkpt><trkpt lat="55.2776690" lon="38.8130240"><time>2020-06-27T06:46:05.707</time></trkpt><trkpt lat="55.2776830" lon="38.8131210"><time>2020-06-27T06:46:07.500</time></trkpt><trkpt lat="55.2777230" lon="38.8132070"><time>2020-06-27T06:46:09.727</time></trkpt><trkpt lat="55.2777560" lon="38.8132860"><time>2020-06-27T06:46:11.487</time></trkpt><trkpt lat="55.2777860" lon="38.8133730"><time>2020-06-27T06:46:13.743</time></trkpt><trkpt lat="55.2777900" lon="38.8134700"><time>2020-06-27T06:46:17.730</time></trkpt><trkpt lat="55.2778000" lon="38.8135840"><time>2020-06-27T06:46:21.730</time></trkpt><trkpt lat="55.2778030" lon="38.8137000"><time>2020-06-27T06:46:23.723</time></trkpt><trkpt lat="55.2778070" lon="38.8138050"><time>2020-06-27T06:46:25.713</time></trkpt><trkpt lat="55.2778230" lon="38.8139210"><time>2020-06-27T06:46:27.707</time></trkpt><trkpt lat="55.2778400" lon="38.8140180"><time>2020-06-27T06:46:29.780</time></trkpt><trkpt lat="55.2778540" lon="38.8140940"><time>2020-06-27T06:46:31.717</time></trkpt><trkpt lat="55.2778660" lon="38.8142000"><time>2020-06-27T06:46:34.777</time></trkpt><trkpt lat="55.2779010" lon="38.8142700"><time>2020-06-27T06:46:36.740</time></trkpt><trkpt lat="55.2779540" lon="38.8142600"><time>2020-06-27T06:46:38.750</time></trkpt><trkpt lat="55.2780140" lon="38.8142780"><time>2020-06-27T06:46:41.777</time></trkpt><trkpt lat="55.2780670" lon="38.8143360"><time>2020-06-27T06:46:44.743</time></trkpt><trkpt lat="55.2781250" lon="38.8144380"><time>2020-06-27T06:46:46.713</time></trkpt><trkpt lat="55.2781560" lon="38.8145230"><time>2020-06-27T06:46:48.743</time></trkpt><trkpt lat="55.2781820" lon="38.8145980"><time>2020-06-27T06:46:50.777</time></trkpt><trkpt lat="55.2782390" lon="38.8145930"><time>2020-06-27T06:46:58.513</time></trkpt><trkpt lat="55.2782890" lon="38.8145900"><time>2020-06-27T06:47:01.697</time></trkpt><trkpt lat="55.2783390" lon="38.8145980"><time>2020-06-27T06:47:04.717</time></trkpt><trkpt lat="55.2783910" lon="38.8146080"><time>2020-06-27T06:47:06.717</time></trkpt><trkpt lat="55.2784430" lon="38.8146020"><time>2020-06-27T06:47:08.740</time></trkpt><trkpt lat="55.2784930" lon="38.8145980"><time>2020-06-27T06:47:13.783</time></trkpt><trkpt lat="55.2785720" lon="38.8146170"><time>2020-06-27T06:47:15.493</time></trkpt><trkpt lat="55.2786540" lon="38.8146220"><time>2020-06-27T06:47:17.773</time></trkpt><trkpt lat="55.2786970" lon="38.8146470"><time>2020-06-27T06:47:18.710</time></trkpt><trkpt lat="55.2787450" lon="38.8146600"><time>2020-06-27T06:47:19.757</time></trkpt><trkpt lat="55.2788190" lon="38.8146690"><time>2020-06-27T06:47:21.710</time></trkpt><trkpt lat="55.2788850" lon="38.8146630"><time>2020-06-27T06:47:23.807</time></trkpt><trkpt lat="55.2789630" lon="38.8146680"><time>2020-06-27T06:47:25.740</time></trkpt><trkpt lat="55.2790310" lon="38.8146620"><time>2020-06-27T06:47:27.717</time></trkpt><trkpt lat="55.2790910" lon="38.8146380"><time>2020-06-27T06:47:29.733</time></trkpt><trkpt lat="55.2791460" lon="38.8146120"><time>2020-06-27T06:47:31.777</time></trkpt><trkpt lat="55.2792090" lon="38.8145820"><time>2020-06-27T06:47:33.743</time></trkpt><trkpt lat="55.2792720" lon="38.8145670"><time>2020-06-27T06:47:35.720</time></trkpt><trkpt lat="55.2793340" lon="38.8145760"><time>2020-06-27T06:47:37.733</time></trkpt><trkpt lat="55.2794030" lon="38.8145800"><time>2020-06-27T06:47:39.507</time></trkpt><trkpt lat="55.2794670" lon="38.8145660"><time>2020-06-27T06:47:41.730</time></trkpt><trkpt lat="55.2795370" lon="38.8145560"><time>2020-06-27T06:47:43.723</time></trkpt><trkpt lat="55.2795970" lon="38.8145420"><time>2020-06-27T06:47:45.737</time></trkpt><trkpt lat="55.2796550" lon="38.8145660"><time>2020-06-27T06:47:47.710</time></trkpt><trkpt lat="55.2797190" lon="38.8146130"><time>2020-06-27T06:47:49.707</time></trkpt><trkpt lat="55.2797820" lon="38.8146300"><time>2020-06-27T06:47:51.710</time></trkpt><trkpt lat="55.2798390" lon="38.8146730"><time>2020-06-27T06:47:53.737</time></trkpt><trkpt lat="55.2798940" lon="38.8146990"><time>2020-06-27T06:47:55.727</time></trkpt><trkpt lat="55.2799560" lon="38.8147070"><time>2020-06-27T06:47:57.777</time></trkpt><trkpt lat="55.2800260" lon="38.8147170"><time>2020-06-27T06:47:59.490</time></trkpt><trkpt lat="55.2800880" lon="38.8147370"><time>2020-06-27T06:48:01.713</time></trkpt><trkpt lat="55.2801550" lon="38.8147400"><time>2020-06-27T06:48:03.743</time></trkpt><trkpt lat="55.2802310" lon="38.8147360"><time>2020-06-27T06:48:05.727</time></trkpt><trkpt lat="55.2802990" lon="38.8147390"><time>2020-06-27T06:48:07.727</time></trkpt><trkpt lat="55.2803670" lon="38.8147680"><time>2020-06-27T06:48:09.710</time></trkpt><trkpt lat="55.2804390" lon="38.8147830"><time>2020-06-27T06:48:11.713</time></trkpt><trkpt lat="55.2805030" lon="38.8148100"><time>2020-06-27T06:48:13.703</time></trkpt><trkpt lat="55.2805630" lon="38.8148710"><time>2020-06-27T06:48:15.780</time></trkpt><trkpt lat="55.2805990" lon="38.8149310"><time>2020-06-27T06:48:17.470</time></trkpt><trkpt lat="55.2806460" lon="38.8149770"><time>2020-06-27T06:48:19.760</time></trkpt><trkpt lat="55.2807110" lon="38.8149920"><time>2020-06-27T06:48:21.720</time></trkpt><trkpt lat="55.2807620" lon="38.8150120"><time>2020-06-27T06:48:23.730</time></trkpt><trkpt lat="55.2808130" lon="38.8150380"><time>2020-06-27T06:48:25.727</time></trkpt><trkpt lat="55.2808720" lon="38.8150470"><time>2020-06-27T06:48:27.727</time></trkpt><trkpt lat="55.2809270" lon="38.8150560"><time>2020-06-27T06:48:29.753</time></trkpt><trkpt lat="55.2809740" lon="38.8150580"><time>2020-06-27T06:48:31.720</time></trkpt><trkpt lat="55.2810560" lon="38.8150480"><time>2020-06-27T06:48:33.500</time></trkpt><trkpt lat="55.2811230" lon="38.8150770"><time>2020-06-27T06:48:35.733</time></trkpt><trkpt lat="55.2811780" lon="38.8151040"><time>2020-06-27T06:48:37.740</time></trkpt><trkpt lat="55.2812330" lon="38.8151190"><time>2020-06-27T06:48:39.720</time></trkpt><trkpt lat="55.2813050" lon="38.8151500"><time>2020-06-27T06:48:41.733</time></trkpt><trkpt lat="55.2813870" lon="38.8151810"><time>2020-06-27T06:48:43.710</time></trkpt><trkpt lat="55.2814690" lon="38.8152040"><time>2020-06-27T06:48:45.727</time></trkpt><trkpt lat="55.2815630" lon="38.8152070"><time>2020-06-27T06:48:47.723</time></trkpt><trkpt lat="55.2816540" lon="38.8150620"><time>2020-06-27T06:48:48.737</time></trkpt><trkpt lat="55.2816990" lon="38.8150220"><time>2020-06-27T06:48:50.670</time></trkpt><trkpt lat="55.2816980" lon="38.8149420"><time>2020-06-27T06:48:52.693</time></trkpt><trkpt lat="55.2816730" lon="38.8148240"><time>2020-06-27T06:48:55.703</time></trkpt><trkpt lat="55.2816580" lon="38.8147390"><time>2020-06-27T06:48:57.727</time></trkpt><trkpt lat="55.2816640" lon="38.8146220"><time>2020-06-27T06:48:59.713</time></trkpt><trkpt lat="55.2816750" lon="38.8145080"><time>2020-06-27T06:49:01.723</time></trkpt><trkpt lat="55.2816720" lon="38.8143820"><time>2020-06-27T06:49:03.750</time></trkpt><trkpt lat="55.2816660" lon="38.8143030"><time>2020-06-27T06:49:04.703</time></trkpt><trkpt lat="55.2816660" lon="38.8141780"><time>2020-06-27T06:49:06.757</time></trkpt><trkpt lat="55.2816830" lon="38.8140720"><time>2020-06-27T06:49:08.713</time></trkpt><trkpt lat="55.2816760" lon="38.8139500"><time>2020-06-27T06:49:10.750</time></trkpt><trkpt lat="55.2816710" lon="38.8138270"><time>2020-06-27T06:49:12.697</time></trkpt><trkpt lat="55.2816700" lon="38.8137040"><time>2020-06-27T06:49:14.693</time></trkpt><trkpt lat="55.2816800" lon="38.8135520"><time>2020-06-27T06:49:16.693</time></trkpt><trkpt lat="55.2816870" lon="38.8134060"><time>2020-06-27T06:49:18.460</time></trkpt><trkpt lat="55.2816880" lon="38.8132680"><time>2020-06-27T06:49:20.687</time></trkpt><trkpt lat="55.2816910" lon="38.8131310"><time>2020-06-27T06:49:22.740</time></trkpt><trkpt lat="55.2817000" lon="38.8129880"><time>2020-06-27T06:49:24.697</time></trkpt><trkpt lat="55.2817080" lon="38.8128660"><time>2020-06-27T06:49:26.723</time></trkpt><trkpt lat="55.2817220" lon="38.8127480"><time>2020-06-27T06:49:28.697</time></trkpt><trkpt lat="55.2817330" lon="38.8126320"><time>2020-06-27T06:49:30.467</time></trkpt><trkpt lat="55.2817400" lon="38.8125430"><time>2020-06-27T06:49:32.720</time></trkpt><trkpt lat="55.2817370" lon="38.8124300"><time>2020-06-27T06:49:35.697</time></trkpt><trkpt lat="55.2817330" lon="38.8123290"><time>2020-06-27T06:49:37.700</time></trkpt><trkpt lat="55.2817250" lon="38.8121920"><time>2020-06-27T06:49:39.707</time></trkpt><trkpt lat="55.2817320" lon="38.8120470"><time>2020-06-27T06:49:41.783</time></trkpt><trkpt lat="55.2817450" lon="38.8119190"><time>2020-06-27T06:49:43.737</time></trkpt><trkpt lat="55.2817440" lon="38.8117900"><time>2020-06-27T06:49:45.703</time></trkpt><trkpt lat="55.2817440" lon="38.8117090"><time>2020-06-27T06:49:46.717</time></trkpt><trkpt lat="55.2817550" lon="38.8115640"><time>2020-06-27T06:49:48.780</time></trkpt><trkpt lat="55.2817680" lon="38.8114370"><time>2020-06-27T06:49:50.500</time></trkpt><trkpt lat="55.2817710" lon="38.8112980"><time>2020-06-27T06:49:52.493</time></trkpt><trkpt lat="55.2817840" lon="38.8111410"><time>2020-06-27T06:49:54.737</time></trkpt><trkpt lat="55.2817900" lon="38.8110560"><time>2020-06-27T06:49:55.737</time></trkpt><trkpt lat="55.2817940" lon="38.8109760"><time>2020-06-27T06:49:56.490</time></trkpt><trkpt lat="55.2817900" lon="38.8108930"><time>2020-06-27T06:49:57.767</time></trkpt><trkpt lat="55.2817880" lon="38.8108040"><time>2020-06-27T06:49:58.743</time></trkpt><trkpt lat="55.2817960" lon="38.8106680"><time>2020-06-27T06:50:00.737</time></trkpt><trkpt lat="55.2818020" lon="38.8105270"><time>2020-06-27T06:50:02.727</time></trkpt><trkpt lat="55.2818110" lon="38.8104400"><time>2020-06-27T06:50:03.710</time></trkpt><trkpt lat="55.2818210" lon="38.8103560"><time>2020-06-27T06:50:04.773</time></trkpt><trkpt lat="55.2818300" lon="38.8102770"><time>2020-06-27T06:50:05.753</time></trkpt><trkpt lat="55.2818390" lon="38.8101340"><time>2020-06-27T06:50:07.743</time></trkpt><trkpt lat="55.2818490" lon="38.8099920"><time>2020-06-27T06:50:09.740</time></trkpt><trkpt lat="55.2818510" lon="38.8098310"><time>2020-06-27T06:50:11.730</time></trkpt><trkpt lat="55.2818500" lon="38.8097510"><time>2020-06-27T06:50:12.750</time></trkpt><trkpt lat="55.2818550" lon="38.8096080"><time>2020-06-27T06:50:14.723</time></trkpt><trkpt lat="55.2818560" lon="38.8095250"><time>2020-06-27T06:50:15.747</time></trkpt><trkpt lat="55.2818470" lon="38.8094440"><time>2020-06-27T06:50:16.753</time></trkpt><trkpt lat="55.2818330" lon="38.8092960"><time>2020-06-27T06:50:18.587</time></trkpt><trkpt lat="55.2818340" lon="38.8091490"><time>2020-06-27T06:50:20.510</time></trkpt><trkpt lat="55.2818300" lon="38.8090080"><time>2020-06-27T06:50:22.720</time></trkpt><trkpt lat="55.2818410" lon="38.8089250"><time>2020-06-27T06:50:23.737</time></trkpt><trkpt lat="55.2818650" lon="38.8088510"><time>2020-06-27T06:50:24.717</time></trkpt><trkpt lat="55.2818950" lon="38.8087800"><time>2020-06-27T06:50:25.717</time></trkpt><trkpt lat="55.2819890" lon="38.8087160"><time>2020-06-27T06:50:27.517</time></trkpt><trkpt lat="55.2820820" lon="38.8086990"><time>2020-06-27T06:50:29.740</time></trkpt><trkpt lat="55.2821280" lon="38.8086890"><time>2020-06-27T06:50:30.787</time></trkpt><trkpt lat="55.2822100" lon="38.8086630"><time>2020-06-27T06:50:32.727</time></trkpt><trkpt lat="55.2822670" lon="38.8086160"><time>2020-06-27T06:50:34.723</time></trkpt><trkpt lat="55.2822590" lon="38.8087230"><time>2020-06-27T06:50:35.703</time></trkpt><trkpt lat="55.2823170" lon="38.8086450"><time>2020-06-27T06:50:37.690</time></trkpt><trkpt lat="55.2823620" lon="38.8086260"><time>2020-06-27T06:50:38.697</time></trkpt><trkpt lat="55.2824520" lon="38.8086120"><time>2020-06-27T06:50:40.693</time></trkpt><trkpt lat="55.2825340" lon="38.8086110"><time>2020-06-27T06:50:42.737</time></trkpt><trkpt lat="55.2826010" lon="38.8085980"><time>2020-06-27T06:50:44.697</time></trkpt><trkpt lat="55.2826460" lon="38.8085850"><time>2020-06-27T06:50:46.710</time></trkpt><trkpt lat="55.2827070" lon="38.8085950"><time>2020-06-27T06:50:48.727</time></trkpt><trkpt lat="55.2827620" lon="38.8085780"><time>2020-06-27T06:50:50.713</time></trkpt><trkpt lat="55.2828080" lon="38.8085540"><time>2020-06-27T06:50:52.713</time></trkpt><trkpt lat="55.2828600" lon="38.8085420"><time>2020-06-27T06:50:54.693</time></trkpt><trkpt lat="55.2829170" lon="38.8085420"><time>2020-06-27T06:50:56.453</time></trkpt><trkpt lat="55.2829900" lon="38.8085300"><time>2020-06-27T06:50:58.723</time></trkpt><trkpt lat="55.2830710" lon="38.8085290"><time>2020-06-27T06:51:00.727</time></trkpt><trkpt lat="55.2831400" lon="38.8085490"><time>2020-06-27T06:51:02.713</time></trkpt><trkpt lat="55.2832230" lon="38.8085830"><time>2020-06-27T06:51:04.757</time></trkpt><trkpt lat="55.2832760" lon="38.8086200"><time>2020-06-27T06:51:05.727</time></trkpt><trkpt lat="55.2833200" lon="38.8086530"><time>2020-06-27T06:51:06.707</time></trkpt><trkpt lat="55.2833840" lon="38.8087070"><time>2020-06-27T06:51:08.717</time></trkpt><trkpt lat="55.2834390" lon="38.8087510"><time>2020-06-27T06:51:10.707</time></trkpt><trkpt lat="55.2834930" lon="38.8087830"><time>2020-06-27T06:51:12.703</time></trkpt><trkpt lat="55.2835560" lon="38.8088180"><time>2020-06-27T06:51:14.707</time></trkpt><trkpt lat="55.2836240" lon="38.8088770"><time>2020-06-27T06:51:16.700</time></trkpt><trkpt lat="55.2836870" lon="38.8089540"><time>2020-06-27T06:51:18.470</time></trkpt><trkpt lat="55.2837290" lon="38.8090130"><time>2020-06-27T06:51:20.450</time></trkpt><trkpt lat="55.2838610" lon="38.8091380"><time>2020-06-27T06:51:23.673</time></trkpt><trkpt lat="55.2839120" lon="38.8091800"><time>2020-06-27T06:51:24.670</time></trkpt><trkpt lat="55.2839610" lon="38.8092210"><time>2020-06-27T06:51:25.680</time></trkpt><trkpt lat="55.2840070" lon="38.8092350"><time>2020-06-27T06:51:26.690</time></trkpt><trkpt lat="55.2840770" lon="38.8093060"><time>2020-06-27T06:51:28.690</time></trkpt><trkpt lat="55.2841490" lon="38.8093720"><time>2020-06-27T06:51:30.687</time></trkpt><trkpt lat="55.2841890" lon="38.8094320"><time>2020-06-27T06:51:32.750</time></trkpt><trkpt lat="55.2842210" lon="38.8094960"><time>2020-06-27T06:51:35.687</time></trkpt><trkpt lat="55.2842120" lon="38.8095910"><time>2020-06-27T06:51:37.723</time></trkpt><trkpt lat="55.2842050" lon="38.8097070"><time>2020-06-27T06:51:41.713</time></trkpt><trkpt lat="55.2841910" lon="38.8098090"><time>2020-06-27T06:51:43.703</time></trkpt><trkpt lat="55.2841790" lon="38.8099060"><time>2020-06-27T06:51:45.493</time></trkpt><trkpt lat="55.2841720" lon="38.8100000"><time>2020-06-27T06:51:47.773</time></trkpt><trkpt lat="55.2841680" lon="38.8101180"><time>2020-06-27T06:51:49.723</time></trkpt><trkpt lat="55.2841550" lon="38.8102320"><time>2020-06-27T06:51:51.767</time></trkpt><trkpt lat="55.2841400" lon="38.8103520"><time>2020-06-27T06:51:53.700</time></trkpt><trkpt lat="55.2841300" lon="38.8104350"><time>2020-06-27T06:51:55.767</time></trkpt><trkpt lat="55.2841180" lon="38.8105260"><time>2020-06-27T06:51:57.497</time></trkpt><trkpt lat="55.2841110" lon="38.8106310"><time>2020-06-27T06:51:59.733</time></trkpt><trkpt lat="55.2840950" lon="38.8107500"><time>2020-06-27T06:52:01.713</time></trkpt><trkpt lat="55.2840920" lon="38.8108740"><time>2020-06-27T06:52:03.730</time></trkpt><trkpt lat="55.2840930" lon="38.8110010"><time>2020-06-27T06:52:05.713</time></trkpt><trkpt lat="55.2840800" lon="38.8111270"><time>2020-06-27T06:52:07.700</time></trkpt><trkpt lat="55.2840740" lon="38.8112410"><time>2020-06-27T06:52:09.707</time></trkpt><trkpt lat="55.2840750" lon="38.8113400"><time>2020-06-27T06:52:11.780</time></trkpt><trkpt lat="55.2840510" lon="38.8114120"><time>2020-06-27T06:52:18.513</time></trkpt><trkpt lat="55.2839740" lon="38.8114130"><time>2020-06-27T06:52:24.750</time></trkpt><trkpt lat="55.2839060" lon="38.8114070"><time>2020-06-27T06:52:26.757</time></trkpt><trkpt lat="55.2838540" lon="38.8114390"><time>2020-06-27T06:52:28.497</time></trkpt><trkpt lat="55.2838070" lon="38.8114660"><time>2020-06-27T06:52:30.730</time></trkpt><trkpt lat="55.2837460" lon="38.8115090"><time>2020-06-27T06:52:33.747</time></trkpt><trkpt lat="55.2836950" lon="38.8115080"><time>2020-06-27T06:52:37.737</time></trkpt><trkpt lat="55.2837110" lon="38.8115900"><time>2020-06-27T06:52:55.747</time></trkpt><trkpt lat="55.2836580" lon="38.8115880"><time>2020-06-27T06:53:01.747</time></trkpt><trkpt lat="55.2836070" lon="38.8115680"><time>2020-06-27T06:53:05.777</time></trkpt><trkpt lat="55.2835600" lon="38.8116020"><time>2020-06-27T06:53:09.730</time></trkpt><trkpt lat="55.2836100" lon="38.8116240"><time>2020-06-27T06:53:13.720</time></trkpt><trkpt lat="55.2836100" lon="38.8116360"><time>2020-06-27T06:53:16.023</time></trkpt><trkpt lat="55.2836530" lon="38.8115950"><time>2020-06-27T06:53:20.477</time></trkpt><trkpt lat="55.2837010" lon="38.8115870"><time>2020-06-27T06:53:23.487</time></trkpt><trkpt lat="55.2837470" lon="38.8115320"><time>2020-06-27T06:53:28.723</time></trkpt><trkpt lat="55.2837210" lon="38.8114600"><time>2020-06-27T06:53:31.727</time></trkpt><trkpt lat="55.2836900" lon="38.8113770"><time>2020-06-27T06:53:34.743</time></trkpt><trkpt lat="55.2837180" lon="38.8113040"><time>2020-06-27T06:53:38.727</time></trkpt><trkpt lat="55.2837680" lon="38.8113020"><time>2020-06-27T06:53:43.770</time></trkpt><trkpt lat="55.2839590" lon="38.8112920"><time>2020-06-27T06:53:56.767</time></trkpt><trkpt lat="55.2839430" lon="38.8112120"><time>2020-06-27T06:54:01.767</time></trkpt><trkpt lat="55.2839180" lon="38.8112830"><time>2020-06-27T06:54:08.737</time></trkpt><trkpt lat="55.2839330" lon="38.8111860"><time>2020-06-27T06:54:14.727</time></trkpt><trkpt lat="55.2839310" lon="38.8110750"><time>2020-06-27T06:54:17.730</time></trkpt><trkpt lat="55.2839370" lon="38.8109890"><time>2020-06-27T06:54:19.500</time></trkpt><trkpt lat="55.2839430" lon="38.8109080"><time>2020-06-27T06:54:21.743</time></trkpt><trkpt lat="55.2839490" lon="38.8108020"><time>2020-06-27T06:54:23.717</time></trkpt><trkpt lat="55.2839540" lon="38.8107120"><time>2020-06-27T06:54:25.710</time></trkpt><trkpt lat="55.2839560" lon="38.8106260"><time>2020-06-27T06:54:27.743</time></trkpt><trkpt lat="55.2839530" lon="38.8105430"><time>2020-06-27T06:54:29.740</time></trkpt><trkpt lat="55.2839630" lon="38.8104500"><time>2020-06-27T06:54:31.740</time></trkpt><trkpt lat="55.2839770" lon="38.8103310"><time>2020-06-27T06:54:33.737</time></trkpt><trkpt lat="55.2839940" lon="38.8102170"><time>2020-06-27T06:54:35.707</time></trkpt><trkpt lat="55.2840130" lon="38.8101040"><time>2020-06-27T06:54:37.733</time></trkpt><trkpt lat="55.2840160" lon="38.8100150"><time>2020-06-27T06:54:39.733</time></trkpt><trkpt lat="55.2840290" lon="38.8099280"><time>2020-06-27T06:54:41.723</time></trkpt><trkpt lat="55.2840500" lon="38.8098270"><time>2020-06-27T06:54:43.727</time></trkpt><trkpt lat="55.2840620" lon="38.8097370"><time>2020-06-27T06:54:45.740</time></trkpt><trkpt lat="55.2840700" lon="38.8096230"><time>2020-06-27T06:54:48.730</time></trkpt><trkpt lat="55.2840850" lon="38.8095180"><time>2020-06-27T06:54:51.727</time></trkpt><trkpt lat="55.2840930" lon="38.8094240"><time>2020-06-27T06:54:53.730</time></trkpt><trkpt lat="55.2840990" lon="38.8093330"><time>2020-06-27T06:54:55.773</time></trkpt><trkpt lat="55.2841160" lon="38.8092410"><time>2020-06-27T06:54:57.717</time></trkpt><trkpt lat="55.2841290" lon="38.8091560"><time>2020-06-27T06:54:59.720</time></trkpt><trkpt lat="55.2841450" lon="38.8090630"><time>2020-06-27T06:55:01.733</time></trkpt><trkpt lat="55.2841600" lon="38.8089520"><time>2020-06-27T06:55:03.717</time></trkpt><trkpt lat="55.2841790" lon="38.8088710"><time>2020-06-27T06:55:05.743</time></trkpt><trkpt lat="55.2841950" lon="38.8087900"><time>2020-06-27T06:55:07.733</time></trkpt><trkpt lat="55.2842090" lon="38.8086800"><time>2020-06-27T06:55:09.737</time></trkpt><trkpt lat="55.2842320" lon="38.8085480"><time>2020-06-27T06:55:11.727</time></trkpt><trkpt lat="55.2842580" lon="38.8084270"><time>2020-06-27T06:55:13.707</time></trkpt><trkpt lat="55.2842930" lon="38.8082540"><time>2020-06-27T06:55:15.710</time></trkpt><trkpt lat="55.2843080" lon="38.8081570"><time>2020-06-27T06:55:16.443</time></trkpt><trkpt lat="55.2843230" lon="38.8080390"><time>2020-06-27T06:55:18.693</time></trkpt><trkpt lat="55.2843200" lon="38.8079470"><time>2020-06-27T06:55:19.463</time></trkpt><trkpt lat="55.2843410" lon="38.8078670"><time>2020-06-27T06:55:21.470</time></trkpt><trkpt lat="55.2843480" lon="38.8077820"><time>2020-06-27T06:55:22.703</time></trkpt><trkpt lat="55.2843600" lon="38.8076900"><time>2020-06-27T06:55:24.693</time></trkpt><trkpt lat="55.2843850" lon="38.8075860"><time>2020-06-27T06:55:26.693</time></trkpt><trkpt lat="55.2843800" lon="38.8074860"><time>2020-06-27T06:55:28.713</time></trkpt><trkpt lat="55.2844030" lon="38.8074090"><time>2020-06-27T06:55:29.717</time></trkpt><trkpt lat="55.2844220" lon="38.8073030"><time>2020-06-27T06:55:30.697</time></trkpt><trkpt lat="55.2844300" lon="38.8071620"><time>2020-06-27T06:55:32.703</time></trkpt><trkpt lat="55.2844580" lon="38.8070520"><time>2020-06-27T06:55:34.703</time></trkpt><trkpt lat="55.2844800" lon="38.8069380"><time>2020-06-27T06:55:37.627</time></trkpt><trkpt lat="55.2845170" lon="38.8067920"><time>2020-06-27T06:55:38.710</time></trkpt><trkpt lat="55.2845350" lon="38.8066880"><time>2020-06-27T06:55:40.683</time></trkpt><trkpt lat="55.2845700" lon="38.8066260"><time>2020-06-27T06:55:41.687</time></trkpt><trkpt lat="55.2845930" lon="38.8065030"><time>2020-06-27T06:55:43.710</time></trkpt><trkpt lat="55.2845960" lon="38.8064200"><time>2020-06-27T06:55:44.693</time></trkpt><trkpt lat="55.2846240" lon="38.8062950"><time>2020-06-27T06:55:46.693</time></trkpt><trkpt lat="55.2846600" lon="38.8061980"><time>2020-06-27T06:55:48.693</time></trkpt><trkpt lat="55.2846790" lon="38.8061170"><time>2020-06-27T06:55:50.733</time></trkpt><trkpt lat="55.2846970" lon="38.8059800"><time>2020-06-27T06:55:52.697</time></trkpt><trkpt lat="55.2847080" lon="38.8058680"><time>2020-06-27T06:55:54.727</time></trkpt><trkpt lat="55.2847310" lon="38.8057450"><time>2020-06-27T06:55:56.730</time></trkpt><trkpt lat="55.2847560" lon="38.8056460"><time>2020-06-27T06:55:58.717</time></trkpt><trkpt lat="55.2847720" lon="38.8055310"><time>2020-06-27T06:56:00.733</time></trkpt><trkpt lat="55.2847700" lon="38.8054190"><time>2020-06-27T06:56:02.747</time></trkpt><trkpt lat="55.2847740" lon="38.8052700"><time>2020-06-27T06:56:04.493</time></trkpt><trkpt lat="55.2847860" lon="38.8051940"><time>2020-06-27T06:56:05.783</time></trkpt><trkpt lat="55.2848020" lon="38.8051140"><time>2020-06-27T06:56:06.730</time></trkpt><trkpt lat="55.2848300" lon="38.8049710"><time>2020-06-27T06:56:08.737</time></trkpt><trkpt lat="55.2848670" lon="38.8048590"><time>2020-06-27T06:56:10.487</time></trkpt><trkpt lat="55.2849070" lon="38.8047130"><time>2020-06-27T06:56:12.733</time></trkpt><trkpt lat="55.2849430" lon="38.8045870"><time>2020-06-27T06:56:14.727</time></trkpt><trkpt lat="55.2849550" lon="38.8044860"><time>2020-06-27T06:56:16.747</time></trkpt><trkpt lat="55.2849590" lon="38.8044020"><time>2020-06-27T06:56:20.773</time></trkpt><trkpt lat="55.2849250" lon="38.8043100"><time>2020-06-27T06:56:23.467</time></trkpt><trkpt lat="55.2848910" lon="38.8042530"><time>2020-06-27T06:56:25.490</time></trkpt><trkpt lat="55.2848330" lon="38.8042020"><time>2020-06-27T06:56:28.720</time></trkpt><trkpt lat="55.2848120" lon="38.8041240"><time>2020-06-27T06:56:30.737</time></trkpt><trkpt lat="55.2847620" lon="38.8040710"><time>2020-06-27T06:56:32.510</time></trkpt><trkpt lat="55.2847140" lon="38.8040070"><time>2020-06-27T06:56:34.723</time></trkpt><trkpt lat="55.2846710" lon="38.8039520"><time>2020-06-27T06:56:37.753</time></trkpt><trkpt lat="55.2846400" lon="38.8038720"><time>2020-06-27T06:56:40.770</time></trkpt><trkpt lat="55.2845990" lon="38.8038200"><time>2020-06-27T06:56:42.720</time></trkpt><trkpt lat="55.2845600" lon="38.8037620"><time>2020-06-27T06:56:44.730</time></trkpt><trkpt lat="55.2845280" lon="38.8036700"><time>2020-06-27T06:56:47.710</time></trkpt><trkpt lat="55.2845130" lon="38.8035840"><time>2020-06-27T06:56:49.757</time></trkpt><trkpt lat="55.2844990" lon="38.8035020"><time>2020-06-27T06:56:51.717</time></trkpt><trkpt lat="55.2844800" lon="38.8034050"><time>2020-06-27T06:56:54.717</time></trkpt><trkpt lat="55.2844920" lon="38.8033100"><time>2020-06-27T06:56:57.710</time></trkpt><trkpt lat="55.2844910" lon="38.8032170"><time>2020-06-27T06:56:59.710</time></trkpt><trkpt lat="55.2844720" lon="38.8031000"><time>2020-06-27T06:57:02.710</time></trkpt><trkpt lat="55.2844500" lon="38.8030250"><time>2020-06-27T06:57:04.727</time></trkpt><trkpt lat="55.2844680" lon="38.8029450"><time>2020-06-27T06:57:06.720</time></trkpt><trkpt lat="55.2845270" lon="38.8028610"><time>2020-06-27T06:57:08.777</time></trkpt><trkpt lat="55.2845530" lon="38.8027640"><time>2020-06-27T06:57:11.793</time></trkpt><trkpt lat="55.2845750" lon="38.8026720"><time>2020-06-27T06:57:13.740</time></trkpt><trkpt lat="55.2846090" lon="38.8025830"><time>2020-06-27T06:57:15.737</time></trkpt><trkpt lat="55.2846420" lon="38.8025140"><time>2020-06-27T06:57:17.707</time></trkpt><trkpt lat="55.2846450" lon="38.8024120"><time>2020-06-27T06:57:21.693</time></trkpt><trkpt lat="55.2846100" lon="38.8023250"><time>2020-06-27T06:57:24.717</time></trkpt><trkpt lat="55.2845650" lon="38.8022340"><time>2020-06-27T06:57:27.747</time></trkpt><trkpt lat="55.2845310" lon="38.8021470"><time>2020-06-27T06:57:29.757</time></trkpt><trkpt lat="55.2844930" lon="38.8020610"><time>2020-06-27T06:57:31.517</time></trkpt><trkpt lat="55.2844660" lon="38.8019720"><time>2020-06-27T06:57:33.763</time></trkpt><trkpt lat="55.2844420" lon="38.8018860"><time>2020-06-27T06:57:35.740</time></trkpt><trkpt lat="55.2844320" lon="38.8017990"><time>2020-06-27T06:57:37.503</time></trkpt><trkpt lat="55.2844000" lon="38.8017110"><time>2020-06-27T06:57:40.480</time></trkpt><trkpt lat="55.2843690" lon="38.8016000"><time>2020-06-27T06:57:43.490</time></trkpt><trkpt lat="55.2843420" lon="38.8014790"><time>2020-06-27T06:57:45.507</time></trkpt><trkpt lat="55.2843150" lon="38.8013420"><time>2020-06-27T06:57:47.477</time></trkpt><trkpt lat="55.2843110" lon="38.8012380"><time>2020-06-27T06:57:49.477</time></trkpt><trkpt lat="55.2842920" lon="38.8011600"><time>2020-06-27T06:57:51.483</time></trkpt><trkpt lat="55.2842520" lon="38.8010830"><time>2020-06-27T06:57:53.710</time></trkpt><trkpt lat="55.2842170" lon="38.8010020"><time>2020-06-27T06:57:57.703</time></trkpt><trkpt lat="55.2841850" lon="38.8009170"><time>2020-06-27T06:57:59.740</time></trkpt><trkpt lat="55.2841500" lon="38.8008660"><time>2020-06-27T06:58:00.710</time></trkpt><trkpt lat="55.2841120" lon="38.8008090"><time>2020-06-27T06:58:01.710</time></trkpt><trkpt lat="55.2840590" lon="38.8006880"><time>2020-06-27T06:58:03.717</time></trkpt><trkpt lat="55.2840290" lon="38.8005500"><time>2020-06-27T06:58:04.710</time></trkpt><trkpt lat="55.2840410" lon="38.8004260"><time>2020-06-27T06:58:06.683</time></trkpt><trkpt lat="55.2840020" lon="38.8003710"><time>2020-06-27T06:58:09.700</time></trkpt><trkpt lat="55.2839670" lon="38.8002850"><time>2020-06-27T06:58:13.700</time></trkpt><trkpt lat="55.2839370" lon="38.8002040"><time>2020-06-27T06:58:15.733</time></trkpt><trkpt lat="55.2838920" lon="38.8001290"><time>2020-06-27T06:58:18.717</time></trkpt><trkpt lat="55.2838540" lon="38.8000320"><time>2020-06-27T06:58:20.703</time></trkpt><trkpt lat="55.2838170" lon="38.7999440"><time>2020-06-27T06:58:22.723</time></trkpt><trkpt lat="55.2837650" lon="38.7998910"><time>2020-06-27T06:58:24.723</time></trkpt><trkpt lat="55.2837210" lon="38.7998490"><time>2020-06-27T06:58:27.720</time></trkpt><trkpt lat="55.2836700" lon="38.7997830"><time>2020-06-27T06:58:30.730</time></trkpt><trkpt lat="55.2836100" lon="38.7997320"><time>2020-06-27T06:58:33.473</time></trkpt><trkpt lat="55.2835660" lon="38.7997020"><time>2020-06-27T06:58:35.713</time></trkpt><trkpt lat="55.2835180" lon="38.7996810"><time>2020-06-27T06:58:37.733</time></trkpt><trkpt lat="55.2834650" lon="38.7996540"><time>2020-06-27T06:58:39.713</time></trkpt><trkpt lat="55.2833950" lon="38.7996160"><time>2020-06-27T06:58:42.723</time></trkpt><trkpt lat="55.2833370" lon="38.7995870"><time>2020-06-27T06:58:45.707</time></trkpt><trkpt lat="55.2832670" lon="38.7995620"><time>2020-06-27T06:58:47.480</time></trkpt><trkpt lat="55.2832250" lon="38.7995280"><time>2020-06-27T06:58:48.487</time></trkpt><trkpt lat="55.2831700" lon="38.7994560"><time>2020-06-27T06:58:50.717</time></trkpt><trkpt lat="55.2831290" lon="38.7993690"><time>2020-06-27T06:58:53.710</time></trkpt><trkpt lat="55.2830560" lon="38.7993260"><time>2020-06-27T06:58:55.717</time></trkpt><trkpt lat="55.2829940" lon="38.7992910"><time>2020-06-27T06:58:57.730</time></trkpt><trkpt lat="55.2829240" lon="38.7992370"><time>2020-06-27T06:58:59.737</time></trkpt><trkpt lat="55.2828690" lon="38.7991830"><time>2020-06-27T06:59:01.707</time></trkpt><trkpt lat="55.2828040" lon="38.7991330"><time>2020-06-27T06:59:03.727</time></trkpt><trkpt lat="55.2827600" lon="38.7990880"><time>2020-06-27T06:59:05.697</time></trkpt><trkpt lat="55.2826770" lon="38.7990020"><time>2020-06-27T06:59:07.717</time></trkpt><trkpt lat="55.2826250" lon="38.7989440"><time>2020-06-27T06:59:08.487</time></trkpt><trkpt lat="55.2825780" lon="38.7988930"><time>2020-06-27T06:59:09.750</time></trkpt><trkpt lat="55.2825360" lon="38.7988400"><time>2020-06-27T06:59:10.733</time></trkpt><trkpt lat="55.2824650" lon="38.7987600"><time>2020-06-27T06:59:12.490</time></trkpt><trkpt lat="55.2824110" lon="38.7987190"><time>2020-06-27T06:59:14.727</time></trkpt><trkpt lat="55.2823500" lon="38.7986560"><time>2020-06-27T06:59:16.730</time></trkpt><trkpt lat="55.2822820" lon="38.7986130"><time>2020-06-27T06:59:18.743</time></trkpt><trkpt lat="55.2822370" lon="38.7986380"><time>2020-06-27T06:59:20.710</time></trkpt><trkpt lat="55.2821860" lon="38.7986450"><time>2020-06-27T06:59:22.700</time></trkpt><trkpt lat="55.2821400" lon="38.7986430"><time>2020-06-27T06:59:24.727</time></trkpt><trkpt lat="55.2821000" lon="38.7985750"><time>2020-06-27T06:59:28.767</time></trkpt><trkpt lat="55.2820500" lon="38.7985960"><time>2020-06-27T06:59:31.710</time></trkpt><trkpt lat="55.2819870" lon="38.7986130"><time>2020-06-27T06:59:35.727</time></trkpt><trkpt lat="55.2819410" lon="38.7986200"><time>2020-06-27T06:59:38.720</time></trkpt><trkpt lat="55.2818740" lon="38.7986070"><time>2020-06-27T06:59:41.717</time></trkpt><trkpt lat="55.2818190" lon="38.7986010"><time>2020-06-27T06:59:43.773</time></trkpt><trkpt lat="55.2817620" lon="38.7985990"><time>2020-06-27T06:59:47.493</time></trkpt><trkpt lat="55.2817050" lon="38.7985990"><time>2020-06-27T06:59:49.490</time></trkpt><trkpt lat="55.2816600" lon="38.7986210"><time>2020-06-27T06:59:54.720</time></trkpt><trkpt lat="55.2816090" lon="38.7986070"><time>2020-06-27T07:00:00.737</time></trkpt><trkpt lat="55.2815500" lon="38.7986170"><time>2020-06-27T07:00:04.737</time></trkpt><trkpt lat="55.2814930" lon="38.7986690"><time>2020-06-27T07:00:07.720</time></trkpt><trkpt lat="55.2814490" lon="38.7986860"><time>2020-06-27T07:00:10.743</time></trkpt><trkpt lat="55.2814000" lon="38.7986940"><time>2020-06-27T07:00:14.473</time></trkpt><trkpt lat="55.2813790" lon="38.7986160"><time>2020-06-27T07:00:27.490</time></trkpt><trkpt lat="55.2813830" lon="38.7985180"><time>2020-06-27T07:00:29.727</time></trkpt><trkpt lat="55.2813870" lon="38.7984080"><time>2020-06-27T07:00:31.720</time></trkpt><trkpt lat="55.2814060" lon="38.7984920"><time>2020-06-27T07:00:34.730</time></trkpt><trkpt lat="55.2814050" lon="38.7985800"><time>2020-06-27T07:00:36.717</time></trkpt><trkpt lat="55.2813780" lon="38.7986480"><time>2020-06-27T07:00:38.717</time></trkpt><trkpt lat="55.2814280" lon="38.7986850"><time>2020-06-27T07:00:43.707</time></trkpt><trkpt lat="55.2814340" lon="38.7987980"><time>2020-06-27T07:00:47.730</time></trkpt><trkpt lat="55.2814050" lon="38.7989050"><time>2020-06-27T07:00:50.723</time></trkpt><trkpt lat="55.2814510" lon="38.7989260"><time>2020-06-27T07:00:53.733</time></trkpt><trkpt lat="55.2814880" lon="38.7988760"><time>2020-06-27T07:00:56.743</time></trkpt><trkpt lat="55.2815190" lon="38.7989770"><time>2020-06-27T07:01:02.487</time></trkpt><trkpt lat="55.2815340" lon="38.7990560"><time>2020-06-27T07:01:06.723</time></trkpt><trkpt lat="55.2815780" lon="38.7991000"><time>2020-06-27T07:01:08.720</time></trkpt><trkpt lat="55.2816240" lon="38.7991270"><time>2020-06-27T07:01:10.730</time></trkpt><trkpt lat="55.2816690" lon="38.7991340"><time>2020-06-27T07:01:14.487</time></trkpt><trkpt lat="55.2817160" lon="38.7991230"><time>2020-06-27T07:01:16.730</time></trkpt><trkpt lat="55.2817700" lon="38.7991340"><time>2020-06-27T07:01:19.730</time></trkpt><trkpt lat="55.2818090" lon="38.7991850"><time>2020-06-27T07:01:22.757</time></trkpt><trkpt lat="55.2818280" lon="38.7992780"><time>2020-06-27T07:01:25.490</time></trkpt><trkpt lat="55.2817960" lon="38.7992190"><time>2020-06-27T07:01:45.463</time></trkpt><trkpt lat="55.2817960" lon="38.7992190"><time>2020-06-27T07:01:46.007</time></trkpt><trkpt lat="55.2817600" lon="38.7991290"><time>2020-06-27T07:01:51.483</time></trkpt><trkpt lat="55.2817450" lon="38.7990270"><time>2020-06-27T07:01:54.740</time></trkpt><trkpt lat="55.2816870" lon="38.7989750"><time>2020-06-27T07:01:58.740</time></trkpt><trkpt lat="55.2816400" lon="38.7989710"><time>2020-06-27T07:02:04.727</time></trkpt><trkpt lat="55.2815890" lon="38.7989420"><time>2020-06-27T07:02:06.733</time></trkpt><trkpt lat="55.2815410" lon="38.7989180"><time>2020-06-27T07:02:08.700</time></trkpt><trkpt lat="55.2814870" lon="38.7989320"><time>2020-06-27T07:02:11.733</time></trkpt><trkpt lat="55.2814460" lon="38.7989770"><time>2020-06-27T07:02:13.707</time></trkpt><trkpt lat="55.2813950" lon="38.7989490"><time>2020-06-27T07:02:16.713</time></trkpt><trkpt lat="55.2813480" lon="38.7989020"><time>2020-06-27T07:02:19.720</time></trkpt><trkpt lat="55.2813710" lon="38.7988280"><time>2020-06-27T07:02:21.487</time></trkpt><trkpt lat="55.2813850" lon="38.7987340"><time>2020-06-27T07:02:24.720</time></trkpt><trkpt lat="55.2814150" lon="38.7986710"><time>2020-06-27T07:02:27.723</time></trkpt><trkpt lat="55.2813800" lon="38.7987330"><time>2020-06-27T07:02:30.693</time></trkpt><trkpt lat="55.2813700" lon="38.7986420"><time>2020-06-27T07:02:36.727</time></trkpt><trkpt lat="55.2813410" lon="38.7985540"><time>2020-06-27T07:02:39.720</time></trkpt><trkpt lat="55.2812980" lon="38.7985230"><time>2020-06-27T07:02:42.727</time></trkpt><trkpt lat="55.2812830" lon="38.7986030"><time>2020-06-27T07:02:44.743</time></trkpt><trkpt lat="55.2812800" lon="38.7986840"><time>2020-06-27T07:03:11.700</time></trkpt><trkpt lat="55.2812330" lon="38.7987230"><time>2020-06-27T07:03:14.473</time></trkpt><trkpt lat="55.2811880" lon="38.7987620"><time>2020-06-27T07:03:16.750</time></trkpt><trkpt lat="55.2811470" lon="38.7988060"><time>2020-06-27T07:03:18.687</time></trkpt><trkpt lat="55.2811010" lon="38.7988510"><time>2020-06-27T07:03:20.483</time></trkpt><trkpt lat="55.2810320" lon="38.7988800"><time>2020-06-27T07:03:21.467</time></trkpt><trkpt lat="55.2809790" lon="38.7989030"><time>2020-06-27T07:03:24.677</time></trkpt><trkpt lat="55.2809450" lon="38.7988430"><time>2020-06-27T07:03:26.730</time></trkpt><trkpt lat="55.2809030" lon="38.7987780"><time>2020-06-27T07:03:29.697</time></trkpt><trkpt lat="55.2808720" lon="38.7987090"><time>2020-06-27T07:03:31.730</time></trkpt><trkpt lat="55.2808470" lon="38.7986080"><time>2020-06-27T07:03:33.737</time></trkpt><trkpt lat="55.2808510" lon="38.7985290"><time>2020-06-27T07:03:35.707</time></trkpt><trkpt lat="55.2808290" lon="38.7984470"><time>2020-06-27T07:03:37.717</time></trkpt><trkpt lat="55.2807930" lon="38.7983930"><time>2020-06-27T07:03:39.713</time></trkpt><trkpt lat="55.2807630" lon="38.7983290"><time>2020-06-27T07:03:41.767</time></trkpt><trkpt lat="55.2807310" lon="38.7982680"><time>2020-06-27T07:03:43.740</time></trkpt><trkpt lat="55.2807220" lon="38.7981890"><time>2020-06-27T07:03:45.720</time></trkpt><trkpt lat="55.2807240" lon="38.7980860"><time>2020-06-27T07:03:48.463</time></trkpt><trkpt lat="55.2807470" lon="38.7980140"><time>2020-06-27T07:03:52.743</time></trkpt><trkpt lat="55.2807010" lon="38.7980170"><time>2020-06-27T07:03:56.717</time></trkpt><trkpt lat="55.2806550" lon="38.7979870"><time>2020-06-27T07:04:01.773</time></trkpt><trkpt lat="55.2806190" lon="38.7979320"><time>2020-06-27T07:04:05.770</time></trkpt><trkpt lat="55.2805990" lon="38.7978400"><time>2020-06-27T07:04:10.733</time></trkpt><trkpt lat="55.2805480" lon="38.7978080"><time>2020-06-27T07:04:13.763</time></trkpt><trkpt lat="55.2805490" lon="38.7977200"><time>2020-06-27T07:04:17.723</time></trkpt><trkpt lat="55.2805210" lon="38.7976580"><time>2020-06-27T07:04:23.757</time></trkpt><trkpt lat="55.2804810" lon="38.7976130"><time>2020-06-27T07:04:27.707</time></trkpt><trkpt lat="55.2804990" lon="38.7975020"><time>2020-06-27T07:04:31.713</time></trkpt><trkpt lat="55.2805140" lon="38.7974190"><time>2020-06-27T07:04:35.487</time></trkpt><trkpt lat="55.2805310" lon="38.7973300"><time>2020-06-27T07:04:38.727</time></trkpt><trkpt lat="55.2805720" lon="38.7972540"><time>2020-06-27T07:04:41.733</time></trkpt><trkpt lat="55.2805880" lon="38.7971730"><time>2020-06-27T07:04:44.720</time></trkpt><trkpt lat="55.2805850" lon="38.7970870"><time>2020-06-27T07:04:47.727</time></trkpt><trkpt lat="55.2805840" lon="38.7969950"><time>2020-06-27T07:04:51.817</time></trkpt><trkpt lat="55.2806180" lon="38.7969430"><time>2020-06-27T07:04:54.487</time></trkpt><trkpt lat="55.2806500" lon="38.7968850"><time>2020-06-27T07:05:00.687</time></trkpt><trkpt lat="55.2806920" lon="38.7968310"><time>2020-06-27T07:05:03.717</time></trkpt><trkpt lat="55.2807460" lon="38.7968040"><time>2020-06-27T07:05:07.730</time></trkpt><trkpt lat="55.2807550" lon="38.7967090"><time>2020-06-27T07:05:12.727</time></trkpt><trkpt lat="55.2807480" lon="38.7966220"><time>2020-06-27T07:05:15.783</time></trkpt><trkpt lat="55.2807450" lon="38.7965310"><time>2020-06-27T07:05:17.737</time></trkpt><trkpt lat="55.2807270" lon="38.7964310"><time>2020-06-27T07:05:19.710</time></trkpt><trkpt lat="55.2807220" lon="38.7963140"><time>2020-06-27T07:05:21.713</time></trkpt><trkpt lat="55.2807170" lon="38.7962060"><time>2020-06-27T07:05:23.500</time></trkpt><trkpt lat="55.2807050" lon="38.7961030"><time>2020-06-27T07:05:25.493</time></trkpt><trkpt lat="55.2807020" lon="38.7960080"><time>2020-06-27T07:05:27.760</time></trkpt><trkpt lat="55.2806970" lon="38.7959260"><time>2020-06-27T07:05:29.750</time></trkpt><trkpt lat="55.2806880" lon="38.7958150"><time>2020-06-27T07:05:32.713</time></trkpt><trkpt lat="55.2807020" lon="38.7956980"><time>2020-06-27T07:05:35.700</time></trkpt><trkpt lat="55.2807250" lon="38.7956000"><time>2020-06-27T07:05:37.720</time></trkpt><trkpt lat="55.2807380" lon="38.7955000"><time>2020-06-27T07:05:39.743</time></trkpt><trkpt lat="55.2807230" lon="38.7954020"><time>2020-06-27T07:05:41.727</time></trkpt><trkpt lat="55.2807040" lon="38.7953200"><time>2020-06-27T07:05:43.763</time></trkpt><trkpt lat="55.2806770" lon="38.7952460"><time>2020-06-27T07:05:45.727</time></trkpt><trkpt lat="55.2806460" lon="38.7951780"><time>2020-06-27T07:05:47.493</time></trkpt><trkpt lat="55.2806200" lon="38.7950880"><time>2020-06-27T07:05:49.727</time></trkpt><trkpt lat="55.2806080" lon="38.7949720"><time>2020-06-27T07:05:51.710</time></trkpt><trkpt lat="55.2805940" lon="38.7948740"><time>2020-06-27T07:05:53.707</time></trkpt><trkpt lat="55.2806150" lon="38.7947810"><time>2020-06-27T07:05:55.717</time></trkpt><trkpt lat="55.2806280" lon="38.7947020"><time>2020-06-27T07:05:57.730</time></trkpt><trkpt lat="55.2806430" lon="38.7946250"><time>2020-06-27T07:05:59.690</time></trkpt><trkpt lat="55.2806530" lon="38.7945260"><time>2020-06-27T07:06:01.487</time></trkpt><trkpt lat="55.2806700" lon="38.7944150"><time>2020-06-27T07:06:03.740</time></trkpt><trkpt lat="55.2806930" lon="38.7943360"><time>2020-06-27T07:06:05.730</time></trkpt><trkpt lat="55.2807030" lon="38.7942400"><time>2020-06-27T07:06:07.717</time></trkpt><trkpt lat="55.2807190" lon="38.7941420"><time>2020-06-27T07:06:09.760</time></trkpt><trkpt lat="55.2807330" lon="38.7940410"><time>2020-06-27T07:06:11.730</time></trkpt><trkpt lat="55.2807450" lon="38.7939350"><time>2020-06-27T07:06:13.743</time></trkpt><trkpt lat="55.2807640" lon="38.7938270"><time>2020-06-27T07:06:15.723</time></trkpt><trkpt lat="55.2807760" lon="38.7937160"><time>2020-06-27T07:06:17.733</time></trkpt><trkpt lat="55.2807690" lon="38.7935870"><time>2020-06-27T07:06:19.507</time></trkpt><trkpt lat="55.2807680" lon="38.7934680"><time>2020-06-27T07:06:21.707</time></trkpt><trkpt lat="55.2807780" lon="38.7933600"><time>2020-06-27T07:06:23.487</time></trkpt><trkpt lat="55.2807790" lon="38.7932270"><time>2020-06-27T07:06:25.497</time></trkpt><trkpt lat="55.2807820" lon="38.7930900"><time>2020-06-27T07:06:27.730</time></trkpt><trkpt lat="55.2807910" lon="38.7929500"><time>2020-06-27T07:06:29.723</time></trkpt><trkpt lat="55.2807890" lon="38.7928240"><time>2020-06-27T07:06:31.737</time></trkpt><trkpt lat="55.2807810" lon="38.7926930"><time>2020-06-27T07:06:33.733</time></trkpt><trkpt lat="55.2808040" lon="38.7925850"><time>2020-06-27T07:06:35.733</time></trkpt><trkpt lat="55.2808280" lon="38.7924910"><time>2020-06-27T07:06:37.710</time></trkpt><trkpt lat="55.2808370" lon="38.7923730"><time>2020-06-27T07:06:39.760</time></trkpt><trkpt lat="55.2808490" lon="38.7922780"><time>2020-06-27T07:06:41.723</time></trkpt><trkpt lat="55.2808590" lon="38.7921480"><time>2020-06-27T07:06:43.710</time></trkpt><trkpt lat="55.2808780" lon="38.7920020"><time>2020-06-27T07:06:45.713</time></trkpt><trkpt lat="55.2808710" lon="38.7919100"><time>2020-06-27T07:06:47.470</time></trkpt><trkpt lat="55.2808620" lon="38.7917590"><time>2020-06-27T07:06:49.723</time></trkpt><trkpt lat="55.2808750" lon="38.7916280"><time>2020-06-27T07:06:51.717</time></trkpt><trkpt lat="55.2808920" lon="38.7915190"><time>2020-06-27T07:06:53.710</time></trkpt><trkpt lat="55.2809070" lon="38.7914060"><time>2020-06-27T07:06:55.713</time></trkpt><trkpt lat="55.2809050" lon="38.7912780"><time>2020-06-27T07:06:57.717</time></trkpt><trkpt lat="55.2809010" lon="38.7911290"><time>2020-06-27T07:06:59.710</time></trkpt><trkpt lat="55.2809080" lon="38.7909830"><time>2020-06-27T07:07:01.723</time></trkpt><trkpt lat="55.2809220" lon="38.7908570"><time>2020-06-27T07:07:03.490</time></trkpt><trkpt lat="55.2809320" lon="38.7907360"><time>2020-06-27T07:07:05.730</time></trkpt><trkpt lat="55.2809490" lon="38.7906010"><time>2020-06-27T07:07:07.727</time></trkpt><trkpt lat="55.2809710" lon="38.7904960"><time>2020-06-27T07:07:09.757</time></trkpt><trkpt lat="55.2809940" lon="38.7904120"><time>2020-06-27T07:07:12.713</time></trkpt><trkpt lat="55.2810400" lon="38.7903930"><time>2020-06-27T07:07:19.703</time></trkpt><trkpt lat="55.2810570" lon="38.7902860"><time>2020-06-27T07:07:23.487</time></trkpt><trkpt lat="55.2810880" lon="38.7902230"><time>2020-06-27T07:07:27.760</time></trkpt><trkpt lat="55.2810590" lon="38.7901350"><time>2020-06-27T07:07:30.763</time></trkpt><trkpt lat="55.2810590" lon="38.7900550"><time>2020-06-27T07:07:32.730</time></trkpt><trkpt lat="55.2810420" lon="38.7899440"><time>2020-06-27T07:07:35.710</time></trkpt><trkpt lat="55.2810310" lon="38.7898490"><time>2020-06-27T07:07:38.703</time></trkpt><trkpt lat="55.2810310" lon="38.7897390"><time>2020-06-27T07:07:40.727</time></trkpt><trkpt lat="55.2810300" lon="38.7896060"><time>2020-06-27T07:07:42.710</time></trkpt><trkpt lat="55.2810220" lon="38.7894620"><time>2020-06-27T07:07:44.743</time></trkpt><trkpt lat="55.2810270" lon="38.7893230"><time>2020-06-27T07:07:46.707</time></trkpt><trkpt lat="55.2810380" lon="38.7892080"><time>2020-06-27T07:07:48.717</time></trkpt><trkpt lat="55.2810590" lon="38.7890830"><time>2020-06-27T07:07:50.727</time></trkpt><trkpt lat="55.2810870" lon="38.7889880"><time>2020-06-27T07:07:52.710</time></trkpt><trkpt lat="55.2810940" lon="38.7888670"><time>2020-06-27T07:07:54.717</time></trkpt><trkpt lat="55.2810910" lon="38.7887610"><time>2020-06-27T07:07:56.737</time></trkpt><trkpt lat="55.2810890" lon="38.7886600"><time>2020-06-27T07:07:58.767</time></trkpt><trkpt lat="55.2810890" lon="38.7885350"><time>2020-06-27T07:08:00.713</time></trkpt><trkpt lat="55.2810900" lon="38.7884180"><time>2020-06-27T07:08:02.723</time></trkpt><trkpt lat="55.2810990" lon="38.7882940"><time>2020-06-27T07:08:04.487</time></trkpt><trkpt lat="55.2810890" lon="38.7881610"><time>2020-06-27T07:08:06.717</time></trkpt><trkpt lat="55.2811040" lon="38.7880170"><time>2020-06-27T07:08:08.490</time></trkpt><trkpt lat="55.2811170" lon="38.7878700"><time>2020-06-27T07:08:10.500</time></trkpt><trkpt lat="55.2811230" lon="38.7877260"><time>2020-06-27T07:08:12.493</time></trkpt><trkpt lat="55.2811180" lon="38.7875990"><time>2020-06-27T07:08:14.743</time></trkpt><trkpt lat="55.2811170" lon="38.7874900"><time>2020-06-27T07:08:16.723</time></trkpt><trkpt lat="55.2811270" lon="38.7873510"><time>2020-06-27T07:08:18.723</time></trkpt><trkpt lat="55.2811450" lon="38.7872030"><time>2020-06-27T07:08:20.490</time></trkpt><trkpt lat="55.2811660" lon="38.7870630"><time>2020-06-27T07:08:22.717</time></trkpt><trkpt lat="55.2811910" lon="38.7869390"><time>2020-06-27T07:08:24.473</time></trkpt><trkpt lat="55.2812140" lon="38.7868310"><time>2020-06-27T07:08:26.723</time></trkpt><trkpt lat="55.2812160" lon="38.7867120"><time>2020-06-27T07:08:28.727</time></trkpt><trkpt lat="55.2812040" lon="38.7865780"><time>2020-06-27T07:08:30.740</time></trkpt><trkpt lat="55.2812090" lon="38.7864320"><time>2020-06-27T07:08:32.737</time></trkpt><trkpt lat="55.2812170" lon="38.7863180"><time>2020-06-27T07:08:34.717</time></trkpt><trkpt lat="55.2812360" lon="38.7861970"><time>2020-06-27T07:08:36.727</time></trkpt><trkpt lat="55.2812390" lon="38.7860650"><time>2020-06-27T07:08:38.507</time></trkpt><trkpt lat="55.2812350" lon="38.7859300"><time>2020-06-27T07:08:40.723</time></trkpt><trkpt lat="55.2812220" lon="38.7858200"><time>2020-06-27T07:08:42.717</time></trkpt><trkpt lat="55.2812270" lon="38.7857310"><time>2020-06-27T07:08:45.487</time></trkpt><trkpt lat="55.2812400" lon="38.7855750"><time>2020-06-27T07:08:47.740</time></trkpt><trkpt lat="55.2812760" lon="38.7855240"><time>2020-06-27T07:08:48.723</time></trkpt><trkpt lat="55.2813310" lon="38.7854320"><time>2020-06-27T07:08:50.723</time></trkpt><trkpt lat="55.2813230" lon="38.7853250"><time>2020-06-27T07:08:52.733</time></trkpt><trkpt lat="55.2813140" lon="38.7852350"><time>2020-06-27T07:08:54.733</time></trkpt><trkpt lat="55.2813090" lon="38.7851120"><time>2020-06-27T07:08:56.720</time></trkpt><trkpt lat="55.2813030" lon="38.7850230"><time>2020-06-27T07:08:58.720</time></trkpt><trkpt lat="55.2813400" lon="38.7849720"><time>2020-06-27T07:09:00.763</time></trkpt><trkpt lat="55.2813640" lon="38.7848650"><time>2020-06-27T07:09:04.763</time></trkpt><trkpt lat="55.2813700" lon="38.7847860"><time>2020-06-27T07:09:06.763</time></trkpt><trkpt lat="55.2813800" lon="38.7846860"><time>2020-06-27T07:09:08.713</time></trkpt><trkpt lat="55.2813730" lon="38.7845940"><time>2020-06-27T07:09:10.727</time></trkpt><trkpt lat="55.2813880" lon="38.7845040"><time>2020-06-27T07:09:12.713</time></trkpt><trkpt lat="55.2813900" lon="38.7844060"><time>2020-06-27T07:09:14.770</time></trkpt><trkpt lat="55.2813660" lon="38.7843140"><time>2020-06-27T07:09:18.743</time></trkpt><trkpt lat="55.2813570" lon="38.7842190"><time>2020-06-27T07:09:20.723</time></trkpt><trkpt lat="55.2813650" lon="38.7840960"><time>2020-06-27T07:09:22.703</time></trkpt><trkpt lat="55.2813640" lon="38.7839910"><time>2020-06-27T07:09:24.727</time></trkpt><trkpt lat="55.2813550" lon="38.7838770"><time>2020-06-27T07:09:26.490</time></trkpt><trkpt lat="55.2813470" lon="38.7837710"><time>2020-06-27T07:09:28.733</time></trkpt><trkpt lat="55.2813330" lon="38.7836480"><time>2020-06-27T07:09:30.750</time></trkpt><trkpt lat="55.2813390" lon="38.7835200"><time>2020-06-27T07:09:32.503</time></trkpt><trkpt lat="55.2813920" lon="38.7834130"><time>2020-06-27T07:09:34.733</time></trkpt><trkpt lat="55.2813910" lon="38.7833140"><time>2020-06-27T07:09:37.740</time></trkpt><trkpt lat="55.2813850" lon="38.7832020"><time>2020-06-27T07:09:39.497</time></trkpt><trkpt lat="55.2814080" lon="38.7830780"><time>2020-06-27T07:09:41.737</time></trkpt><trkpt lat="55.2814630" lon="38.7829650"><time>2020-06-27T07:09:43.737</time></trkpt><trkpt lat="55.2814710" lon="38.7828680"><time>2020-06-27T07:09:45.707</time></trkpt><trkpt lat="55.2814580" lon="38.7827550"><time>2020-06-27T07:09:47.730</time></trkpt><trkpt lat="55.2814540" lon="38.7826280"><time>2020-06-27T07:09:49.740</time></trkpt><trkpt lat="55.2814520" lon="38.7825150"><time>2020-06-27T07:09:51.720</time></trkpt><trkpt lat="55.2814820" lon="38.7824250"><time>2020-06-27T07:09:53.720</time></trkpt><trkpt lat="55.2815030" lon="38.7823210"><time>2020-06-27T07:09:55.720</time></trkpt><trkpt lat="55.2815050" lon="38.7822120"><time>2020-06-27T07:09:57.727</time></trkpt><trkpt lat="55.2814970" lon="38.7821070"><time>2020-06-27T07:09:59.707</time></trkpt><trkpt lat="55.2814920" lon="38.7819920"><time>2020-06-27T07:10:01.490</time></trkpt><trkpt lat="55.2815010" lon="38.7818760"><time>2020-06-27T07:10:03.740</time></trkpt><trkpt lat="55.2815100" lon="38.7817660"><time>2020-06-27T07:10:05.723</time></trkpt><trkpt lat="55.2815200" lon="38.7816370"><time>2020-06-27T07:10:07.720</time></trkpt><trkpt lat="55.2815280" lon="38.7814920"><time>2020-06-27T07:10:09.717</time></trkpt><trkpt lat="55.2815290" lon="38.7813570"><time>2020-06-27T07:10:11.743</time></trkpt><trkpt lat="55.2815250" lon="38.7812440"><time>2020-06-27T07:10:13.713</time></trkpt><trkpt lat="55.2815150" lon="38.7811140"><time>2020-06-27T07:10:15.717</time></trkpt><trkpt lat="55.2815270" lon="38.7810270"><time>2020-06-27T07:10:17.710</time></trkpt><trkpt lat="55.2814910" lon="38.7809610"><time>2020-06-27T07:10:19.723</time></trkpt><trkpt lat="55.2815230" lon="38.7808410"><time>2020-06-27T07:10:21.727</time></trkpt><trkpt lat="55.2815700" lon="38.7807840"><time>2020-06-27T07:10:23.507</time></trkpt><trkpt lat="55.2815910" lon="38.7806800"><time>2020-06-27T07:10:26.740</time></trkpt><trkpt lat="55.2816260" lon="38.7806040"><time>2020-06-27T07:10:32.703</time></trkpt><trkpt lat="55.2816380" lon="38.7804980"><time>2020-06-27T07:10:36.713</time></trkpt><trkpt lat="55.2816250" lon="38.7804030"><time>2020-06-27T07:10:38.703</time></trkpt><trkpt lat="55.2816330" lon="38.7803120"><time>2020-06-27T07:10:40.730</time></trkpt><trkpt lat="55.2816190" lon="38.7802000"><time>2020-06-27T07:10:42.493</time></trkpt><trkpt lat="55.2815990" lon="38.7801030"><time>2020-06-27T07:10:44.767</time></trkpt><trkpt lat="55.2815810" lon="38.7800240"><time>2020-06-27T07:10:46.743</time></trkpt><trkpt lat="55.2815950" lon="38.7799260"><time>2020-06-27T07:10:48.743</time></trkpt><trkpt lat="55.2815630" lon="38.7798410"><time>2020-06-27T07:10:51.487</time></trkpt><trkpt lat="55.2816170" lon="38.7797920"><time>2020-06-27T07:10:53.713</time></trkpt><trkpt lat="55.2816440" lon="38.7796870"><time>2020-06-27T07:10:55.757</time></trkpt><trkpt lat="55.2816320" lon="38.7795870"><time>2020-06-27T07:10:57.737</time></trkpt><trkpt lat="55.2816170" lon="38.7794720"><time>2020-06-27T07:11:00.740</time></trkpt><trkpt lat="55.2816000" lon="38.7793730"><time>2020-06-27T07:11:02.717</time></trkpt><trkpt lat="55.2815820" lon="38.7792760"><time>2020-06-27T07:11:04.733</time></trkpt><trkpt lat="55.2816070" lon="38.7793670"><time>2020-06-27T07:11:19.720</time></trkpt><trkpt lat="55.2816530" lon="38.7794270"><time>2020-06-27T07:11:21.727</time></trkpt><trkpt lat="55.2817160" lon="38.7794360"><time>2020-06-27T07:11:23.487</time></trkpt><trkpt lat="55.2817810" lon="38.7793810"><time>2020-06-27T07:11:25.717</time></trkpt><trkpt lat="55.2818310" lon="38.7793110"><time>2020-06-27T07:11:27.717</time></trkpt><trkpt lat="55.2818700" lon="38.7792260"><time>2020-06-27T07:11:30.717</time></trkpt><trkpt lat="55.2819150" lon="38.7792130"><time>2020-06-27T07:11:36.720</time></trkpt><trkpt lat="55.2819520" lon="38.7791410"><time>2020-06-27T07:11:40.770</time></trkpt><trkpt lat="55.2820110" lon="38.7791570"><time>2020-06-27T07:11:44.477</time></trkpt><trkpt lat="55.2820610" lon="38.7790870"><time>2020-06-27T07:11:46.767</time></trkpt><trkpt lat="55.2821200" lon="38.7790920"><time>2020-06-27T07:11:49.490</time></trkpt><trkpt lat="55.2821670" lon="38.7791400"><time>2020-06-27T07:11:51.713</time></trkpt><trkpt lat="55.2822080" lon="38.7791900"><time>2020-06-27T07:11:54.717</time></trkpt><trkpt lat="55.2822720" lon="38.7791840"><time>2020-06-27T07:11:57.737</time></trkpt><trkpt lat="55.2823310" lon="38.7791900"><time>2020-06-27T07:11:59.713</time></trkpt><trkpt lat="55.2823560" lon="38.7792650"><time>2020-06-27T07:12:08.703</time></trkpt><trkpt lat="55.2824160" lon="38.7792540"><time>2020-06-27T07:12:13.717</time></trkpt><trkpt lat="55.2824770" lon="38.7792580"><time>2020-06-27T07:12:16.693</time></trkpt><trkpt lat="55.2825290" lon="38.7793000"><time>2020-06-27T07:12:18.770</time></trkpt><trkpt lat="55.2825730" lon="38.7793340"><time>2020-06-27T07:12:20.717</time></trkpt><trkpt lat="55.2826310" lon="38.7793600"><time>2020-06-27T07:12:23.760</time></trkpt><trkpt lat="55.2826810" lon="38.7793600"><time>2020-06-27T07:12:25.707</time></trkpt><trkpt lat="55.2827360" lon="38.7793590"><time>2020-06-27T07:12:27.717</time></trkpt><trkpt lat="55.2827870" lon="38.7793440"><time>2020-06-27T07:12:29.713</time></trkpt><trkpt lat="55.2828340" lon="38.7793390"><time>2020-06-27T07:12:31.767</time></trkpt><trkpt lat="55.2828840" lon="38.7793230"><time>2020-06-27T07:12:35.483</time></trkpt><trkpt lat="55.2829340" lon="38.7793440"><time>2020-06-27T07:12:38.707</time></trkpt><trkpt lat="55.2829870" lon="38.7793150"><time>2020-06-27T07:12:41.747</time></trkpt><trkpt lat="55.2830370" lon="38.7793320"><time>2020-06-27T07:12:43.720</time></trkpt><trkpt lat="55.2830910" lon="38.7793550"><time>2020-06-27T07:12:45.720</time></trkpt><trkpt lat="55.2831440" lon="38.7793730"><time>2020-06-27T07:12:47.710</time></trkpt><trkpt lat="55.2831980" lon="38.7793750"><time>2020-06-27T07:12:49.737</time></trkpt><trkpt lat="55.2832370" lon="38.7794250"><time>2020-06-27T07:12:51.710</time></trkpt><trkpt lat="55.2832830" lon="38.7794570"><time>2020-06-27T07:12:53.707</time></trkpt><trkpt lat="55.2833330" lon="38.7794960"><time>2020-06-27T07:12:55.487</time></trkpt><trkpt lat="55.2833850" lon="38.7795360"><time>2020-06-27T07:12:58.723</time></trkpt><trkpt lat="55.2834420" lon="38.7795070"><time>2020-06-27T07:13:00.703</time></trkpt><trkpt lat="55.2834930" lon="38.7795300"><time>2020-06-27T07:13:03.700</time></trkpt><trkpt lat="55.2834740" lon="38.7794480"><time>2020-06-27T07:13:07.707</time></trkpt><trkpt lat="55.2835230" lon="38.7794420"><time>2020-06-27T07:13:11.710</time></trkpt><trkpt lat="55.2835610" lon="38.7794860"><time>2020-06-27T07:13:13.710</time></trkpt><trkpt lat="55.2836090" lon="38.7794900"><time>2020-06-27T07:13:15.727</time></trkpt><trkpt lat="55.2836660" lon="38.7794800"><time>2020-06-27T07:13:17.663</time></trkpt><trkpt lat="55.2837300" lon="38.7794940"><time>2020-06-27T07:13:20.713</time></trkpt><trkpt lat="55.2837790" lon="38.7795110"><time>2020-06-27T07:13:23.693</time></trkpt><trkpt lat="55.2838410" lon="38.7794910"><time>2020-06-27T07:13:26.713</time></trkpt><trkpt lat="55.2838960" lon="38.7794980"><time>2020-06-27T07:13:29.737</time></trkpt><trkpt lat="55.2839410" lon="38.7795220"><time>2020-06-27T07:13:32.707</time></trkpt><trkpt lat="55.2839920" lon="38.7795390"><time>2020-06-27T07:13:37.743</time></trkpt><trkpt lat="55.2840430" lon="38.7795420"><time>2020-06-27T07:13:40.717</time></trkpt><trkpt lat="55.2841000" lon="38.7795320"><time>2020-06-27T07:13:43.720</time></trkpt><trkpt lat="55.2841530" lon="38.7795440"><time>2020-06-27T07:13:48.710</time></trkpt><trkpt lat="55.2841980" lon="38.7795180"><time>2020-06-27T07:13:51.700</time></trkpt><trkpt lat="55.2842470" lon="38.7795030"><time>2020-06-27T07:13:54.700</time></trkpt><trkpt lat="55.2843020" lon="38.7795210"><time>2020-06-27T07:13:57.713</time></trkpt><trkpt lat="55.2843520" lon="38.7795260"><time>2020-06-27T07:14:00.713</time></trkpt><trkpt lat="55.2844000" lon="38.7795080"><time>2020-06-27T07:14:02.713</time></trkpt><trkpt lat="55.2844480" lon="38.7795020"><time>2020-06-27T07:14:04.723</time></trkpt><trkpt lat="55.2845020" lon="38.7794860"><time>2020-06-27T07:14:06.490</time></trkpt><trkpt lat="55.2845500" lon="38.7795210"><time>2020-06-27T07:14:11.720</time></trkpt><trkpt lat="55.2845940" lon="38.7795470"><time>2020-06-27T07:14:14.730</time></trkpt><trkpt lat="55.2846560" lon="38.7795430"><time>2020-06-27T07:14:17.717</time></trkpt><trkpt lat="55.2847020" lon="38.7795540"><time>2020-06-27T07:14:20.710</time></trkpt><trkpt lat="55.2847400" lon="38.7796010"><time>2020-06-27T07:14:25.697</time></trkpt><trkpt lat="55.2847860" lon="38.7796320"><time>2020-06-27T07:14:28.737</time></trkpt><trkpt lat="55.2848030" lon="38.7797310"><time>2020-06-27T07:14:31.493</time></trkpt><trkpt lat="55.2848550" lon="38.7797410"><time>2020-06-27T07:14:34.710</time></trkpt><trkpt lat="55.2848810" lon="38.7796430"><time>2020-06-27T07:14:39.767</time></trkpt><trkpt lat="55.2849360" lon="38.7796850"><time>2020-06-27T07:14:42.707</time></trkpt><trkpt lat="55.2849840" lon="38.7796360"><time>2020-06-27T07:14:47.713</time></trkpt><trkpt lat="55.2850380" lon="38.7796510"><time>2020-06-27T07:14:52.763</time></trkpt><trkpt lat="55.2850830" lon="38.7796820"><time>2020-06-27T07:14:55.707</time></trkpt><trkpt lat="55.2851260" lon="38.7797040"><time>2020-06-27T07:14:57.727</time></trkpt><trkpt lat="55.2851790" lon="38.7797380"><time>2020-06-27T07:14:59.487</time></trkpt><trkpt lat="55.2852170" lon="38.7796900"><time>2020-06-27T07:15:04.720</time></trkpt><trkpt lat="55.2852590" lon="38.7796540"><time>2020-06-27T07:15:09.720</time></trkpt><trkpt lat="55.2853120" lon="38.7796680"><time>2020-06-27T07:15:12.713</time></trkpt><trkpt lat="55.2853610" lon="38.7796900"><time>2020-06-27T07:15:15.703</time></trkpt><trkpt lat="55.2854200" lon="38.7797090"><time>2020-06-27T07:15:19.720</time></trkpt><trkpt lat="55.2854670" lon="38.7797370"><time>2020-06-27T07:15:21.470</time></trkpt><trkpt lat="55.2855310" lon="38.7797720"><time>2020-06-27T07:15:24.707</time></trkpt><trkpt lat="55.2855840" lon="38.7797940"><time>2020-06-27T07:15:28.470</time></trkpt><trkpt lat="55.2856350" lon="38.7797780"><time>2020-06-27T07:15:31.717</time></trkpt><trkpt lat="55.2856880" lon="38.7797810"><time>2020-06-27T07:15:33.700</time></trkpt><trkpt lat="55.2857350" lon="38.7797920"><time>2020-06-27T07:15:35.723</time></trkpt><trkpt lat="55.2857850" lon="38.7798130"><time>2020-06-27T07:15:37.487</time></trkpt><trkpt lat="55.2858410" lon="38.7798530"><time>2020-06-27T07:15:39.700</time></trkpt><trkpt lat="55.2858980" lon="38.7798750"><time>2020-06-27T07:15:41.710</time></trkpt><trkpt lat="55.2859510" lon="38.7798740"><time>2020-06-27T07:15:43.650</time></trkpt><trkpt lat="55.2860170" lon="38.7798600"><time>2020-06-27T07:15:46.757</time></trkpt><trkpt lat="55.2860770" lon="38.7798710"><time>2020-06-27T07:15:49.703</time></trkpt><trkpt lat="55.2861310" lon="38.7798530"><time>2020-06-27T07:15:52.723</time></trkpt><trkpt lat="55.2861870" lon="38.7798470"><time>2020-06-27T07:15:55.710</time></trkpt><trkpt lat="55.2862380" lon="38.7798410"><time>2020-06-27T07:15:57.713</time></trkpt><trkpt lat="55.2862830" lon="38.7798530"><time>2020-06-27T07:15:59.477</time></trkpt><trkpt lat="55.2863290" lon="38.7798770"><time>2020-06-27T07:16:01.697</time></trkpt><trkpt lat="55.2863800" lon="38.7798660"><time>2020-06-27T07:16:03.713</time></trkpt><trkpt lat="55.2864350" lon="38.7798510"><time>2020-06-27T07:16:05.713</time></trkpt><trkpt lat="55.2864920" lon="38.7798500"><time>2020-06-27T07:16:07.703</time></trkpt><trkpt lat="55.2865410" lon="38.7798290"><time>2020-06-27T07:16:09.707</time></trkpt><trkpt lat="55.2865910" lon="38.7798500"><time>2020-06-27T07:16:11.720</time></trkpt><trkpt lat="55.2866430" lon="38.7798780"><time>2020-06-27T07:16:13.727</time></trkpt><trkpt lat="55.2866950" lon="38.7798930"><time>2020-06-27T07:16:15.717</time></trkpt><trkpt lat="55.2867520" lon="38.7799080"><time>2020-06-27T07:16:17.717</time></trkpt><trkpt lat="55.2868130" lon="38.7799270"><time>2020-06-27T07:16:19.723</time></trkpt><trkpt lat="55.2868700" lon="38.7799360"><time>2020-06-27T07:16:21.720</time></trkpt><trkpt lat="55.2869310" lon="38.7799320"><time>2020-06-27T07:16:23.780</time></trkpt><trkpt lat="55.2869880" lon="38.7799170"><time>2020-06-27T07:16:25.487</time></trkpt><trkpt lat="55.2870420" lon="38.7798860"><time>2020-06-27T07:16:27.713</time></trkpt><trkpt lat="55.2870930" lon="38.7798850"><time>2020-06-27T07:16:30.720</time></trkpt><trkpt lat="55.2871430" lon="38.7799160"><time>2020-06-27T07:16:32.713</time></trkpt><trkpt lat="55.2871890" lon="38.7799450"><time>2020-06-27T07:16:34.730</time></trkpt><trkpt lat="55.2872490" lon="38.7799460"><time>2020-06-27T07:16:37.487</time></trkpt><trkpt lat="55.2873000" lon="38.7799590"><time>2020-06-27T07:16:40.717</time></trkpt><trkpt lat="55.2873590" lon="38.7799920"><time>2020-06-27T07:16:44.493</time></trkpt><trkpt lat="55.2874170" lon="38.7800020"><time>2020-06-27T07:16:47.687</time></trkpt><trkpt lat="55.2874690" lon="38.7800050"><time>2020-06-27T07:16:50.713</time></trkpt><trkpt lat="55.2875170" lon="38.7799560"><time>2020-06-27T07:16:53.717</time></trkpt><trkpt lat="55.2875740" lon="38.7799340"><time>2020-06-27T07:16:56.697</time></trkpt><trkpt lat="55.2876230" lon="38.7799470"><time>2020-06-27T07:16:58.717</time></trkpt><trkpt lat="55.2876640" lon="38.7799910"><time>2020-06-27T07:17:00.730</time></trkpt><trkpt lat="55.2877100" lon="38.7800290"><time>2020-06-27T07:17:02.703</time></trkpt><trkpt lat="55.2877390" lon="38.7800950"><time>2020-06-27T07:17:04.743</time></trkpt><trkpt lat="55.2877590" lon="38.7801680"><time>2020-06-27T07:17:06.707</time></trkpt><trkpt lat="55.2878170" lon="38.7801980"><time>2020-06-27T07:17:10.733</time></trkpt><trkpt lat="55.2878630" lon="38.7802030"><time>2020-06-27T07:17:13.763</time></trkpt><trkpt lat="55.2879030" lon="38.7801580"><time>2020-06-27T07:17:18.713</time></trkpt><trkpt lat="55.2879240" lon="38.7800820"><time>2020-06-27T07:17:23.713</time></trkpt><trkpt lat="55.2879850" lon="38.7800750"><time>2020-06-27T07:17:27.707</time></trkpt><trkpt lat="55.2880430" lon="38.7800940"><time>2020-06-27T07:17:30.700</time></trkpt><trkpt lat="55.2881130" lon="38.7801180"><time>2020-06-27T07:17:33.763</time></trkpt><trkpt lat="55.2881560" lon="38.7801530"><time>2020-06-27T07:17:35.710</time></trkpt><trkpt lat="55.2882260" lon="38.7801680"><time>2020-06-27T07:17:38.720</time></trkpt><trkpt lat="55.2882960" lon="38.7801150"><time>2020-06-27T07:17:40.710</time></trkpt><trkpt lat="55.2883620" lon="38.7801110"><time>2020-06-27T07:17:42.467</time></trkpt><trkpt lat="55.2884140" lon="38.7801360"><time>2020-06-27T07:17:44.490</time></trkpt><trkpt lat="55.2884710" lon="38.7801200"><time>2020-06-27T07:17:47.707</time></trkpt><trkpt lat="55.2885170" lon="38.7801160"><time>2020-06-27T07:17:49.720</time></trkpt><trkpt lat="55.2885610" lon="38.7801520"><time>2020-06-27T07:17:51.703</time></trkpt><trkpt lat="55.2886010" lon="38.7802100"><time>2020-06-27T07:17:54.707</time></trkpt><trkpt lat="55.2886510" lon="38.7802560"><time>2020-06-27T07:17:58.707</time></trkpt><trkpt lat="55.2886970" lon="38.7803190"><time>2020-06-27T07:18:00.707</time></trkpt><trkpt lat="55.2887440" lon="38.7803690"><time>2020-06-27T07:18:02.707</time></trkpt><trkpt lat="55.2887970" lon="38.7803010"><time>2020-06-27T07:18:06.460</time></trkpt><trkpt lat="55.2888640" lon="38.7802720"><time>2020-06-27T07:18:09.727</time></trkpt><trkpt lat="55.2889380" lon="38.7802900"><time>2020-06-27T07:18:11.717</time></trkpt><trkpt lat="55.2889980" lon="38.7802330"><time>2020-06-27T07:18:13.723</time></trkpt><trkpt lat="55.2890660" lon="38.7802120"><time>2020-06-27T07:18:15.713</time></trkpt><trkpt lat="55.2891590" lon="38.7802480"><time>2020-06-27T07:18:17.717</time></trkpt><trkpt lat="55.2892290" lon="38.7802940"><time>2020-06-27T07:18:19.730</time></trkpt><trkpt lat="55.2892870" lon="38.7803610"><time>2020-06-27T07:18:21.737</time></trkpt><trkpt lat="55.2893070" lon="38.7804510"><time>2020-06-27T07:18:23.713</time></trkpt><trkpt lat="55.2893070" lon="38.7805550"><time>2020-06-27T07:18:25.720</time></trkpt><trkpt lat="55.2892570" lon="38.7806400"><time>2020-06-27T07:18:28.477</time></trkpt><trkpt lat="55.2892270" lon="38.7807110"><time>2020-06-27T07:18:30.707</time></trkpt><trkpt lat="55.2891930" lon="38.7807890"><time>2020-06-27T07:18:33.763</time></trkpt><trkpt lat="55.2891520" lon="38.7808500"><time>2020-06-27T07:18:36.720</time></trkpt><trkpt lat="55.2891140" lon="38.7809280"><time>2020-06-27T07:18:40.707</time></trkpt><trkpt lat="55.2890690" lon="38.7809830"><time>2020-06-27T07:18:43.720</time></trkpt><trkpt lat="55.2890200" lon="38.7810190"><time>2020-06-27T07:18:46.480</time></trkpt><trkpt lat="55.2889820" lon="38.7810910"><time>2020-06-27T07:18:50.763</time></trkpt><trkpt lat="55.2889560" lon="38.7811770"><time>2020-06-27T07:18:56.707</time></trkpt><trkpt lat="55.2889110" lon="38.7811890"><time>2020-06-27T07:18:59.723</time></trkpt><trkpt lat="55.2888670" lon="38.7812390"><time>2020-06-27T07:19:02.720</time></trkpt><trkpt lat="55.2888390" lon="38.7813040"><time>2020-06-27T07:19:05.703</time></trkpt><trkpt lat="55.2887950" lon="38.7812720"><time>2020-06-27T07:19:10.713</time></trkpt><trkpt lat="55.2888250" lon="38.7812020"><time>2020-06-27T07:19:14.757</time></trkpt><trkpt lat="55.2888350" lon="38.7812840"><time>2020-06-27T07:19:19.717</time></trkpt><trkpt lat="55.2888600" lon="38.7813630"><time>2020-06-27T07:19:22.710</time></trkpt><trkpt lat="55.2888250" lon="38.7814270"><time>2020-06-27T07:19:24.737</time></trkpt><trkpt lat="55.2887930" lon="38.7815060"><time>2020-06-27T07:19:26.703</time></trkpt><trkpt lat="55.2887710" lon="38.7815770"><time>2020-06-27T07:19:28.720</time></trkpt><trkpt lat="55.2888000" lon="38.7816680"><time>2020-06-27T07:19:31.720</time></trkpt><trkpt lat="55.2887870" lon="38.7817690"><time>2020-06-27T07:19:34.720</time></trkpt><trkpt lat="55.2888260" lon="38.7818250"><time>2020-06-27T07:19:37.707</time></trkpt><trkpt lat="55.2888370" lon="38.7819120"><time>2020-06-27T07:19:40.483</time></trkpt><trkpt lat="55.2888330" lon="38.7820010"><time>2020-06-27T07:19:47.483</time></trkpt><trkpt lat="55.2888690" lon="38.7820690"><time>2020-06-27T07:19:50.723</time></trkpt><trkpt lat="55.2889030" lon="38.7821350"><time>2020-06-27T07:19:56.483</time></trkpt><trkpt lat="55.2889510" lon="38.7821340"><time>2020-06-27T07:19:58.487</time></trkpt><trkpt lat="55.2889580" lon="38.7822270"><time>2020-06-27T07:20:01.487</time></trkpt><trkpt lat="55.2889580" lon="38.7823150"><time>2020-06-27T07:20:04.477</time></trkpt><trkpt lat="55.2889690" lon="38.7823990"><time>2020-06-27T07:20:07.723</time></trkpt><trkpt lat="55.2889760" lon="38.7824840"><time>2020-06-27T07:20:10.723</time></trkpt><trkpt lat="55.2889940" lon="38.7825660"><time>2020-06-27T07:20:12.727</time></trkpt><trkpt lat="55.2889770" lon="38.7826730"><time>2020-06-27T07:20:16.723</time></trkpt><trkpt lat="55.2889960" lon="38.7827480"><time>2020-06-27T07:20:19.483</time></trkpt><trkpt lat="55.2889850" lon="38.7828330"><time>2020-06-27T07:20:25.720</time></trkpt><trkpt lat="55.2890150" lon="38.7828940"><time>2020-06-27T07:20:27.703</time></trkpt><trkpt lat="55.2890610" lon="38.7829370"><time>2020-06-27T07:20:30.480</time></trkpt><trkpt lat="55.2891020" lon="38.7830090"><time>2020-06-27T07:20:34.713</time></trkpt><trkpt lat="55.2890850" lon="38.7831150"><time>2020-06-27T07:20:37.760</time></trkpt><trkpt lat="55.2890630" lon="38.7831960"><time>2020-06-27T07:20:39.727</time></trkpt><trkpt lat="55.2890440" lon="38.7832880"><time>2020-06-27T07:20:42.730</time></trkpt><trkpt lat="55.2890190" lon="38.7833690"><time>2020-06-27T07:20:46.737</time></trkpt><trkpt lat="55.2889770" lon="38.7834170"><time>2020-06-27T07:20:48.720</time></trkpt><trkpt lat="55.2889780" lon="38.7835160"><time>2020-06-27T07:20:52.760</time></trkpt><trkpt lat="55.2889940" lon="38.7836020"><time>2020-06-27T07:20:55.483</time></trkpt><trkpt lat="55.2890380" lon="38.7836880"><time>2020-06-27T07:20:58.480</time></trkpt><trkpt lat="55.2890860" lon="38.7837520"><time>2020-06-27T07:21:02.710</time></trkpt><trkpt lat="55.2891100" lon="38.7838420"><time>2020-06-27T07:21:05.703</time></trkpt><trkpt lat="55.2891210" lon="38.7839360"><time>2020-06-27T07:21:08.733</time></trkpt><trkpt lat="55.2890880" lon="38.7840220"><time>2020-06-27T07:21:11.707</time></trkpt><trkpt lat="55.2890670" lon="38.7841050"><time>2020-06-27T07:21:14.700</time></trkpt><trkpt lat="55.2890590" lon="38.7841900"><time>2020-06-27T07:21:18.473</time></trkpt><trkpt lat="55.2890240" lon="38.7842530"><time>2020-06-27T07:21:22.693</time></trkpt><trkpt lat="55.2890700" lon="38.7842690"><time>2020-06-27T07:21:24.710</time></trkpt><trkpt lat="55.2891070" lon="38.7843290"><time>2020-06-27T07:21:27.723</time></trkpt><trkpt lat="55.2891200" lon="38.7844190"><time>2020-06-27T07:21:32.493</time></trkpt><trkpt lat="55.2891620" lon="38.7844610"><time>2020-06-27T07:21:37.767</time></trkpt><trkpt lat="55.2891560" lon="38.7845480"><time>2020-06-27T07:21:43.007</time></trkpt><trkpt lat="55.2891320" lon="38.7845870"><time>2020-06-27T07:21:44.647</time></trkpt><trkpt lat="55.2891090" lon="38.7845670"><time>2020-06-27T07:21:47.467</time></trkpt><trkpt lat="55.2890770" lon="38.7845090"><time>2020-06-27T07:21:50.487</time></trkpt><trkpt lat="55.2890420" lon="38.7844070"><time>2020-06-27T07:21:53.707</time></trkpt><trkpt lat="55.2889920" lon="38.7843880"><time>2020-06-27T07:21:55.470</time></trkpt><trkpt lat="55.2889710" lon="38.7843040"><time>2020-06-27T07:22:00.703</time></trkpt><trkpt lat="55.2889470" lon="38.7842140"><time>2020-06-27T07:22:03.703</time></trkpt><trkpt lat="55.2889220" lon="38.7841470"><time>2020-06-27T07:22:05.770</time></trkpt><trkpt lat="55.2888910" lon="38.7840750"><time>2020-06-27T07:22:12.703</time></trkpt><trkpt lat="55.2888830" lon="38.7839730"><time>2020-06-27T07:22:15.713</time></trkpt><trkpt lat="55.2888960" lon="38.7838800"><time>2020-06-27T07:22:19.703</time></trkpt><trkpt lat="55.2888410" lon="38.7838250"><time>2020-06-27T07:22:22.713</time></trkpt><trkpt lat="55.2887850" lon="38.7837900"><time>2020-06-27T07:22:25.703</time></trkpt><trkpt lat="55.2887530" lon="38.7837320"><time>2020-06-27T07:22:28.727</time></trkpt><trkpt lat="55.2887650" lon="38.7836400"><time>2020-06-27T07:22:30.700</time></trkpt><trkpt lat="55.2888000" lon="38.7835820"><time>2020-06-27T07:22:33.717</time></trkpt><trkpt lat="55.2888020" lon="38.7834930"><time>2020-06-27T07:22:36.710</time></trkpt><trkpt lat="55.2888140" lon="38.7833830"><time>2020-06-27T07:22:39.713</time></trkpt><trkpt lat="55.2887750" lon="38.7833130"><time>2020-06-27T07:22:42.730</time></trkpt><trkpt lat="55.2887810" lon="38.7832110"><time>2020-06-27T07:22:45.473</time></trkpt><trkpt lat="55.2888000" lon="38.7831380"><time>2020-06-27T07:22:48.710</time></trkpt><trkpt lat="55.2888100" lon="38.7830560"><time>2020-06-27T07:22:50.727</time></trkpt><trkpt lat="55.2888300" lon="38.7829770"><time>2020-06-27T07:22:52.710</time></trkpt><trkpt lat="55.2888780" lon="38.7829110"><time>2020-06-27T07:22:56.470</time></trkpt><trkpt lat="55.2888530" lon="38.7828410"><time>2020-06-27T07:23:00.483</time></trkpt><trkpt lat="55.2888520" lon="38.7827400"><time>2020-06-27T07:23:06.713</time></trkpt><trkpt lat="55.2888980" lon="38.7826650"><time>2020-06-27T07:23:09.770</time></trkpt><trkpt lat="55.2888610" lon="38.7825800"><time>2020-06-27T07:23:12.703</time></trkpt><trkpt lat="55.2888310" lon="38.7825120"><time>2020-06-27T07:23:15.727</time></trkpt><trkpt lat="55.2887710" lon="38.7824510"><time>2020-06-27T07:23:18.727</time></trkpt><trkpt lat="55.2887360" lon="38.7823780"><time>2020-06-27T07:23:21.760</time></trkpt><trkpt lat="55.2887200" lon="38.7823020"><time>2020-06-27T07:23:25.733</time></trkpt><trkpt lat="55.2887220" lon="38.7822040"><time>2020-06-27T07:23:28.720</time></trkpt><trkpt lat="55.2887020" lon="38.7821220"><time>2020-06-27T07:23:31.757</time></trkpt><trkpt lat="55.2887230" lon="38.7820440"><time>2020-06-27T07:23:36.713</time></trkpt><trkpt lat="55.2886780" lon="38.7819640"><time>2020-06-27T07:23:42.700</time></trkpt><trkpt lat="55.2886610" lon="38.7818830"><time>2020-06-27T07:23:44.770</time></trkpt><trkpt lat="55.2886240" lon="38.7818190"><time>2020-06-27T07:23:46.703</time></trkpt><trkpt lat="55.2886090" lon="38.7817110"><time>2020-06-27T07:23:50.473</time></trkpt><trkpt lat="55.2886320" lon="38.7816320"><time>2020-06-27T07:23:53.717</time></trkpt><trkpt lat="55.2886650" lon="38.7815580"><time>2020-06-27T07:23:57.723</time></trkpt><trkpt lat="55.2886320" lon="38.7814650"><time>2020-06-27T07:24:02.477</time></trkpt><trkpt lat="55.2886560" lon="38.7813800"><time>2020-06-27T07:24:04.470</time></trkpt><trkpt lat="55.2886820" lon="38.7812860"><time>2020-06-27T07:24:07.730</time></trkpt><trkpt lat="55.2886890" lon="38.7811930"><time>2020-06-27T07:24:12.703</time></trkpt><trkpt lat="55.2887290" lon="38.7811150"><time>2020-06-27T07:24:15.730</time></trkpt><trkpt lat="55.2887570" lon="38.7810340"><time>2020-06-27T07:24:18.717</time></trkpt><trkpt lat="55.2887100" lon="38.7810400"><time>2020-06-27T07:24:27.697</time></trkpt><trkpt lat="55.2886710" lon="38.7810020"><time>2020-06-27T07:24:30.707</time></trkpt><trkpt lat="55.2887170" lon="38.7809250"><time>2020-06-27T07:24:34.713</time></trkpt><trkpt lat="55.2887570" lon="38.7808790"><time>2020-06-27T07:24:36.700</time></trkpt><trkpt lat="55.2888190" lon="38.7808360"><time>2020-06-27T07:24:39.477</time></trkpt><trkpt lat="55.2888630" lon="38.7808590"><time>2020-06-27T07:24:41.467</time></trkpt><trkpt lat="55.2889170" lon="38.7808300"><time>2020-06-27T07:24:44.703</time></trkpt><trkpt lat="55.2889350" lon="38.7807570"><time>2020-06-27T07:24:48.707</time></trkpt><trkpt lat="55.2889890" lon="38.7807050"><time>2020-06-27T07:24:53.707</time></trkpt><trkpt lat="55.2890460" lon="38.7806810"><time>2020-06-27T07:24:56.730</time></trkpt><trkpt lat="55.2890800" lon="38.7806020"><time>2020-06-27T07:24:59.717</time></trkpt><trkpt lat="55.2891350" lon="38.7805990"><time>2020-06-27T07:25:04.477</time></trkpt><trkpt lat="55.2891890" lon="38.7805460"><time>2020-06-27T07:25:08.720</time></trkpt><trkpt lat="55.2892340" lon="38.7805150"><time>2020-06-27T07:25:10.713</time></trkpt><trkpt lat="55.2892750" lon="38.7804640"><time>2020-06-27T07:25:12.713</time></trkpt><trkpt lat="55.2892920" lon="38.7803800"><time>2020-06-27T07:25:17.707</time></trkpt><trkpt lat="55.2893390" lon="38.7803200"><time>2020-06-27T07:25:20.717</time></trkpt><trkpt lat="55.2894020" lon="38.7802880"><time>2020-06-27T07:25:23.690</time></trkpt><trkpt lat="55.2894660" lon="38.7803020"><time>2020-06-27T07:25:26.680</time></trkpt><trkpt lat="55.2895260" lon="38.7803030"><time>2020-06-27T07:25:29.473</time></trkpt><trkpt lat="55.2895800" lon="38.7803170"><time>2020-06-27T07:25:32.717</time></trkpt><trkpt lat="55.2896440" lon="38.7803290"><time>2020-06-27T07:25:35.693</time></trkpt><trkpt lat="55.2896940" lon="38.7803500"><time>2020-06-27T07:25:38.690</time></trkpt><trkpt lat="55.2897410" lon="38.7803630"><time>2020-06-27T07:25:41.727</time></trkpt><trkpt lat="55.2897960" lon="38.7803870"><time>2020-06-27T07:25:44.697</time></trkpt><trkpt lat="55.2898520" lon="38.7803910"><time>2020-06-27T07:25:46.713</time></trkpt><trkpt lat="55.2899090" lon="38.7803600"><time>2020-06-27T07:25:48.697</time></trkpt><trkpt lat="55.2899560" lon="38.7803250"><time>2020-06-27T07:25:50.700</time></trkpt><trkpt lat="55.2900130" lon="38.7803190"><time>2020-06-27T07:25:52.703</time></trkpt><trkpt lat="55.2900780" lon="38.7803210"><time>2020-06-27T07:25:54.703</time></trkpt><trkpt lat="55.2901420" lon="38.7803090"><time>2020-06-27T07:25:56.477</time></trkpt><trkpt lat="55.2901890" lon="38.7803010"><time>2020-06-27T07:25:58.703</time></trkpt><trkpt lat="55.2902420" lon="38.7802810"><time>2020-06-27T07:26:01.720</time></trkpt><trkpt lat="55.2902950" lon="38.7803130"><time>2020-06-27T07:26:03.697</time></trkpt><trkpt lat="55.2903620" lon="38.7803640"><time>2020-06-27T07:26:05.477</time></trkpt><trkpt lat="55.2904260" lon="38.7804080"><time>2020-06-27T07:26:07.467</time></trkpt><trkpt lat="55.2904920" lon="38.7804480"><time>2020-06-27T07:26:09.697</time></trkpt><trkpt lat="55.2905550" lon="38.7804550"><time>2020-06-27T07:26:12.703</time></trkpt><trkpt lat="55.2906170" lon="38.7804550"><time>2020-06-27T07:26:15.703</time></trkpt><trkpt lat="55.2906690" lon="38.7804750"><time>2020-06-27T07:26:17.683</time></trkpt><trkpt lat="55.2907400" lon="38.7804700"><time>2020-06-27T07:26:20.703</time></trkpt><trkpt lat="55.2908020" lon="38.7804650"><time>2020-06-27T07:26:23.727</time></trkpt><trkpt lat="55.2908510" lon="38.7804680"><time>2020-06-27T07:26:25.473</time></trkpt><trkpt lat="55.2909090" lon="38.7804920"><time>2020-06-27T07:26:28.707</time></trkpt><trkpt lat="55.2909700" lon="38.7804940"><time>2020-06-27T07:26:31.687</time></trkpt><trkpt lat="55.2910170" lon="38.7804790"><time>2020-06-27T07:26:33.707</time></trkpt><trkpt lat="55.2910720" lon="38.7804840"><time>2020-06-27T07:26:35.707</time></trkpt><trkpt lat="55.2911360" lon="38.7804720"><time>2020-06-27T07:26:38.717</time></trkpt><trkpt lat="55.2912000" lon="38.7804700"><time>2020-06-27T07:26:41.463</time></trkpt><trkpt lat="55.2912600" lon="38.7804890"><time>2020-06-27T07:26:43.743</time></trkpt><trkpt lat="55.2913050" lon="38.7804960"><time>2020-06-27T07:26:45.693</time></trkpt><trkpt lat="55.2913620" lon="38.7805440"><time>2020-06-27T07:26:47.730</time></trkpt><trkpt lat="55.2914160" lon="38.7805540"><time>2020-06-27T07:26:49.467</time></trkpt><trkpt lat="55.2914700" lon="38.7805980"><time>2020-06-27T07:26:52.680</time></trkpt><trkpt lat="55.2915190" lon="38.7806240"><time>2020-06-27T07:26:54.707</time></trkpt><trkpt lat="55.2915670" lon="38.7806350"><time>2020-06-27T07:26:56.697</time></trkpt><trkpt lat="55.2916240" lon="38.7806110"><time>2020-06-27T07:26:59.697</time></trkpt><trkpt lat="55.2916760" lon="38.7806030"><time>2020-06-27T07:27:01.680</time></trkpt><trkpt lat="55.2917230" lon="38.7806320"><time>2020-06-27T07:27:04.463</time></trkpt><trkpt lat="55.2917680" lon="38.7806610"><time>2020-06-27T07:27:06.763</time></trkpt><trkpt lat="55.2918110" lon="38.7807030"><time>2020-06-27T07:27:08.703</time></trkpt><trkpt lat="55.2918540" lon="38.7807440"><time>2020-06-27T07:27:10.747</time></trkpt><trkpt lat="55.2918990" lon="38.7807650"><time>2020-06-27T07:27:13.703</time></trkpt><trkpt lat="55.2919590" lon="38.7807560"><time>2020-06-27T07:27:18.707</time></trkpt><trkpt lat="55.2920170" lon="38.7807700"><time>2020-06-27T07:27:22.693</time></trkpt><trkpt lat="55.2920630" lon="38.7807630"><time>2020-06-27T07:27:25.693</time></trkpt><trkpt lat="55.2921080" lon="38.7807560"><time>2020-06-27T07:27:28.693</time></trkpt><trkpt lat="55.2921650" lon="38.7807270"><time>2020-06-27T07:27:31.707</time></trkpt><trkpt lat="55.2922130" lon="38.7806990"><time>2020-06-27T07:27:33.707</time></trkpt><trkpt lat="55.2922670" lon="38.7807260"><time>2020-06-27T07:27:35.723</time></trkpt><trkpt lat="55.2923230" lon="38.7807520"><time>2020-06-27T07:27:37.700</time></trkpt><trkpt lat="55.2923840" lon="38.7807680"><time>2020-06-27T07:27:40.693</time></trkpt><trkpt lat="55.2924340" lon="38.7807810"><time>2020-06-27T07:27:43.687</time></trkpt><trkpt lat="55.2924910" lon="38.7807810"><time>2020-06-27T07:27:46.697</time></trkpt><trkpt lat="55.2925490" lon="38.7807910"><time>2020-06-27T07:27:49.703</time></trkpt><trkpt lat="55.2926090" lon="38.7808080"><time>2020-06-27T07:27:52.700</time></trkpt><trkpt lat="55.2926690" lon="38.7808240"><time>2020-06-27T07:27:55.690</time></trkpt><trkpt lat="55.2927130" lon="38.7808440"><time>2020-06-27T07:27:57.690</time></trkpt><trkpt lat="55.2927690" lon="38.7808240"><time>2020-06-27T07:28:00.703</time></trkpt><trkpt lat="55.2928330" lon="38.7808000"><time>2020-06-27T07:28:03.717</time></trkpt><trkpt lat="55.2928890" lon="38.7808190"><time>2020-06-27T07:28:05.470</time></trkpt><trkpt lat="55.2929410" lon="38.7808300"><time>2020-06-27T07:28:07.727</time></trkpt><trkpt lat="55.2929930" lon="38.7808230"><time>2020-06-27T07:28:10.467</time></trkpt><trkpt lat="55.2930410" lon="38.7808510"><time>2020-06-27T07:28:13.697</time></trkpt><trkpt lat="55.2930890" lon="38.7808520"><time>2020-06-27T07:28:16.713</time></trkpt><trkpt lat="55.2931450" lon="38.7808520"><time>2020-06-27T07:28:19.687</time></trkpt><trkpt lat="55.2932060" lon="38.7808500"><time>2020-06-27T07:28:22.767</time></trkpt><trkpt lat="55.2932600" lon="38.7808540"><time>2020-06-27T07:28:24.690</time></trkpt><trkpt lat="55.2933090" lon="38.7808840"><time>2020-06-27T07:28:26.700</time></trkpt><trkpt lat="55.2933690" lon="38.7809100"><time>2020-06-27T07:28:29.723</time></trkpt><trkpt lat="55.2934270" lon="38.7809120"><time>2020-06-27T07:28:32.697</time></trkpt><trkpt lat="55.2934820" lon="38.7809390"><time>2020-06-27T07:28:35.703</time></trkpt><trkpt lat="55.2935320" lon="38.7809630"><time>2020-06-27T07:28:38.697</time></trkpt><trkpt lat="55.2935810" lon="38.7809540"><time>2020-06-27T07:28:40.733</time></trkpt><trkpt lat="55.2936360" lon="38.7809190"><time>2020-06-27T07:28:43.713</time></trkpt><trkpt lat="55.2936920" lon="38.7809180"><time>2020-06-27T07:28:46.697</time></trkpt><trkpt lat="55.2937520" lon="38.7809150"><time>2020-06-27T07:28:48.700</time></trkpt><trkpt lat="55.2938090" lon="38.7809230"><time>2020-06-27T07:28:50.717</time></trkpt><trkpt lat="55.2938570" lon="38.7809110"><time>2020-06-27T07:28:52.707</time></trkpt><trkpt lat="55.2939050" lon="38.7809190"><time>2020-06-27T07:28:54.737</time></trkpt><trkpt lat="55.2939570" lon="38.7809240"><time>2020-06-27T07:28:56.687</time></trkpt><trkpt lat="55.2940230" lon="38.7809130"><time>2020-06-27T07:28:59.713</time></trkpt><trkpt lat="55.2940780" lon="38.7809040"><time>2020-06-27T07:29:01.700</time></trkpt><trkpt lat="55.2941340" lon="38.7808900"><time>2020-06-27T07:29:03.697</time></trkpt><trkpt lat="55.2941800" lon="38.7809030"><time>2020-06-27T07:29:06.470</time></trkpt><trkpt lat="55.2942340" lon="38.7809680"><time>2020-06-27T07:29:09.703</time></trkpt><trkpt lat="55.2942900" lon="38.7809860"><time>2020-06-27T07:29:13.687</time></trkpt><trkpt lat="55.2943510" lon="38.7809860"><time>2020-06-27T07:29:18.687</time></trkpt><trkpt lat="55.2944180" lon="38.7809940"><time>2020-06-27T07:29:20.697</time></trkpt><trkpt lat="55.2944910" lon="38.7810180"><time>2020-06-27T07:29:22.723</time></trkpt><trkpt lat="55.2945420" lon="38.7810400"><time>2020-06-27T07:29:25.693</time></trkpt><trkpt lat="55.2945880" lon="38.7810720"><time>2020-06-27T07:29:28.740</time></trkpt><trkpt lat="55.2946340" lon="38.7811340"><time>2020-06-27T07:29:32.717</time></trkpt><trkpt lat="55.2946890" lon="38.7811790"><time>2020-06-27T07:29:34.697</time></trkpt><trkpt lat="55.2947490" lon="38.7811960"><time>2020-06-27T07:29:38.477</time></trkpt><trkpt lat="55.2947970" lon="38.7812100"><time>2020-06-27T07:29:42.713</time></trkpt><trkpt lat="55.2948540" lon="38.7812200"><time>2020-06-27T07:29:48.720</time></trkpt><trkpt lat="55.2949140" lon="38.7812250"><time>2020-06-27T07:29:52.703</time></trkpt><trkpt lat="55.2949570" lon="38.7811910"><time>2020-06-27T07:29:55.703</time></trkpt><trkpt lat="55.2950170" lon="38.7812060"><time>2020-06-27T07:29:58.703</time></trkpt><trkpt lat="55.2950620" lon="38.7812170"><time>2020-06-27T07:30:01.750</time></trkpt><trkpt lat="55.2951080" lon="38.7812220"><time>2020-06-27T07:30:04.457</time></trkpt><trkpt lat="55.2951540" lon="38.7812160"><time>2020-06-27T07:30:07.720</time></trkpt><trkpt lat="55.2951990" lon="38.7812100"><time>2020-06-27T07:30:10.460</time></trkpt><trkpt lat="55.2952580" lon="38.7812010"><time>2020-06-27T07:30:14.690</time></trkpt><trkpt lat="55.2953050" lon="38.7812170"><time>2020-06-27T07:30:17.683</time></trkpt><trkpt lat="55.2953700" lon="38.7812420"><time>2020-06-27T07:30:21.710</time></trkpt><trkpt lat="55.2954290" lon="38.7812720"><time>2020-06-27T07:30:23.710</time></trkpt><trkpt lat="55.2954830" lon="38.7812840"><time>2020-06-27T07:30:26.670</time></trkpt><trkpt lat="55.2955450" lon="38.7812590"><time>2020-06-27T07:30:29.697</time></trkpt><trkpt lat="55.2955960" lon="38.7812470"><time>2020-06-27T07:30:32.697</time></trkpt><trkpt lat="55.2956430" lon="38.7812190"><time>2020-06-27T07:30:35.467</time></trkpt><trkpt lat="55.2956930" lon="38.7812600"><time>2020-06-27T07:30:37.693</time></trkpt><trkpt lat="55.2957410" lon="38.7812970"><time>2020-06-27T07:30:39.700</time></trkpt><trkpt lat="55.2957960" lon="38.7813460"><time>2020-06-27T07:30:42.720</time></trkpt><trkpt lat="55.2958120" lon="38.7812670"><time>2020-06-27T07:30:51.733</time></trkpt><trkpt lat="55.2957970" lon="38.7811890"><time>2020-06-27T07:30:55.473</time></trkpt><trkpt lat="55.2957580" lon="38.7811260"><time>2020-06-27T07:30:59.723</time></trkpt><trkpt lat="55.2957330" lon="38.7810370"><time>2020-06-27T07:31:03.707</time></trkpt><trkpt lat="55.2957280" lon="38.7809460"><time>2020-06-27T07:31:06.463</time></trkpt><trkpt lat="55.2957410" lon="38.7808440"><time>2020-06-27T07:31:10.467</time></trkpt><trkpt lat="55.2957640" lon="38.7807710"><time>2020-06-27T07:31:13.713</time></trkpt><trkpt lat="55.2957810" lon="38.7806930"><time>2020-06-27T07:31:16.707</time></trkpt><trkpt lat="55.2955880" lon="38.7804180"><time>2020-06-27T07:31:17.687</time></trkpt><trkpt lat="55.2956230" lon="38.7803630"><time>2020-06-27T07:31:19.723</time></trkpt><trkpt lat="55.2956490" lon="38.7802540"><time>2020-06-27T07:31:22.727</time></trkpt><trkpt lat="55.2956730" lon="38.7801790"><time>2020-06-27T07:31:24.703</time></trkpt><trkpt lat="55.2957290" lon="38.7801530"><time>2020-06-27T07:31:27.707</time></trkpt><trkpt lat="55.2956700" lon="38.7800820"><time>2020-06-27T07:31:31.707</time></trkpt><trkpt lat="55.2956590" lon="38.7800040"><time>2020-06-27T07:31:32.480</time></trkpt><trkpt lat="55.2956710" lon="38.7799270"><time>2020-06-27T07:31:33.747</time></trkpt><trkpt lat="55.2956760" lon="38.7797830"><time>2020-06-27T07:31:35.693</time></trkpt><trkpt lat="55.2956910" lon="38.7796810"><time>2020-06-27T07:31:38.697</time></trkpt><trkpt lat="55.2957170" lon="38.7795380"><time>2020-06-27T07:31:40.747</time></trkpt><trkpt lat="55.2957340" lon="38.7794610"><time>2020-06-27T07:31:41.700</time></trkpt><trkpt lat="55.2957640" lon="38.7793230"><time>2020-06-27T07:31:43.710</time></trkpt><trkpt lat="55.2957950" lon="38.7792050"><time>2020-06-27T07:31:45.463</time></trkpt><trkpt lat="55.2958210" lon="38.7790940"><time>2020-06-27T07:31:47.467</time></trkpt><trkpt lat="55.2958360" lon="38.7789870"><time>2020-06-27T07:31:49.753</time></trkpt><trkpt lat="55.2958510" lon="38.7788990"><time>2020-06-27T07:31:51.710</time></trkpt><trkpt lat="55.2958520" lon="38.7788200"><time>2020-06-27T07:31:53.713</time></trkpt><trkpt lat="55.2958680" lon="38.7787330"><time>2020-06-27T07:31:56.733</time></trkpt><trkpt lat="55.2958690" lon="38.7786030"><time>2020-06-27T07:31:59.697</time></trkpt><trkpt lat="55.2958850" lon="38.7784900"><time>2020-06-27T07:32:01.720</time></trkpt><trkpt lat="55.2959040" lon="38.7783750"><time>2020-06-27T07:32:04.703</time></trkpt><trkpt lat="55.2959130" lon="38.7782920"><time>2020-06-27T07:32:06.473</time></trkpt><trkpt lat="55.2959450" lon="38.7782100"><time>2020-06-27T07:32:08.707</time></trkpt><trkpt lat="55.2959780" lon="38.7781160"><time>2020-06-27T07:32:10.713</time></trkpt><trkpt lat="55.2959960" lon="38.7780260"><time>2020-06-27T07:32:12.697</time></trkpt><trkpt lat="55.2960120" lon="38.7779270"><time>2020-06-27T07:32:14.717</time></trkpt><trkpt lat="55.2960240" lon="38.7778120"><time>2020-06-27T07:32:17.697</time></trkpt><trkpt lat="55.2960410" lon="38.7776950"><time>2020-06-27T07:32:20.713</time></trkpt><trkpt lat="55.2960630" lon="38.7775850"><time>2020-06-27T07:32:22.697</time></trkpt><trkpt lat="55.2960750" lon="38.7774920"><time>2020-06-27T07:32:24.713</time></trkpt><trkpt lat="55.2960760" lon="38.7773790"><time>2020-06-27T07:32:26.717</time></trkpt><trkpt lat="55.2960780" lon="38.7772970"><time>2020-06-27T07:32:29.483</time></trkpt><trkpt lat="55.2960440" lon="38.7772320"><time>2020-06-27T07:32:33.703</time></trkpt><trkpt lat="55.2960150" lon="38.7771350"><time>2020-06-27T07:32:36.477</time></trkpt><trkpt lat="55.2960050" lon="38.7770540"><time>2020-06-27T07:32:39.703</time></trkpt><trkpt lat="55.2959950" lon="38.7769540"><time>2020-06-27T07:32:43.697</time></trkpt><trkpt lat="55.2959540" lon="38.7768680"><time>2020-06-27T07:32:47.700</time></trkpt><trkpt lat="55.2959090" lon="38.7768100"><time>2020-06-27T07:32:51.760</time></trkpt><trkpt lat="55.2958610" lon="38.7767790"><time>2020-06-27T07:32:54.717</time></trkpt><trkpt lat="55.2958250" lon="38.7767300"><time>2020-06-27T07:32:57.707</time></trkpt><trkpt lat="55.2957820" lon="38.7766920"><time>2020-06-27T07:33:02.700</time></trkpt><trkpt lat="55.2957330" lon="38.7767060"><time>2020-06-27T07:33:06.473</time></trkpt><trkpt lat="55.2956800" lon="38.7766470"><time>2020-06-27T07:33:10.687</time></trkpt><trkpt lat="55.2956340" lon="38.7765860"><time>2020-06-27T07:33:13.700</time></trkpt><trkpt lat="55.2955820" lon="38.7765640"><time>2020-06-27T07:33:16.713</time></trkpt><trkpt lat="55.2955170" lon="38.7765560"><time>2020-06-27T07:33:19.697</time></trkpt><trkpt lat="55.2954600" lon="38.7765260"><time>2020-06-27T07:33:22.717</time></trkpt><trkpt lat="55.2954160" lon="38.7764650"><time>2020-06-27T07:33:25.687</time></trkpt><trkpt lat="55.2953790" lon="38.7763850"><time>2020-06-27T07:33:27.717</time></trkpt><trkpt lat="55.2953560" lon="38.7763120"><time>2020-06-27T07:33:28.720</time></trkpt><trkpt lat="55.2953220" lon="38.7761770"><time>2020-06-27T07:33:30.703</time></trkpt><trkpt lat="55.2953000" lon="38.7760870"><time>2020-06-27T07:33:32.480</time></trkpt><trkpt lat="55.2952740" lon="38.7759940"><time>2020-06-27T07:33:35.727</time></trkpt><trkpt lat="55.2952480" lon="38.7759220"><time>2020-06-27T07:33:37.703</time></trkpt><trkpt lat="55.2952300" lon="38.7758500"><time>2020-06-27T07:33:39.717</time></trkpt><trkpt lat="55.2952070" lon="38.7757760"><time>2020-06-27T07:33:41.697</time></trkpt><trkpt lat="55.2951940" lon="38.7756910"><time>2020-06-27T07:33:44.707</time></trkpt><trkpt lat="55.2951920" lon="38.7756040"><time>2020-06-27T07:33:46.720</time></trkpt><trkpt lat="55.2951730" lon="38.7755220"><time>2020-06-27T07:33:48.713</time></trkpt><trkpt lat="55.2951600" lon="38.7754230"><time>2020-06-27T07:33:50.707</time></trkpt><trkpt lat="55.2951470" lon="38.7753420"><time>2020-06-27T07:33:52.727</time></trkpt><trkpt lat="55.2951500" lon="38.7752470"><time>2020-06-27T07:33:54.723</time></trkpt><trkpt lat="55.2951320" lon="38.7751470"><time>2020-06-27T07:33:56.697</time></trkpt><trkpt lat="55.2951270" lon="38.7750420"><time>2020-06-27T07:33:58.477</time></trkpt><trkpt lat="55.2951320" lon="38.7749500"><time>2020-06-27T07:34:00.707</time></trkpt><trkpt lat="55.2951560" lon="38.7748530"><time>2020-06-27T07:34:03.687</time></trkpt><trkpt lat="55.2951630" lon="38.7747460"><time>2020-06-27T07:34:06.477</time></trkpt><trkpt lat="55.2951500" lon="38.7746630"><time>2020-06-27T07:34:08.743</time></trkpt><trkpt lat="55.2951500" lon="38.7745710"><time>2020-06-27T07:34:11.700</time></trkpt><trkpt lat="55.2951570" lon="38.7744650"><time>2020-06-27T07:34:15.717</time></trkpt><trkpt lat="55.2951490" lon="38.7743640"><time>2020-06-27T07:34:18.753</time></trkpt><trkpt lat="55.2951540" lon="38.7742700"><time>2020-06-27T07:34:20.707</time></trkpt><trkpt lat="55.2951720" lon="38.7741480"><time>2020-06-27T07:34:23.700</time></trkpt><trkpt lat="55.2951800" lon="38.7740450"><time>2020-06-27T07:34:25.720</time></trkpt><trkpt lat="55.2951820" lon="38.7739400"><time>2020-06-27T07:34:27.700</time></trkpt><trkpt lat="55.2951730" lon="38.7738350"><time>2020-06-27T07:34:29.723</time></trkpt><trkpt lat="55.2951660" lon="38.7737400"><time>2020-06-27T07:34:31.723</time></trkpt><trkpt lat="55.2951460" lon="38.7736420"><time>2020-06-27T07:34:33.723</time></trkpt><trkpt lat="55.2951450" lon="38.7735450"><time>2020-06-27T07:34:35.697</time></trkpt><trkpt lat="55.2951520" lon="38.7734590"><time>2020-06-27T07:34:37.720</time></trkpt><trkpt lat="55.2951600" lon="38.7733780"><time>2020-06-27T07:34:39.727</time></trkpt><trkpt lat="55.2951590" lon="38.7732620"><time>2020-06-27T07:34:42.707</time></trkpt><trkpt lat="55.2951610" lon="38.7731540"><time>2020-06-27T07:34:45.723</time></trkpt><trkpt lat="55.2951430" lon="38.7730720"><time>2020-06-27T07:34:47.710</time></trkpt><trkpt lat="55.2951220" lon="38.7729700"><time>2020-06-27T07:34:50.720</time></trkpt><trkpt lat="55.2951220" lon="38.7728750"><time>2020-06-27T07:34:53.757</time></trkpt><trkpt lat="55.2951270" lon="38.7727890"><time>2020-06-27T07:34:55.703</time></trkpt><trkpt lat="55.2951200" lon="38.7727000"><time>2020-06-27T07:34:57.713</time></trkpt><trkpt lat="55.2951240" lon="38.7726160"><time>2020-06-27T07:34:59.717</time></trkpt><trkpt lat="55.2951300" lon="38.7725260"><time>2020-06-27T07:35:01.733</time></trkpt><trkpt lat="55.2951280" lon="38.7724370"><time>2020-06-27T07:35:03.737</time></trkpt><trkpt lat="55.2951470" lon="38.7723330"><time>2020-06-27T07:35:05.713</time></trkpt><trkpt lat="55.2951650" lon="38.7722360"><time>2020-06-27T07:35:07.477</time></trkpt><trkpt lat="55.2951640" lon="38.7721540"><time>2020-06-27T07:35:09.717</time></trkpt><trkpt lat="55.2951690" lon="38.7720650"><time>2020-06-27T07:35:11.477</time></trkpt><trkpt lat="55.2951880" lon="38.7719800"><time>2020-06-27T07:35:13.710</time></trkpt><trkpt lat="55.2952030" lon="38.7718950"><time>2020-06-27T07:35:15.713</time></trkpt><trkpt lat="55.2952090" lon="38.7717800"><time>2020-06-27T07:35:18.480</time></trkpt><trkpt lat="55.2952260" lon="38.7716790"><time>2020-06-27T07:35:21.720</time></trkpt><trkpt lat="55.2952520" lon="38.7716020"><time>2020-06-27T07:35:23.720</time></trkpt><trkpt lat="55.2952760" lon="38.7715250"><time>2020-06-27T07:35:25.463</time></trkpt><trkpt lat="55.2953010" lon="38.7714480"><time>2020-06-27T07:35:27.717</time></trkpt><trkpt lat="55.2953130" lon="38.7713580"><time>2020-06-27T07:35:29.693</time></trkpt><trkpt lat="55.2953540" lon="38.7712640"><time>2020-06-27T07:35:32.693</time></trkpt><trkpt lat="55.2953630" lon="38.7711520"><time>2020-06-27T07:35:35.723</time></trkpt><trkpt lat="55.2953650" lon="38.7710660"><time>2020-06-27T07:35:37.713</time></trkpt><trkpt lat="55.2953760" lon="38.7709860"><time>2020-06-27T07:35:39.700</time></trkpt><trkpt lat="55.2954100" lon="38.7709140"><time>2020-06-27T07:35:41.723</time></trkpt><trkpt lat="55.2954550" lon="38.7708590"><time>2020-06-27T07:35:43.730</time></trkpt><trkpt lat="55.2955020" lon="38.7707930"><time>2020-06-27T07:36:13.700</time></trkpt><trkpt lat="55.2955410" lon="38.7707360"><time>2020-06-27T07:36:16.720</time></trkpt><trkpt lat="55.2955740" lon="38.7706480"><time>2020-06-27T07:36:19.717</time></trkpt><trkpt lat="55.2956100" lon="38.7705750"><time>2020-06-27T07:36:22.690</time></trkpt><trkpt lat="55.2956380" lon="38.7705060"><time>2020-06-27T07:36:24.703</time></trkpt><trkpt lat="55.2956750" lon="38.7704310"><time>2020-06-27T07:36:26.747</time></trkpt><trkpt lat="55.2957190" lon="38.7703640"><time>2020-06-27T07:36:28.737</time></trkpt><trkpt lat="55.2957490" lon="38.7703040"><time>2020-06-27T07:36:30.747</time></trkpt><trkpt lat="55.2957810" lon="38.7702370"><time>2020-06-27T07:36:33.700</time></trkpt><trkpt lat="55.2958070" lon="38.7701720"><time>2020-06-27T07:36:36.700</time></trkpt><trkpt lat="55.2958480" lon="38.7701320"><time>2020-06-27T07:36:39.700</time></trkpt><trkpt lat="55.2958990" lon="38.7701690"><time>2020-06-27T07:36:52.717</time></trkpt><trkpt lat="55.2959480" lon="38.7702270"><time>2020-06-27T07:36:55.713</time></trkpt><trkpt lat="55.2959720" lon="38.7702980"><time>2020-06-27T07:36:57.713</time></trkpt><trkpt lat="55.2959850" lon="38.7703730"><time>2020-06-27T07:36:59.477</time></trkpt><trkpt lat="55.2960040" lon="38.7704480"><time>2020-06-27T07:37:01.713</time></trkpt><trkpt lat="55.2960050" lon="38.7705500"><time>2020-06-27T07:37:04.707</time></trkpt><trkpt lat="55.2960220" lon="38.7706370"><time>2020-06-27T07:37:06.700</time></trkpt><trkpt lat="55.2960370" lon="38.7707210"><time>2020-06-27T07:37:08.690</time></trkpt><trkpt lat="55.2960590" lon="38.7708080"><time>2020-06-27T07:37:11.470</time></trkpt><trkpt lat="55.2960230" lon="38.7709060"><time>2020-06-27T07:37:14.727</time></trkpt><trkpt lat="55.2959770" lon="38.7709950"><time>2020-06-27T07:37:17.720</time></trkpt><trkpt lat="55.2959620" lon="38.7710960"><time>2020-06-27T07:37:20.747</time></trkpt><trkpt lat="55.2959600" lon="38.7712000"><time>2020-06-27T07:37:23.690</time></trkpt><trkpt lat="55.2959490" lon="38.7712770"><time>2020-06-27T07:37:25.700</time></trkpt><trkpt lat="55.2959360" lon="38.7713930"><time>2020-06-27T07:37:28.693</time></trkpt><trkpt lat="55.2959150" lon="38.7714730"><time>2020-06-27T07:37:30.710</time></trkpt><trkpt lat="55.2958940" lon="38.7715460"><time>2020-06-27T07:37:32.737</time></trkpt><trkpt lat="55.2958710" lon="38.7716210"><time>2020-06-27T07:37:34.460</time></trkpt><trkpt lat="55.2958370" lon="38.7717020"><time>2020-06-27T07:37:36.700</time></trkpt><trkpt lat="55.2957940" lon="38.7717950"><time>2020-06-27T07:37:39.733</time></trkpt><trkpt lat="55.2957460" lon="38.7718410"><time>2020-06-27T07:37:41.703</time></trkpt><trkpt lat="55.2956930" lon="38.7718990"><time>2020-06-27T07:37:43.710</time></trkpt><trkpt lat="55.2956580" lon="38.7719640"><time>2020-06-27T07:37:45.713</time></trkpt><trkpt lat="55.2956040" lon="38.7720010"><time>2020-06-27T07:37:48.703</time></trkpt><trkpt lat="55.2955570" lon="38.7720250"><time>2020-06-27T07:37:50.697</time></trkpt><trkpt lat="55.2955200" lon="38.7721090"><time>2020-06-27T07:37:53.703</time></trkpt><trkpt lat="55.2955070" lon="38.7722170"><time>2020-06-27T07:37:56.463</time></trkpt><trkpt lat="55.2954960" lon="38.7722980"><time>2020-06-27T07:37:59.683</time></trkpt><trkpt lat="55.2954800" lon="38.7723790"><time>2020-06-27T07:38:02.680</time></trkpt><trkpt lat="55.2954840" lon="38.7724850"><time>2020-06-27T07:38:05.700</time></trkpt><trkpt lat="55.2954950" lon="38.7725640"><time>2020-06-27T07:38:08.707</time></trkpt><trkpt lat="55.2955030" lon="38.7726490"><time>2020-06-27T07:38:13.733</time></trkpt><trkpt lat="55.2955170" lon="38.7727410"><time>2020-06-27T07:38:16.750</time></trkpt><trkpt lat="55.2955200" lon="38.7728210"><time>2020-06-27T07:38:18.713</time></trkpt><trkpt lat="55.2955040" lon="38.7729070"><time>2020-06-27T07:38:21.470</time></trkpt><trkpt lat="55.2954610" lon="38.7729700"><time>2020-06-27T07:38:24.707</time></trkpt><trkpt lat="55.2954580" lon="38.7730610"><time>2020-06-27T07:38:31.687</time></trkpt><trkpt lat="55.2954150" lon="38.7731380"><time>2020-06-27T07:38:34.710</time></trkpt><trkpt lat="55.2953780" lon="38.7732140"><time>2020-06-27T07:38:37.700</time></trkpt><trkpt lat="55.2953520" lon="38.7733020"><time>2020-06-27T07:38:41.730</time></trkpt><trkpt lat="55.2953220" lon="38.7733710"><time>2020-06-27T07:38:46.697</time></trkpt><trkpt lat="55.2953160" lon="38.7734540"><time>2020-06-27T07:38:50.760</time></trkpt><trkpt lat="55.2953280" lon="38.7735550"><time>2020-06-27T07:39:04.730</time></trkpt><trkpt lat="55.2953680" lon="38.7736050"><time>2020-06-27T07:39:07.727</time></trkpt><trkpt lat="55.2953900" lon="38.7737020"><time>2020-06-27T07:39:10.477</time></trkpt><trkpt lat="55.2953860" lon="38.7737810"><time>2020-06-27T07:39:12.477</time></trkpt><trkpt lat="55.2953760" lon="38.7738710"><time>2020-06-27T07:39:15.687</time></trkpt><trkpt lat="55.2953490" lon="38.7739500"><time>2020-06-27T07:39:18.717</time></trkpt><trkpt lat="55.2953750" lon="38.7740570"><time>2020-06-27T07:39:21.690</time></trkpt><trkpt lat="55.2953870" lon="38.7741440"><time>2020-06-27T07:39:23.703</time></trkpt><trkpt lat="55.2954030" lon="38.7742340"><time>2020-06-27T07:39:25.460</time></trkpt><trkpt lat="55.2954110" lon="38.7743270"><time>2020-06-27T07:39:27.697</time></trkpt><trkpt lat="55.2954160" lon="38.7744320"><time>2020-06-27T07:39:29.703</time></trkpt><trkpt lat="55.2954180" lon="38.7745470"><time>2020-06-27T07:39:32.693</time></trkpt><trkpt lat="55.2953890" lon="38.7746520"><time>2020-06-27T07:39:35.717</time></trkpt><trkpt lat="55.2953750" lon="38.7747670"><time>2020-06-27T07:39:38.703</time></trkpt><trkpt lat="55.2953910" lon="38.7748720"><time>2020-06-27T07:39:41.717</time></trkpt><trkpt lat="55.2954150" lon="38.7749910"><time>2020-06-27T07:39:44.713</time></trkpt><trkpt lat="55.2954310" lon="38.7751030"><time>2020-06-27T07:39:47.710</time></trkpt><trkpt lat="55.2954430" lon="38.7751920"><time>2020-06-27T07:39:50.697</time></trkpt><trkpt lat="55.2954000" lon="38.7752400"><time>2020-06-27T07:39:53.483</time></trkpt><trkpt lat="55.2953540" lon="38.7752490"><time>2020-06-27T07:40:00.683</time></trkpt><trkpt lat="55.2953170" lon="38.7751530"><time>2020-06-27T07:40:04.740</time></trkpt><trkpt lat="55.2952950" lon="38.7750840"><time>2020-06-27T07:40:07.733</time></trkpt><trkpt lat="55.2952520" lon="38.7750040"><time>2020-06-27T07:40:12.717</time></trkpt><trkpt lat="55.2952230" lon="38.7749220"><time>2020-06-27T07:40:14.470</time></trkpt><trkpt lat="55.2951960" lon="38.7748180"><time>2020-06-27T07:40:18.477</time></trkpt><trkpt lat="55.2951680" lon="38.7747220"><time>2020-06-27T07:40:21.707</time></trkpt><trkpt lat="55.2951660" lon="38.7746360"><time>2020-06-27T07:40:23.700</time></trkpt><trkpt lat="55.2951530" lon="38.7745550"><time>2020-06-27T07:40:25.713</time></trkpt><trkpt lat="55.2951450" lon="38.7744490"><time>2020-06-27T07:40:28.470</time></trkpt><trkpt lat="55.2951570" lon="38.7743370"><time>2020-06-27T07:40:31.693</time></trkpt><trkpt lat="55.2951650" lon="38.7742560"><time>2020-06-27T07:40:33.697</time></trkpt><trkpt lat="55.2951630" lon="38.7741640"><time>2020-06-27T07:40:35.693</time></trkpt><trkpt lat="55.2951510" lon="38.7740560"><time>2020-06-27T07:40:37.697</time></trkpt><trkpt lat="55.2951300" lon="38.7739510"><time>2020-06-27T07:40:39.703</time></trkpt><trkpt lat="55.2951200" lon="38.7738390"><time>2020-06-27T07:40:41.717</time></trkpt><trkpt lat="55.2951240" lon="38.7737370"><time>2020-06-27T07:40:44.713</time></trkpt><trkpt lat="55.2951280" lon="38.7736460"><time>2020-06-27T07:40:46.700</time></trkpt><trkpt lat="55.2951450" lon="38.7735420"><time>2020-06-27T07:40:49.713</time></trkpt><trkpt lat="55.2951750" lon="38.7734660"><time>2020-06-27T07:40:51.707</time></trkpt><trkpt lat="55.2952060" lon="38.7733890"><time>2020-06-27T07:40:53.687</time></trkpt><trkpt lat="55.2952430" lon="38.7733020"><time>2020-06-27T07:40:55.703</time></trkpt><trkpt lat="55.2952700" lon="38.7732350"><time>2020-06-27T07:40:57.713</time></trkpt><trkpt lat="55.2953140" lon="38.7731660"><time>2020-06-27T07:40:59.710</time></trkpt><trkpt lat="55.2953520" lon="38.7731070"><time>2020-06-27T07:41:01.717</time></trkpt><trkpt lat="55.2953760" lon="38.7730120"><time>2020-06-27T07:41:04.710</time></trkpt><trkpt lat="55.2954070" lon="38.7729280"><time>2020-06-27T07:41:07.707</time></trkpt><trkpt lat="55.2954250" lon="38.7728490"><time>2020-06-27T07:41:10.757</time></trkpt><trkpt lat="55.2954070" lon="38.7727630"><time>2020-06-27T07:41:14.463</time></trkpt><trkpt lat="55.2953730" lon="38.7727030"><time>2020-06-27T07:41:17.700</time></trkpt><trkpt lat="55.2953510" lon="38.7726110"><time>2020-06-27T07:41:22.477</time></trkpt><trkpt lat="55.2953930" lon="38.7725540"><time>2020-06-27T07:41:32.697</time></trkpt><trkpt lat="55.2954480" lon="38.7725180"><time>2020-06-27T07:41:35.690</time></trkpt><trkpt lat="55.2954970" lon="38.7725410"><time>2020-06-27T07:41:38.713</time></trkpt><trkpt lat="55.2955270" lon="38.7726300"><time>2020-06-27T07:41:41.697</time></trkpt><trkpt lat="55.2955560" lon="38.7726940"><time>2020-06-27T07:41:45.470</time></trkpt><trkpt lat="55.2955920" lon="38.7726360"><time>2020-06-27T07:41:47.487</time></trkpt><trkpt lat="55.2956190" lon="38.7727030"><time>2020-06-27T07:41:54.710</time></trkpt><trkpt lat="55.2956750" lon="38.7727290"><time>2020-06-27T07:42:00.713</time></trkpt><trkpt lat="55.2956220" lon="38.7727690"><time>2020-06-27T07:42:05.703</time></trkpt><trkpt lat="55.2955810" lon="38.7728000"><time>2020-06-27T07:42:07.707</time></trkpt><trkpt lat="55.2955270" lon="38.7727860"><time>2020-06-27T07:42:10.690</time></trkpt><trkpt lat="55.2954910" lon="38.7727340"><time>2020-06-27T07:42:13.720</time></trkpt><trkpt lat="55.2954500" lon="38.7726690"><time>2020-06-27T07:42:16.750</time></trkpt><trkpt lat="55.2954270" lon="38.7725830"><time>2020-06-27T07:42:19.717</time></trkpt><trkpt lat="55.2954010" lon="38.7724940"><time>2020-06-27T07:42:24.713</time></trkpt><trkpt lat="55.2954050" lon="38.7724080"><time>2020-06-27T07:42:26.707</time></trkpt><trkpt lat="55.2954570" lon="38.7723610"><time>2020-06-27T07:42:30.687</time></trkpt><trkpt lat="55.2955180" lon="38.7723990"><time>2020-06-27T07:42:33.710</time></trkpt><trkpt lat="55.2955440" lon="38.7724690"><time>2020-06-27T07:42:44.473</time></trkpt><trkpt lat="55.2955450" lon="38.7725270"><time>2020-06-27T07:42:48.717</time></trkpt><trkpt lat="55.2955180" lon="38.7725410"><time>2020-06-27T07:42:50.457</time></trkpt><trkpt lat="55.2954630" lon="38.7725200"><time>2020-06-27T07:43:06.707</time></trkpt><trkpt lat="55.2954150" lon="38.7725540"><time>2020-06-27T07:43:08.727</time></trkpt><trkpt lat="55.2954360" lon="38.7724490"><time>2020-06-27T07:43:20.437</time></trkpt><trkpt lat="55.2954370" lon="38.7723500"><time>2020-06-27T07:43:22.727</time></trkpt><trkpt lat="55.2954540" lon="38.7722490"><time>2020-06-27T07:43:25.713</time></trkpt><trkpt lat="55.2954690" lon="38.7721610"><time>2020-06-27T07:43:27.703</time></trkpt><trkpt lat="55.2954910" lon="38.7720670"><time>2020-06-27T07:43:29.470</time></trkpt><trkpt lat="55.2955220" lon="38.7719990"><time>2020-06-27T07:43:31.707</time></trkpt><trkpt lat="55.2955540" lon="38.7719440"><time>2020-06-27T07:43:33.747</time></trkpt><trkpt lat="55.2956010" lon="38.7718990"><time>2020-06-27T07:43:35.470</time></trkpt><trkpt lat="55.2957170" lon="38.7718970"><time>2020-06-27T07:43:37.453</time></trkpt><trkpt lat="55.2957620" lon="38.7718290"><time>2020-06-27T07:43:39.717</time></trkpt><trkpt lat="55.2958080" lon="38.7717680"><time>2020-06-27T07:43:41.690</time></trkpt><trkpt lat="55.2958420" lon="38.7716720"><time>2020-06-27T07:43:43.687</time></trkpt><trkpt lat="55.2958680" lon="38.7715780"><time>2020-06-27T07:43:46.690</time></trkpt><trkpt lat="55.2958750" lon="38.7714600"><time>2020-06-27T07:43:48.700</time></trkpt><trkpt lat="55.2959060" lon="38.7713830"><time>2020-06-27T07:43:50.673</time></trkpt><trkpt lat="55.2958940" lon="38.7709030"><time>2020-06-27T07:44:04.760</time></trkpt><trkpt lat="55.2958890" lon="38.7708250"><time>2020-06-27T07:44:06.717</time></trkpt><trkpt lat="55.2958990" lon="38.7707360"><time>2020-06-27T07:44:09.700</time></trkpt><trkpt lat="55.2958980" lon="38.7706440"><time>2020-06-27T07:44:11.720</time></trkpt><trkpt lat="55.2959140" lon="38.7705390"><time>2020-06-27T07:44:13.717</time></trkpt><trkpt lat="55.2959310" lon="38.7704330"><time>2020-06-27T07:44:15.713</time></trkpt><trkpt lat="55.2959750" lon="38.7703380"><time>2020-06-27T07:44:17.473</time></trkpt><trkpt lat="55.2960010" lon="38.7702450"><time>2020-06-27T07:44:19.743</time></trkpt><trkpt lat="55.2960250" lon="38.7701660"><time>2020-06-27T07:44:21.693</time></trkpt><trkpt lat="55.2960180" lon="38.7700710"><time>2020-06-27T07:44:23.460</time></trkpt><trkpt lat="55.2959770" lon="38.7699680"><time>2020-06-27T07:44:25.687</time></trkpt><trkpt lat="55.2960250" lon="38.7699040"><time>2020-06-27T07:44:27.690</time></trkpt><trkpt lat="55.2960590" lon="38.7698080"><time>2020-06-27T07:44:29.700</time></trkpt><trkpt lat="55.2960940" lon="38.7696910"><time>2020-06-27T07:44:31.690</time></trkpt><trkpt lat="55.2962370" lon="38.7693280"><time>2020-06-27T07:44:38.127</time></trkpt><trkpt lat="55.2962960" lon="38.7692110"><time>2020-06-27T07:44:39.707</time></trkpt><trkpt lat="55.2963490" lon="38.7690840"><time>2020-06-27T07:44:41.693</time></trkpt><trkpt lat="55.2963780" lon="38.7690190"><time>2020-06-27T07:44:42.673</time></trkpt><trkpt lat="55.2964060" lon="38.7689560"><time>2020-06-27T07:44:43.700</time></trkpt><trkpt lat="55.2964350" lon="38.7688920"><time>2020-06-27T07:44:44.687</time></trkpt><trkpt lat="55.2964670" lon="38.7688330"><time>2020-06-27T07:44:45.673</time></trkpt><trkpt lat="55.2965030" lon="38.7687850"><time>2020-06-27T07:44:46.687</time></trkpt><trkpt lat="55.2965540" lon="38.7686570"><time>2020-06-27T07:44:48.690</time></trkpt><trkpt lat="55.2965920" lon="38.7686100"><time>2020-06-27T07:44:49.680</time></trkpt><trkpt lat="55.2966240" lon="38.7685490"><time>2020-06-27T07:44:50.460</time></trkpt><trkpt lat="55.2966490" lon="38.7684700"><time>2020-06-27T07:44:51.467</time></trkpt><trkpt lat="55.2966800" lon="38.7684040"><time>2020-06-27T07:44:52.740</time></trkpt><trkpt lat="55.2967570" lon="38.7681950"><time>2020-06-27T07:44:55.720</time></trkpt><trkpt lat="55.2968180" lon="38.7680910"><time>2020-06-27T07:44:57.680</time></trkpt><trkpt lat="55.2968500" lon="38.7680350"><time>2020-06-27T07:44:58.693</time></trkpt><trkpt lat="55.2968830" lon="38.7679750"><time>2020-06-27T07:44:59.687</time></trkpt><trkpt lat="55.2969210" lon="38.7679070"><time>2020-06-27T07:45:00.687</time></trkpt><trkpt lat="55.2969700" lon="38.7678570"><time>2020-06-27T07:45:01.697</time></trkpt><trkpt lat="55.2970040" lon="38.7678040"><time>2020-06-27T07:45:02.700</time></trkpt><trkpt lat="55.2970340" lon="38.7677110"><time>2020-06-27T07:45:03.697</time></trkpt><trkpt lat="55.2970650" lon="38.7676440"><time>2020-06-27T07:45:04.453</time></trkpt><trkpt lat="55.2971080" lon="38.7675070"><time>2020-06-27T07:45:06.690</time></trkpt><trkpt lat="55.2971430" lon="38.7674280"><time>2020-06-27T07:45:07.693</time></trkpt><trkpt lat="55.2971670" lon="38.7673450"><time>2020-06-27T07:45:08.690</time></trkpt><trkpt lat="55.2971960" lon="38.7672800"><time>2020-06-27T07:45:09.677</time></trkpt><trkpt lat="55.2972250" lon="38.7672020"><time>2020-06-27T07:45:10.680</time></trkpt><trkpt lat="55.2972630" lon="38.7671280"><time>2020-06-27T07:45:11.687</time></trkpt><trkpt lat="55.2972910" lon="38.7670450"><time>2020-06-27T07:45:12.677</time></trkpt><trkpt lat="55.2973490" lon="38.7669860"><time>2020-06-27T07:45:13.693</time></trkpt><trkpt lat="55.2973840" lon="38.7669150"><time>2020-06-27T07:45:14.680</time></trkpt><trkpt lat="55.2974280" lon="38.7668550"><time>2020-06-27T07:45:15.687</time></trkpt><trkpt lat="55.2974430" lon="38.7667650"><time>2020-06-27T07:45:16.670</time></trkpt><trkpt lat="55.2974690" lon="38.7666960"><time>2020-06-27T07:45:17.453</time></trkpt><trkpt lat="55.2974900" lon="38.7666250"><time>2020-06-27T07:45:18.453</time></trkpt><trkpt lat="55.2975280" lon="38.7664980"><time>2020-06-27T07:45:20.690</time></trkpt><trkpt lat="55.2975540" lon="38.7663880"><time>2020-06-27T07:45:22.703</time></trkpt><trkpt lat="55.2975760" lon="38.7663030"><time>2020-06-27T07:45:24.697</time></trkpt><trkpt lat="55.2975710" lon="38.7662180"><time>2020-06-27T07:45:26.690</time></trkpt><trkpt lat="55.2975750" lon="38.7661250"><time>2020-06-27T07:45:29.690</time></trkpt><trkpt lat="55.2976000" lon="38.7660140"><time>2020-06-27T07:45:31.710</time></trkpt><trkpt lat="55.2976710" lon="38.7659970"><time>2020-06-27T07:45:33.713</time></trkpt><trkpt lat="55.2977150" lon="38.7660260"><time>2020-06-27T07:45:34.657</time></trkpt><trkpt lat="55.2977650" lon="38.7661370"><time>2020-06-27T07:45:36.687</time></trkpt><trkpt lat="55.2978310" lon="38.7662550"><time>2020-06-27T07:45:38.753</time></trkpt><trkpt lat="55.2978620" lon="38.7663150"><time>2020-06-27T07:45:39.697</time></trkpt><trkpt lat="55.2979070" lon="38.7664440"><time>2020-06-27T07:45:41.673</time></trkpt><trkpt lat="55.2979500" lon="38.7665590"><time>2020-06-27T07:45:43.697</time></trkpt><trkpt lat="55.2979800" lon="38.7666240"><time>2020-06-27T07:45:44.687</time></trkpt><trkpt lat="55.2980120" lon="38.7666890"><time>2020-06-27T07:45:45.447</time></trkpt><trkpt lat="55.2980280" lon="38.7667630"><time>2020-06-27T07:45:46.747</time></trkpt><trkpt lat="55.2980500" lon="38.7668380"><time>2020-06-27T07:45:47.683</time></trkpt><trkpt lat="55.2980740" lon="38.7669180"><time>2020-06-27T07:45:48.687</time></trkpt><trkpt lat="55.2981010" lon="38.7670050"><time>2020-06-27T07:45:49.680</time></trkpt><trkpt lat="55.2981310" lon="38.7670900"><time>2020-06-27T07:45:50.683</time></trkpt><trkpt lat="55.2981530" lon="38.7671830"><time>2020-06-27T07:45:51.687</time></trkpt><trkpt lat="55.2981790" lon="38.7672720"><time>2020-06-27T07:45:52.687</time></trkpt><trkpt lat="55.2982000" lon="38.7673610"><time>2020-06-27T07:45:53.737</time></trkpt><trkpt lat="55.2982320" lon="38.7674490"><time>2020-06-27T07:45:54.687</time></trkpt><trkpt lat="55.2982650" lon="38.7675410"><time>2020-06-27T07:45:55.690</time></trkpt><trkpt lat="55.2982860" lon="38.7676390"><time>2020-06-27T07:45:56.687</time></trkpt><trkpt lat="55.2983150" lon="38.7677380"><time>2020-06-27T07:45:57.687</time></trkpt><trkpt lat="55.2983450" lon="38.7678310"><time>2020-06-27T07:45:58.677</time></trkpt><trkpt lat="55.2983670" lon="38.7679010"><time>2020-06-27T07:45:59.687</time></trkpt><trkpt lat="55.2984070" lon="38.7680080"><time>2020-06-27T07:46:00.743</time></trkpt><trkpt lat="55.2984310" lon="38.7681100"><time>2020-06-27T07:46:01.697</time></trkpt><trkpt lat="55.2984700" lon="38.7682030"><time>2020-06-27T07:46:02.700</time></trkpt><trkpt lat="55.2984870" lon="38.7683030"><time>2020-06-27T07:46:03.673</time></trkpt><trkpt lat="55.2985010" lon="38.7683990"><time>2020-06-27T07:46:04.687</time></trkpt><trkpt lat="55.2985180" lon="38.7684870"><time>2020-06-27T07:46:05.690</time></trkpt><trkpt lat="55.2985380" lon="38.7685670"><time>2020-06-27T07:46:06.680</time></trkpt><trkpt lat="55.2985510" lon="38.7686950"><time>2020-06-27T07:46:08.720</time></trkpt><trkpt lat="55.2985710" lon="38.7687920"><time>2020-06-27T07:46:10.690</time></trkpt><trkpt lat="55.2985800" lon="38.7689010"><time>2020-06-27T07:46:12.680</time></trkpt><trkpt lat="55.2985920" lon="38.7690060"><time>2020-06-27T07:46:15.727</time></trkpt><trkpt lat="55.2986040" lon="38.7691960"><time>2020-06-27T07:46:18.483</time></trkpt><trkpt lat="55.2986290" lon="38.7692630"><time>2020-06-27T07:46:19.463</time></trkpt><trkpt lat="55.2986280" lon="38.7693800"><time>2020-06-27T07:46:21.683</time></trkpt><trkpt lat="55.2986360" lon="38.7695060"><time>2020-06-27T07:46:23.693</time></trkpt><trkpt lat="55.2986550" lon="38.7696170"><time>2020-06-27T07:46:25.683</time></trkpt><trkpt lat="55.2986800" lon="38.7697210"><time>2020-06-27T07:46:28.717</time></trkpt><trkpt lat="55.2986800" lon="38.7698010"><time>2020-06-27T07:46:30.717</time></trkpt><trkpt lat="55.2986870" lon="38.7699130"><time>2020-06-27T07:46:33.687</time></trkpt><trkpt lat="55.2987040" lon="38.7700160"><time>2020-06-27T07:46:35.697</time></trkpt><trkpt lat="55.2987030" lon="38.7701070"><time>2020-06-27T07:46:37.707</time></trkpt><trkpt lat="55.2987450" lon="38.7702010"><time>2020-06-27T07:46:40.703</time></trkpt><trkpt lat="55.2987700" lon="38.7702700"><time>2020-06-27T07:46:42.703</time></trkpt><trkpt lat="55.2987880" lon="38.7703540"><time>2020-06-27T07:46:44.697</time></trkpt><trkpt lat="55.2988080" lon="38.7704520"><time>2020-06-27T07:46:46.713</time></trkpt><trkpt lat="55.2988240" lon="38.7705520"><time>2020-06-27T07:46:48.470</time></trkpt><trkpt lat="55.2988390" lon="38.7706450"><time>2020-06-27T07:46:50.723</time></trkpt><trkpt lat="55.2988540" lon="38.7707540"><time>2020-06-27T07:46:53.707</time></trkpt><trkpt lat="55.2988710" lon="38.7708600"><time>2020-06-27T07:46:56.767</time></trkpt><trkpt lat="55.2988860" lon="38.7709470"><time>2020-06-27T07:46:58.713</time></trkpt><trkpt lat="55.2988890" lon="38.7710370"><time>2020-06-27T07:47:00.727</time></trkpt><trkpt lat="55.2988800" lon="38.7711400"><time>2020-06-27T07:47:02.730</time></trkpt><trkpt lat="55.2988900" lon="38.7712330"><time>2020-06-27T07:47:04.710</time></trkpt><trkpt lat="55.2989180" lon="38.7713180"><time>2020-06-27T07:47:06.737</time></trkpt><trkpt lat="55.2989380" lon="38.7713940"><time>2020-06-27T07:47:08.717</time></trkpt><trkpt lat="55.2989660" lon="38.7714650"><time>2020-06-27T07:47:10.760</time></trkpt><trkpt lat="55.2990150" lon="38.7714980"><time>2020-06-27T07:47:12.727</time></trkpt><trkpt lat="55.2990560" lon="38.7715540"><time>2020-06-27T07:47:14.713</time></trkpt><trkpt lat="55.2990900" lon="38.7716380"><time>2020-06-27T07:47:16.713</time></trkpt><trkpt lat="55.2991340" lon="38.7717180"><time>2020-06-27T07:47:18.457</time></trkpt><trkpt lat="55.2992150" lon="38.7718870"><time>2020-06-27T07:47:20.710</time></trkpt><trkpt lat="55.2992290" lon="38.7719880"><time>2020-06-27T07:47:21.687</time></trkpt><trkpt lat="55.2992900" lon="38.7720750"><time>2020-06-27T07:47:23.663</time></trkpt><trkpt lat="55.2993340" lon="38.7721860"><time>2020-06-27T07:47:25.693</time></trkpt><trkpt lat="55.2993420" lon="38.7722710"><time>2020-06-27T07:47:27.680</time></trkpt><trkpt lat="55.2993720" lon="38.7723340"><time>2020-06-27T07:47:28.690</time></trkpt><trkpt lat="55.2994080" lon="38.7724300"><time>2020-06-27T07:47:31.727</time></trkpt><trkpt lat="55.2994500" lon="38.7725200"><time>2020-06-27T07:47:34.723</time></trkpt><trkpt lat="55.2994840" lon="38.7725790"><time>2020-06-27T07:47:35.680</time></trkpt><trkpt lat="55.2995190" lon="38.7726420"><time>2020-06-27T07:47:36.693</time></trkpt><trkpt lat="55.2996180" lon="38.7728290"><time>2020-06-27T07:47:37.703</time></trkpt><trkpt lat="55.2996650" lon="38.7728700"><time>2020-06-27T07:47:38.667</time></trkpt><trkpt lat="55.2997020" lon="38.7729160"><time>2020-06-27T07:47:39.677</time></trkpt><trkpt lat="55.2997470" lon="38.7729750"><time>2020-06-27T07:47:40.677</time></trkpt><trkpt lat="55.2997910" lon="38.7730430"><time>2020-06-27T07:47:41.680</time></trkpt><trkpt lat="55.2998280" lon="38.7731080"><time>2020-06-27T07:47:42.670</time></trkpt><trkpt lat="55.2998760" lon="38.7731990"><time>2020-06-27T07:47:44.687</time></trkpt><trkpt lat="55.2999640" lon="38.7732970"><time>2020-06-27T07:47:47.687</time></trkpt><trkpt lat="55.3000010" lon="38.7733500"><time>2020-06-27T07:47:49.693</time></trkpt><trkpt lat="55.3000520" lon="38.7733840"><time>2020-06-27T07:47:53.753</time></trkpt><trkpt lat="55.3001710" lon="38.7734240"><time>2020-06-27T07:47:58.713</time></trkpt><trkpt lat="55.3002530" lon="38.7734550"><time>2020-06-27T07:48:00.700</time></trkpt><trkpt lat="55.3003120" lon="38.7734870"><time>2020-06-27T07:48:01.703</time></trkpt><trkpt lat="55.3003680" lon="38.7735110"><time>2020-06-27T07:48:04.677</time></trkpt><trkpt lat="55.3003990" lon="38.7735840"><time>2020-06-27T07:48:07.687</time></trkpt><trkpt lat="55.3004230" lon="38.7736740"><time>2020-06-27T07:48:10.737</time></trkpt><trkpt lat="55.3004660" lon="38.7737290"><time>2020-06-27T07:48:11.707</time></trkpt><trkpt lat="55.3005080" lon="38.7737720"><time>2020-06-27T07:48:13.683</time></trkpt><trkpt lat="55.3005580" lon="38.7738250"><time>2020-06-27T07:48:16.723</time></trkpt><trkpt lat="55.3006100" lon="38.7738860"><time>2020-06-27T07:48:19.463</time></trkpt><trkpt lat="55.3006630" lon="38.7739430"><time>2020-06-27T07:48:22.700</time></trkpt><trkpt lat="55.3007120" lon="38.7740220"><time>2020-06-27T07:48:25.690</time></trkpt><trkpt lat="55.3007510" lon="38.7740680"><time>2020-06-27T07:48:27.477</time></trkpt><trkpt lat="55.3007960" lon="38.7741810"><time>2020-06-27T07:48:29.720</time></trkpt><trkpt lat="55.3008360" lon="38.7742690"><time>2020-06-27T07:48:31.707</time></trkpt><trkpt lat="55.3008840" lon="38.7743210"><time>2020-06-27T07:48:33.683</time></trkpt><trkpt lat="55.3009310" lon="38.7743970"><time>2020-06-27T07:48:35.700</time></trkpt><trkpt lat="55.3009770" lon="38.7744850"><time>2020-06-27T07:48:37.707</time></trkpt><trkpt lat="55.3010240" lon="38.7745730"><time>2020-06-27T07:48:39.710</time></trkpt><trkpt lat="55.3010800" lon="38.7746860"><time>2020-06-27T07:48:41.733</time></trkpt><trkpt lat="55.3011090" lon="38.7747480"><time>2020-06-27T07:48:42.717</time></trkpt><trkpt lat="55.3011350" lon="38.7748140"><time>2020-06-27T07:48:43.717</time></trkpt><trkpt lat="55.3011580" lon="38.7748830"><time>2020-06-27T07:48:44.687</time></trkpt><trkpt lat="55.3011930" lon="38.7749880"><time>2020-06-27T07:48:46.717</time></trkpt><trkpt lat="55.3012250" lon="38.7750630"><time>2020-06-27T07:48:48.713</time></trkpt><trkpt lat="55.3012610" lon="38.7751720"><time>2020-06-27T07:48:50.713</time></trkpt><trkpt lat="55.3013090" lon="38.7753140"><time>2020-06-27T07:48:52.703</time></trkpt><trkpt lat="55.3013140" lon="38.7754230"><time>2020-06-27T07:48:54.667</time></trkpt><trkpt lat="55.3013310" lon="38.7755540"><time>2020-06-27T07:48:56.703</time></trkpt><trkpt lat="55.3013700" lon="38.7756800"><time>2020-06-27T07:48:58.680</time></trkpt><trkpt lat="55.3014130" lon="38.7757530"><time>2020-06-27T07:49:01.687</time></trkpt><trkpt lat="55.3014220" lon="38.7758540"><time>2020-06-27T07:49:03.710</time></trkpt><trkpt lat="55.3014370" lon="38.7759390"><time>2020-06-27T07:49:05.683</time></trkpt><trkpt lat="55.3014580" lon="38.7760240"><time>2020-06-27T07:49:08.733</time></trkpt><trkpt lat="55.3014840" lon="38.7761170"><time>2020-06-27T07:49:11.707</time></trkpt><trkpt lat="55.3015270" lon="38.7762100"><time>2020-06-27T07:49:13.703</time></trkpt><trkpt lat="55.3015700" lon="38.7762950"><time>2020-06-27T07:49:15.723</time></trkpt><trkpt lat="55.3016110" lon="38.7763700"><time>2020-06-27T07:49:17.497</time></trkpt><trkpt lat="55.3016600" lon="38.7764730"><time>2020-06-27T07:49:19.483</time></trkpt><trkpt lat="55.3017090" lon="38.7766320"><time>2020-06-27T07:49:20.470</time></trkpt><trkpt lat="55.3019220" lon="38.7768510"><time>2020-06-27T07:49:21.687</time></trkpt><trkpt lat="55.3019670" lon="38.7769180"><time>2020-06-27T07:49:22.697</time></trkpt><trkpt lat="55.3020210" lon="38.7769980"><time>2020-06-27T07:49:23.673</time></trkpt><trkpt lat="55.3020950" lon="38.7771220"><time>2020-06-27T07:49:25.673</time></trkpt><trkpt lat="55.3021350" lon="38.7772050"><time>2020-06-27T07:49:27.693</time></trkpt><trkpt lat="55.3021580" lon="38.7772870"><time>2020-06-27T07:49:29.687</time></trkpt><trkpt lat="55.3022040" lon="38.7773710"><time>2020-06-27T07:49:32.677</time></trkpt><trkpt lat="55.3022610" lon="38.7774320"><time>2020-06-27T07:49:35.720</time></trkpt><trkpt lat="55.3023080" lon="38.7774960"><time>2020-06-27T07:49:38.687</time></trkpt><trkpt lat="55.3023440" lon="38.7775630"><time>2020-06-27T07:49:40.703</time></trkpt><trkpt lat="55.3023690" lon="38.7776380"><time>2020-06-27T07:49:42.713</time></trkpt><trkpt lat="55.3023990" lon="38.7777110"><time>2020-06-27T07:49:44.707</time></trkpt><trkpt lat="55.3024270" lon="38.7777760"><time>2020-06-27T07:49:46.727</time></trkpt><trkpt lat="55.3024640" lon="38.7778340"><time>2020-06-27T07:49:48.703</time></trkpt><trkpt lat="55.3025160" lon="38.7779470"><time>2020-06-27T07:49:51.713</time></trkpt><trkpt lat="55.3025500" lon="38.7780580"><time>2020-06-27T07:49:53.700</time></trkpt><trkpt lat="55.3025850" lon="38.7781570"><time>2020-06-27T07:49:55.710</time></trkpt><trkpt lat="55.3026220" lon="38.7782130"><time>2020-06-27T07:49:57.740</time></trkpt><trkpt lat="55.3026650" lon="38.7782660"><time>2020-06-27T07:49:59.710</time></trkpt><trkpt lat="55.3027250" lon="38.7783260"><time>2020-06-27T07:50:02.703</time></trkpt><trkpt lat="55.3027600" lon="38.7784150"><time>2020-06-27T07:50:04.703</time></trkpt><trkpt lat="55.3027880" lon="38.7785590"><time>2020-06-27T07:50:05.700</time></trkpt><trkpt lat="55.3028400" lon="38.7786250"><time>2020-06-27T07:50:07.663</time></trkpt><trkpt lat="55.3028900" lon="38.7786830"><time>2020-06-27T07:50:09.697</time></trkpt><trkpt lat="55.3029410" lon="38.7787360"><time>2020-06-27T07:50:11.447</time></trkpt><trkpt lat="55.3029550" lon="38.7788120"><time>2020-06-27T07:50:12.693</time></trkpt><trkpt lat="55.3030000" lon="38.7788930"><time>2020-06-27T07:50:15.717</time></trkpt><trkpt lat="55.3030350" lon="38.7789470"><time>2020-06-27T07:50:18.717</time></trkpt><trkpt lat="55.3031410" lon="38.7791120"><time>2020-06-27T07:50:20.457</time></trkpt><trkpt lat="55.3032050" lon="38.7792710"><time>2020-06-27T07:50:21.693</time></trkpt><trkpt lat="55.3032370" lon="38.7793350"><time>2020-06-27T07:50:23.717</time></trkpt><trkpt lat="55.3032770" lon="38.7794160"><time>2020-06-27T07:50:25.693</time></trkpt><trkpt lat="55.3033220" lon="38.7794490"><time>2020-06-27T07:50:27.677</time></trkpt><trkpt lat="55.3033710" lon="38.7795240"><time>2020-06-27T07:50:29.687</time></trkpt><trkpt lat="55.3033370" lon="38.7794620"><time>2020-06-27T07:50:39.673</time></trkpt><trkpt lat="55.3033000" lon="38.7794000"><time>2020-06-27T07:50:42.687</time></trkpt><trkpt lat="55.3032450" lon="38.7793550"><time>2020-06-27T07:50:45.683</time></trkpt><trkpt lat="55.3032000" lon="38.7793390"><time>2020-06-27T07:50:49.700</time></trkpt><trkpt lat="55.3031510" lon="38.7793040"><time>2020-06-27T07:50:51.690</time></trkpt><trkpt lat="55.3030880" lon="38.7792340"><time>2020-06-27T07:50:53.687</time></trkpt><trkpt lat="55.3030310" lon="38.7791530"><time>2020-06-27T07:50:55.737</time></trkpt><trkpt lat="55.3029840" lon="38.7790610"><time>2020-06-27T07:50:56.687</time></trkpt><trkpt lat="55.3029190" lon="38.7789920"><time>2020-06-27T07:50:58.663</time></trkpt><trkpt lat="55.3028670" lon="38.7788940"><time>2020-06-27T07:51:00.713</time></trkpt><trkpt lat="55.3028040" lon="38.7788360"><time>2020-06-27T07:51:02.687</time></trkpt><trkpt lat="55.3027520" lon="38.7787720"><time>2020-06-27T07:51:05.727</time></trkpt><trkpt lat="55.3026940" lon="38.7786980"><time>2020-06-27T07:51:08.467</time></trkpt><trkpt lat="55.3025990" lon="38.7785650"><time>2020-06-27T07:51:10.683</time></trkpt><trkpt lat="55.3025490" lon="38.7784990"><time>2020-06-27T07:51:11.687</time></trkpt><trkpt lat="55.3025020" lon="38.7784140"><time>2020-06-27T07:51:13.693</time></trkpt><trkpt lat="55.3024630" lon="38.7782710"><time>2020-06-27T07:51:15.680</time></trkpt><trkpt lat="55.3024240" lon="38.7781760"><time>2020-06-27T07:51:17.697</time></trkpt><trkpt lat="55.3023870" lon="38.7780950"><time>2020-06-27T07:51:20.487</time></trkpt><trkpt lat="55.3023650" lon="38.7779880"><time>2020-06-27T07:51:24.730</time></trkpt><trkpt lat="55.3023160" lon="38.7778680"><time>2020-06-27T07:51:26.463</time></trkpt><trkpt lat="55.3021910" lon="38.7777610"><time>2020-06-27T07:51:27.447</time></trkpt><trkpt lat="55.3021380" lon="38.7776750"><time>2020-06-27T07:51:29.667</time></trkpt><trkpt lat="55.3020770" lon="38.7775970"><time>2020-06-27T07:51:31.450</time></trkpt><trkpt lat="55.3020230" lon="38.7775010"><time>2020-06-27T07:51:33.700</time></trkpt><trkpt lat="55.3019980" lon="38.7774060"><time>2020-06-27T07:51:35.690</time></trkpt><trkpt lat="55.3019890" lon="38.7773180"><time>2020-06-27T07:51:38.713</time></trkpt><trkpt lat="55.3019740" lon="38.7772140"><time>2020-06-27T07:51:41.707</time></trkpt><trkpt lat="55.3019880" lon="38.7771060"><time>2020-06-27T07:51:43.707</time></trkpt><trkpt lat="55.3020400" lon="38.7770270"><time>2020-06-27T07:51:45.480</time></trkpt><trkpt lat="55.3020860" lon="38.7769410"><time>2020-06-27T07:51:47.763</time></trkpt><trkpt lat="55.3021270" lon="38.7768540"><time>2020-06-27T07:51:49.487</time></trkpt><trkpt lat="55.3021630" lon="38.7767940"><time>2020-06-27T07:51:51.697</time></trkpt><trkpt lat="55.3022100" lon="38.7767020"><time>2020-06-27T07:51:54.753</time></trkpt><trkpt lat="55.3022640" lon="38.7766470"><time>2020-06-27T07:51:56.723</time></trkpt><trkpt lat="55.3023250" lon="38.7766220"><time>2020-06-27T07:51:58.727</time></trkpt><trkpt lat="55.3023890" lon="38.7766060"><time>2020-06-27T07:52:00.707</time></trkpt><trkpt lat="55.3024340" lon="38.7765980"><time>2020-06-27T07:52:02.470</time></trkpt><trkpt lat="55.3024780" lon="38.7765430"><time>2020-06-27T07:52:05.700</time></trkpt><trkpt lat="55.3025080" lon="38.7766090"><time>2020-06-27T07:52:09.693</time></trkpt><trkpt lat="55.3025330" lon="38.7766810"><time>2020-06-27T07:52:11.700</time></trkpt><trkpt lat="55.3025660" lon="38.7767350"><time>2020-06-27T07:52:14.750</time></trkpt><trkpt lat="55.3026240" lon="38.7767500"><time>2020-06-27T07:52:24.707</time></trkpt><trkpt lat="55.3026670" lon="38.7767760"><time>2020-06-27T07:52:28.723</time></trkpt><trkpt lat="55.3027230" lon="38.7767230"><time>2020-06-27T07:52:30.730</time></trkpt><trkpt lat="55.3027770" lon="38.7767250"><time>2020-06-27T07:52:32.700</time></trkpt><trkpt lat="55.3028190" lon="38.7766930"><time>2020-06-27T07:52:34.700</time></trkpt><trkpt lat="55.3028700" lon="38.7767070"><time>2020-06-27T07:52:37.710</time></trkpt><trkpt lat="55.3029130" lon="38.7766650"><time>2020-06-27T07:52:42.720</time></trkpt><trkpt lat="55.3029030" lon="38.7765870"><time>2020-06-27T07:52:44.723</time></trkpt><trkpt lat="55.3029180" lon="38.7764800"><time>2020-06-27T07:52:47.717</time></trkpt><trkpt lat="55.3028710" lon="38.7764730"><time>2020-06-27T07:52:51.473</time></trkpt><trkpt lat="55.3029270" lon="38.7764720"><time>2020-06-27T07:52:59.477</time></trkpt><trkpt lat="55.3029850" lon="38.7764460"><time>2020-06-27T07:53:02.727</time></trkpt><trkpt lat="55.3030300" lon="38.7763890"><time>2020-06-27T07:53:04.720</time></trkpt><trkpt lat="55.3030830" lon="38.7763670"><time>2020-06-27T07:53:06.727</time></trkpt><trkpt lat="55.3031350" lon="38.7763610"><time>2020-06-27T07:53:08.717</time></trkpt><trkpt lat="55.3031770" lon="38.7763130"><time>2020-06-27T07:53:11.733</time></trkpt><trkpt lat="55.3032270" lon="38.7762700"><time>2020-06-27T07:53:15.720</time></trkpt><trkpt lat="55.3032830" lon="38.7762860"><time>2020-06-27T07:53:21.463</time></trkpt><trkpt lat="55.3033320" lon="38.7762380"><time>2020-06-27T07:53:26.467</time></trkpt><trkpt lat="55.3033830" lon="38.7762300"><time>2020-06-27T07:53:29.707</time></trkpt><trkpt lat="55.3034450" lon="38.7762360"><time>2020-06-27T07:53:32.707</time></trkpt><trkpt lat="55.3034890" lon="38.7762610"><time>2020-06-27T07:53:34.470</time></trkpt><trkpt lat="55.3035290" lon="38.7763030"><time>2020-06-27T07:53:36.703</time></trkpt><trkpt lat="55.3035920" lon="38.7763220"><time>2020-06-27T07:53:39.687</time></trkpt><trkpt lat="55.3036440" lon="38.7763180"><time>2020-06-27T07:53:42.707</time></trkpt><trkpt lat="55.3036970" lon="38.7763410"><time>2020-06-27T07:53:48.697</time></trkpt><trkpt lat="55.3037450" lon="38.7763030"><time>2020-06-27T07:54:05.710</time></trkpt><trkpt lat="55.3037800" lon="38.7762320"><time>2020-06-27T07:54:12.697</time></trkpt><trkpt lat="55.3037970" lon="38.7761530"><time>2020-06-27T07:54:17.690</time></trkpt><trkpt lat="55.3038370" lon="38.7760950"><time>2020-06-27T07:54:21.717</time></trkpt><trkpt lat="55.3038810" lon="38.7760410"><time>2020-06-27T07:54:24.750</time></trkpt><trkpt lat="55.3039370" lon="38.7760150"><time>2020-06-27T07:54:28.463</time></trkpt><trkpt lat="55.3039850" lon="38.7759690"><time>2020-06-27T07:54:30.703</time></trkpt><trkpt lat="55.3040300" lon="38.7758810"><time>2020-06-27T07:54:33.677</time></trkpt><trkpt lat="55.3040610" lon="38.7758110"><time>2020-06-27T07:54:35.683</time></trkpt><trkpt lat="55.3041070" lon="38.7758050"><time>2020-06-27T07:54:38.700</time></trkpt><trkpt lat="55.3041530" lon="38.7758820"><time>2020-06-27T07:54:40.693</time></trkpt><trkpt lat="55.3042000" lon="38.7759890"><time>2020-06-27T07:54:42.720</time></trkpt><trkpt lat="55.3042590" lon="38.7760770"><time>2020-06-27T07:54:44.707</time></trkpt><trkpt lat="55.3043250" lon="38.7762150"><time>2020-06-27T07:54:46.687</time></trkpt><trkpt lat="55.3043670" lon="38.7762770"><time>2020-06-27T07:54:48.657</time></trkpt><trkpt lat="55.3044030" lon="38.7763570"><time>2020-06-27T07:54:50.447</time></trkpt><trkpt lat="55.3044410" lon="38.7764550"><time>2020-06-27T07:54:53.680</time></trkpt><trkpt lat="55.3044840" lon="38.7765170"><time>2020-06-27T07:54:55.663</time></trkpt><trkpt lat="55.3045140" lon="38.7765910"><time>2020-06-27T07:54:58.693</time></trkpt><trkpt lat="55.3045930" lon="38.7767800"><time>2020-06-27T07:55:00.687</time></trkpt><trkpt lat="55.3046430" lon="38.7768700"><time>2020-06-27T07:55:02.657</time></trkpt><trkpt lat="55.3047120" lon="38.7769580"><time>2020-06-27T07:55:04.677</time></trkpt><trkpt lat="55.3047780" lon="38.7770580"><time>2020-06-27T07:55:06.673</time></trkpt><trkpt lat="55.3048440" lon="38.7771630"><time>2020-06-27T07:55:08.687</time></trkpt><trkpt lat="55.3049080" lon="38.7772590"><time>2020-06-27T07:55:10.667</time></trkpt><trkpt lat="55.3049690" lon="38.7773450"><time>2020-06-27T07:55:12.703</time></trkpt><trkpt lat="55.3050050" lon="38.7773950"><time>2020-06-27T07:55:13.717</time></trkpt><trkpt lat="55.3050440" lon="38.7774490"><time>2020-06-27T07:55:14.717</time></trkpt><trkpt lat="55.3051210" lon="38.7775570"><time>2020-06-27T07:55:16.713</time></trkpt><trkpt lat="55.3051630" lon="38.7776070"><time>2020-06-27T07:55:17.697</time></trkpt><trkpt lat="55.3052310" lon="38.7777260"><time>2020-06-27T07:55:19.690</time></trkpt><trkpt lat="55.3052720" lon="38.7777850"><time>2020-06-27T07:55:20.710</time></trkpt><trkpt lat="55.3053090" lon="38.7778390"><time>2020-06-27T07:55:21.723</time></trkpt><trkpt lat="55.3053450" lon="38.7778980"><time>2020-06-27T07:55:22.443</time></trkpt><trkpt lat="55.3053900" lon="38.7779630"><time>2020-06-27T07:55:23.753</time></trkpt><trkpt lat="55.3054230" lon="38.7780330"><time>2020-06-27T07:55:24.683</time></trkpt><trkpt lat="55.3054790" lon="38.7780370"><time>2020-06-27T07:55:25.690</time></trkpt><trkpt lat="55.3055180" lon="38.7780960"><time>2020-06-27T07:55:26.463</time></trkpt><trkpt lat="55.3055890" lon="38.7781570"><time>2020-06-27T07:55:28.697</time></trkpt><trkpt lat="55.3056500" lon="38.7782090"><time>2020-06-27T07:55:30.697</time></trkpt><trkpt lat="55.3056920" lon="38.7782470"><time>2020-06-27T07:55:32.697</time></trkpt><trkpt lat="55.3057290" lon="38.7783400"><time>2020-06-27T07:55:35.723</time></trkpt><trkpt lat="55.3057580" lon="38.7784040"><time>2020-06-27T07:55:38.703</time></trkpt><trkpt lat="55.3057950" lon="38.7784860"><time>2020-06-27T07:55:40.673</time></trkpt><trkpt lat="55.3058350" lon="38.7785370"><time>2020-06-27T07:55:43.693</time></trkpt><trkpt lat="55.3058790" lon="38.7785870"><time>2020-06-27T07:55:46.703</time></trkpt><trkpt lat="55.3059190" lon="38.7786720"><time>2020-06-27T07:55:49.697</time></trkpt><trkpt lat="55.3059580" lon="38.7787370"><time>2020-06-27T07:55:52.700</time></trkpt><trkpt lat="55.3059870" lon="38.7788320"><time>2020-06-27T07:55:55.690</time></trkpt><trkpt lat="55.3059680" lon="38.7789460"><time>2020-06-27T07:55:57.700</time></trkpt><trkpt lat="55.3059780" lon="38.7790420"><time>2020-06-27T07:55:59.737</time></trkpt><trkpt lat="55.3060440" lon="38.7790710"><time>2020-06-27T07:56:00.680</time></trkpt><trkpt lat="55.3060770" lon="38.7791560"><time>2020-06-27T07:56:02.667</time></trkpt><trkpt lat="55.3061010" lon="38.7792230"><time>2020-06-27T07:56:04.680</time></trkpt><trkpt lat="55.3061270" lon="38.7792870"><time>2020-06-27T07:56:06.683</time></trkpt><trkpt lat="55.3061530" lon="38.7793650"><time>2020-06-27T07:56:08.680</time></trkpt><trkpt lat="55.3061720" lon="38.7794660"><time>2020-06-27T07:56:11.723</time></trkpt><trkpt lat="55.3062000" lon="38.7796120"><time>2020-06-27T07:56:13.717</time></trkpt><trkpt lat="55.3062010" lon="38.7797070"><time>2020-06-27T07:56:14.677</time></trkpt><trkpt lat="55.3062010" lon="38.7798330"><time>2020-06-27T07:56:16.653</time></trkpt><trkpt lat="55.3062060" lon="38.7799630"><time>2020-06-27T07:56:18.687</time></trkpt><trkpt lat="55.3062220" lon="38.7800980"><time>2020-06-27T07:56:20.687</time></trkpt><trkpt lat="55.3062240" lon="38.7802550"><time>2020-06-27T07:56:22.687</time></trkpt><trkpt lat="55.3062200" lon="38.7803400"><time>2020-06-27T07:56:23.707</time></trkpt><trkpt lat="55.3062160" lon="38.7804270"><time>2020-06-27T07:56:24.707</time></trkpt><trkpt lat="55.3062130" lon="38.7805230"><time>2020-06-27T07:56:25.697</time></trkpt><trkpt lat="55.3062150" lon="38.7806140"><time>2020-06-27T07:56:26.460</time></trkpt><trkpt lat="55.3062140" lon="38.7807160"><time>2020-06-27T07:56:27.453</time></trkpt><trkpt lat="55.3061840" lon="38.7808170"><time>2020-06-27T07:56:28.457</time></trkpt><trkpt lat="55.3061590" lon="38.7809170"><time>2020-06-27T07:56:29.740</time></trkpt><trkpt lat="55.3061550" lon="38.7810130"><time>2020-06-27T07:56:30.693</time></trkpt><trkpt lat="55.3061690" lon="38.7811080"><time>2020-06-27T07:56:31.697</time></trkpt><trkpt lat="55.3061760" lon="38.7812100"><time>2020-06-27T07:56:32.693</time></trkpt><trkpt lat="55.3061930" lon="38.7812970"><time>2020-06-27T07:56:33.713</time></trkpt><trkpt lat="55.3062050" lon="38.7813890"><time>2020-06-27T07:56:34.683</time></trkpt><trkpt lat="55.3062150" lon="38.7814730"><time>2020-06-27T07:56:35.460</time></trkpt><trkpt lat="55.3062470" lon="38.7815470"><time>2020-06-27T07:56:36.757</time></trkpt><trkpt lat="55.3062940" lon="38.7816580"><time>2020-06-27T07:56:38.690</time></trkpt><trkpt lat="55.3063470" lon="38.7816160"><time>2020-06-27T07:56:39.683</time></trkpt><trkpt lat="55.3064270" lon="38.7816230"><time>2020-06-27T07:56:41.703</time></trkpt><trkpt lat="55.3064840" lon="38.7816520"><time>2020-06-27T07:56:43.687</time></trkpt><trkpt lat="55.3065560" lon="38.7816670"><time>2020-06-27T07:56:46.737</time></trkpt><trkpt lat="55.3066210" lon="38.7816850"><time>2020-06-27T07:56:48.713</time></trkpt><trkpt lat="55.3066760" lon="38.7816760"><time>2020-06-27T07:56:50.697</time></trkpt><trkpt lat="55.3067230" lon="38.7816230"><time>2020-06-27T07:56:52.687</time></trkpt><trkpt lat="55.3067660" lon="38.7815900"><time>2020-06-27T07:56:54.707</time></trkpt><trkpt lat="55.3068330" lon="38.7815870"><time>2020-06-27T07:56:57.707</time></trkpt><trkpt lat="55.3068960" lon="38.7815860"><time>2020-06-27T07:57:00.690</time></trkpt><trkpt lat="55.3069470" lon="38.7816030"><time>2020-06-27T07:57:03.460</time></trkpt><trkpt lat="55.3070060" lon="38.7816120"><time>2020-06-27T07:57:06.700</time></trkpt><trkpt lat="55.3070530" lon="38.7816190"><time>2020-06-27T07:57:08.717</time></trkpt><trkpt lat="55.3071130" lon="38.7816090"><time>2020-06-27T07:57:11.680</time></trkpt><trkpt lat="55.3071680" lon="38.7816230"><time>2020-06-27T07:57:14.690</time></trkpt><trkpt lat="55.3072110" lon="38.7816630"><time>2020-06-27T07:57:16.457</time></trkpt><trkpt lat="55.3072490" lon="38.7817190"><time>2020-06-27T07:57:18.707</time></trkpt><trkpt lat="55.3072730" lon="38.7818100"><time>2020-06-27T07:57:20.703</time></trkpt><trkpt lat="55.3072810" lon="38.7819200"><time>2020-06-27T07:57:22.677</time></trkpt><trkpt lat="55.3072800" lon="38.7820300"><time>2020-06-27T07:57:25.697</time></trkpt><trkpt lat="55.3072470" lon="38.7821780"><time>2020-06-27T07:57:26.460</time></trkpt><trkpt lat="55.3072520" lon="38.7823050"><time>2020-06-27T07:57:28.450</time></trkpt><trkpt lat="55.3072600" lon="38.7824580"><time>2020-06-27T07:57:30.667</time></trkpt><trkpt lat="55.3072510" lon="38.7825380"><time>2020-06-27T07:57:31.680</time></trkpt><trkpt lat="55.3072130" lon="38.7826280"><time>2020-06-27T07:57:32.687</time></trkpt><trkpt lat="55.3071930" lon="38.7827210"><time>2020-06-27T07:57:33.713</time></trkpt><trkpt lat="55.3071920" lon="38.7828210"><time>2020-06-27T07:57:34.710</time></trkpt><trkpt lat="55.3072020" lon="38.7829270"><time>2020-06-27T07:57:35.687</time></trkpt><trkpt lat="55.3071910" lon="38.7830100"><time>2020-06-27T07:57:36.700</time></trkpt><trkpt lat="55.3071570" lon="38.7831100"><time>2020-06-27T07:57:37.687</time></trkpt><trkpt lat="55.3071580" lon="38.7832140"><time>2020-06-27T07:57:38.683</time></trkpt><trkpt lat="55.3071410" lon="38.7833320"><time>2020-06-27T07:57:39.700</time></trkpt><trkpt lat="55.3071290" lon="38.7834370"><time>2020-06-27T07:57:40.700</time></trkpt><trkpt lat="55.3071280" lon="38.7835680"><time>2020-06-27T07:57:41.703</time></trkpt><trkpt lat="55.3071210" lon="38.7836740"><time>2020-06-27T07:57:42.690</time></trkpt><trkpt lat="55.3071230" lon="38.7838000"><time>2020-06-27T07:57:43.707</time></trkpt><trkpt lat="55.3071110" lon="38.7839340"><time>2020-06-27T07:57:44.680</time></trkpt><trkpt lat="55.3070830" lon="38.7840560"><time>2020-06-27T07:57:45.710</time></trkpt><trkpt lat="55.3070730" lon="38.7841710"><time>2020-06-27T07:57:46.693</time></trkpt><trkpt lat="55.3070750" lon="38.7842820"><time>2020-06-27T07:57:47.707</time></trkpt><trkpt lat="55.3070610" lon="38.7844030"><time>2020-06-27T07:57:48.463</time></trkpt><trkpt lat="55.3070400" lon="38.7845220"><time>2020-06-27T07:57:49.740</time></trkpt><trkpt lat="55.3070370" lon="38.7846360"><time>2020-06-27T07:57:50.700</time></trkpt><trkpt lat="55.3070250" lon="38.7847590"><time>2020-06-27T07:57:51.717</time></trkpt><trkpt lat="55.3070160" lon="38.7848770"><time>2020-06-27T07:57:52.700</time></trkpt><trkpt lat="55.3070040" lon="38.7850070"><time>2020-06-27T07:57:53.693</time></trkpt><trkpt lat="55.3069940" lon="38.7851240"><time>2020-06-27T07:57:54.720</time></trkpt><trkpt lat="55.3069870" lon="38.7852530"><time>2020-06-27T07:57:55.703</time></trkpt><trkpt lat="55.3069850" lon="38.7853700"><time>2020-06-27T07:57:56.700</time></trkpt><trkpt lat="55.3069600" lon="38.7854830"><time>2020-06-27T07:57:57.700</time></trkpt><trkpt lat="55.3069930" lon="38.7856210"><time>2020-06-27T07:57:58.710</time></trkpt><trkpt lat="55.3069770" lon="38.7857390"><time>2020-06-27T07:57:59.700</time></trkpt><trkpt lat="55.3069770" lon="38.7858460"><time>2020-06-27T07:58:00.700</time></trkpt><trkpt lat="55.3069640" lon="38.7859750"><time>2020-06-27T07:58:01.707</time></trkpt><trkpt lat="55.3069520" lon="38.7860960"><time>2020-06-27T07:58:02.673</time></trkpt><trkpt lat="55.3069540" lon="38.7862240"><time>2020-06-27T07:58:03.460</time></trkpt><trkpt lat="55.3069000" lon="38.7863670"><time>2020-06-27T07:58:04.717</time></trkpt><trkpt lat="55.3068620" lon="38.7864790"><time>2020-06-27T07:58:05.693</time></trkpt><trkpt lat="55.3068390" lon="38.7865850"><time>2020-06-27T07:58:06.700</time></trkpt><trkpt lat="55.3068270" lon="38.7867160"><time>2020-06-27T07:58:07.703</time></trkpt><trkpt lat="55.3068290" lon="38.7868390"><time>2020-06-27T07:58:08.697</time></trkpt><trkpt lat="55.3068280" lon="38.7869590"><time>2020-06-27T07:58:09.720</time></trkpt><trkpt lat="55.3068210" lon="38.7870760"><time>2020-06-27T07:58:10.447</time></trkpt><trkpt lat="55.3068090" lon="38.7872100"><time>2020-06-27T07:58:11.743</time></trkpt><trkpt lat="55.3068100" lon="38.7873260"><time>2020-06-27T07:58:12.707</time></trkpt><trkpt lat="55.3068210" lon="38.7874420"><time>2020-06-27T07:58:13.690</time></trkpt><trkpt lat="55.3068160" lon="38.7875350"><time>2020-06-27T07:58:14.703</time></trkpt><trkpt lat="55.3068180" lon="38.7876380"><time>2020-06-27T07:58:15.690</time></trkpt><trkpt lat="55.3068190" lon="38.7877550"><time>2020-06-27T07:58:16.707</time></trkpt><trkpt lat="55.3068040" lon="38.7878660"><time>2020-06-27T07:58:17.707</time></trkpt><trkpt lat="55.3067750" lon="38.7879680"><time>2020-06-27T07:58:18.730</time></trkpt><trkpt lat="55.3067660" lon="38.7880740"><time>2020-06-27T07:58:19.700</time></trkpt><trkpt lat="55.3067650" lon="38.7881700"><time>2020-06-27T07:58:20.690</time></trkpt><trkpt lat="55.3067520" lon="38.7882750"><time>2020-06-27T07:58:21.687</time></trkpt><trkpt lat="55.3067800" lon="38.7883460"><time>2020-06-27T07:58:22.687</time></trkpt><trkpt lat="55.3068070" lon="38.7884210"><time>2020-06-27T07:58:23.703</time></trkpt><trkpt lat="55.3068330" lon="38.7884950"><time>2020-06-27T07:58:24.667</time></trkpt><trkpt lat="55.3068940" lon="38.7885460"><time>2020-06-27T07:58:26.460</time></trkpt><trkpt lat="55.3069390" lon="38.7885720"><time>2020-06-27T07:58:27.453</time></trkpt><trkpt lat="55.3069880" lon="38.7886090"><time>2020-06-27T07:58:29.687</time></trkpt><trkpt lat="55.3070330" lon="38.7886400"><time>2020-06-27T07:58:33.677</time></trkpt><trkpt lat="55.3070860" lon="38.7886710"><time>2020-06-27T07:58:37.697</time></trkpt><trkpt lat="55.3071330" lon="38.7887080"><time>2020-06-27T07:58:40.710</time></trkpt><trkpt lat="55.3071780" lon="38.7887530"><time>2020-06-27T07:58:43.707</time></trkpt><trkpt lat="55.3072100" lon="38.7888260"><time>2020-06-27T07:58:45.740</time></trkpt><trkpt lat="55.3072460" lon="38.7888730"><time>2020-06-27T07:58:47.713</time></trkpt><trkpt lat="55.3072930" lon="38.7889060"><time>2020-06-27T07:58:49.717</time></trkpt><trkpt lat="55.3073390" lon="38.7889380"><time>2020-06-27T07:58:52.777</time></trkpt><trkpt lat="55.3073910" lon="38.7890140"><time>2020-06-27T07:58:56.710</time></trkpt><trkpt lat="55.3074380" lon="38.7890550"><time>2020-06-27T07:58:58.720</time></trkpt><trkpt lat="55.3074740" lon="38.7891170"><time>2020-06-27T07:59:00.717</time></trkpt><trkpt lat="55.3075090" lon="38.7891690"><time>2020-06-27T07:59:02.700</time></trkpt><trkpt lat="55.3075460" lon="38.7892160"><time>2020-06-27T07:59:04.693</time></trkpt><trkpt lat="55.3075910" lon="38.7892590"><time>2020-06-27T07:59:08.717</time></trkpt><trkpt lat="55.3076330" lon="38.7893040"><time>2020-06-27T07:59:11.683</time></trkpt><trkpt lat="55.3076860" lon="38.7893330"><time>2020-06-27T07:59:14.713</time></trkpt><trkpt lat="55.3077530" lon="38.7893630"><time>2020-06-27T07:59:17.713</time></trkpt><trkpt lat="55.3078050" lon="38.7893850"><time>2020-06-27T07:59:19.663</time></trkpt><trkpt lat="55.3078550" lon="38.7894140"><time>2020-06-27T07:59:21.723</time></trkpt><trkpt lat="55.3079140" lon="38.7894150"><time>2020-06-27T07:59:24.717</time></trkpt><trkpt lat="55.3079620" lon="38.7894480"><time>2020-06-27T07:59:27.767</time></trkpt><trkpt lat="55.3080170" lon="38.7894670"><time>2020-06-27T07:59:30.723</time></trkpt><trkpt lat="55.3080620" lon="38.7894600"><time>2020-06-27T07:59:32.723</time></trkpt><trkpt lat="55.3081080" lon="38.7894710"><time>2020-06-27T07:59:34.490</time></trkpt><trkpt lat="55.3081550" lon="38.7894680"><time>2020-06-27T07:59:36.757</time></trkpt><trkpt lat="55.3082220" lon="38.7894500"><time>2020-06-27T07:59:39.720</time></trkpt><trkpt lat="55.3082740" lon="38.7894420"><time>2020-06-27T07:59:41.720</time></trkpt><trkpt lat="55.3083380" lon="38.7894400"><time>2020-06-27T07:59:44.723</time></trkpt><trkpt lat="55.3084030" lon="38.7894480"><time>2020-06-27T07:59:47.740</time></trkpt><trkpt lat="55.3084610" lon="38.7894710"><time>2020-06-27T07:59:51.710</time></trkpt><trkpt lat="55.3085130" lon="38.7895110"><time>2020-06-27T07:59:53.710</time></trkpt><trkpt lat="55.3085820" lon="38.7895150"><time>2020-06-27T07:59:56.737</time></trkpt><trkpt lat="55.3086370" lon="38.7894990"><time>2020-06-27T07:59:58.720</time></trkpt><trkpt lat="55.3086880" lon="38.7894710"><time>2020-06-27T08:00:00.737</time></trkpt><trkpt lat="55.3087450" lon="38.7894500"><time>2020-06-27T08:00:03.717</time></trkpt><trkpt lat="55.3087950" lon="38.7894190"><time>2020-06-27T08:00:06.733</time></trkpt><trkpt lat="55.3088600" lon="38.7893800"><time>2020-06-27T08:00:09.710</time></trkpt><trkpt lat="55.3089230" lon="38.7893570"><time>2020-06-27T08:00:11.760</time></trkpt><trkpt lat="55.3089770" lon="38.7893180"><time>2020-06-27T08:00:13.713</time></trkpt><trkpt lat="55.3090350" lon="38.7892990"><time>2020-06-27T08:00:15.707</time></trkpt><trkpt lat="55.3090760" lon="38.7892630"><time>2020-06-27T08:00:17.470</time></trkpt><trkpt lat="55.3091240" lon="38.7892110"><time>2020-06-27T08:00:19.713</time></trkpt><trkpt lat="55.3091740" lon="38.7891540"><time>2020-06-27T08:00:21.717</time></trkpt><trkpt lat="55.3092290" lon="38.7891020"><time>2020-06-27T08:00:23.717</time></trkpt><trkpt lat="55.3092930" lon="38.7890910"><time>2020-06-27T08:00:25.717</time></trkpt><trkpt lat="55.3093500" lon="38.7890680"><time>2020-06-27T08:00:27.700</time></trkpt><trkpt lat="55.3094270" lon="38.7890280"><time>2020-06-27T08:00:29.700</time></trkpt><trkpt lat="55.3094720" lon="38.7890000"><time>2020-06-27T08:00:30.703</time></trkpt><trkpt lat="55.3095330" lon="38.7889700"><time>2020-06-27T08:00:32.440</time></trkpt><trkpt lat="55.3095690" lon="38.7890180"><time>2020-06-27T08:00:33.680</time></trkpt><trkpt lat="55.3096300" lon="38.7889720"><time>2020-06-27T08:00:35.450</time></trkpt><trkpt lat="55.3096950" lon="38.7889260"><time>2020-06-27T08:00:37.687</time></trkpt><trkpt lat="55.3097380" lon="38.7888840"><time>2020-06-27T08:00:39.703</time></trkpt><trkpt lat="55.3097910" lon="38.7888270"><time>2020-06-27T08:00:42.720</time></trkpt><trkpt lat="55.3098310" lon="38.7887850"><time>2020-06-27T08:00:44.713</time></trkpt><trkpt lat="55.3098840" lon="38.7887370"><time>2020-06-27T08:00:46.680</time></trkpt><trkpt lat="55.3099310" lon="38.7887010"><time>2020-06-27T08:00:48.713</time></trkpt><trkpt lat="55.3099710" lon="38.7886550"><time>2020-06-27T08:00:50.673</time></trkpt><trkpt lat="55.3100220" lon="38.7886030"><time>2020-06-27T08:00:52.730</time></trkpt><trkpt lat="55.3100700" lon="38.7885470"><time>2020-06-27T08:00:54.737</time></trkpt><trkpt lat="55.3101160" lon="38.7884790"><time>2020-06-27T08:00:56.727</time></trkpt><trkpt lat="55.3101550" lon="38.7884210"><time>2020-06-27T08:00:58.737</time></trkpt><trkpt lat="55.3101900" lon="38.7883500"><time>2020-06-27T08:01:00.717</time></trkpt><trkpt lat="55.3102340" lon="38.7882740"><time>2020-06-27T08:01:02.707</time></trkpt><trkpt lat="55.3102660" lon="38.7882040"><time>2020-06-27T08:01:04.733</time></trkpt><trkpt lat="55.3103180" lon="38.7881280"><time>2020-06-27T08:01:06.733</time></trkpt><trkpt lat="55.3103610" lon="38.7880520"><time>2020-06-27T08:01:08.720</time></trkpt><trkpt lat="55.3104040" lon="38.7880110"><time>2020-06-27T08:01:10.720</time></trkpt><trkpt lat="55.3104600" lon="38.7879510"><time>2020-06-27T08:01:12.727</time></trkpt><trkpt lat="55.3105150" lon="38.7879110"><time>2020-06-27T08:01:14.697</time></trkpt><trkpt lat="55.3105640" lon="38.7878660"><time>2020-06-27T08:01:16.693</time></trkpt><trkpt lat="55.3106120" lon="38.7877790"><time>2020-06-27T08:01:19.703</time></trkpt><trkpt lat="55.3106440" lon="38.7877090"><time>2020-06-27T08:01:21.763</time></trkpt><trkpt lat="55.3106720" lon="38.7876350"><time>2020-06-27T08:01:23.710</time></trkpt><trkpt lat="55.3107100" lon="38.7875730"><time>2020-06-27T08:01:25.713</time></trkpt><trkpt lat="55.3107530" lon="38.7875140"><time>2020-06-27T08:01:27.717</time></trkpt><trkpt lat="55.3107940" lon="38.7874680"><time>2020-06-27T08:01:29.703</time></trkpt><trkpt lat="55.3108330" lon="38.7874110"><time>2020-06-27T08:01:31.717</time></trkpt><trkpt lat="55.3108680" lon="38.7873510"><time>2020-06-27T08:01:33.727</time></trkpt><trkpt lat="55.3109060" lon="38.7872890"><time>2020-06-27T08:01:35.740</time></trkpt><trkpt lat="55.3109550" lon="38.7872160"><time>2020-06-27T08:01:37.703</time></trkpt><trkpt lat="55.3110010" lon="38.7871500"><time>2020-06-27T08:01:39.713</time></trkpt><trkpt lat="55.3110460" lon="38.7870980"><time>2020-06-27T08:01:41.477</time></trkpt><trkpt lat="55.3111120" lon="38.7870430"><time>2020-06-27T08:01:43.470</time></trkpt><trkpt lat="55.3111700" lon="38.7869910"><time>2020-06-27T08:01:45.487</time></trkpt><trkpt lat="55.3112110" lon="38.7869140"><time>2020-06-27T08:01:47.480</time></trkpt><trkpt lat="55.3112510" lon="38.7868470"><time>2020-06-27T08:01:49.710</time></trkpt><trkpt lat="55.3112710" lon="38.7867420"><time>2020-06-27T08:01:52.690</time></trkpt><trkpt lat="55.3112810" lon="38.7866490"><time>2020-06-27T08:01:54.723</time></trkpt><trkpt lat="55.3112990" lon="38.7865510"><time>2020-06-27T08:01:56.700</time></trkpt><trkpt lat="55.3113430" lon="38.7864690"><time>2020-06-27T08:01:58.697</time></trkpt><trkpt lat="55.3114110" lon="38.7863730"><time>2020-06-27T08:01:59.713</time></trkpt><trkpt lat="55.3114620" lon="38.7864110"><time>2020-06-27T08:02:00.680</time></trkpt><trkpt lat="55.3115360" lon="38.7863310"><time>2020-06-27T08:02:02.670</time></trkpt><trkpt lat="55.3115940" lon="38.7862450"><time>2020-06-27T08:02:04.677</time></trkpt><trkpt lat="55.3116260" lon="38.7861640"><time>2020-06-27T08:02:06.687</time></trkpt><trkpt lat="55.3116760" lon="38.7860700"><time>2020-06-27T08:02:08.700</time></trkpt><trkpt lat="55.3117240" lon="38.7860200"><time>2020-06-27T08:02:10.450</time></trkpt><trkpt lat="55.3117990" lon="38.7859020"><time>2020-06-27T08:02:13.717</time></trkpt><trkpt lat="55.3118270" lon="38.7858260"><time>2020-06-27T08:02:14.687</time></trkpt><trkpt lat="55.3118840" lon="38.7857340"><time>2020-06-27T08:02:16.667</time></trkpt><trkpt lat="55.3119410" lon="38.7856590"><time>2020-06-27T08:02:18.683</time></trkpt><trkpt lat="55.3119800" lon="38.7855620"><time>2020-06-27T08:02:20.673</time></trkpt><trkpt lat="55.3120650" lon="38.7855180"><time>2020-06-27T08:02:22.700</time></trkpt><trkpt lat="55.3121000" lon="38.7854330"><time>2020-06-27T08:02:25.693</time></trkpt><trkpt lat="55.3121140" lon="38.7853430"><time>2020-06-27T08:02:27.710</time></trkpt><trkpt lat="55.3121430" lon="38.7852410"><time>2020-06-27T08:02:29.707</time></trkpt><trkpt lat="55.3121800" lon="38.7851440"><time>2020-06-27T08:02:31.687</time></trkpt><trkpt lat="55.3122160" lon="38.7850520"><time>2020-06-27T08:02:33.717</time></trkpt><trkpt lat="55.3122550" lon="38.7849710"><time>2020-06-27T08:02:35.727</time></trkpt><trkpt lat="55.3122910" lon="38.7848930"><time>2020-06-27T08:02:37.720</time></trkpt><trkpt lat="55.3123320" lon="38.7847910"><time>2020-06-27T08:02:39.480</time></trkpt><trkpt lat="55.3123610" lon="38.7847090"><time>2020-06-27T08:02:40.737</time></trkpt><trkpt lat="55.3123810" lon="38.7846360"><time>2020-06-27T08:02:41.710</time></trkpt><trkpt lat="55.3124470" lon="38.7845590"><time>2020-06-27T08:02:43.663</time></trkpt><trkpt lat="55.3125160" lon="38.7844980"><time>2020-06-27T08:02:45.677</time></trkpt><trkpt lat="55.3125600" lon="38.7843910"><time>2020-06-27T08:02:47.450</time></trkpt><trkpt lat="55.3125990" lon="38.7843230"><time>2020-06-27T08:02:48.447</time></trkpt><trkpt lat="55.3126380" lon="38.7842430"><time>2020-06-27T08:02:50.687</time></trkpt><trkpt lat="55.3127170" lon="38.7840710"><time>2020-06-27T08:02:53.693</time></trkpt><trkpt lat="55.3127600" lon="38.7839600"><time>2020-06-27T08:02:55.670</time></trkpt><trkpt lat="55.3128190" lon="38.7838670"><time>2020-06-27T08:02:57.677</time></trkpt><trkpt lat="55.3128430" lon="38.7837980"><time>2020-06-27T08:02:58.453</time></trkpt><trkpt lat="55.3128830" lon="38.7837520"><time>2020-06-27T08:02:59.737</time></trkpt><trkpt lat="55.3129240" lon="38.7836030"><time>2020-06-27T08:03:01.707</time></trkpt><trkpt lat="55.3129710" lon="38.7834970"><time>2020-06-27T08:03:03.693</time></trkpt><trkpt lat="55.3130080" lon="38.7834380"><time>2020-06-27T08:03:04.690</time></trkpt><trkpt lat="55.3130500" lon="38.7833840"><time>2020-06-27T08:03:05.693</time></trkpt><trkpt lat="55.3131160" lon="38.7832820"><time>2020-06-27T08:03:07.687</time></trkpt><trkpt lat="55.3131690" lon="38.7832220"><time>2020-06-27T08:03:08.680</time></trkpt><trkpt lat="55.3132060" lon="38.7831710"><time>2020-06-27T08:03:09.690</time></trkpt><trkpt lat="55.3132520" lon="38.7831280"><time>2020-06-27T08:03:10.453</time></trkpt><trkpt lat="55.3132930" lon="38.7830280"><time>2020-06-27T08:03:12.457</time></trkpt><trkpt lat="55.3133260" lon="38.7829380"><time>2020-06-27T08:03:14.727</time></trkpt><trkpt lat="55.3133660" lon="38.7828940"><time>2020-06-27T08:03:16.673</time></trkpt><trkpt lat="55.3133660" lon="38.7827880"><time>2020-06-27T08:03:18.723</time></trkpt><trkpt lat="55.3133790" lon="38.7826890"><time>2020-06-27T08:03:21.687</time></trkpt><trkpt lat="55.3134230" lon="38.7825900"><time>2020-06-27T08:03:23.710</time></trkpt><trkpt lat="55.3134900" lon="38.7824980"><time>2020-06-27T08:03:25.727</time></trkpt><trkpt lat="55.3135560" lon="38.7824310"><time>2020-06-27T08:03:27.730</time></trkpt><trkpt lat="55.3136170" lon="38.7823680"><time>2020-06-27T08:03:29.717</time></trkpt><trkpt lat="55.3136700" lon="38.7822800"><time>2020-06-27T08:03:31.703</time></trkpt><trkpt lat="55.3137160" lon="38.7821960"><time>2020-06-27T08:03:33.490</time></trkpt><trkpt lat="55.3137730" lon="38.7821240"><time>2020-06-27T08:03:35.707</time></trkpt><trkpt lat="55.3138320" lon="38.7821150"><time>2020-06-27T08:03:37.703</time></trkpt><trkpt lat="55.3138900" lon="38.7821250"><time>2020-06-27T08:03:39.773</time></trkpt><trkpt lat="55.3139380" lon="38.7821560"><time>2020-06-27T08:03:41.717</time></trkpt><trkpt lat="55.3140030" lon="38.7821620"><time>2020-06-27T08:03:43.710</time></trkpt><trkpt lat="55.3140640" lon="38.7822150"><time>2020-06-27T08:03:45.700</time></trkpt><trkpt lat="55.3141040" lon="38.7822480"><time>2020-06-27T08:03:46.723</time></trkpt><trkpt lat="55.3141720" lon="38.7823140"><time>2020-06-27T08:03:48.490</time></trkpt><trkpt lat="55.3142340" lon="38.7824100"><time>2020-06-27T08:03:50.740</time></trkpt><trkpt lat="55.3143020" lon="38.7824580"><time>2020-06-27T08:03:52.497</time></trkpt><trkpt lat="55.3143660" lon="38.7824940"><time>2020-06-27T08:03:54.497</time></trkpt><trkpt lat="55.3144250" lon="38.7825990"><time>2020-06-27T08:03:56.743</time></trkpt><trkpt lat="55.3144830" lon="38.7826930"><time>2020-06-27T08:03:58.720</time></trkpt><trkpt lat="55.3145270" lon="38.7827980"><time>2020-06-27T08:04:00.710</time></trkpt><trkpt lat="55.3145690" lon="38.7828880"><time>2020-06-27T08:04:02.730</time></trkpt><trkpt lat="55.3145980" lon="38.7829560"><time>2020-06-27T08:04:08.710</time></trkpt><trkpt lat="55.3146030" lon="38.7830480"><time>2020-06-27T08:04:13.717</time></trkpt><trkpt lat="55.3146360" lon="38.7831140"><time>2020-06-27T08:04:15.710</time></trkpt><trkpt lat="55.3146780" lon="38.7831590"><time>2020-06-27T08:04:18.727</time></trkpt><trkpt lat="55.3146980" lon="38.7832350"><time>2020-06-27T08:04:24.720</time></trkpt><trkpt lat="55.3147420" lon="38.7833060"><time>2020-06-27T08:04:26.780</time></trkpt><trkpt lat="55.3147820" lon="38.7833400"><time>2020-06-27T08:04:28.710</time></trkpt><trkpt lat="55.3148170" lon="38.7834100"><time>2020-06-27T08:04:30.703</time></trkpt><trkpt lat="55.3148650" lon="38.7834620"><time>2020-06-27T08:04:33.483</time></trkpt><trkpt lat="55.3149200" lon="38.7834760"><time>2020-06-27T08:04:36.723</time></trkpt><trkpt lat="55.3149560" lon="38.7835410"><time>2020-06-27T08:04:41.720</time></trkpt><trkpt lat="55.3149980" lon="38.7835860"><time>2020-06-27T08:04:47.717</time></trkpt><trkpt lat="55.3150340" lon="38.7836350"><time>2020-06-27T08:04:51.693</time></trkpt><trkpt lat="55.3150820" lon="38.7836560"><time>2020-06-27T08:04:55.477</time></trkpt><trkpt lat="55.3151340" lon="38.7836790"><time>2020-06-27T08:04:59.763</time></trkpt><trkpt lat="55.3150790" lon="38.7836340"><time>2020-06-27T08:05:06.737</time></trkpt><trkpt lat="55.3150780" lon="38.7835360"><time>2020-06-27T08:05:10.713</time></trkpt><trkpt lat="55.3151200" lon="38.7834730"><time>2020-06-27T08:05:14.720</time></trkpt><trkpt lat="55.3151250" lon="38.7833790"><time>2020-06-27T08:05:16.710</time></trkpt><trkpt lat="55.3151460" lon="38.7833050"><time>2020-06-27T08:05:18.727</time></trkpt><trkpt lat="55.3151960" lon="38.7832840"><time>2020-06-27T08:05:23.467</time></trkpt><trkpt lat="55.3152180" lon="38.7833620"><time>2020-06-27T08:05:27.460</time></trkpt><trkpt lat="55.3152240" lon="38.7833850"><time>2020-06-27T08:05:31.150</time></trkpt><trkpt lat="55.3152090" lon="38.7834540"><time>2020-06-27T08:05:35.477</time></trkpt><trkpt lat="55.3151860" lon="38.7835560"><time>2020-06-27T08:05:39.483</time></trkpt><trkpt lat="55.3152010" lon="38.7836490"><time>2020-06-27T08:05:43.707</time></trkpt><trkpt lat="55.3151900" lon="38.7837260"><time>2020-06-27T08:05:48.717</time></trkpt><trkpt lat="55.3151650" lon="38.7838020"><time>2020-06-27T08:05:51.720</time></trkpt><trkpt lat="55.3152360" lon="38.7838430"><time>2020-06-27T08:05:55.507</time></trkpt><trkpt lat="55.3152780" lon="38.7838730"><time>2020-06-27T08:05:59.487</time></trkpt><trkpt lat="55.3153170" lon="38.7839490"><time>2020-06-27T08:06:02.730</time></trkpt><trkpt lat="55.3153390" lon="38.7840330"><time>2020-06-27T08:06:05.717</time></trkpt><trkpt lat="55.3153680" lon="38.7841050"><time>2020-06-27T08:06:08.697</time></trkpt><trkpt lat="55.3153260" lon="38.7841690"><time>2020-06-27T08:06:13.707</time></trkpt><trkpt lat="55.3153580" lon="38.7842510"><time>2020-06-27T08:06:16.733</time></trkpt><trkpt lat="55.3153960" lon="38.7842970"><time>2020-06-27T08:06:19.717</time></trkpt><trkpt lat="55.3154410" lon="38.7843490"><time>2020-06-27T08:06:22.723</time></trkpt><trkpt lat="55.3154700" lon="38.7844190"><time>2020-06-27T08:06:26.710</time></trkpt><trkpt lat="55.3155160" lon="38.7844250"><time>2020-06-27T08:06:30.487</time></trkpt><trkpt lat="55.3155400" lon="38.7845050"><time>2020-06-27T08:06:34.747</time></trkpt><trkpt lat="55.3155820" lon="38.7845360"><time>2020-06-27T08:06:37.480</time></trkpt><trkpt lat="55.3156180" lon="38.7846090"><time>2020-06-27T08:06:41.707</time></trkpt><trkpt lat="55.3156280" lon="38.7847030"><time>2020-06-27T08:06:44.713</time></trkpt><trkpt lat="55.3156500" lon="38.7847850"><time>2020-06-27T08:06:53.730</time></trkpt><trkpt lat="55.3156870" lon="38.7848530"><time>2020-06-27T08:06:58.477</time></trkpt><trkpt lat="55.3157280" lon="38.7849150"><time>2020-06-27T08:07:01.707</time></trkpt><trkpt lat="55.3157680" lon="38.7849770"><time>2020-06-27T08:07:06.757</time></trkpt><trkpt lat="55.3158120" lon="38.7850110"><time>2020-06-27T08:07:09.713</time></trkpt><trkpt lat="55.3158540" lon="38.7850380"><time>2020-06-27T08:07:12.740</time></trkpt><trkpt lat="55.3159040" lon="38.7850810"><time>2020-06-27T08:07:16.717</time></trkpt><trkpt lat="55.3159150" lon="38.7851630"><time>2020-06-27T08:07:19.777</time></trkpt><trkpt lat="55.3159540" lon="38.7852220"><time>2020-06-27T08:07:24.703</time></trkpt><trkpt lat="55.3159810" lon="38.7852900"><time>2020-06-27T08:07:29.710</time></trkpt><trkpt lat="55.3160230" lon="38.7853540"><time>2020-06-27T08:07:34.770</time></trkpt><trkpt lat="55.3160580" lon="38.7854150"><time>2020-06-27T08:07:37.477</time></trkpt><trkpt lat="55.3160980" lon="38.7854800"><time>2020-06-27T08:07:42.723</time></trkpt><trkpt lat="55.3161510" lon="38.7854900"><time>2020-06-27T08:07:46.703</time></trkpt><trkpt lat="55.3161880" lon="38.7855620"><time>2020-06-27T08:07:51.717</time></trkpt><trkpt lat="55.3162350" lon="38.7856110"><time>2020-06-27T08:07:55.707</time></trkpt><trkpt lat="55.3162690" lon="38.7856640"><time>2020-06-27T08:07:58.480</time></trkpt><trkpt lat="55.3163140" lon="38.7857360"><time>2020-06-27T08:08:02.710</time></trkpt><trkpt lat="55.3163630" lon="38.7857310"><time>2020-06-27T08:08:12.740</time></trkpt><trkpt lat="55.3164020" lon="38.7856850"><time>2020-06-27T08:08:18.693</time></trkpt><trkpt lat="55.3164000" lon="38.7855940"><time>2020-06-27T08:08:26.730</time></trkpt><trkpt lat="55.3164110" lon="38.7854980"><time>2020-06-27T08:08:30.727</time></trkpt><trkpt lat="55.3164410" lon="38.7854290"><time>2020-06-27T08:08:33.717</time></trkpt><trkpt lat="55.3164610" lon="38.7853330"><time>2020-06-27T08:08:35.723</time></trkpt><trkpt lat="55.3164790" lon="38.7852370"><time>2020-06-27T08:08:37.733</time></trkpt><trkpt lat="55.3164870" lon="38.7851330"><time>2020-06-27T08:08:39.720</time></trkpt><trkpt lat="55.3164960" lon="38.7849960"><time>2020-06-27T08:08:41.710</time></trkpt><trkpt lat="55.3165160" lon="38.7848650"><time>2020-06-27T08:08:43.720</time></trkpt><trkpt lat="55.3165320" lon="38.7847600"><time>2020-06-27T08:08:45.737</time></trkpt><trkpt lat="55.3165640" lon="38.7846630"><time>2020-06-27T08:08:47.763</time></trkpt><trkpt lat="55.3165930" lon="38.7845610"><time>2020-06-27T08:08:49.727</time></trkpt><trkpt lat="55.3166260" lon="38.7844550"><time>2020-06-27T08:08:51.723</time></trkpt><trkpt lat="55.3166470" lon="38.7843390"><time>2020-06-27T08:08:53.723</time></trkpt><trkpt lat="55.3166790" lon="38.7842280"><time>2020-06-27T08:08:55.707</time></trkpt><trkpt lat="55.3167090" lon="38.7841380"><time>2020-06-27T08:08:57.703</time></trkpt><trkpt lat="55.3167750" lon="38.7839000"><time>2020-06-27T08:08:58.453</time></trkpt><trkpt lat="55.3167940" lon="38.7837970"><time>2020-06-27T08:08:59.437</time></trkpt><trkpt lat="55.3168010" lon="38.7836230"><time>2020-06-27T08:09:01.450</time></trkpt><trkpt lat="55.3168240" lon="38.7835480"><time>2020-06-27T08:09:02.733</time></trkpt><trkpt lat="55.3168490" lon="38.7834790"><time>2020-06-27T08:09:03.687</time></trkpt><trkpt lat="55.3168730" lon="38.7833930"><time>2020-06-27T08:09:05.690</time></trkpt><trkpt lat="55.3168910" lon="38.7833150"><time>2020-06-27T08:09:07.677</time></trkpt><trkpt lat="55.3168560" lon="38.7831580"><time>2020-06-27T08:09:09.450</time></trkpt><trkpt lat="55.3168340" lon="38.7830660"><time>2020-06-27T08:09:11.687</time></trkpt><trkpt lat="55.3168410" lon="38.7829790"><time>2020-06-27T08:09:13.710</time></trkpt><trkpt lat="55.3168570" lon="38.7828600"><time>2020-06-27T08:09:15.710</time></trkpt><trkpt lat="55.3168650" lon="38.7826140"><time>2020-06-27T08:09:17.687</time></trkpt><trkpt lat="55.3168870" lon="38.7825320"><time>2020-06-27T08:09:18.683</time></trkpt><trkpt lat="55.3169130" lon="38.7824540"><time>2020-06-27T08:09:20.670</time></trkpt><trkpt lat="55.3169660" lon="38.7823920"><time>2020-06-27T08:09:22.690</time></trkpt><trkpt lat="55.3169810" lon="38.7822690"><time>2020-06-27T08:09:24.450</time></trkpt><trkpt lat="55.3170260" lon="38.7821990"><time>2020-06-27T08:09:26.693</time></trkpt><trkpt lat="55.3170460" lon="38.7820990"><time>2020-06-27T08:09:28.690</time></trkpt><trkpt lat="55.3170780" lon="38.7820120"><time>2020-06-27T08:09:30.680</time></trkpt><trkpt lat="55.3170640" lon="38.7819350"><time>2020-06-27T08:09:31.703</time></trkpt><trkpt lat="55.3170680" lon="38.7818420"><time>2020-06-27T08:09:33.700</time></trkpt><trkpt lat="55.3170910" lon="38.7817640"><time>2020-06-27T08:09:35.687</time></trkpt><trkpt lat="55.3171140" lon="38.7816550"><time>2020-06-27T08:09:38.717</time></trkpt><trkpt lat="55.3171070" lon="38.7815600"><time>2020-06-27T08:09:41.700</time></trkpt><trkpt lat="55.3171160" lon="38.7814660"><time>2020-06-27T08:09:44.700</time></trkpt><trkpt lat="55.3171290" lon="38.7813890"><time>2020-06-27T08:09:46.497</time></trkpt><trkpt lat="55.3171450" lon="38.7813000"><time>2020-06-27T08:09:48.733</time></trkpt><trkpt lat="55.3171680" lon="38.7812300"><time>2020-06-27T08:09:50.717</time></trkpt><trkpt lat="55.3172040" lon="38.7811420"><time>2020-06-27T08:09:53.687</time></trkpt><trkpt lat="55.3172200" lon="38.7810680"><time>2020-06-27T08:09:55.703</time></trkpt><trkpt lat="55.3172250" lon="38.7809730"><time>2020-06-27T08:09:57.723</time></trkpt><trkpt lat="55.3172440" lon="38.7808930"><time>2020-06-27T08:09:59.473</time></trkpt><trkpt lat="55.3172710" lon="38.7808000"><time>2020-06-27T08:10:01.707</time></trkpt><trkpt lat="55.3173060" lon="38.7807190"><time>2020-06-27T08:10:03.703</time></trkpt><trkpt lat="55.3173410" lon="38.7806450"><time>2020-06-27T08:10:05.690</time></trkpt><trkpt lat="55.3173690" lon="38.7805710"><time>2020-06-27T08:10:07.717</time></trkpt><trkpt lat="55.3173930" lon="38.7804870"><time>2020-06-27T08:10:09.730</time></trkpt><trkpt lat="55.3174220" lon="38.7804050"><time>2020-06-27T08:10:11.710</time></trkpt><trkpt lat="55.3174240" lon="38.7803000"><time>2020-06-27T08:10:13.767</time></trkpt><trkpt lat="55.3174550" lon="38.7801800"><time>2020-06-27T08:10:15.717</time></trkpt><trkpt lat="55.3174960" lon="38.7800920"><time>2020-06-27T08:10:17.747</time></trkpt><trkpt lat="55.3175190" lon="38.7799960"><time>2020-06-27T08:10:19.727</time></trkpt><trkpt lat="55.3175320" lon="38.7798630"><time>2020-06-27T08:10:21.713</time></trkpt><trkpt lat="55.3175480" lon="38.7797440"><time>2020-06-27T08:10:23.703</time></trkpt><trkpt lat="55.3175820" lon="38.7796080"><time>2020-06-27T08:10:25.743</time></trkpt><trkpt lat="55.3176850" lon="38.7795310"><time>2020-06-27T08:10:26.700</time></trkpt><trkpt lat="55.3176810" lon="38.7794490"><time>2020-06-27T08:10:27.620</time></trkpt><trkpt lat="55.3176800" lon="38.7793690"><time>2020-06-27T08:10:28.693</time></trkpt><trkpt lat="55.3177110" lon="38.7792520"><time>2020-06-27T08:10:30.687</time></trkpt><trkpt lat="55.3177320" lon="38.7791400"><time>2020-06-27T08:10:32.700</time></trkpt><trkpt lat="55.3177590" lon="38.7790730"><time>2020-06-27T08:10:33.697</time></trkpt><trkpt lat="55.3177590" lon="38.7789790"><time>2020-06-27T08:10:35.747</time></trkpt><trkpt lat="55.3177740" lon="38.7788570"><time>2020-06-27T08:10:37.730</time></trkpt><trkpt lat="55.3178150" lon="38.7788010"><time>2020-06-27T08:10:39.743</time></trkpt><trkpt lat="55.3178610" lon="38.7786900"><time>2020-06-27T08:10:41.717</time></trkpt><trkpt lat="55.3178790" lon="38.7785960"><time>2020-06-27T08:10:43.723</time></trkpt><trkpt lat="55.3178710" lon="38.7784740"><time>2020-06-27T08:10:46.727</time></trkpt><trkpt lat="55.3179000" lon="38.7783600"><time>2020-06-27T08:10:48.720</time></trkpt><trkpt lat="55.3179190" lon="38.7782370"><time>2020-06-27T08:10:50.497</time></trkpt><trkpt lat="55.3179430" lon="38.7781210"><time>2020-06-27T08:10:52.710</time></trkpt><trkpt lat="55.3179660" lon="38.7780290"><time>2020-06-27T08:10:54.690</time></trkpt><trkpt lat="55.3180010" lon="38.7779250"><time>2020-06-27T08:10:56.723</time></trkpt><trkpt lat="55.3180300" lon="38.7778570"><time>2020-06-27T08:10:58.683</time></trkpt><trkpt lat="55.3180720" lon="38.7777650"><time>2020-06-27T08:11:00.483</time></trkpt><trkpt lat="55.3180920" lon="38.7776810"><time>2020-06-27T08:11:02.503</time></trkpt><trkpt lat="55.3181170" lon="38.7775870"><time>2020-06-27T08:11:04.700</time></trkpt><trkpt lat="55.3181310" lon="38.7774930"><time>2020-06-27T08:11:06.723</time></trkpt><trkpt lat="55.3181320" lon="38.7774130"><time>2020-06-27T08:11:08.467</time></trkpt><trkpt lat="55.3181250" lon="38.7773280"><time>2020-06-27T08:11:10.713</time></trkpt><trkpt lat="55.3181380" lon="38.7772250"><time>2020-06-27T08:11:12.693</time></trkpt><trkpt lat="55.3181940" lon="38.7771310"><time>2020-06-27T08:11:14.720</time></trkpt><trkpt lat="55.3182550" lon="38.7770550"><time>2020-06-27T08:11:16.717</time></trkpt><trkpt lat="55.3182920" lon="38.7769740"><time>2020-06-27T08:11:18.687</time></trkpt><trkpt lat="55.3183200" lon="38.7768570"><time>2020-06-27T08:11:20.723</time></trkpt><trkpt lat="55.3183580" lon="38.7767590"><time>2020-06-27T08:11:22.717</time></trkpt><trkpt lat="55.3183980" lon="38.7766560"><time>2020-06-27T08:11:24.717</time></trkpt><trkpt lat="55.3184310" lon="38.7765590"><time>2020-06-27T08:11:26.733</time></trkpt><trkpt lat="55.3184580" lon="38.7764430"><time>2020-06-27T08:11:28.727</time></trkpt><trkpt lat="55.3184940" lon="38.7763370"><time>2020-06-27T08:11:30.720</time></trkpt><trkpt lat="55.3185270" lon="38.7762410"><time>2020-06-27T08:11:32.707</time></trkpt><trkpt lat="55.3185610" lon="38.7761450"><time>2020-06-27T08:11:34.483</time></trkpt><trkpt lat="55.3185790" lon="38.7760150"><time>2020-06-27T08:11:36.710</time></trkpt><trkpt lat="55.3186100" lon="38.7759030"><time>2020-06-27T08:11:38.727</time></trkpt><trkpt lat="55.3186430" lon="38.7758320"><time>2020-06-27T08:11:40.700</time></trkpt><trkpt lat="55.3185890" lon="38.7758370"><time>2020-06-27T08:11:45.480</time></trkpt><trkpt lat="55.3186120" lon="38.7757390"><time>2020-06-27T08:11:48.710</time></trkpt><trkpt lat="55.3186150" lon="38.7756240"><time>2020-06-27T08:11:51.717</time></trkpt><trkpt lat="55.3186670" lon="38.7756010"><time>2020-06-27T08:11:54.717</time></trkpt><trkpt lat="55.3187120" lon="38.7755330"><time>2020-06-27T08:11:58.720</time></trkpt><trkpt lat="55.3187370" lon="38.7754100"><time>2020-06-27T08:12:01.700</time></trkpt><trkpt lat="55.3187650" lon="38.7752940"><time>2020-06-27T08:12:03.767</time></trkpt><trkpt lat="55.3187890" lon="38.7752000"><time>2020-06-27T08:12:05.743</time></trkpt><trkpt lat="55.3188010" lon="38.7751060"><time>2020-06-27T08:12:07.707</time></trkpt><trkpt lat="55.3188230" lon="38.7750330"><time>2020-06-27T08:12:09.730</time></trkpt><trkpt lat="55.3188420" lon="38.7749520"><time>2020-06-27T08:12:11.723</time></trkpt><trkpt lat="55.3188650" lon="38.7748410"><time>2020-06-27T08:12:13.747</time></trkpt><trkpt lat="55.3188910" lon="38.7747240"><time>2020-06-27T08:12:15.720</time></trkpt><trkpt lat="55.3189360" lon="38.7746250"><time>2020-06-27T08:12:17.737</time></trkpt><trkpt lat="55.3189720" lon="38.7745060"><time>2020-06-27T08:12:19.483</time></trkpt><trkpt lat="55.3190060" lon="38.7743910"><time>2020-06-27T08:12:21.737</time></trkpt><trkpt lat="55.3190420" lon="38.7742800"><time>2020-06-27T08:12:23.727</time></trkpt><trkpt lat="55.3190890" lon="38.7741690"><time>2020-06-27T08:12:25.723</time></trkpt><trkpt lat="55.3191270" lon="38.7740470"><time>2020-06-27T08:12:27.743</time></trkpt><trkpt lat="55.3191540" lon="38.7739270"><time>2020-06-27T08:12:29.717</time></trkpt><trkpt lat="55.3192190" lon="38.7737650"><time>2020-06-27T08:12:31.747</time></trkpt><trkpt lat="55.3192410" lon="38.7736310"><time>2020-06-27T08:12:33.703</time></trkpt><trkpt lat="55.3192590" lon="38.7735280"><time>2020-06-27T08:12:35.777</time></trkpt><trkpt lat="55.3192770" lon="38.7734000"><time>2020-06-27T08:12:37.743</time></trkpt><trkpt lat="55.3192720" lon="38.7732670"><time>2020-06-27T08:12:39.717</time></trkpt><trkpt lat="55.3192590" lon="38.7731390"><time>2020-06-27T08:12:41.720</time></trkpt><trkpt lat="55.3192750" lon="38.7730040"><time>2020-06-27T08:12:43.693</time></trkpt><trkpt lat="55.3192860" lon="38.7728220"><time>2020-06-27T08:12:45.733</time></trkpt><trkpt lat="55.3193360" lon="38.7728470"><time>2020-06-27T08:12:46.697</time></trkpt><trkpt lat="55.3193460" lon="38.7727170"><time>2020-06-27T08:12:48.687</time></trkpt><trkpt lat="55.3193440" lon="38.7726340"><time>2020-06-27T08:12:50.687</time></trkpt><trkpt lat="55.3193700" lon="38.7725570"><time>2020-06-27T08:12:51.697</time></trkpt><trkpt lat="55.3193930" lon="38.7724250"><time>2020-06-27T08:12:53.690</time></trkpt><trkpt lat="55.3194240" lon="38.7723610"><time>2020-06-27T08:12:54.680</time></trkpt><trkpt lat="55.3194800" lon="38.7722690"><time>2020-06-27T08:12:56.450</time></trkpt><trkpt lat="55.3195340" lon="38.7721710"><time>2020-06-27T08:12:58.680</time></trkpt><trkpt lat="55.3195720" lon="38.7720660"><time>2020-06-27T08:13:00.457</time></trkpt><trkpt lat="55.3195890" lon="38.7719640"><time>2020-06-27T08:13:02.737</time></trkpt><trkpt lat="55.3196210" lon="38.7718500"><time>2020-06-27T08:13:04.703</time></trkpt><trkpt lat="55.3196610" lon="38.7717310"><time>2020-06-27T08:13:06.680</time></trkpt><trkpt lat="55.3196880" lon="38.7716590"><time>2020-06-27T08:13:08.710</time></trkpt><trkpt lat="55.3197570" lon="38.7714570"><time>2020-06-27T08:13:10.700</time></trkpt><trkpt lat="55.3197840" lon="38.7713840"><time>2020-06-27T08:13:11.670</time></trkpt><trkpt lat="55.3197990" lon="38.7712900"><time>2020-06-27T08:13:12.687</time></trkpt><trkpt lat="55.3198300" lon="38.7712060"><time>2020-06-27T08:13:13.693</time></trkpt><trkpt lat="55.3198560" lon="38.7711200"><time>2020-06-27T08:13:14.690</time></trkpt><trkpt lat="55.3198850" lon="38.7710420"><time>2020-06-27T08:13:15.687</time></trkpt><trkpt lat="55.3198960" lon="38.7709640"><time>2020-06-27T08:13:16.457</time></trkpt><trkpt lat="55.3199020" lon="38.7708810"><time>2020-06-27T08:13:17.727</time></trkpt><trkpt lat="55.3199270" lon="38.7707620"><time>2020-06-27T08:13:18.693</time></trkpt><trkpt lat="55.3199650" lon="38.7706510"><time>2020-06-27T08:13:19.453</time></trkpt><trkpt lat="55.3199710" lon="38.7705630"><time>2020-06-27T08:13:20.747</time></trkpt><trkpt lat="55.3199990" lon="38.7704660"><time>2020-06-27T08:13:21.697</time></trkpt><trkpt lat="55.3200240" lon="38.7703700"><time>2020-06-27T08:13:23.690</time></trkpt><trkpt lat="55.3200210" lon="38.7702550"><time>2020-06-27T08:13:25.707</time></trkpt><trkpt lat="55.3199890" lon="38.7701570"><time>2020-06-27T08:13:26.710</time></trkpt><trkpt lat="55.3199740" lon="38.7700660"><time>2020-06-27T08:13:28.693</time></trkpt><trkpt lat="55.3199350" lon="38.7699930"><time>2020-06-27T08:13:29.680</time></trkpt><trkpt lat="55.3199040" lon="38.7699230"><time>2020-06-27T08:13:30.703</time></trkpt><trkpt lat="55.3198740" lon="38.7698530"><time>2020-06-27T08:13:31.687</time></trkpt><trkpt lat="55.3198290" lon="38.7697160"><time>2020-06-27T08:13:33.687</time></trkpt><trkpt lat="55.3198050" lon="38.7696480"><time>2020-06-27T08:13:34.443</time></trkpt><trkpt lat="55.3198180" lon="38.7695160"><time>2020-06-27T08:13:36.697</time></trkpt><trkpt lat="55.3198400" lon="38.7694000"><time>2020-06-27T08:13:38.747</time></trkpt><trkpt lat="55.3198720" lon="38.7692520"><time>2020-06-27T08:13:40.703</time></trkpt><trkpt lat="55.3199040" lon="38.7691330"><time>2020-06-27T08:13:42.717</time></trkpt><trkpt lat="55.3199560" lon="38.7690250"><time>2020-06-27T08:13:44.687</time></trkpt><trkpt lat="55.3199990" lon="38.7689460"><time>2020-06-27T08:13:46.670</time></trkpt><trkpt lat="55.3200420" lon="38.7688500"><time>2020-06-27T08:13:48.757</time></trkpt><trkpt lat="55.3200810" lon="38.7687780"><time>2020-06-27T08:13:49.703</time></trkpt><trkpt lat="55.3200990" lon="38.7687030"><time>2020-06-27T08:13:50.677</time></trkpt><trkpt lat="55.3201320" lon="38.7685710"><time>2020-06-27T08:13:52.697</time></trkpt><trkpt lat="55.3201900" lon="38.7684700"><time>2020-06-27T08:13:54.690</time></trkpt><trkpt lat="55.3202100" lon="38.7683980"><time>2020-06-27T08:13:55.687</time></trkpt><trkpt lat="55.3202410" lon="38.7683000"><time>2020-06-27T08:13:57.673</time></trkpt><trkpt lat="55.3202740" lon="38.7681920"><time>2020-06-27T08:13:59.743</time></trkpt><trkpt lat="55.3203050" lon="38.7680230"><time>2020-06-27T08:14:01.487</time></trkpt><trkpt lat="55.3203230" lon="38.7679410"><time>2020-06-27T08:14:02.753</time></trkpt><trkpt lat="55.3203470" lon="38.7678560"><time>2020-06-27T08:14:03.690</time></trkpt><trkpt lat="55.3203890" lon="38.7677460"><time>2020-06-27T08:14:05.720</time></trkpt><trkpt lat="55.3204500" lon="38.7676430"><time>2020-06-27T08:14:07.670</time></trkpt><trkpt lat="55.3205070" lon="38.7675470"><time>2020-06-27T08:14:09.697</time></trkpt><trkpt lat="55.3205470" lon="38.7674130"><time>2020-06-27T08:14:11.690</time></trkpt><trkpt lat="55.3205750" lon="38.7673500"><time>2020-06-27T08:14:12.677</time></trkpt><trkpt lat="55.3206080" lon="38.7672040"><time>2020-06-27T08:14:14.717</time></trkpt><trkpt lat="55.3206230" lon="38.7671230"><time>2020-06-27T08:14:15.713</time></trkpt><trkpt lat="55.3206440" lon="38.7670480"><time>2020-06-27T08:14:16.453</time></trkpt><trkpt lat="55.3206730" lon="38.7669840"><time>2020-06-27T08:14:17.727</time></trkpt><trkpt lat="55.3207410" lon="38.7668720"><time>2020-06-27T08:14:19.723</time></trkpt><trkpt lat="55.3207690" lon="38.7667980"><time>2020-06-27T08:14:20.693</time></trkpt><trkpt lat="55.3207860" lon="38.7667210"><time>2020-06-27T08:14:21.693</time></trkpt><trkpt lat="55.3208310" lon="38.7666720"><time>2020-06-27T08:14:22.707</time></trkpt><trkpt lat="55.3208660" lon="38.7666160"><time>2020-06-27T08:14:23.670</time></trkpt><trkpt lat="55.3209160" lon="38.7665770"><time>2020-06-27T08:14:24.683</time></trkpt><trkpt lat="55.3209520" lon="38.7665240"><time>2020-06-27T08:14:25.450</time></trkpt><trkpt lat="55.3210080" lon="38.7664270"><time>2020-06-27T08:14:27.710</time></trkpt><trkpt lat="55.3210620" lon="38.7664170"><time>2020-06-27T08:14:31.700</time></trkpt><trkpt lat="55.3210900" lon="38.7665100"><time>2020-06-27T08:14:36.753</time></trkpt><trkpt lat="55.3211210" lon="38.7665910"><time>2020-06-27T08:14:39.760</time></trkpt><trkpt lat="55.3211580" lon="38.7666680"><time>2020-06-27T08:14:42.733</time></trkpt><trkpt lat="55.3211880" lon="38.7667360"><time>2020-06-27T08:14:45.737</time></trkpt><trkpt lat="55.3212200" lon="38.7668300"><time>2020-06-27T08:14:48.740</time></trkpt><trkpt lat="55.3212460" lon="38.7669170"><time>2020-06-27T08:14:50.707</time></trkpt><trkpt lat="55.3212760" lon="38.7670310"><time>2020-06-27T08:14:52.727</time></trkpt><trkpt lat="55.3212820" lon="38.7671710"><time>2020-06-27T08:14:54.737</time></trkpt><trkpt lat="55.3212830" lon="38.7672970"><time>2020-06-27T08:14:56.717</time></trkpt><trkpt lat="55.3212920" lon="38.7674040"><time>2020-06-27T08:14:58.773</time></trkpt><trkpt lat="55.3213140" lon="38.7674930"><time>2020-06-27T08:15:00.493</time></trkpt><trkpt lat="55.3213150" lon="38.7675980"><time>2020-06-27T08:15:11.687</time></trkpt><trkpt lat="55.3212460" lon="38.7676070"><time>2020-06-27T08:15:14.707</time></trkpt><trkpt lat="55.3211870" lon="38.7676250"><time>2020-06-27T08:15:17.763</time></trkpt><trkpt lat="55.3211420" lon="38.7677010"><time>2020-06-27T08:15:20.713</time></trkpt><trkpt lat="55.3211530" lon="38.7677900"><time>2020-06-27T08:15:24.730</time></trkpt><trkpt lat="55.3211500" lon="38.7678800"><time>2020-06-27T08:15:27.733</time></trkpt><trkpt lat="55.3211560" lon="38.7679750"><time>2020-06-27T08:15:32.760</time></trkpt><trkpt lat="55.3211680" lon="38.7680570"><time>2020-06-27T08:15:35.707</time></trkpt><trkpt lat="55.3211570" lon="38.7681420"><time>2020-06-27T08:15:38.477</time></trkpt><trkpt lat="55.3211530" lon="38.7682340"><time>2020-06-27T08:15:47.710</time></trkpt><trkpt lat="55.3211330" lon="38.7683060"><time>2020-06-27T08:15:50.493</time></trkpt><trkpt lat="55.3211180" lon="38.7683990"><time>2020-06-27T08:15:55.707</time></trkpt><trkpt lat="55.3210990" lon="38.7684750"><time>2020-06-27T08:15:59.713</time></trkpt><trkpt lat="55.3210820" lon="38.7685630"><time>2020-06-27T08:16:03.763</time></trkpt><trkpt lat="55.3210510" lon="38.7686330"><time>2020-06-27T08:16:14.713</time></trkpt><trkpt lat="55.3210390" lon="38.7687270"><time>2020-06-27T08:16:19.730</time></trkpt><trkpt lat="55.3210380" lon="38.7688160"><time>2020-06-27T08:16:24.717</time></trkpt><trkpt lat="55.3210310" lon="38.7688990"><time>2020-06-27T08:16:36.717</time></trkpt><trkpt lat="55.3210280" lon="38.7688130"><time>2020-06-27T08:16:40.747</time></trkpt><trkpt lat="55.3210210" lon="38.7687160"><time>2020-06-27T08:16:43.717</time></trkpt><trkpt lat="55.3210190" lon="38.7686300"><time>2020-06-27T08:16:48.710</time></trkpt><trkpt lat="55.3210070" lon="38.7685370"><time>2020-06-27T08:16:53.720</time></trkpt><trkpt lat="55.3209590" lon="38.7685510"><time>2020-06-27T08:17:31.697</time></trkpt><trkpt lat="55.3209460" lon="38.7686460"><time>2020-06-27T08:17:36.763</time></trkpt><trkpt lat="55.3209320" lon="38.7687270"><time>2020-06-27T08:17:39.713</time></trkpt><trkpt lat="55.3209350" lon="38.7688210"><time>2020-06-27T08:17:46.700</time></trkpt><trkpt lat="55.3209110" lon="38.7688900"><time>2020-06-27T08:17:50.713</time></trkpt><trkpt lat="55.3209050" lon="38.7689770"><time>2020-06-27T08:17:56.710</time></trkpt><trkpt lat="55.3208820" lon="38.7690600"><time>2020-06-27T08:17:59.720</time></trkpt><trkpt lat="55.3208310" lon="38.7690910"><time>2020-06-27T08:18:03.467</time></trkpt><trkpt lat="55.3207920" lon="38.7691040"><time>2020-06-27T08:18:11.863</time></trkpt><trkpt lat="55.3208540" lon="38.7690140"><time>2020-06-27T08:18:22.480</time></trkpt><trkpt lat="55.3208740" lon="38.7689210"><time>2020-06-27T08:18:26.717</time></trkpt><trkpt lat="55.3208980" lon="38.7688410"><time>2020-06-27T08:18:30.703</time></trkpt><trkpt lat="55.3208850" lon="38.7687380"><time>2020-06-27T08:18:35.703</time></trkpt><trkpt lat="55.3208760" lon="38.7686420"><time>2020-06-27T08:18:39.710</time></trkpt><trkpt lat="55.3208890" lon="38.7685660"><time>2020-06-27T08:18:42.707</time></trkpt><trkpt lat="55.3209040" lon="38.7684900"><time>2020-06-27T08:18:46.700</time></trkpt><trkpt lat="55.3209360" lon="38.7684190"><time>2020-06-27T08:18:51.703</time></trkpt><trkpt lat="55.3209800" lon="38.7683970"><time>2020-06-27T08:18:54.700</time></trkpt><trkpt lat="55.3210230" lon="38.7684440"><time>2020-06-27T08:19:00.700</time></trkpt><trkpt lat="55.3210680" lon="38.7684190"><time>2020-06-27T08:19:21.707</time></trkpt><trkpt lat="55.3210860" lon="38.7683270"><time>2020-06-27T08:19:28.473</time></trkpt><trkpt lat="55.3210900" lon="38.7682400"><time>2020-06-27T08:19:33.483</time></trkpt><trkpt lat="55.3210750" lon="38.7681470"><time>2020-06-27T08:19:37.483</time></trkpt><trkpt lat="55.3210770" lon="38.7680630"><time>2020-06-27T08:19:42.457</time></trkpt><trkpt lat="55.3211060" lon="38.7679850"><time>2020-06-27T08:19:46.480</time></trkpt><trkpt lat="55.3211330" lon="38.7679150"><time>2020-06-27T08:19:50.460</time></trkpt><trkpt lat="55.3211300" lon="38.7678280"><time>2020-06-27T08:19:58.470</time></trkpt><trkpt lat="55.3211320" lon="38.7677460"><time>2020-06-27T08:20:03.483</time></trkpt><trkpt lat="55.3211330" lon="38.7676480"><time>2020-06-27T08:20:09.460</time></trkpt><trkpt lat="55.3211380" lon="38.7675530"><time>2020-06-27T08:20:12.460</time></trkpt><trkpt lat="55.3211590" lon="38.7674630"><time>2020-06-27T08:20:14.470</time></trkpt><trkpt lat="55.3211740" lon="38.7673710"><time>2020-06-27T08:20:16.473</time></trkpt><trkpt lat="55.3211850" lon="38.7672570"><time>2020-06-27T08:20:19.470</time></trkpt><trkpt lat="55.3211960" lon="38.7671470"><time>2020-06-27T08:20:21.463</time></trkpt><trkpt lat="55.3212020" lon="38.7670600"><time>2020-06-27T08:20:23.467</time></trkpt><trkpt lat="55.3212050" lon="38.7669750"><time>2020-06-27T08:20:25.470</time></trkpt><trkpt lat="55.3212300" lon="38.7668720"><time>2020-06-27T08:20:28.453</time></trkpt><trkpt lat="55.3212530" lon="38.7667580"><time>2020-06-27T08:20:31.470</time></trkpt><trkpt lat="55.3212490" lon="38.7666510"><time>2020-06-27T08:20:33.473</time></trkpt><trkpt lat="55.3212470" lon="38.7665610"><time>2020-06-27T08:20:35.477</time></trkpt><trkpt lat="55.3212520" lon="38.7664800"><time>2020-06-27T08:20:37.487</time></trkpt><trkpt lat="55.3212640" lon="38.7664040"><time>2020-06-27T08:20:39.480</time></trkpt><trkpt lat="55.3212930" lon="38.7663130"><time>2020-06-27T08:20:42.490</time></trkpt><trkpt lat="55.3213290" lon="38.7662540"><time>2020-06-27T08:20:45.480</time></trkpt><trkpt lat="55.3213630" lon="38.7661750"><time>2020-06-27T08:20:48.493</time></trkpt><trkpt lat="55.3214000" lon="38.7660920"><time>2020-06-27T08:20:51.477</time></trkpt><trkpt lat="55.3214560" lon="38.7660280"><time>2020-06-27T08:20:54.450</time></trkpt><trkpt lat="55.3215220" lon="38.7659700"><time>2020-06-27T08:20:56.470</time></trkpt><trkpt lat="55.3215920" lon="38.7659150"><time>2020-06-27T08:20:58.473</time></trkpt><trkpt lat="55.3216640" lon="38.7658620"><time>2020-06-27T08:21:00.473</time></trkpt><trkpt lat="55.3218050" lon="38.7658160"><time>2020-06-27T08:21:01.463</time></trkpt><trkpt lat="55.3218680" lon="38.7657720"><time>2020-06-27T08:21:03.440</time></trkpt><trkpt lat="55.3219250" lon="38.7657290"><time>2020-06-27T08:21:05.443</time></trkpt><trkpt lat="55.3219790" lon="38.7656800"><time>2020-06-27T08:21:07.457</time></trkpt><trkpt lat="55.3220430" lon="38.7655680"><time>2020-06-27T08:21:09.447</time></trkpt><trkpt lat="55.3220870" lon="38.7655080"><time>2020-06-27T08:21:10.443</time></trkpt><trkpt lat="55.3221430" lon="38.7653980"><time>2020-06-27T08:21:12.450</time></trkpt><trkpt lat="55.3221870" lon="38.7653440"><time>2020-06-27T08:21:13.457</time></trkpt><trkpt lat="55.3222310" lon="38.7652910"><time>2020-06-27T08:21:14.457</time></trkpt><trkpt lat="55.3222690" lon="38.7652210"><time>2020-06-27T08:21:15.450</time></trkpt><trkpt lat="55.3223100" lon="38.7650840"><time>2020-06-27T08:21:17.443</time></trkpt><trkpt lat="55.3223210" lon="38.7650030"><time>2020-06-27T08:21:18.443</time></trkpt><trkpt lat="55.3223390" lon="38.7648760"><time>2020-06-27T08:21:20.447</time></trkpt><trkpt lat="55.3223110" lon="38.7649700"><time>2020-06-27T08:21:53.457</time></trkpt><trkpt lat="55.3222910" lon="38.7650670"><time>2020-06-27T08:21:55.453</time></trkpt><trkpt lat="55.3222650" lon="38.7651860"><time>2020-06-27T08:21:57.460</time></trkpt><trkpt lat="55.3222250" lon="38.7652850"><time>2020-06-27T08:21:59.470</time></trkpt><trkpt lat="55.3221960" lon="38.7653930"><time>2020-06-27T08:22:01.457</time></trkpt><trkpt lat="55.3221630" lon="38.7654950"><time>2020-06-27T08:22:03.453</time></trkpt><trkpt lat="55.3221250" lon="38.7655950"><time>2020-06-27T08:22:05.447</time></trkpt><trkpt lat="55.3221110" lon="38.7656920"><time>2020-06-27T08:22:09.483</time></trkpt><trkpt lat="55.3221120" lon="38.7657750"><time>2020-06-27T08:22:11.477</time></trkpt><trkpt lat="55.3221270" lon="38.7658730"><time>2020-06-27T08:22:13.473</time></trkpt><trkpt lat="55.3221480" lon="38.7659530"><time>2020-06-27T08:22:15.473</time></trkpt><trkpt lat="55.3221460" lon="38.7660750"><time>2020-06-27T08:22:18.470</time></trkpt><trkpt lat="55.3221370" lon="38.7661670"><time>2020-06-27T08:22:20.480</time></trkpt><trkpt lat="55.3221590" lon="38.7662860"><time>2020-06-27T08:22:22.473</time></trkpt><trkpt lat="55.3222160" lon="38.7664550"><time>2020-06-27T08:22:24.457</time></trkpt><trkpt lat="55.3222500" lon="38.7665520"><time>2020-06-27T08:22:26.443</time></trkpt><trkpt lat="55.3222460" lon="38.7666470"><time>2020-06-27T08:22:28.453</time></trkpt><trkpt lat="55.3222610" lon="38.7667720"><time>2020-06-27T08:22:30.447</time></trkpt><trkpt lat="55.3222750" lon="38.7668870"><time>2020-06-27T08:22:32.447</time></trkpt><trkpt lat="55.3222900" lon="38.7669720"><time>2020-06-27T08:22:33.450</time></trkpt><trkpt lat="55.3223200" lon="38.7670690"><time>2020-06-27T08:22:34.460</time></trkpt><trkpt lat="55.3223120" lon="38.7671850"><time>2020-06-27T08:22:37.477</time></trkpt><trkpt lat="55.3222870" lon="38.7672730"><time>2020-06-27T08:22:40.447</time></trkpt><trkpt lat="55.3223070" lon="38.7673460"><time>2020-06-27T08:22:41.463</time></trkpt><trkpt lat="55.3223330" lon="38.7674210"><time>2020-06-27T08:22:42.470</time></trkpt><trkpt lat="55.3223710" lon="38.7675390"><time>2020-06-27T08:22:44.457</time></trkpt><trkpt lat="55.3223890" lon="38.7676150"><time>2020-06-27T08:22:45.453</time></trkpt><trkpt lat="55.3224210" lon="38.7677590"><time>2020-06-27T08:22:47.457</time></trkpt><trkpt lat="55.3224510" lon="38.7679050"><time>2020-06-27T08:22:49.467</time></trkpt><trkpt lat="55.3224690" lon="38.7680430"><time>2020-06-27T08:22:51.457</time></trkpt><trkpt lat="55.3224840" lon="38.7682000"><time>2020-06-27T08:22:53.460</time></trkpt><trkpt lat="55.3224890" lon="38.7682900"><time>2020-06-27T08:22:54.460</time></trkpt><trkpt lat="55.3224750" lon="38.7684390"><time>2020-06-27T08:22:56.453</time></trkpt><trkpt lat="55.3224960" lon="38.7685710"><time>2020-06-27T08:22:58.460</time></trkpt><trkpt lat="55.3225300" lon="38.7686530"><time>2020-06-27T08:22:59.463</time></trkpt><trkpt lat="55.3226600" lon="38.7688910"><time>2020-06-27T08:23:00.447</time></trkpt><trkpt lat="55.3226820" lon="38.7689790"><time>2020-06-27T08:23:01.433</time></trkpt><trkpt lat="55.3226840" lon="38.7691040"><time>2020-06-27T08:23:03.447</time></trkpt><trkpt lat="55.3226920" lon="38.7692540"><time>2020-06-27T08:23:05.450</time></trkpt><trkpt lat="55.3226720" lon="38.7693530"><time>2020-06-27T08:23:07.460</time></trkpt><trkpt lat="55.3226730" lon="38.7694480"><time>2020-06-27T08:23:09.457</time></trkpt><trkpt lat="55.3226830" lon="38.7695750"><time>2020-06-27T08:23:12.477</time></trkpt><trkpt lat="55.3227060" lon="38.7697290"><time>2020-06-27T08:23:14.473</time></trkpt><trkpt lat="55.3227220" lon="38.7698060"><time>2020-06-27T08:23:15.473</time></trkpt><trkpt lat="55.3227410" lon="38.7699470"><time>2020-06-27T08:23:17.473</time></trkpt><trkpt lat="55.3227820" lon="38.7701110"><time>2020-06-27T08:23:19.470</time></trkpt><trkpt lat="55.3228120" lon="38.7702100"><time>2020-06-27T08:23:20.480</time></trkpt><trkpt lat="55.3228510" lon="38.7703130"><time>2020-06-27T08:23:21.483</time></trkpt><trkpt lat="55.3228910" lon="38.7703950"><time>2020-06-27T08:23:22.487</time></trkpt><trkpt lat="55.3229840" lon="38.7705600"><time>2020-06-27T08:23:23.480</time></trkpt><trkpt lat="55.3230720" lon="38.7705770"><time>2020-06-27T08:23:24.463</time></trkpt><trkpt lat="55.3231410" lon="38.7706040"><time>2020-06-27T08:23:26.440</time></trkpt><trkpt lat="55.3232020" lon="38.7706070"><time>2020-06-27T08:23:29.450</time></trkpt><trkpt lat="55.3232650" lon="38.7705820"><time>2020-06-27T08:23:32.453</time></trkpt><trkpt lat="55.3233270" lon="38.7705750"><time>2020-06-27T08:23:35.480</time></trkpt><trkpt lat="55.3233900" lon="38.7705520"><time>2020-06-27T08:23:38.467</time></trkpt><trkpt lat="55.3234430" lon="38.7705300"><time>2020-06-27T08:23:40.487</time></trkpt><trkpt lat="55.3235110" lon="38.7705130"><time>2020-06-27T08:23:43.487</time></trkpt><trkpt lat="55.3235650" lon="38.7704970"><time>2020-06-27T08:23:45.483</time></trkpt><trkpt lat="55.3236210" lon="38.7704790"><time>2020-06-27T08:23:47.480</time></trkpt><trkpt lat="55.3236810" lon="38.7704600"><time>2020-06-27T08:23:49.480</time></trkpt><trkpt lat="55.3237420" lon="38.7704310"><time>2020-06-27T08:23:51.477</time></trkpt><trkpt lat="55.3238120" lon="38.7704110"><time>2020-06-27T08:23:53.480</time></trkpt><trkpt lat="55.3238870" lon="38.7703840"><time>2020-06-27T08:23:55.487</time></trkpt><trkpt lat="55.3239620" lon="38.7703650"><time>2020-06-27T08:23:57.483</time></trkpt><trkpt lat="55.3240450" lon="38.7703290"><time>2020-06-27T08:23:59.487</time></trkpt><trkpt lat="55.3241280" lon="38.7702850"><time>2020-06-27T08:24:01.490</time></trkpt><trkpt lat="55.3241740" lon="38.7702720"><time>2020-06-27T08:24:02.487</time></trkpt><trkpt lat="55.3242510" lon="38.7702420"><time>2020-06-27T08:24:04.483</time></trkpt><trkpt lat="55.3243320" lon="38.7702130"><time>2020-06-27T08:24:06.473</time></trkpt><trkpt lat="55.3243870" lon="38.7702050"><time>2020-06-27T08:24:07.477</time></trkpt><trkpt lat="55.3244240" lon="38.7702590"><time>2020-06-27T08:24:08.470</time></trkpt><trkpt lat="55.3244750" lon="38.7702160"><time>2020-06-27T08:24:09.437</time></trkpt><trkpt lat="55.3245440" lon="38.7701760"><time>2020-06-27T08:24:11.450</time></trkpt><trkpt lat="55.3246050" lon="38.7701710"><time>2020-06-27T08:24:13.450</time></trkpt><trkpt lat="55.3246500" lon="38.7702050"><time>2020-06-27T08:24:15.457</time></trkpt><trkpt lat="55.3246730" lon="38.7702780"><time>2020-06-27T08:24:18.473</time></trkpt><trkpt lat="55.3246950" lon="38.7703550"><time>2020-06-27T08:24:19.463</time></trkpt><trkpt lat="55.3247450" lon="38.7704860"><time>2020-06-27T08:24:20.457</time></trkpt><trkpt lat="55.3247800" lon="38.7705710"><time>2020-06-27T08:24:22.437</time></trkpt><trkpt lat="55.3248140" lon="38.7706520"><time>2020-06-27T08:24:23.450</time></trkpt><trkpt lat="55.3248690" lon="38.7707570"><time>2020-06-27T08:24:25.453</time></trkpt><trkpt lat="55.3248930" lon="38.7708230"><time>2020-06-27T08:24:26.450</time></trkpt><trkpt lat="55.3249330" lon="38.7709020"><time>2020-06-27T08:24:28.450</time></trkpt><trkpt lat="55.3249570" lon="38.7709850"><time>2020-06-27T08:24:31.490</time></trkpt><trkpt lat="55.3250160" lon="38.7710970"><time>2020-06-27T08:24:33.490</time></trkpt><trkpt lat="55.3250780" lon="38.7712270"><time>2020-06-27T08:24:34.473</time></trkpt><trkpt lat="55.3251380" lon="38.7713500"><time>2020-06-27T08:24:36.437</time></trkpt><trkpt lat="55.3251840" lon="38.7714410"><time>2020-06-27T08:24:38.450</time></trkpt><trkpt lat="55.3252210" lon="38.7714940"><time>2020-06-27T08:24:39.453</time></trkpt><trkpt lat="55.3252600" lon="38.7715950"><time>2020-06-27T08:24:41.457</time></trkpt><trkpt lat="55.3252790" lon="38.7716880"><time>2020-06-27T08:24:44.480</time></trkpt><trkpt lat="55.3253100" lon="38.7718060"><time>2020-06-27T08:24:47.480</time></trkpt><trkpt lat="55.3253580" lon="38.7719410"><time>2020-06-27T08:24:48.470</time></trkpt><trkpt lat="55.3254340" lon="38.7720960"><time>2020-06-27T08:24:49.447</time></trkpt><trkpt lat="55.3254780" lon="38.7721930"><time>2020-06-27T08:24:51.437</time></trkpt><trkpt lat="55.3255050" lon="38.7722910"><time>2020-06-27T08:24:53.453</time></trkpt><trkpt lat="55.3255410" lon="38.7723870"><time>2020-06-27T08:24:55.453</time></trkpt><trkpt lat="55.3255660" lon="38.7724630"><time>2020-06-27T08:24:57.460</time></trkpt><trkpt lat="55.3256030" lon="38.7725470"><time>2020-06-27T08:24:59.443</time></trkpt><trkpt lat="55.3256320" lon="38.7726500"><time>2020-06-27T08:25:03.467</time></trkpt><trkpt lat="55.3256710" lon="38.7727590"><time>2020-06-27T08:25:05.463</time></trkpt><trkpt lat="55.3257230" lon="38.7728790"><time>2020-06-27T08:25:06.457</time></trkpt><trkpt lat="55.3257790" lon="38.7730000"><time>2020-06-27T08:25:08.433</time></trkpt><trkpt lat="55.3258370" lon="38.7731130"><time>2020-06-27T08:25:10.450</time></trkpt><trkpt lat="55.3258680" lon="38.7731760"><time>2020-06-27T08:25:11.450</time></trkpt><trkpt lat="55.3259220" lon="38.7732940"><time>2020-06-27T08:25:13.457</time></trkpt><trkpt lat="55.3259520" lon="38.7733590"><time>2020-06-27T08:25:14.457</time></trkpt><trkpt lat="55.3259880" lon="38.7734470"><time>2020-06-27T08:25:16.470</time></trkpt><trkpt lat="55.3260330" lon="38.7735480"><time>2020-06-27T08:25:18.507</time></trkpt><trkpt lat="55.3260680" lon="38.7736010"><time>2020-06-27T08:25:19.493</time></trkpt><trkpt lat="55.3261030" lon="38.7736640"><time>2020-06-27T08:25:21.490</time></trkpt><trkpt lat="55.3261460" lon="38.7737380"><time>2020-06-27T08:25:23.463</time></trkpt><trkpt lat="55.3261970" lon="38.7738240"><time>2020-06-27T08:25:25.480</time></trkpt><trkpt lat="55.3262640" lon="38.7739160"><time>2020-06-27T08:25:27.483</time></trkpt><trkpt lat="55.3263170" lon="38.7739980"><time>2020-06-27T08:25:29.483</time></trkpt><trkpt lat="55.3263780" lon="38.7740830"><time>2020-06-27T08:25:31.483</time></trkpt><trkpt lat="55.3264360" lon="38.7741790"><time>2020-06-27T08:25:33.470</time></trkpt><trkpt lat="55.3264670" lon="38.7742540"><time>2020-06-27T08:25:35.467</time></trkpt><trkpt lat="55.3265210" lon="38.7743280"><time>2020-06-27T08:25:46.487</time></trkpt><trkpt lat="55.3265720" lon="38.7744200"><time>2020-06-27T08:25:48.467</time></trkpt><trkpt lat="55.3266010" lon="38.7744800"><time>2020-06-27T08:25:50.467</time></trkpt><trkpt lat="55.3266420" lon="38.7745600"><time>2020-06-27T08:25:52.483</time></trkpt><trkpt lat="55.3266790" lon="38.7746250"><time>2020-06-27T08:25:54.477</time></trkpt><trkpt lat="55.3267050" lon="38.7746930"><time>2020-06-27T08:25:56.487</time></trkpt><trkpt lat="55.3267530" lon="38.7747760"><time>2020-06-27T08:25:59.483</time></trkpt><trkpt lat="55.3267880" lon="38.7748360"><time>2020-06-27T08:26:01.463</time></trkpt><trkpt lat="55.3268190" lon="38.7749050"><time>2020-06-27T08:26:04.460</time></trkpt><trkpt lat="55.3268590" lon="38.7749870"><time>2020-06-27T08:26:06.467</time></trkpt><trkpt lat="55.3269120" lon="38.7750860"><time>2020-06-27T08:26:08.447</time></trkpt><trkpt lat="55.3269520" lon="38.7751730"><time>2020-06-27T08:26:10.437</time></trkpt><trkpt lat="55.3269840" lon="38.7752340"><time>2020-06-27T08:26:11.450</time></trkpt><trkpt lat="55.3270310" lon="38.7753320"><time>2020-06-27T08:26:13.453</time></trkpt><trkpt lat="55.3270400" lon="38.7754160"><time>2020-06-27T08:26:15.450</time></trkpt><trkpt lat="55.3270680" lon="38.7755120"><time>2020-06-27T08:26:17.457</time></trkpt><trkpt lat="55.3270810" lon="38.7756020"><time>2020-06-27T08:26:19.457</time></trkpt><trkpt lat="55.3270970" lon="38.7756920"><time>2020-06-27T08:26:21.470</time></trkpt><trkpt lat="55.3271020" lon="38.7757790"><time>2020-06-27T08:26:23.450</time></trkpt><trkpt lat="55.3271040" lon="38.7758990"><time>2020-06-27T08:26:27.443</time></trkpt><trkpt lat="55.3271340" lon="38.7760020"><time>2020-06-27T08:26:30.487</time></trkpt><trkpt lat="55.3271720" lon="38.7761090"><time>2020-06-27T08:26:33.460</time></trkpt><trkpt lat="55.3272090" lon="38.7761970"><time>2020-06-27T08:26:35.477</time></trkpt><trkpt lat="55.3272420" lon="38.7762790"><time>2020-06-27T08:26:37.487</time></trkpt><trkpt lat="55.3272700" lon="38.7763410"><time>2020-06-27T08:26:38.490</time></trkpt><trkpt lat="55.3273010" lon="38.7764070"><time>2020-06-27T08:26:39.487</time></trkpt><trkpt lat="55.3273440" lon="38.7765130"><time>2020-06-27T08:26:41.493</time></trkpt><trkpt lat="55.3273550" lon="38.7766080"><time>2020-06-27T08:26:44.483</time></trkpt><trkpt lat="55.3273220" lon="38.7766900"><time>2020-06-27T08:26:47.477</time></trkpt><trkpt lat="55.3273000" lon="38.7767860"><time>2020-06-27T08:26:50.483</time></trkpt><trkpt lat="55.3272950" lon="38.7768750"><time>2020-06-27T08:26:53.473</time></trkpt><trkpt lat="55.3272620" lon="38.7769380"><time>2020-06-27T08:26:56.493</time></trkpt><trkpt lat="55.3272180" lon="38.7770060"><time>2020-06-27T08:26:59.487</time></trkpt><trkpt lat="55.3271740" lon="38.7770700"><time>2020-06-27T08:27:02.480</time></trkpt><trkpt lat="55.3271240" lon="38.7770870"><time>2020-06-27T08:27:07.477</time></trkpt><trkpt lat="55.3270770" lon="38.7770960"><time>2020-06-27T08:27:11.487</time></trkpt><trkpt lat="55.3270280" lon="38.7771130"><time>2020-06-27T08:27:20.483</time></trkpt><trkpt lat="55.3269810" lon="38.7771420"><time>2020-06-27T08:27:22.490</time></trkpt><trkpt lat="55.3269220" lon="38.7771750"><time>2020-06-27T08:27:24.483</time></trkpt><trkpt lat="55.3268700" lon="38.7771990"><time>2020-06-27T08:27:26.473</time></trkpt><trkpt lat="55.3268210" lon="38.7772150"><time>2020-06-27T08:27:28.480</time></trkpt><trkpt lat="55.3267690" lon="38.7772270"><time>2020-06-27T08:27:30.470</time></trkpt><trkpt lat="55.3267260" lon="38.7772580"><time>2020-06-27T08:27:32.470</time></trkpt><trkpt lat="55.3266720" lon="38.7772750"><time>2020-06-27T08:27:34.483</time></trkpt><trkpt lat="55.3265980" lon="38.7772800"><time>2020-06-27T08:27:36.483</time></trkpt><trkpt lat="55.3264970" lon="38.7773150"><time>2020-06-27T08:27:38.517</time></trkpt><trkpt lat="55.3264210" lon="38.7773490"><time>2020-06-27T08:27:40.443</time></trkpt><trkpt lat="55.3263490" lon="38.7773750"><time>2020-06-27T08:27:42.453</time></trkpt><trkpt lat="55.3262710" lon="38.7774000"><time>2020-06-27T08:27:44.453</time></trkpt><trkpt lat="55.3262120" lon="38.7774150"><time>2020-06-27T08:27:46.457</time></trkpt><trkpt lat="55.3261440" lon="38.7774900"><time>2020-06-27T08:27:48.483</time></trkpt><trkpt lat="55.3260780" lon="38.7775440"><time>2020-06-27T08:27:49.487</time></trkpt><trkpt lat="55.3260240" lon="38.7775860"><time>2020-06-27T08:27:50.467</time></trkpt><trkpt lat="55.3260120" lon="38.7776930"><time>2020-06-27T08:27:52.443</time></trkpt><trkpt lat="55.3259700" lon="38.7777500"><time>2020-06-27T08:27:54.453</time></trkpt><trkpt lat="55.3259330" lon="38.7778260"><time>2020-06-27T08:27:56.457</time></trkpt><trkpt lat="55.3258900" lon="38.7779120"><time>2020-06-27T08:27:59.477</time></trkpt><trkpt lat="55.3258550" lon="38.7779930"><time>2020-06-27T08:28:02.480</time></trkpt><trkpt lat="55.3258390" lon="38.7781020"><time>2020-06-27T08:28:04.453</time></trkpt><trkpt lat="55.3258400" lon="38.7782360"><time>2020-06-27T08:28:06.483</time></trkpt><trkpt lat="55.3258530" lon="38.7783180"><time>2020-06-27T08:28:07.470</time></trkpt><trkpt lat="55.3258590" lon="38.7784610"><time>2020-06-27T08:28:09.477</time></trkpt><trkpt lat="55.3258500" lon="38.7785640"><time>2020-06-27T08:28:11.463</time></trkpt><trkpt lat="55.3258330" lon="38.7786470"><time>2020-06-27T08:28:13.483</time></trkpt><trkpt lat="55.3258090" lon="38.7787300"><time>2020-06-27T08:28:15.483</time></trkpt><trkpt lat="55.3258090" lon="38.7788340"><time>2020-06-27T08:28:17.483</time></trkpt><trkpt lat="55.3258630" lon="38.7789510"><time>2020-06-27T08:28:19.470</time></trkpt><trkpt lat="55.3259030" lon="38.7789900"><time>2020-06-27T08:28:20.480</time></trkpt><trkpt lat="55.3259470" lon="38.7790170"><time>2020-06-27T08:28:21.470</time></trkpt><trkpt lat="55.3259980" lon="38.7790440"><time>2020-06-27T08:28:22.470</time></trkpt><trkpt lat="55.3260450" lon="38.7790650"><time>2020-06-27T08:28:23.487</time></trkpt><trkpt lat="55.3261160" lon="38.7790870"><time>2020-06-27T08:28:25.483</time></trkpt><trkpt lat="55.3261760" lon="38.7791060"><time>2020-06-27T08:28:27.480</time></trkpt><trkpt lat="55.3262300" lon="38.7791040"><time>2020-06-27T08:28:29.493</time></trkpt><trkpt lat="55.3262800" lon="38.7790930"><time>2020-06-27T08:28:31.487</time></trkpt><trkpt lat="55.3263420" lon="38.7790810"><time>2020-06-27T08:28:33.487</time></trkpt><trkpt lat="55.3264060" lon="38.7790650"><time>2020-06-27T08:28:35.477</time></trkpt><trkpt lat="55.3264690" lon="38.7790490"><time>2020-06-27T08:28:37.487</time></trkpt><trkpt lat="55.3265310" lon="38.7790370"><time>2020-06-27T08:28:39.487</time></trkpt><trkpt lat="55.3265960" lon="38.7790290"><time>2020-06-27T08:28:41.487</time></trkpt><trkpt lat="55.3266530" lon="38.7790040"><time>2020-06-27T08:28:43.497</time></trkpt><trkpt lat="55.3266870" lon="38.7789480"><time>2020-06-27T08:28:45.487</time></trkpt><trkpt lat="55.3267320" lon="38.7789340"><time>2020-06-27T08:28:47.490</time></trkpt><trkpt lat="55.3267640" lon="38.7789010"><time>2020-06-27T08:28:53.760</time></trkpt><trkpt lat="55.3267310" lon="38.7788380"><time>2020-06-27T08:28:58.467</time></trkpt><trkpt lat="55.3267080" lon="38.7789070"><time>2020-06-27T08:29:01.723</time></trkpt><trkpt lat="55.3266690" lon="38.7789540"><time>2020-06-27T08:29:11.483</time></trkpt><trkpt lat="55.3266130" lon="38.7788880"><time>2020-06-27T08:29:25.777</time></trkpt><trkpt lat="55.3265460" lon="38.7788840"><time>2020-06-27T08:29:29.727</time></trkpt><trkpt lat="55.3264960" lon="38.7789100"><time>2020-06-27T08:29:31.710</time></trkpt><trkpt lat="55.3264430" lon="38.7789230"><time>2020-06-27T08:29:33.717</time></trkpt><trkpt lat="55.3263930" lon="38.7789420"><time>2020-06-27T08:29:35.713</time></trkpt><trkpt lat="55.3262620" lon="38.7789910"><time>2020-06-27T08:29:38.710</time></trkpt><trkpt lat="55.3261860" lon="38.7789910"><time>2020-06-27T08:29:40.663</time></trkpt><trkpt lat="55.3261050" lon="38.7789890"><time>2020-06-27T08:29:42.753</time></trkpt><trkpt lat="55.3260460" lon="38.7789890"><time>2020-06-27T08:29:43.453</time></trkpt><trkpt lat="55.3259870" lon="38.7790400"><time>2020-06-27T08:29:45.683</time></trkpt><trkpt lat="55.3259550" lon="38.7791210"><time>2020-06-27T08:29:47.683</time></trkpt><trkpt lat="55.3259490" lon="38.7792110"><time>2020-06-27T08:29:49.710</time></trkpt><trkpt lat="55.3259270" lon="38.7793150"><time>2020-06-27T08:29:52.710</time></trkpt><trkpt lat="55.3259010" lon="38.7794000"><time>2020-06-27T08:29:54.700</time></trkpt><trkpt lat="55.3258820" lon="38.7794960"><time>2020-06-27T08:29:56.693</time></trkpt><trkpt lat="55.3258760" lon="38.7795960"><time>2020-06-27T08:29:58.680</time></trkpt><trkpt lat="55.3258590" lon="38.7796780"><time>2020-06-27T08:30:00.680</time></trkpt><trkpt lat="55.3258190" lon="38.7797590"><time>2020-06-27T08:30:03.723</time></trkpt><trkpt lat="55.3258000" lon="38.7798750"><time>2020-06-27T08:30:06.450</time></trkpt><trkpt lat="55.3257940" lon="38.7799620"><time>2020-06-27T08:30:08.690</time></trkpt><trkpt lat="55.3257760" lon="38.7800450"><time>2020-06-27T08:30:11.477</time></trkpt><trkpt lat="55.3257830" lon="38.7801750"><time>2020-06-27T08:30:14.710</time></trkpt><trkpt lat="55.3257830" lon="38.7802790"><time>2020-06-27T08:30:16.717</time></trkpt><trkpt lat="55.3257800" lon="38.7803590"><time>2020-06-27T08:30:18.710</time></trkpt><trkpt lat="55.3257650" lon="38.7804660"><time>2020-06-27T08:30:21.487</time></trkpt><trkpt lat="55.3257350" lon="38.7805510"><time>2020-06-27T08:30:24.703</time></trkpt><trkpt lat="55.3257000" lon="38.7806040"><time>2020-06-27T08:30:27.723</time></trkpt><trkpt lat="55.3256530" lon="38.7806460"><time>2020-06-27T08:30:29.467</time></trkpt><trkpt lat="55.3256090" lon="38.7806840"><time>2020-06-27T08:30:31.467</time></trkpt><trkpt lat="55.3255450" lon="38.7807130"><time>2020-06-27T08:30:33.667</time></trkpt><trkpt lat="55.3254930" lon="38.7807080"><time>2020-06-27T08:30:35.690</time></trkpt><trkpt lat="55.3254100" lon="38.7807660"><time>2020-06-27T08:30:37.730</time></trkpt><trkpt lat="55.3253380" lon="38.7807760"><time>2020-06-27T08:30:39.747</time></trkpt><trkpt lat="55.3252840" lon="38.7808020"><time>2020-06-27T08:30:41.463</time></trkpt><trkpt lat="55.3252040" lon="38.7808420"><time>2020-06-27T08:30:43.737</time></trkpt><trkpt lat="55.3251520" lon="38.7808570"><time>2020-06-27T08:30:45.757</time></trkpt><trkpt lat="55.3250920" lon="38.7808820"><time>2020-06-27T08:30:47.703</time></trkpt><trkpt lat="55.3249790" lon="38.7808880"><time>2020-06-27T08:30:48.687</time></trkpt><trkpt lat="55.3249030" lon="38.7809000"><time>2020-06-27T08:30:50.667</time></trkpt><trkpt lat="55.3248320" lon="38.7809140"><time>2020-06-27T08:30:52.693</time></trkpt><trkpt lat="55.3247760" lon="38.7808980"><time>2020-06-27T08:30:54.683</time></trkpt><trkpt lat="55.3247350" lon="38.7809520"><time>2020-06-27T08:30:56.450</time></trkpt><trkpt lat="55.3246950" lon="38.7809960"><time>2020-06-27T08:30:58.747</time></trkpt><trkpt lat="55.3246600" lon="38.7810650"><time>2020-06-27T08:31:01.750</time></trkpt><trkpt lat="55.3246390" lon="38.7811640"><time>2020-06-27T08:31:03.477</time></trkpt><trkpt lat="55.3246320" lon="38.7812970"><time>2020-06-27T08:31:05.723</time></trkpt><trkpt lat="55.3246600" lon="38.7814990"><time>2020-06-27T08:31:07.700</time></trkpt><trkpt lat="55.3246980" lon="38.7816760"><time>2020-06-27T08:31:09.677</time></trkpt><trkpt lat="55.3247230" lon="38.7818280"><time>2020-06-27T08:31:11.450</time></trkpt><trkpt lat="55.3247490" lon="38.7819740"><time>2020-06-27T08:31:13.690</time></trkpt><trkpt lat="55.3247050" lon="38.7819500"><time>2020-06-27T08:31:14.450</time></trkpt><trkpt lat="55.3247250" lon="38.7820630"><time>2020-06-27T08:31:16.740</time></trkpt><trkpt lat="55.3247050" lon="38.7821590"><time>2020-06-27T08:31:18.710</time></trkpt><trkpt lat="55.3247190" lon="38.7822790"><time>2020-06-27T08:31:20.713</time></trkpt><trkpt lat="55.3247790" lon="38.7824110"><time>2020-06-27T08:31:23.750</time></trkpt><trkpt lat="55.3248040" lon="38.7824950"><time>2020-06-27T08:31:28.703</time></trkpt><trkpt lat="55.3248230" lon="38.7825730"><time>2020-06-27T08:31:32.713</time></trkpt><trkpt lat="55.3248570" lon="38.7826320"><time>2020-06-27T08:31:37.697</time></trkpt><trkpt lat="55.3248610" lon="38.7827400"><time>2020-06-27T08:31:40.703</time></trkpt><trkpt lat="55.3248520" lon="38.7828190"><time>2020-06-27T08:31:42.717</time></trkpt><trkpt lat="55.3248490" lon="38.7829110"><time>2020-06-27T08:31:44.697</time></trkpt><trkpt lat="55.3248460" lon="38.7830070"><time>2020-06-27T08:31:47.763</time></trkpt><trkpt lat="55.3248350" lon="38.7830900"><time>2020-06-27T08:31:50.467</time></trkpt><trkpt lat="55.3248530" lon="38.7831820"><time>2020-06-27T08:31:53.703</time></trkpt><trkpt lat="55.3248490" lon="38.7832740"><time>2020-06-27T08:31:57.707</time></trkpt><trkpt lat="55.3248390" lon="38.7833660"><time>2020-06-27T08:32:00.717</time></trkpt><trkpt lat="55.3248350" lon="38.7834730"><time>2020-06-27T08:32:03.703</time></trkpt><trkpt lat="55.3248300" lon="38.7835720"><time>2020-06-27T08:32:06.727</time></trkpt><trkpt lat="55.3248270" lon="38.7836600"><time>2020-06-27T08:32:09.707</time></trkpt><trkpt lat="55.3248640" lon="38.7837810"><time>2020-06-27T08:32:11.483</time></trkpt><trkpt lat="55.3248790" lon="38.7838640"><time>2020-06-27T08:32:13.710</time></trkpt><trkpt lat="55.3248870" lon="38.7839850"><time>2020-06-27T08:32:16.497</time></trkpt><trkpt lat="55.3248910" lon="38.7840730"><time>2020-06-27T08:32:18.750</time></trkpt><trkpt lat="55.3248960" lon="38.7842200"><time>2020-06-27T08:32:21.823</time></trkpt><trkpt lat="55.3249090" lon="38.7843020"><time>2020-06-27T08:32:22.720</time></trkpt><trkpt lat="55.3249160" lon="38.7844400"><time>2020-06-27T08:32:24.730</time></trkpt><trkpt lat="55.3249090" lon="38.7845580"><time>2020-06-27T08:32:26.710</time></trkpt><trkpt lat="55.3249150" lon="38.7846850"><time>2020-06-27T08:32:28.697</time></trkpt><trkpt lat="55.3249230" lon="38.7848170"><time>2020-06-27T08:32:30.737</time></trkpt><trkpt lat="55.3249290" lon="38.7849570"><time>2020-06-27T08:32:32.717</time></trkpt><trkpt lat="55.3249480" lon="38.7850940"><time>2020-06-27T08:32:34.727</time></trkpt><trkpt lat="55.3249920" lon="38.7852460"><time>2020-06-27T08:32:36.730</time></trkpt><trkpt lat="55.3250160" lon="38.7853320"><time>2020-06-27T08:32:37.720</time></trkpt><trkpt lat="55.3250450" lon="38.7854270"><time>2020-06-27T08:32:38.480</time></trkpt><trkpt lat="55.3250640" lon="38.7855000"><time>2020-06-27T08:32:39.743</time></trkpt><trkpt lat="55.3250570" lon="38.7855920"><time>2020-06-27T08:32:41.700</time></trkpt><trkpt lat="55.3250480" lon="38.7856750"><time>2020-06-27T08:32:44.703</time></trkpt><trkpt lat="55.3250730" lon="38.7857880"><time>2020-06-27T08:32:47.727</time></trkpt><trkpt lat="55.3250890" lon="38.7858790"><time>2020-06-27T08:32:49.713</time></trkpt><trkpt lat="55.3250930" lon="38.7859580"><time>2020-06-27T08:32:51.707</time></trkpt><trkpt lat="55.3250840" lon="38.7860570"><time>2020-06-27T08:32:55.710</time></trkpt><trkpt lat="55.3250840" lon="38.7861400"><time>2020-06-27T08:32:57.720</time></trkpt><trkpt lat="55.3250640" lon="38.7862230"><time>2020-06-27T08:33:00.467</time></trkpt><trkpt lat="55.3250830" lon="38.7862950"><time>2020-06-27T08:33:02.760</time></trkpt><trkpt lat="55.3250940" lon="38.7864080"><time>2020-06-27T08:33:05.707</time></trkpt><trkpt lat="55.3250840" lon="38.7865150"><time>2020-06-27T08:33:08.737</time></trkpt><trkpt lat="55.3250570" lon="38.7865910"><time>2020-06-27T08:33:11.490</time></trkpt><trkpt lat="55.3250360" lon="38.7866640"><time>2020-06-27T08:33:14.740</time></trkpt><trkpt lat="55.3250540" lon="38.7867740"><time>2020-06-27T08:33:17.727</time></trkpt><trkpt lat="55.3250560" lon="38.7868580"><time>2020-06-27T08:33:19.700</time></trkpt><trkpt lat="55.3250600" lon="38.7869430"><time>2020-06-27T08:33:21.720</time></trkpt><trkpt lat="55.3250720" lon="38.7870420"><time>2020-06-27T08:33:23.727</time></trkpt><trkpt lat="55.3250630" lon="38.7871230"><time>2020-06-27T08:33:25.737</time></trkpt><trkpt lat="55.3250670" lon="38.7872220"><time>2020-06-27T08:33:27.720</time></trkpt><trkpt lat="55.3250820" lon="38.7873060"><time>2020-06-27T08:33:29.703</time></trkpt><trkpt lat="55.3250990" lon="38.7874180"><time>2020-06-27T08:33:31.477</time></trkpt><trkpt lat="55.3250890" lon="38.7875070"><time>2020-06-27T08:33:33.747</time></trkpt><trkpt lat="55.3250570" lon="38.7875630"><time>2020-06-27T08:33:36.717</time></trkpt><trkpt lat="55.3250010" lon="38.7876080"><time>2020-06-27T08:33:40.760</time></trkpt><trkpt lat="55.3249510" lon="38.7876150"><time>2020-06-27T08:33:44.697</time></trkpt><trkpt lat="55.3248930" lon="38.7875900"><time>2020-06-27T08:33:46.727</time></trkpt><trkpt lat="55.3248460" lon="38.7875700"><time>2020-06-27T08:33:48.700</time></trkpt><trkpt lat="55.3247930" lon="38.7875610"><time>2020-06-27T08:33:50.717</time></trkpt><trkpt lat="55.3247290" lon="38.7875480"><time>2020-06-27T08:33:52.703</time></trkpt><trkpt lat="55.3246540" lon="38.7875480"><time>2020-06-27T08:33:54.467</time></trkpt><trkpt lat="55.3245880" lon="38.7876420"><time>2020-06-27T08:33:55.677</time></trkpt><trkpt lat="55.3245220" lon="38.7877410"><time>2020-06-27T08:33:57.677</time></trkpt><trkpt lat="55.3244750" lon="38.7878110"><time>2020-06-27T08:33:59.690</time></trkpt><trkpt lat="55.3244420" lon="38.7878900"><time>2020-06-27T08:34:01.683</time></trkpt><trkpt lat="55.3244170" lon="38.7879750"><time>2020-06-27T08:34:02.687</time></trkpt><trkpt lat="55.3243820" lon="38.7880660"><time>2020-06-27T08:34:05.733</time></trkpt><trkpt lat="55.3243670" lon="38.7881450"><time>2020-06-27T08:34:07.690</time></trkpt><trkpt lat="55.3243420" lon="38.7882450"><time>2020-06-27T08:34:09.707</time></trkpt><trkpt lat="55.3243030" lon="38.7883160"><time>2020-06-27T08:34:11.467</time></trkpt><trkpt lat="55.3242600" lon="38.7883820"><time>2020-06-27T08:34:13.747</time></trkpt><trkpt lat="55.3242350" lon="38.7884640"><time>2020-06-27T08:34:15.720</time></trkpt><trkpt lat="55.3242220" lon="38.7885810"><time>2020-06-27T08:34:17.720</time></trkpt><trkpt lat="55.3242110" lon="38.7887040"><time>2020-06-27T08:34:19.707</time></trkpt><trkpt lat="55.3242010" lon="38.7887960"><time>2020-06-27T08:34:21.703</time></trkpt><trkpt lat="55.3242020" lon="38.7888960"><time>2020-06-27T08:34:23.713</time></trkpt><trkpt lat="55.3242050" lon="38.7889950"><time>2020-06-27T08:34:25.727</time></trkpt><trkpt lat="55.3242030" lon="38.7890820"><time>2020-06-27T08:34:27.710</time></trkpt><trkpt lat="55.3242120" lon="38.7891830"><time>2020-06-27T08:34:29.707</time></trkpt><trkpt lat="55.3242320" lon="38.7892650"><time>2020-06-27T08:34:31.707</time></trkpt><trkpt lat="55.3242580" lon="38.7893430"><time>2020-06-27T08:34:33.707</time></trkpt><trkpt lat="55.3242790" lon="38.7894360"><time>2020-06-27T08:34:35.703</time></trkpt><trkpt lat="55.3242940" lon="38.7895410"><time>2020-06-27T08:34:37.710</time></trkpt><trkpt lat="55.3243000" lon="38.7896350"><time>2020-06-27T08:34:39.493</time></trkpt><trkpt lat="55.3243060" lon="38.7897350"><time>2020-06-27T08:34:41.713</time></trkpt><trkpt lat="55.3243110" lon="38.7898340"><time>2020-06-27T08:34:43.697</time></trkpt><trkpt lat="55.3243200" lon="38.7899210"><time>2020-06-27T08:34:45.483</time></trkpt><trkpt lat="55.3243460" lon="38.7900010"><time>2020-06-27T08:34:47.713</time></trkpt><trkpt lat="55.3243770" lon="38.7900770"><time>2020-06-27T08:34:49.720</time></trkpt><trkpt lat="55.3243880" lon="38.7901870"><time>2020-06-27T08:34:52.740</time></trkpt><trkpt lat="55.3244060" lon="38.7902930"><time>2020-06-27T08:34:55.730</time></trkpt><trkpt lat="55.3244330" lon="38.7903800"><time>2020-06-27T08:34:58.660</time></trkpt><trkpt lat="55.3244510" lon="38.7904660"><time>2020-06-27T08:35:00.710</time></trkpt><trkpt lat="55.3244610" lon="38.7905540"><time>2020-06-27T08:35:02.710</time></trkpt><trkpt lat="55.3244640" lon="38.7906380"><time>2020-06-27T08:35:04.703</time></trkpt><trkpt lat="55.3244630" lon="38.7907220"><time>2020-06-27T08:35:06.713</time></trkpt><trkpt lat="55.3244360" lon="38.7908380"><time>2020-06-27T08:35:09.720</time></trkpt><trkpt lat="55.3244260" lon="38.7909310"><time>2020-06-27T08:35:11.487</time></trkpt><trkpt lat="55.3244230" lon="38.7910240"><time>2020-06-27T08:35:13.753</time></trkpt><trkpt lat="55.3244320" lon="38.7911190"><time>2020-06-27T08:35:15.717</time></trkpt><trkpt lat="55.3244410" lon="38.7912060"><time>2020-06-27T08:35:17.737</time></trkpt><trkpt lat="55.3244450" lon="38.7912910"><time>2020-06-27T08:35:19.723</time></trkpt><trkpt lat="55.3244580" lon="38.7913860"><time>2020-06-27T08:35:21.733</time></trkpt><trkpt lat="55.3244710" lon="38.7914960"><time>2020-06-27T08:35:23.727</time></trkpt><trkpt lat="55.3244870" lon="38.7915950"><time>2020-06-27T08:35:25.777</time></trkpt><trkpt lat="55.3244820" lon="38.7917080"><time>2020-06-27T08:35:28.737</time></trkpt><trkpt lat="55.3244330" lon="38.7917690"><time>2020-06-27T08:35:31.703</time></trkpt><trkpt lat="55.3243790" lon="38.7917830"><time>2020-06-27T08:35:35.717</time></trkpt><trkpt lat="55.3243340" lon="38.7917450"><time>2020-06-27T08:35:40.720</time></trkpt><trkpt lat="55.3242860" lon="38.7917160"><time>2020-06-27T08:35:44.703</time></trkpt><trkpt lat="55.3242400" lon="38.7916960"><time>2020-06-27T08:35:47.710</time></trkpt><trkpt lat="55.3241720" lon="38.7916840"><time>2020-06-27T08:35:50.713</time></trkpt><trkpt lat="55.3241250" lon="38.7916720"><time>2020-06-27T08:35:52.703</time></trkpt><trkpt lat="55.3240670" lon="38.7916490"><time>2020-06-27T08:35:54.713</time></trkpt><trkpt lat="55.3240100" lon="38.7916390"><time>2020-06-27T08:35:56.693</time></trkpt><trkpt lat="55.3239580" lon="38.7916290"><time>2020-06-27T08:35:58.707</time></trkpt><trkpt lat="55.3238040" lon="38.7915940"><time>2020-06-27T08:36:00.687</time></trkpt><trkpt lat="55.3237290" lon="38.7915750"><time>2020-06-27T08:36:02.677</time></trkpt><trkpt lat="55.3236680" lon="38.7915550"><time>2020-06-27T08:36:04.673</time></trkpt><trkpt lat="55.3235970" lon="38.7915170"><time>2020-06-27T08:36:06.700</time></trkpt><trkpt lat="55.3235360" lon="38.7915090"><time>2020-06-27T08:36:08.677</time></trkpt><trkpt lat="55.3234940" lon="38.7914670"><time>2020-06-27T08:36:10.473</time></trkpt><trkpt lat="55.3234480" lon="38.7914660"><time>2020-06-27T08:36:13.733</time></trkpt><trkpt lat="55.3233670" lon="38.7914890"><time>2020-06-27T08:36:15.710</time></trkpt><trkpt lat="55.3232580" lon="38.7914390"><time>2020-06-27T08:36:16.667</time></trkpt><trkpt lat="55.3232000" lon="38.7914200"><time>2020-06-27T08:36:18.670</time></trkpt><trkpt lat="55.3231210" lon="38.7913840"><time>2020-06-27T08:36:20.673</time></trkpt><trkpt lat="55.3230520" lon="38.7913580"><time>2020-06-27T08:36:22.690</time></trkpt><trkpt lat="55.3229890" lon="38.7913580"><time>2020-06-27T08:36:25.723</time></trkpt><trkpt lat="55.3228880" lon="38.7913230"><time>2020-06-27T08:36:27.717</time></trkpt><trkpt lat="55.3228290" lon="38.7912770"><time>2020-06-27T08:36:29.433</time></trkpt><trkpt lat="55.3227710" lon="38.7912750"><time>2020-06-27T08:36:31.683</time></trkpt><trkpt lat="55.3227200" lon="38.7912590"><time>2020-06-27T08:36:33.697</time></trkpt><trkpt lat="55.3226790" lon="38.7912890"><time>2020-06-27T08:36:35.707</time></trkpt><trkpt lat="55.3226330" lon="38.7912780"><time>2020-06-27T08:36:37.767</time></trkpt><trkpt lat="55.3225840" lon="38.7912690"><time>2020-06-27T08:36:40.690</time></trkpt><trkpt lat="55.3225170" lon="38.7912420"><time>2020-06-27T08:36:42.473</time></trkpt><trkpt lat="55.3224130" lon="38.7912320"><time>2020-06-27T08:36:44.713</time></trkpt><trkpt lat="55.3223530" lon="38.7912290"><time>2020-06-27T08:36:45.693</time></trkpt><trkpt lat="55.3222920" lon="38.7912080"><time>2020-06-27T08:36:47.653</time></trkpt><trkpt lat="55.3222400" lon="38.7912390"><time>2020-06-27T08:36:49.680</time></trkpt><trkpt lat="55.3221970" lon="38.7912040"><time>2020-06-27T08:36:56.690</time></trkpt><trkpt lat="55.3221490" lon="38.7911470"><time>2020-06-27T08:37:16.697</time></trkpt><trkpt lat="55.3220950" lon="38.7911160"><time>2020-06-27T08:37:19.670</time></trkpt><trkpt lat="55.3220340" lon="38.7911140"><time>2020-06-27T08:37:23.717</time></trkpt><trkpt lat="55.3219690" lon="38.7910810"><time>2020-06-27T08:37:26.703</time></trkpt><trkpt lat="55.3219260" lon="38.7910520"><time>2020-06-27T08:37:28.710</time></trkpt><trkpt lat="55.3218790" lon="38.7910350"><time>2020-06-27T08:37:30.713</time></trkpt><trkpt lat="55.3218320" lon="38.7910230"><time>2020-06-27T08:37:33.707</time></trkpt><trkpt lat="55.3217860" lon="38.7910080"><time>2020-06-27T08:37:35.710</time></trkpt><trkpt lat="55.3217340" lon="38.7910030"><time>2020-06-27T08:37:37.727</time></trkpt><trkpt lat="55.3216790" lon="38.7909970"><time>2020-06-27T08:37:39.720</time></trkpt><trkpt lat="55.3216230" lon="38.7909890"><time>2020-06-27T08:37:41.730</time></trkpt><trkpt lat="55.3215630" lon="38.7909730"><time>2020-06-27T08:37:43.720</time></trkpt><trkpt lat="55.3214970" lon="38.7909570"><time>2020-06-27T08:37:45.763</time></trkpt><trkpt lat="55.3214260" lon="38.7909210"><time>2020-06-27T08:37:47.770</time></trkpt><trkpt lat="55.3213520" lon="38.7909020"><time>2020-06-27T08:37:49.733</time></trkpt><trkpt lat="55.3213020" lon="38.7908490"><time>2020-06-27T08:37:55.727</time></trkpt><trkpt lat="55.3212300" lon="38.7908340"><time>2020-06-27T08:37:57.693</time></trkpt><trkpt lat="55.3211540" lon="38.7908320"><time>2020-06-27T08:37:59.733</time></trkpt><trkpt lat="55.3210810" lon="38.7908370"><time>2020-06-27T08:38:01.717</time></trkpt><trkpt lat="55.3210130" lon="38.7908450"><time>2020-06-27T08:38:03.693</time></trkpt><trkpt lat="55.3209550" lon="38.7908340"><time>2020-06-27T08:38:05.720</time></trkpt><trkpt lat="55.3208980" lon="38.7908160"><time>2020-06-27T08:38:07.697</time></trkpt><trkpt lat="55.3208520" lon="38.7908080"><time>2020-06-27T08:38:08.683</time></trkpt><trkpt lat="55.3207880" lon="38.7907990"><time>2020-06-27T08:38:10.693</time></trkpt><trkpt lat="55.3207350" lon="38.7908000"><time>2020-06-27T08:38:11.467</time></trkpt><trkpt lat="55.3206840" lon="38.7908070"><time>2020-06-27T08:38:12.497</time></trkpt><trkpt lat="55.3206060" lon="38.7907900"><time>2020-06-27T08:38:14.717</time></trkpt><trkpt lat="55.3205360" lon="38.7907840"><time>2020-06-27T08:38:16.720</time></trkpt><trkpt lat="55.3204810" lon="38.7907750"><time>2020-06-27T08:38:19.707</time></trkpt><trkpt lat="55.3204300" lon="38.7907840"><time>2020-06-27T08:38:22.700</time></trkpt><trkpt lat="55.3203740" lon="38.7908300"><time>2020-06-27T08:38:24.477</time></trkpt><trkpt lat="55.3203310" lon="38.7909480"><time>2020-06-27T08:38:26.700</time></trkpt><trkpt lat="55.3203540" lon="38.7910480"><time>2020-06-27T08:38:28.740</time></trkpt><trkpt lat="55.3203880" lon="38.7911330"><time>2020-06-27T08:38:31.700</time></trkpt><trkpt lat="55.3204320" lon="38.7911790"><time>2020-06-27T08:38:33.723</time></trkpt><trkpt lat="55.3204680" lon="38.7912440"><time>2020-06-27T08:38:39.703</time></trkpt><trkpt lat="55.3205110" lon="38.7912740"><time>2020-06-27T08:38:41.703</time></trkpt><trkpt lat="55.3205570" lon="38.7912960"><time>2020-06-27T08:38:43.727</time></trkpt><trkpt lat="55.3206060" lon="38.7913240"><time>2020-06-27T08:38:45.703</time></trkpt><trkpt lat="55.3206700" lon="38.7913750"><time>2020-06-27T08:38:48.690</time></trkpt><trkpt lat="55.3207290" lon="38.7914260"><time>2020-06-27T08:38:51.693</time></trkpt><trkpt lat="55.3208400" lon="38.7914770"><time>2020-06-27T08:38:53.460</time></trkpt><trkpt lat="55.3209080" lon="38.7915450"><time>2020-06-27T08:38:55.440</time></trkpt><trkpt lat="55.3209590" lon="38.7915690"><time>2020-06-27T08:38:57.717</time></trkpt><trkpt lat="55.3210260" lon="38.7916410"><time>2020-06-27T08:38:59.693</time></trkpt><trkpt lat="55.3210730" lon="38.7916820"><time>2020-06-27T08:39:02.697</time></trkpt><trkpt lat="55.3211610" lon="38.7917590"><time>2020-06-27T08:39:04.690</time></trkpt><trkpt lat="55.3212170" lon="38.7917800"><time>2020-06-27T08:39:06.713</time></trkpt><trkpt lat="55.3212630" lon="38.7918230"><time>2020-06-27T08:39:08.673</time></trkpt><trkpt lat="55.3213030" lon="38.7918670"><time>2020-06-27T08:39:09.687</time></trkpt><trkpt lat="55.3213710" lon="38.7918910"><time>2020-06-27T08:39:12.467</time></trkpt><trkpt lat="55.3214330" lon="38.7919450"><time>2020-06-27T08:39:14.457</time></trkpt><trkpt lat="55.3214910" lon="38.7919800"><time>2020-06-27T08:39:16.687</time></trkpt><trkpt lat="55.3215500" lon="38.7920430"><time>2020-06-27T08:39:19.750</time></trkpt><trkpt lat="55.3215910" lon="38.7920780"><time>2020-06-27T08:39:20.710</time></trkpt><trkpt lat="55.3216480" lon="38.7921140"><time>2020-06-27T08:39:22.697</time></trkpt><trkpt lat="55.3217050" lon="38.7921590"><time>2020-06-27T08:39:24.440</time></trkpt><trkpt lat="55.3217490" lon="38.7922110"><time>2020-06-27T08:39:27.703</time></trkpt><trkpt lat="55.3218220" lon="38.7922760"><time>2020-06-27T08:39:30.700</time></trkpt><trkpt lat="55.3218840" lon="38.7923290"><time>2020-06-27T08:39:32.710</time></trkpt><trkpt lat="55.3219350" lon="38.7923730"><time>2020-06-27T08:39:34.723</time></trkpt><trkpt lat="55.3219960" lon="38.7924170"><time>2020-06-27T08:39:37.707</time></trkpt><trkpt lat="55.3220390" lon="38.7924650"><time>2020-06-27T08:39:39.713</time></trkpt><trkpt lat="55.3220830" lon="38.7925090"><time>2020-06-27T08:39:41.700</time></trkpt><trkpt lat="55.3221380" lon="38.7925430"><time>2020-06-27T08:39:43.697</time></trkpt><trkpt lat="55.3221960" lon="38.7925970"><time>2020-06-27T08:39:45.703</time></trkpt><trkpt lat="55.3222460" lon="38.7926420"><time>2020-06-27T08:39:47.737</time></trkpt><trkpt lat="55.3222910" lon="38.7926830"><time>2020-06-27T08:39:49.713</time></trkpt><trkpt lat="55.3223350" lon="38.7927230"><time>2020-06-27T08:39:51.697</time></trkpt><trkpt lat="55.3223780" lon="38.7927620"><time>2020-06-27T08:39:53.687</time></trkpt><trkpt lat="55.3224180" lon="38.7927980"><time>2020-06-27T08:39:55.710</time></trkpt><trkpt lat="55.3224700" lon="38.7928500"><time>2020-06-27T08:39:58.707</time></trkpt><trkpt lat="55.3225170" lon="38.7928830"><time>2020-06-27T08:40:00.727</time></trkpt><trkpt lat="55.3225710" lon="38.7929120"><time>2020-06-27T08:40:02.717</time></trkpt><trkpt lat="55.3226260" lon="38.7929400"><time>2020-06-27T08:40:04.703</time></trkpt><trkpt lat="55.3226830" lon="38.7929800"><time>2020-06-27T08:40:06.710</time></trkpt><trkpt lat="55.3227410" lon="38.7930170"><time>2020-06-27T08:40:08.710</time></trkpt><trkpt lat="55.3227990" lon="38.7930640"><time>2020-06-27T08:40:10.757</time></trkpt><trkpt lat="55.3228580" lon="38.7931050"><time>2020-06-27T08:40:12.477</time></trkpt><trkpt lat="55.3229110" lon="38.7931340"><time>2020-06-27T08:40:14.483</time></trkpt><trkpt lat="55.3229720" lon="38.7931720"><time>2020-06-27T08:40:16.700</time></trkpt><trkpt lat="55.3230260" lon="38.7932090"><time>2020-06-27T08:40:18.700</time></trkpt><trkpt lat="55.3230870" lon="38.7932500"><time>2020-06-27T08:40:20.717</time></trkpt><trkpt lat="55.3231470" lon="38.7932790"><time>2020-06-27T08:40:22.787</time></trkpt><trkpt lat="55.3232030" lon="38.7933060"><time>2020-06-27T08:40:24.693</time></trkpt><trkpt lat="55.3232550" lon="38.7933390"><time>2020-06-27T08:40:26.727</time></trkpt><trkpt lat="55.3232960" lon="38.7933770"><time>2020-06-27T08:40:28.700</time></trkpt><trkpt lat="55.3233400" lon="38.7934210"><time>2020-06-27T08:40:30.697</time></trkpt><trkpt lat="55.3233800" lon="38.7934580"><time>2020-06-27T08:40:32.737</time></trkpt><trkpt lat="55.3234360" lon="38.7935050"><time>2020-06-27T08:40:35.687</time></trkpt><trkpt lat="55.3234900" lon="38.7935390"><time>2020-06-27T08:40:37.720</time></trkpt><trkpt lat="55.3235350" lon="38.7935810"><time>2020-06-27T08:40:39.677</time></trkpt><trkpt lat="55.3235820" lon="38.7936120"><time>2020-06-27T08:40:41.717</time></trkpt><trkpt lat="55.3236300" lon="38.7936300"><time>2020-06-27T08:40:43.720</time></trkpt><trkpt lat="55.3236730" lon="38.7936700"><time>2020-06-27T08:40:45.707</time></trkpt><trkpt lat="55.3237360" lon="38.7937270"><time>2020-06-27T08:40:48.707</time></trkpt><trkpt lat="55.3237820" lon="38.7937470"><time>2020-06-27T08:40:50.483</time></trkpt><trkpt lat="55.3238390" lon="38.7937580"><time>2020-06-27T08:40:52.757</time></trkpt><trkpt lat="55.3238990" lon="38.7937490"><time>2020-06-27T08:40:54.717</time></trkpt><trkpt lat="55.3239440" lon="38.7937410"><time>2020-06-27T08:40:56.700</time></trkpt><trkpt lat="55.3239900" lon="38.7937630"><time>2020-06-27T08:40:58.733</time></trkpt><trkpt lat="55.3240320" lon="38.7938030"><time>2020-06-27T08:41:00.747</time></trkpt><trkpt lat="55.3240760" lon="38.7938460"><time>2020-06-27T08:41:02.717</time></trkpt><trkpt lat="55.3241120" lon="38.7938930"><time>2020-06-27T08:41:04.707</time></trkpt><trkpt lat="55.3241510" lon="38.7939390"><time>2020-06-27T08:41:06.727</time></trkpt><trkpt lat="55.3241970" lon="38.7939850"><time>2020-06-27T08:41:08.693</time></trkpt><trkpt lat="55.3242400" lon="38.7940180"><time>2020-06-27T08:41:11.737</time></trkpt><trkpt lat="55.3242910" lon="38.7940480"><time>2020-06-27T08:41:14.450</time></trkpt><trkpt lat="55.3243460" lon="38.7940930"><time>2020-06-27T08:41:17.717</time></trkpt><trkpt lat="55.3243910" lon="38.7941200"><time>2020-06-27T08:41:19.700</time></trkpt><trkpt lat="55.3244560" lon="38.7941620"><time>2020-06-27T08:41:22.717</time></trkpt><trkpt lat="55.3245070" lon="38.7942050"><time>2020-06-27T08:41:25.747</time></trkpt><trkpt lat="55.3245650" lon="38.7942300"><time>2020-06-27T08:41:27.723</time></trkpt><trkpt lat="55.3246180" lon="38.7942620"><time>2020-06-27T08:41:29.720</time></trkpt><trkpt lat="55.3246650" lon="38.7943000"><time>2020-06-27T08:41:31.693</time></trkpt><trkpt lat="55.3247140" lon="38.7943150"><time>2020-06-27T08:41:33.703</time></trkpt><trkpt lat="55.3247670" lon="38.7943540"><time>2020-06-27T08:41:35.727</time></trkpt><trkpt lat="55.3248190" lon="38.7944070"><time>2020-06-27T08:41:37.717</time></trkpt><trkpt lat="55.3248700" lon="38.7944310"><time>2020-06-27T08:41:39.693</time></trkpt><trkpt lat="55.3249230" lon="38.7944530"><time>2020-06-27T08:41:41.703</time></trkpt><trkpt lat="55.3249770" lon="38.7944590"><time>2020-06-27T08:41:43.693</time></trkpt><trkpt lat="55.3250230" lon="38.7944500"><time>2020-06-27T08:41:45.467</time></trkpt><trkpt lat="55.3250880" lon="38.7944370"><time>2020-06-27T08:41:48.717</time></trkpt><trkpt lat="55.3251390" lon="38.7944720"><time>2020-06-27T08:41:57.703</time></trkpt><trkpt lat="55.3251190" lon="38.7945540"><time>2020-06-27T08:42:07.703</time></trkpt><trkpt lat="55.3251070" lon="38.7946360"><time>2020-06-27T08:42:09.483</time></trkpt><trkpt lat="55.3250970" lon="38.7947450"><time>2020-06-27T08:42:12.467</time></trkpt><trkpt lat="55.3250900" lon="38.7948250"><time>2020-06-27T08:42:14.697</time></trkpt><trkpt lat="55.3250680" lon="38.7949380"><time>2020-06-27T08:42:15.670</time></trkpt><trkpt lat="55.3250460" lon="38.7950520"><time>2020-06-27T08:42:17.653</time></trkpt><trkpt lat="55.3250140" lon="38.7951760"><time>2020-06-27T08:42:19.733</time></trkpt><trkpt lat="55.3249670" lon="38.7952980"><time>2020-06-27T08:42:21.687</time></trkpt><trkpt lat="55.3249290" lon="38.7954120"><time>2020-06-27T08:42:23.713</time></trkpt><trkpt lat="55.3248830" lon="38.7955040"><time>2020-06-27T08:42:25.670</time></trkpt><trkpt lat="55.3248360" lon="38.7955420"><time>2020-06-27T08:42:27.697</time></trkpt><trkpt lat="55.3247890" lon="38.7956020"><time>2020-06-27T08:42:29.697</time></trkpt><trkpt lat="55.3247440" lon="38.7956740"><time>2020-06-27T08:42:31.693</time></trkpt><trkpt lat="55.3246720" lon="38.7957490"><time>2020-06-27T08:42:33.690</time></trkpt><trkpt lat="55.3246350" lon="38.7957940"><time>2020-06-27T08:42:34.707</time></trkpt><trkpt lat="55.3245810" lon="38.7958720"><time>2020-06-27T08:42:36.697</time></trkpt><trkpt lat="55.3245290" lon="38.7959170"><time>2020-06-27T08:42:38.710</time></trkpt><trkpt lat="55.3244620" lon="38.7959230"><time>2020-06-27T08:42:40.463</time></trkpt><trkpt lat="55.3243860" lon="38.7959120"><time>2020-06-27T08:42:42.687</time></trkpt><trkpt lat="55.3243130" lon="38.7959060"><time>2020-06-27T08:42:44.700</time></trkpt><trkpt lat="55.3242510" lon="38.7959300"><time>2020-06-27T08:42:46.707</time></trkpt><trkpt lat="55.3241930" lon="38.7959830"><time>2020-06-27T08:42:48.697</time></trkpt><trkpt lat="55.3241300" lon="38.7960340"><time>2020-06-27T08:42:50.457</time></trkpt><trkpt lat="55.3240800" lon="38.7960870"><time>2020-06-27T08:42:52.687</time></trkpt><trkpt lat="55.3240320" lon="38.7961460"><time>2020-06-27T08:42:54.693</time></trkpt><trkpt lat="55.3239940" lon="38.7962000"><time>2020-06-27T08:42:56.680</time></trkpt><trkpt lat="55.3239540" lon="38.7962660"><time>2020-06-27T08:42:58.707</time></trkpt><trkpt lat="55.3239070" lon="38.7963310"><time>2020-06-27T08:43:01.693</time></trkpt><trkpt lat="55.3238860" lon="38.7964110"><time>2020-06-27T08:43:04.737</time></trkpt><trkpt lat="55.3238260" lon="38.7964940"><time>2020-06-27T08:43:07.707</time></trkpt><trkpt lat="55.3237930" lon="38.7965500"><time>2020-06-27T08:43:08.717</time></trkpt><trkpt lat="55.3237470" lon="38.7966250"><time>2020-06-27T08:43:10.730</time></trkpt><trkpt lat="55.3237020" lon="38.7967050"><time>2020-06-27T08:43:14.457</time></trkpt><trkpt lat="55.3236570" lon="38.7967710"><time>2020-06-27T08:43:54.723</time></trkpt><trkpt lat="55.3236170" lon="38.7968250"><time>2020-06-27T08:43:56.707</time></trkpt><trkpt lat="55.3235710" lon="38.7969060"><time>2020-06-27T08:43:59.703</time></trkpt><trkpt lat="55.3235180" lon="38.7969330"><time>2020-06-27T08:44:02.693</time></trkpt><trkpt lat="55.3234710" lon="38.7968970"><time>2020-06-27T08:44:06.727</time></trkpt><trkpt lat="55.3234120" lon="38.7969120"><time>2020-06-27T08:44:08.720</time></trkpt><trkpt lat="55.3233550" lon="38.7969160"><time>2020-06-27T08:44:10.737</time></trkpt><trkpt lat="55.3233000" lon="38.7969050"><time>2020-06-27T08:44:12.710</time></trkpt><trkpt lat="55.3232480" lon="38.7968900"><time>2020-06-27T08:44:14.500</time></trkpt><trkpt lat="55.3231930" lon="38.7969210"><time>2020-06-27T08:44:16.717</time></trkpt><trkpt lat="55.3231340" lon="38.7969370"><time>2020-06-27T08:44:19.693</time></trkpt><trkpt lat="55.3228130" lon="38.7968280"><time>2020-06-27T08:44:20.683</time></trkpt><trkpt lat="55.3227820" lon="38.7967420"><time>2020-06-27T08:44:22.437</time></trkpt><trkpt lat="55.3227360" lon="38.7967160"><time>2020-06-27T08:44:23.720</time></trkpt><trkpt lat="55.3226780" lon="38.7967050"><time>2020-06-27T08:44:25.677</time></trkpt><trkpt lat="55.3226140" lon="38.7966740"><time>2020-06-27T08:44:26.670</time></trkpt><trkpt lat="55.3225480" lon="38.7966490"><time>2020-06-27T08:44:28.700</time></trkpt><trkpt lat="55.3224760" lon="38.7966350"><time>2020-06-27T08:44:30.730</time></trkpt><trkpt lat="55.3224110" lon="38.7966210"><time>2020-06-27T08:44:32.717</time></trkpt><trkpt lat="55.3223610" lon="38.7966160"><time>2020-06-27T08:44:33.690</time></trkpt><trkpt lat="55.3222880" lon="38.7966170"><time>2020-06-27T08:44:35.700</time></trkpt><trkpt lat="55.3222110" lon="38.7966320"><time>2020-06-27T08:44:37.767</time></trkpt><trkpt lat="55.3221610" lon="38.7966550"><time>2020-06-27T08:44:38.720</time></trkpt><trkpt lat="55.3221050" lon="38.7965580"><time>2020-06-27T08:44:39.697</time></trkpt><trkpt lat="55.3220430" lon="38.7965690"><time>2020-06-27T08:44:41.670</time></trkpt><trkpt lat="55.3219760" lon="38.7965480"><time>2020-06-27T08:44:43.677</time></trkpt><trkpt lat="55.3218880" lon="38.7965490"><time>2020-06-27T08:44:45.727</time></trkpt><trkpt lat="55.3218350" lon="38.7965870"><time>2020-06-27T08:44:46.687</time></trkpt><trkpt lat="55.3217740" lon="38.7965810"><time>2020-06-27T08:44:49.707</time></trkpt><trkpt lat="55.3217100" lon="38.7966050"><time>2020-06-27T08:44:52.700</time></trkpt><trkpt lat="55.3216630" lon="38.7966220"><time>2020-06-27T08:44:54.473</time></trkpt><trkpt lat="55.3215840" lon="38.7966630"><time>2020-06-27T08:44:56.727</time></trkpt><trkpt lat="55.3215210" lon="38.7966920"><time>2020-06-27T08:44:57.710</time></trkpt><trkpt lat="55.3214170" lon="38.7967330"><time>2020-06-27T08:44:58.687</time></trkpt><trkpt lat="55.3213460" lon="38.7967840"><time>2020-06-27T08:45:00.657</time></trkpt><trkpt lat="55.3213010" lon="38.7968230"><time>2020-06-27T08:45:01.687</time></trkpt><trkpt lat="55.3212530" lon="38.7968610"><time>2020-06-27T08:45:02.687</time></trkpt><trkpt lat="55.3211770" lon="38.7969080"><time>2020-06-27T08:45:04.683</time></trkpt><trkpt lat="55.3211360" lon="38.7969510"><time>2020-06-27T08:45:06.713</time></trkpt><trkpt lat="55.3210690" lon="38.7970480"><time>2020-06-27T08:45:08.717</time></trkpt><trkpt lat="55.3210030" lon="38.7971210"><time>2020-06-27T08:45:09.687</time></trkpt><trkpt lat="55.3209330" lon="38.7972050"><time>2020-06-27T08:45:11.660</time></trkpt><trkpt lat="55.3208680" lon="38.7972700"><time>2020-06-27T08:45:13.447</time></trkpt><trkpt lat="55.3207890" lon="38.7973290"><time>2020-06-27T08:45:15.460</time></trkpt><trkpt lat="55.3207290" lon="38.7973990"><time>2020-06-27T08:45:17.667</time></trkpt><trkpt lat="55.3206840" lon="38.7974440"><time>2020-06-27T08:45:19.697</time></trkpt><trkpt lat="55.3206000" lon="38.7974830"><time>2020-06-27T08:45:21.683</time></trkpt><trkpt lat="55.3205270" lon="38.7975580"><time>2020-06-27T08:45:23.683</time></trkpt><trkpt lat="55.3204620" lon="38.7976350"><time>2020-06-27T08:45:25.670</time></trkpt><trkpt lat="55.3204250" lon="38.7976870"><time>2020-06-27T08:45:27.680</time></trkpt><trkpt lat="55.3203710" lon="38.7977520"><time>2020-06-27T08:45:29.667</time></trkpt><trkpt lat="55.3203030" lon="38.7978210"><time>2020-06-27T08:45:31.697</time></trkpt><trkpt lat="55.3202350" lon="38.7978660"><time>2020-06-27T08:45:33.683</time></trkpt><trkpt lat="55.3201590" lon="38.7978460"><time>2020-06-27T08:45:34.717</time></trkpt><trkpt lat="55.3200750" lon="38.7978620"><time>2020-06-27T08:45:37.683</time></trkpt><trkpt lat="55.3200080" lon="38.7978760"><time>2020-06-27T08:45:38.457</time></trkpt><trkpt lat="55.3199780" lon="38.7979720"><time>2020-06-27T08:45:40.680</time></trkpt><trkpt lat="55.3199290" lon="38.7980160"><time>2020-06-27T08:45:42.707</time></trkpt><trkpt lat="55.3198880" lon="38.7980880"><time>2020-06-27T08:45:44.707</time></trkpt><trkpt lat="55.3198510" lon="38.7981490"><time>2020-06-27T08:45:46.700</time></trkpt><trkpt lat="55.3197800" lon="38.7981740"><time>2020-06-27T08:45:48.710</time></trkpt><trkpt lat="55.3197350" lon="38.7982140"><time>2020-06-27T08:45:49.777</time></trkpt><trkpt lat="55.3196850" lon="38.7982630"><time>2020-06-27T08:45:50.840</time></trkpt><trkpt lat="55.3196180" lon="38.7983420"><time>2020-06-27T08:45:51.700</time></trkpt><trkpt lat="55.3195620" lon="38.7983890"><time>2020-06-27T08:45:52.670</time></trkpt><trkpt lat="55.3195100" lon="38.7984310"><time>2020-06-27T08:45:53.673</time></trkpt><trkpt lat="55.3194590" lon="38.7984590"><time>2020-06-27T08:45:54.693</time></trkpt><trkpt lat="55.3194120" lon="38.7984900"><time>2020-06-27T08:45:55.670</time></trkpt><trkpt lat="55.3193380" lon="38.7985010"><time>2020-06-27T08:45:57.450</time></trkpt><trkpt lat="55.3192870" lon="38.7985570"><time>2020-06-27T08:45:59.670</time></trkpt><trkpt lat="55.3192490" lon="38.7986100"><time>2020-06-27T08:46:18.687</time></trkpt><trkpt lat="55.3191830" lon="38.7986000"><time>2020-06-27T08:46:21.693</time></trkpt><trkpt lat="55.3191250" lon="38.7986680"><time>2020-06-27T08:46:23.683</time></trkpt><trkpt lat="55.3190830" lon="38.7987310"><time>2020-06-27T08:46:25.663</time></trkpt><trkpt lat="55.3190460" lon="38.7988210"><time>2020-06-27T08:46:28.693</time></trkpt><trkpt lat="55.3190190" lon="38.7988890"><time>2020-06-27T08:46:29.483</time></trkpt><trkpt lat="55.3189780" lon="38.7990420"><time>2020-06-27T08:46:30.707</time></trkpt><trkpt lat="55.3189630" lon="38.7991300"><time>2020-06-27T08:46:31.663</time></trkpt><trkpt lat="55.3189360" lon="38.7992180"><time>2020-06-27T08:46:33.673</time></trkpt><trkpt lat="55.3189120" lon="38.7993180"><time>2020-06-27T08:46:35.673</time></trkpt><trkpt lat="55.3188850" lon="38.7994190"><time>2020-06-27T08:46:37.673</time></trkpt><trkpt lat="55.3188490" lon="38.7995100"><time>2020-06-27T08:46:39.680</time></trkpt><trkpt lat="55.3188100" lon="38.7995900"><time>2020-06-27T08:46:42.450</time></trkpt><trkpt lat="55.3187730" lon="38.7996860"><time>2020-06-27T08:46:44.707</time></trkpt><trkpt lat="55.3187340" lon="38.7997970"><time>2020-06-27T08:46:46.683</time></trkpt><trkpt lat="55.3187380" lon="38.7999380"><time>2020-06-27T08:46:48.650</time></trkpt><trkpt lat="55.3187320" lon="38.8001020"><time>2020-06-27T08:46:50.670</time></trkpt><trkpt lat="55.3187330" lon="38.8001850"><time>2020-06-27T08:46:51.667</time></trkpt><trkpt lat="55.3187400" lon="38.8002770"><time>2020-06-27T08:46:52.697</time></trkpt><trkpt lat="55.3187210" lon="38.8004050"><time>2020-06-27T08:46:54.690</time></trkpt><trkpt lat="55.3187220" lon="38.8005030"><time>2020-06-27T08:46:55.703</time></trkpt><trkpt lat="55.3187170" lon="38.8005950"><time>2020-06-27T08:46:56.690</time></trkpt><trkpt lat="55.3187090" lon="38.8006900"><time>2020-06-27T08:46:57.463</time></trkpt><trkpt lat="55.3187060" lon="38.8008240"><time>2020-06-27T08:46:59.703</time></trkpt><trkpt lat="55.3186860" lon="38.8009520"><time>2020-06-27T08:47:01.700</time></trkpt><trkpt lat="55.3186600" lon="38.8010780"><time>2020-06-27T08:47:03.697</time></trkpt><trkpt lat="55.3186360" lon="38.8012360"><time>2020-06-27T08:47:05.700</time></trkpt><trkpt lat="55.3185730" lon="38.8013250"><time>2020-06-27T08:47:07.690</time></trkpt><trkpt lat="55.3185080" lon="38.8013900"><time>2020-06-27T08:47:09.697</time></trkpt><trkpt lat="55.3184670" lon="38.8014660"><time>2020-06-27T08:47:11.683</time></trkpt><trkpt lat="55.3183750" lon="38.8014860"><time>2020-06-27T08:47:12.693</time></trkpt><trkpt lat="55.3183110" lon="38.8015010"><time>2020-06-27T08:47:13.707</time></trkpt><trkpt lat="55.3182330" lon="38.8014950"><time>2020-06-27T08:47:14.703</time></trkpt><trkpt lat="55.3181570" lon="38.8014750"><time>2020-06-27T08:47:15.453</time></trkpt><trkpt lat="55.3180780" lon="38.8015240"><time>2020-06-27T08:47:17.453</time></trkpt><trkpt lat="55.3180170" lon="38.8014770"><time>2020-06-27T08:47:18.457</time></trkpt><trkpt lat="55.3179710" lon="38.8014850"><time>2020-06-27T08:47:21.460</time></trkpt><trkpt lat="55.3179250" lon="38.8014700"><time>2020-06-27T08:47:26.697</time></trkpt><trkpt lat="55.3178800" lon="38.8014300"><time>2020-06-27T08:47:28.680</time></trkpt><trkpt lat="55.3178230" lon="38.8014040"><time>2020-06-27T08:47:30.700</time></trkpt><trkpt lat="55.3177900" lon="38.8013420"><time>2020-06-27T08:47:32.693</time></trkpt><trkpt lat="55.3177460" lon="38.8012330"><time>2020-06-27T08:47:34.703</time></trkpt><trkpt lat="55.3177250" lon="38.8011430"><time>2020-06-27T08:47:36.710</time></trkpt><trkpt lat="55.3176800" lon="38.8010980"><time>2020-06-27T08:47:37.683</time></trkpt><trkpt lat="55.3176680" lon="38.8010150"><time>2020-06-27T08:47:38.463</time></trkpt><trkpt lat="55.3176660" lon="38.8009280"><time>2020-06-27T08:47:41.717</time></trkpt><trkpt lat="55.3176250" lon="38.8008260"><time>2020-06-27T08:47:43.673</time></trkpt><trkpt lat="55.3175960" lon="38.8006760"><time>2020-06-27T08:47:45.750</time></trkpt><trkpt lat="55.3175750" lon="38.8004830"><time>2020-06-27T08:47:46.687</time></trkpt><trkpt lat="55.3175600" lon="38.8003420"><time>2020-06-27T08:47:48.437</time></trkpt><trkpt lat="55.3175540" lon="38.8002550"><time>2020-06-27T08:47:49.683</time></trkpt><trkpt lat="55.3175410" lon="38.8001630"><time>2020-06-27T08:47:51.683</time></trkpt><trkpt lat="55.3175050" lon="38.8000840"><time>2020-06-27T08:47:53.710</time></trkpt><trkpt lat="55.3174900" lon="38.8000090"><time>2020-06-27T08:47:55.663</time></trkpt><trkpt lat="55.3174720" lon="38.7999360"><time>2020-06-27T08:47:57.680</time></trkpt><trkpt lat="55.3174690" lon="38.7998110"><time>2020-06-27T08:47:58.443</time></trkpt><trkpt lat="55.3174390" lon="38.7996960"><time>2020-06-27T08:48:00.660</time></trkpt><trkpt lat="55.3174090" lon="38.7996160"><time>2020-06-27T08:48:01.667</time></trkpt><trkpt lat="55.3173920" lon="38.7994880"><time>2020-06-27T08:48:03.687</time></trkpt><trkpt lat="55.3173380" lon="38.7993870"><time>2020-06-27T08:48:05.690</time></trkpt><trkpt lat="55.3173080" lon="38.7993210"><time>2020-06-27T08:48:07.693</time></trkpt><trkpt lat="55.3172660" lon="38.7992760"><time>2020-06-27T08:48:10.673</time></trkpt><trkpt lat="55.3172310" lon="38.7992070"><time>2020-06-27T08:48:12.703</time></trkpt><trkpt lat="55.3171880" lon="38.7991590"><time>2020-06-27T08:48:17.443</time></trkpt><trkpt lat="55.3171670" lon="38.7990830"><time>2020-06-27T08:48:20.687</time></trkpt><trkpt lat="55.3171400" lon="38.7990150"><time>2020-06-27T08:48:22.683</time></trkpt><trkpt lat="55.3171000" lon="38.7989620"><time>2020-06-27T08:48:24.697</time></trkpt><trkpt lat="55.3170540" lon="38.7989260"><time>2020-06-27T08:48:26.697</time></trkpt><trkpt lat="55.3170100" lon="38.7988970"><time>2020-06-27T08:48:28.697</time></trkpt><trkpt lat="55.3169440" lon="38.7988610"><time>2020-06-27T08:48:30.693</time></trkpt><trkpt lat="55.3168910" lon="38.7988500"><time>2020-06-27T08:48:32.713</time></trkpt><trkpt lat="55.3167360" lon="38.7989020"><time>2020-06-27T08:48:34.687</time></trkpt><trkpt lat="55.3166660" lon="38.7989520"><time>2020-06-27T08:48:36.683</time></trkpt><trkpt lat="55.3166030" lon="38.7990040"><time>2020-06-27T08:48:38.677</time></trkpt><trkpt lat="55.3165350" lon="38.7990530"><time>2020-06-27T08:48:40.697</time></trkpt><trkpt lat="55.3164900" lon="38.7990780"><time>2020-06-27T08:48:41.680</time></trkpt><trkpt lat="55.3164450" lon="38.7991240"><time>2020-06-27T08:48:42.687</time></trkpt><trkpt lat="55.3164070" lon="38.7991740"><time>2020-06-27T08:48:43.713</time></trkpt><trkpt lat="55.3163640" lon="38.7992070"><time>2020-06-27T08:48:44.707</time></trkpt><trkpt lat="55.3162890" lon="38.7992840"><time>2020-06-27T08:48:46.707</time></trkpt><trkpt lat="55.3162480" lon="38.7993210"><time>2020-06-27T08:48:47.700</time></trkpt><trkpt lat="55.3162020" lon="38.7993540"><time>2020-06-27T08:48:48.447</time></trkpt><trkpt lat="55.3161590" lon="38.7993960"><time>2020-06-27T08:48:49.717</time></trkpt><trkpt lat="55.3161140" lon="38.7994300"><time>2020-06-27T08:48:50.687</time></trkpt><trkpt lat="55.3160670" lon="38.7994670"><time>2020-06-27T08:48:51.693</time></trkpt><trkpt lat="55.3160220" lon="38.7995070"><time>2020-06-27T08:48:52.687</time></trkpt><trkpt lat="55.3159710" lon="38.7995720"><time>2020-06-27T08:48:53.690</time></trkpt><trkpt lat="55.3159300" lon="38.7996210"><time>2020-06-27T08:48:54.697</time></trkpt><trkpt lat="55.3158970" lon="38.7996730"><time>2020-06-27T08:48:55.683</time></trkpt><trkpt lat="55.3158570" lon="38.7997340"><time>2020-06-27T08:48:56.680</time></trkpt><trkpt lat="55.3158110" lon="38.7997870"><time>2020-06-27T08:48:57.707</time></trkpt><trkpt lat="55.3157690" lon="38.7998370"><time>2020-06-27T08:48:58.697</time></trkpt><trkpt lat="55.3157340" lon="38.7999000"><time>2020-06-27T08:48:59.700</time></trkpt><trkpt lat="55.3156910" lon="38.7999310"><time>2020-06-27T08:49:00.693</time></trkpt><trkpt lat="55.3156520" lon="38.7999850"><time>2020-06-27T08:49:01.697</time></trkpt><trkpt lat="55.3156150" lon="38.8000390"><time>2020-06-27T08:49:02.683</time></trkpt><trkpt lat="55.3155730" lon="38.8000970"><time>2020-06-27T08:49:03.700</time></trkpt><trkpt lat="55.3155280" lon="38.8001500"><time>2020-06-27T08:49:04.693</time></trkpt><trkpt lat="55.3154800" lon="38.8001900"><time>2020-06-27T08:49:05.693</time></trkpt><trkpt lat="55.3154240" lon="38.8002070"><time>2020-06-27T08:49:06.693</time></trkpt><trkpt lat="55.3153750" lon="38.8001970"><time>2020-06-27T08:49:07.707</time></trkpt><trkpt lat="55.3152870" lon="38.8001670"><time>2020-06-27T08:49:09.837</time></trkpt><trkpt lat="55.3152450" lon="38.8001380"><time>2020-06-27T08:49:10.873</time></trkpt><trkpt lat="55.3151490" lon="38.8000970"><time>2020-06-27T08:49:12.683</time></trkpt><trkpt lat="55.3150950" lon="38.8000790"><time>2020-06-27T08:49:13.690</time></trkpt><trkpt lat="55.3150410" lon="38.8000500"><time>2020-06-27T08:49:14.680</time></trkpt><trkpt lat="55.3149860" lon="38.8000190"><time>2020-06-27T08:49:15.693</time></trkpt><trkpt lat="55.3149100" lon="38.7999610"><time>2020-06-27T08:49:17.447</time></trkpt><trkpt lat="55.3148690" lon="38.7999130"><time>2020-06-27T08:49:18.733</time></trkpt><trkpt lat="55.3148250" lon="38.7998580"><time>2020-06-27T08:49:19.693</time></trkpt><trkpt lat="55.3147730" lon="38.7998180"><time>2020-06-27T08:49:20.673</time></trkpt><trkpt lat="55.3147380" lon="38.7997680"><time>2020-06-27T08:49:21.697</time></trkpt><trkpt lat="55.3146710" lon="38.7996810"><time>2020-06-27T08:49:23.697</time></trkpt><trkpt lat="55.3146000" lon="38.7996180"><time>2020-06-27T08:49:25.680</time></trkpt><trkpt lat="55.3145570" lon="38.7995820"><time>2020-06-27T08:49:26.680</time></trkpt><trkpt lat="55.3145150" lon="38.7995460"><time>2020-06-27T08:49:27.697</time></trkpt><trkpt lat="55.3144290" lon="38.7994780"><time>2020-06-27T08:49:29.680</time></trkpt><trkpt lat="55.3143870" lon="38.7994460"><time>2020-06-27T08:49:30.683</time></trkpt><trkpt lat="55.3143450" lon="38.7994130"><time>2020-06-27T08:49:31.703</time></trkpt><trkpt lat="55.3143020" lon="38.7993720"><time>2020-06-27T08:49:32.697</time></trkpt><trkpt lat="55.3142250" lon="38.7993070"><time>2020-06-27T08:49:34.677</time></trkpt><trkpt lat="55.3141830" lon="38.7992700"><time>2020-06-27T08:49:35.683</time></trkpt><trkpt lat="55.3141090" lon="38.7991890"><time>2020-06-27T08:49:37.693</time></trkpt><trkpt lat="55.3140620" lon="38.7991530"><time>2020-06-27T08:49:38.680</time></trkpt><trkpt lat="55.3139950" lon="38.7990690"><time>2020-06-27T08:49:40.677</time></trkpt><trkpt lat="55.3139580" lon="38.7990220"><time>2020-06-27T08:49:41.670</time></trkpt><trkpt lat="55.3138900" lon="38.7989760"><time>2020-06-27T08:49:43.717</time></trkpt><trkpt lat="55.3138160" lon="38.7989120"><time>2020-06-27T08:49:45.683</time></trkpt><trkpt lat="55.3137590" lon="38.7988540"><time>2020-06-27T08:49:47.697</time></trkpt><trkpt lat="55.3137150" lon="38.7988190"><time>2020-06-27T08:49:48.683</time></trkpt><trkpt lat="55.3136510" lon="38.7987590"><time>2020-06-27T08:49:50.690</time></trkpt><trkpt lat="55.3135700" lon="38.7987170"><time>2020-06-27T08:49:52.683</time></trkpt><trkpt lat="55.3135260" lon="38.7987000"><time>2020-06-27T08:49:53.683</time></trkpt><trkpt lat="55.3134810" lon="38.7986600"><time>2020-06-27T08:49:54.693</time></trkpt><trkpt lat="55.3134140" lon="38.7986300"><time>2020-06-27T08:49:56.687</time></trkpt><trkpt lat="55.3133690" lon="38.7986090"><time>2020-06-27T08:49:57.693</time></trkpt><trkpt lat="55.3133140" lon="38.7986060"><time>2020-06-27T08:49:58.697</time></trkpt><trkpt lat="55.3132660" lon="38.7985970"><time>2020-06-27T08:49:59.713</time></trkpt><trkpt lat="55.3131930" lon="38.7985820"><time>2020-06-27T08:50:01.693</time></trkpt><trkpt lat="55.3131030" lon="38.7985480"><time>2020-06-27T08:50:03.700</time></trkpt><trkpt lat="55.3130580" lon="38.7985420"><time>2020-06-27T08:50:04.467</time></trkpt><trkpt lat="55.3129510" lon="38.7985320"><time>2020-06-27T08:50:06.683</time></trkpt><trkpt lat="55.3128730" lon="38.7985220"><time>2020-06-27T08:50:08.453</time></trkpt><trkpt lat="55.3128260" lon="38.7985230"><time>2020-06-27T08:50:11.687</time></trkpt><trkpt lat="55.3127790" lon="38.7985160"><time>2020-06-27T08:50:12.693</time></trkpt><trkpt lat="55.3126460" lon="38.7984880"><time>2020-06-27T08:50:13.687</time></trkpt><trkpt lat="55.3125570" lon="38.7984650"><time>2020-06-27T08:50:15.670</time></trkpt><trkpt lat="55.3124920" lon="38.7983990"><time>2020-06-27T08:50:17.450</time></trkpt><trkpt lat="55.3124040" lon="38.7983580"><time>2020-06-27T08:50:19.693</time></trkpt><trkpt lat="55.3123280" lon="38.7983470"><time>2020-06-27T08:50:21.453</time></trkpt><trkpt lat="55.3122640" lon="38.7983780"><time>2020-06-27T08:50:23.690</time></trkpt><trkpt lat="55.3121990" lon="38.7984390"><time>2020-06-27T08:50:25.683</time></trkpt><trkpt lat="55.3121390" lon="38.7985000"><time>2020-06-27T08:50:27.680</time></trkpt><trkpt lat="55.3120600" lon="38.7985460"><time>2020-06-27T08:50:29.673</time></trkpt><trkpt lat="55.3119950" lon="38.7985920"><time>2020-06-27T08:50:31.707</time></trkpt><trkpt lat="55.3119310" lon="38.7986220"><time>2020-06-27T08:50:33.670</time></trkpt><trkpt lat="55.3118710" lon="38.7986320"><time>2020-06-27T08:50:36.703</time></trkpt><trkpt lat="55.3118250" lon="38.7986460"><time>2020-06-27T08:50:38.700</time></trkpt><trkpt lat="55.3117490" lon="38.7986850"><time>2020-06-27T08:50:40.703</time></trkpt><trkpt lat="55.3116560" lon="38.7987240"><time>2020-06-27T08:50:42.460</time></trkpt><trkpt lat="55.3115880" lon="38.7987570"><time>2020-06-27T08:50:44.677</time></trkpt><trkpt lat="55.3115230" lon="38.7987980"><time>2020-06-27T08:50:46.687</time></trkpt><trkpt lat="55.3114520" lon="38.7988490"><time>2020-06-27T08:50:48.673</time></trkpt><trkpt lat="55.3113950" lon="38.7988990"><time>2020-06-27T08:50:50.693</time></trkpt><trkpt lat="55.3113240" lon="38.7989330"><time>2020-06-27T08:50:53.697</time></trkpt><trkpt lat="55.3112640" lon="38.7989860"><time>2020-06-27T08:50:54.680</time></trkpt><trkpt lat="55.3112060" lon="38.7990370"><time>2020-06-27T08:50:56.670</time></trkpt><trkpt lat="55.3111400" lon="38.7990920"><time>2020-06-27T08:50:58.673</time></trkpt><trkpt lat="55.3110700" lon="38.7991570"><time>2020-06-27T08:51:00.680</time></trkpt><trkpt lat="55.3110290" lon="38.7991930"><time>2020-06-27T08:51:01.697</time></trkpt><trkpt lat="55.3109860" lon="38.7992280"><time>2020-06-27T08:51:02.690</time></trkpt><trkpt lat="55.3109460" lon="38.7992690"><time>2020-06-27T08:51:03.690</time></trkpt><trkpt lat="55.3109020" lon="38.7993090"><time>2020-06-27T08:51:04.737</time></trkpt><trkpt lat="55.3108380" lon="38.7993950"><time>2020-06-27T08:51:06.687</time></trkpt><trkpt lat="55.3108020" lon="38.7994450"><time>2020-06-27T08:51:07.687</time></trkpt><trkpt lat="55.3107340" lon="38.7995150"><time>2020-06-27T08:51:09.703</time></trkpt><trkpt lat="55.3106780" lon="38.7995770"><time>2020-06-27T08:51:11.687</time></trkpt><trkpt lat="55.3106360" lon="38.7996540"><time>2020-06-27T08:51:13.707</time></trkpt><trkpt lat="55.3105830" lon="38.7997330"><time>2020-06-27T08:51:15.723</time></trkpt><trkpt lat="55.3105350" lon="38.7997770"><time>2020-06-27T08:51:17.453</time></trkpt><trkpt lat="55.3104650" lon="38.7998400"><time>2020-06-27T08:51:18.450</time></trkpt><trkpt lat="55.3103890" lon="38.7999040"><time>2020-06-27T08:51:19.447</time></trkpt><trkpt lat="55.3103210" lon="38.8000020"><time>2020-06-27T08:51:21.677</time></trkpt><trkpt lat="55.3103020" lon="38.8001450"><time>2020-06-27T08:51:23.667</time></trkpt><trkpt lat="55.3103010" lon="38.8002270"><time>2020-06-27T08:51:24.683</time></trkpt><trkpt lat="55.3102990" lon="38.8003200"><time>2020-06-27T08:51:25.680</time></trkpt><trkpt lat="55.3103000" lon="38.8004010"><time>2020-06-27T08:51:26.690</time></trkpt><trkpt lat="55.3103060" lon="38.8005270"><time>2020-06-27T08:51:28.697</time></trkpt><trkpt lat="55.3103220" lon="38.8006280"><time>2020-06-27T08:51:30.687</time></trkpt><trkpt lat="55.3103360" lon="38.8007030"><time>2020-06-27T08:51:32.687</time></trkpt><trkpt lat="55.3103720" lon="38.8008080"><time>2020-06-27T08:51:35.697</time></trkpt><trkpt lat="55.3104090" lon="38.8008970"><time>2020-06-27T08:51:37.720</time></trkpt><trkpt lat="55.3104430" lon="38.8009930"><time>2020-06-27T08:51:39.767</time></trkpt><trkpt lat="55.3104660" lon="38.8010800"><time>2020-06-27T08:51:41.670</time></trkpt><trkpt lat="55.3104900" lon="38.8011760"><time>2020-06-27T08:51:43.670</time></trkpt><trkpt lat="55.3105200" lon="38.8012860"><time>2020-06-27T08:51:46.453</time></trkpt><trkpt lat="55.3105450" lon="38.8013850"><time>2020-06-27T08:51:49.673</time></trkpt><trkpt lat="55.3105710" lon="38.8014580"><time>2020-06-27T08:51:52.727</time></trkpt><trkpt lat="55.3105970" lon="38.8015520"><time>2020-06-27T08:51:55.690</time></trkpt><trkpt lat="55.3106200" lon="38.8016460"><time>2020-06-27T08:51:58.690</time></trkpt><trkpt lat="55.3106460" lon="38.8017450"><time>2020-06-27T08:52:01.717</time></trkpt><trkpt lat="55.3106690" lon="38.8018400"><time>2020-06-27T08:52:04.720</time></trkpt><trkpt lat="55.3106600" lon="38.8019280"><time>2020-06-27T08:52:07.693</time></trkpt><trkpt lat="55.3106500" lon="38.8020180"><time>2020-06-27T08:52:10.717</time></trkpt><trkpt lat="55.3106530" lon="38.8021270"><time>2020-06-27T08:52:13.703</time></trkpt><trkpt lat="55.3106630" lon="38.8022270"><time>2020-06-27T08:52:16.710</time></trkpt><trkpt lat="55.3106760" lon="38.8023170"><time>2020-06-27T08:52:19.477</time></trkpt><trkpt lat="55.3106890" lon="38.8024190"><time>2020-06-27T08:52:22.737</time></trkpt><trkpt lat="55.3107070" lon="38.8025190"><time>2020-06-27T08:52:25.717</time></trkpt><trkpt lat="55.3107290" lon="38.8026190"><time>2020-06-27T08:52:28.727</time></trkpt><trkpt lat="55.3107420" lon="38.8027170"><time>2020-06-27T08:52:31.707</time></trkpt><trkpt lat="55.3107580" lon="38.8028440"><time>2020-06-27T08:52:33.467</time></trkpt><trkpt lat="55.3107560" lon="38.8030330"><time>2020-06-27T08:52:35.467</time></trkpt><trkpt lat="55.3107470" lon="38.8031340"><time>2020-06-27T08:52:36.450</time></trkpt><trkpt lat="55.3106990" lon="38.8031700"><time>2020-06-27T08:52:37.680</time></trkpt><trkpt lat="55.3106060" lon="38.8031500"><time>2020-06-27T08:52:39.680</time></trkpt><trkpt lat="55.3105190" lon="38.8031370"><time>2020-06-27T08:52:41.673</time></trkpt><trkpt lat="55.3104390" lon="38.8031320"><time>2020-06-27T08:52:43.690</time></trkpt><trkpt lat="55.3103580" lon="38.8031230"><time>2020-06-27T08:52:45.683</time></trkpt><trkpt lat="55.3102770" lon="38.8031010"><time>2020-06-27T08:52:47.740</time></trkpt><trkpt lat="55.3102300" lon="38.8030930"><time>2020-06-27T08:52:48.717</time></trkpt><trkpt lat="55.3101420" lon="38.8030610"><time>2020-06-27T08:52:50.457</time></trkpt><trkpt lat="55.3100850" lon="38.8030510"><time>2020-06-27T08:52:51.733</time></trkpt><trkpt lat="55.3100280" lon="38.8030510"><time>2020-06-27T08:52:52.700</time></trkpt><trkpt lat="55.3099700" lon="38.8030250"><time>2020-06-27T08:52:53.707</time></trkpt><trkpt lat="55.3099180" lon="38.8030130"><time>2020-06-27T08:52:54.703</time></trkpt><trkpt lat="55.3098710" lon="38.8029840"><time>2020-06-27T08:52:55.697</time></trkpt><trkpt lat="55.3098100" lon="38.8029490"><time>2020-06-27T08:52:56.700</time></trkpt><trkpt lat="55.3097110" lon="38.8028810"><time>2020-06-27T08:52:58.710</time></trkpt><trkpt lat="55.3096380" lon="38.8028590"><time>2020-06-27T08:52:59.683</time></trkpt><trkpt lat="55.3095760" lon="38.8028330"><time>2020-06-27T08:53:00.690</time></trkpt><trkpt lat="55.3095190" lon="38.8028040"><time>2020-06-27T08:53:01.697</time></trkpt><trkpt lat="55.3094610" lon="38.8027820"><time>2020-06-27T08:53:02.693</time></trkpt><trkpt lat="55.3094120" lon="38.8027610"><time>2020-06-27T08:53:03.703</time></trkpt><trkpt lat="55.3093640" lon="38.8027240"><time>2020-06-27T08:53:04.707</time></trkpt><trkpt lat="55.3093170" lon="38.8026990"><time>2020-06-27T08:53:05.450</time></trkpt><trkpt lat="55.3092690" lon="38.8026650"><time>2020-06-27T08:53:06.747</time></trkpt><trkpt lat="55.3091840" lon="38.8026190"><time>2020-06-27T08:53:08.690</time></trkpt><trkpt lat="55.3090880" lon="38.8025670"><time>2020-06-27T08:53:10.707</time></trkpt><trkpt lat="55.3089880" lon="38.8025340"><time>2020-06-27T08:53:12.457</time></trkpt><trkpt lat="55.3089370" lon="38.8025280"><time>2020-06-27T08:53:13.727</time></trkpt><trkpt lat="55.3088910" lon="38.8025050"><time>2020-06-27T08:53:14.687</time></trkpt><trkpt lat="55.3088470" lon="38.8024770"><time>2020-06-27T08:53:15.707</time></trkpt><trkpt lat="55.3088020" lon="38.8024490"><time>2020-06-27T08:53:16.710</time></trkpt><trkpt lat="55.3087470" lon="38.8024110"><time>2020-06-27T08:53:17.690</time></trkpt><trkpt lat="55.3087020" lon="38.8023690"><time>2020-06-27T08:53:18.457</time></trkpt><trkpt lat="55.3086590" lon="38.8023250"><time>2020-06-27T08:53:19.460</time></trkpt><trkpt lat="55.3086070" lon="38.8022830"><time>2020-06-27T08:53:20.733</time></trkpt><trkpt lat="55.3085640" lon="38.8022260"><time>2020-06-27T08:53:21.687</time></trkpt><trkpt lat="55.3085050" lon="38.8022010"><time>2020-06-27T08:53:22.693</time></trkpt><trkpt lat="55.3084470" lon="38.8021560"><time>2020-06-27T08:53:23.700</time></trkpt><trkpt lat="55.3083940" lon="38.8021150"><time>2020-06-27T08:53:24.453</time></trkpt><trkpt lat="55.3083360" lon="38.8020590"><time>2020-06-27T08:53:25.730</time></trkpt><trkpt lat="55.3082620" lon="38.8020250"><time>2020-06-27T08:53:26.707</time></trkpt><trkpt lat="55.3081950" lon="38.8019780"><time>2020-06-27T08:53:27.690</time></trkpt><trkpt lat="55.3081340" lon="38.8019320"><time>2020-06-27T08:53:28.697</time></trkpt><trkpt lat="55.3080770" lon="38.8019210"><time>2020-06-27T08:53:29.707</time></trkpt><trkpt lat="55.3080070" lon="38.8019010"><time>2020-06-27T08:53:30.690</time></trkpt><trkpt lat="55.3079500" lon="38.8018720"><time>2020-06-27T08:53:31.687</time></trkpt><trkpt lat="55.3078970" lon="38.8018550"><time>2020-06-27T08:53:32.693</time></trkpt><trkpt lat="55.3078390" lon="38.8018270"><time>2020-06-27T08:53:33.703</time></trkpt><trkpt lat="55.3077800" lon="38.8018060"><time>2020-06-27T08:53:34.697</time></trkpt><trkpt lat="55.3077130" lon="38.8017810"><time>2020-06-27T08:53:35.687</time></trkpt><trkpt lat="55.3076570" lon="38.8017670"><time>2020-06-27T08:53:36.697</time></trkpt><trkpt lat="55.3075930" lon="38.8017600"><time>2020-06-27T08:53:37.683</time></trkpt><trkpt lat="55.3075340" lon="38.8017720"><time>2020-06-27T08:53:38.693</time></trkpt><trkpt lat="55.3074690" lon="38.8018050"><time>2020-06-27T08:53:39.697</time></trkpt><trkpt lat="55.3074020" lon="38.8018210"><time>2020-06-27T08:53:40.693</time></trkpt><trkpt lat="55.3073460" lon="38.8018280"><time>2020-06-27T08:53:41.690</time></trkpt><trkpt lat="55.3072860" lon="38.8018370"><time>2020-06-27T08:53:42.707</time></trkpt><trkpt lat="55.3072300" lon="38.8018420"><time>2020-06-27T08:53:43.707</time></trkpt><trkpt lat="55.3071780" lon="38.8018800"><time>2020-06-27T08:53:44.690</time></trkpt><trkpt lat="55.3071170" lon="38.8019280"><time>2020-06-27T08:53:45.690</time></trkpt><trkpt lat="55.3070690" lon="38.8019820"><time>2020-06-27T08:53:46.463</time></trkpt><trkpt lat="55.3070140" lon="38.8020880"><time>2020-06-27T08:53:47.697</time></trkpt><trkpt lat="55.3069640" lon="38.8021370"><time>2020-06-27T08:53:48.687</time></trkpt><trkpt lat="55.3069130" lon="38.8021790"><time>2020-06-27T08:53:49.697</time></trkpt><trkpt lat="55.3068550" lon="38.8022140"><time>2020-06-27T08:53:50.680</time></trkpt><trkpt lat="55.3067940" lon="38.8022100"><time>2020-06-27T08:53:51.677</time></trkpt><trkpt lat="55.3067370" lon="38.8021980"><time>2020-06-27T08:53:52.690</time></trkpt><trkpt lat="55.3066770" lon="38.8021920"><time>2020-06-27T08:53:53.700</time></trkpt><trkpt lat="55.3066190" lon="38.8022030"><time>2020-06-27T08:53:54.687</time></trkpt><trkpt lat="55.3065650" lon="38.8022050"><time>2020-06-27T08:53:55.687</time></trkpt><trkpt lat="55.3065060" lon="38.8021890"><time>2020-06-27T08:53:56.697</time></trkpt><trkpt lat="55.3064470" lon="38.8021890"><time>2020-06-27T08:53:57.700</time></trkpt><trkpt lat="55.3063930" lon="38.8021780"><time>2020-06-27T08:53:58.670</time></trkpt><trkpt lat="55.3063410" lon="38.8021620"><time>2020-06-27T08:53:59.693</time></trkpt><trkpt lat="55.3062490" lon="38.8021430"><time>2020-06-27T08:54:01.687</time></trkpt><trkpt lat="55.3061920" lon="38.8021590"><time>2020-06-27T08:54:03.690</time></trkpt><trkpt lat="55.3061640" lon="38.8022860"><time>2020-06-27T08:54:05.710</time></trkpt><trkpt lat="55.3061430" lon="38.8024360"><time>2020-06-27T08:54:07.697</time></trkpt><trkpt lat="55.3061340" lon="38.8025200"><time>2020-06-27T08:54:08.753</time></trkpt><trkpt lat="55.3061160" lon="38.8026140"><time>2020-06-27T08:54:09.707</time></trkpt><trkpt lat="55.3060960" lon="38.8027030"><time>2020-06-27T08:54:10.703</time></trkpt><trkpt lat="55.3060800" lon="38.8028140"><time>2020-06-27T08:54:11.697</time></trkpt><trkpt lat="55.3060670" lon="38.8029110"><time>2020-06-27T08:54:12.687</time></trkpt><trkpt lat="55.3060610" lon="38.8030050"><time>2020-06-27T08:54:13.690</time></trkpt><trkpt lat="55.3060600" lon="38.8031150"><time>2020-06-27T08:54:14.680</time></trkpt><trkpt lat="55.3060530" lon="38.8032050"><time>2020-06-27T08:54:15.677</time></trkpt><trkpt lat="55.3060500" lon="38.8033110"><time>2020-06-27T08:54:16.690</time></trkpt><trkpt lat="55.3060420" lon="38.8033910"><time>2020-06-27T08:54:17.690</time></trkpt><trkpt lat="55.3060380" lon="38.8034910"><time>2020-06-27T08:54:18.457</time></trkpt><trkpt lat="55.3060380" lon="38.8035850"><time>2020-06-27T08:54:19.453</time></trkpt><trkpt lat="55.3060330" lon="38.8036850"><time>2020-06-27T08:54:20.450</time></trkpt><trkpt lat="55.3060390" lon="38.8038050"><time>2020-06-27T08:54:21.700</time></trkpt><trkpt lat="55.3060320" lon="38.8039050"><time>2020-06-27T08:54:22.687</time></trkpt><trkpt lat="55.3060200" lon="38.8040110"><time>2020-06-27T08:54:23.707</time></trkpt><trkpt lat="55.3060140" lon="38.8041230"><time>2020-06-27T08:54:24.697</time></trkpt><trkpt lat="55.3060070" lon="38.8042290"><time>2020-06-27T08:54:25.673</time></trkpt><trkpt lat="55.3060070" lon="38.8043580"><time>2020-06-27T08:54:26.670</time></trkpt><trkpt lat="55.3060010" lon="38.8044660"><time>2020-06-27T08:54:27.667</time></trkpt><trkpt lat="55.3060100" lon="38.8046160"><time>2020-06-27T08:54:28.450</time></trkpt><trkpt lat="55.3060010" lon="38.8047160"><time>2020-06-27T08:54:29.740</time></trkpt><trkpt lat="55.3059850" lon="38.8048310"><time>2020-06-27T08:54:30.687</time></trkpt><trkpt lat="55.3059790" lon="38.8049260"><time>2020-06-27T08:54:31.697</time></trkpt><trkpt lat="55.3059690" lon="38.8050430"><time>2020-06-27T08:54:32.690</time></trkpt><trkpt lat="55.3059630" lon="38.8051450"><time>2020-06-27T08:54:33.677</time></trkpt><trkpt lat="55.3059500" lon="38.8052480"><time>2020-06-27T08:54:34.693</time></trkpt><trkpt lat="55.3059450" lon="38.8053550"><time>2020-06-27T08:54:35.447</time></trkpt><trkpt lat="55.3059390" lon="38.8054560"><time>2020-06-27T08:54:36.733</time></trkpt><trkpt lat="55.3059340" lon="38.8055590"><time>2020-06-27T08:54:37.687</time></trkpt><trkpt lat="55.3059270" lon="38.8056600"><time>2020-06-27T08:54:38.687</time></trkpt><trkpt lat="55.3059210" lon="38.8057630"><time>2020-06-27T08:54:39.703</time></trkpt><trkpt lat="55.3059160" lon="38.8058710"><time>2020-06-27T08:54:40.697</time></trkpt><trkpt lat="55.3059200" lon="38.8059680"><time>2020-06-27T08:54:41.673</time></trkpt><trkpt lat="55.3059080" lon="38.8060620"><time>2020-06-27T08:54:42.667</time></trkpt><trkpt lat="55.3059020" lon="38.8061640"><time>2020-06-27T08:54:43.773</time></trkpt><trkpt lat="55.3058940" lon="38.8062620"><time>2020-06-27T08:54:44.697</time></trkpt><trkpt lat="55.3058870" lon="38.8063610"><time>2020-06-27T08:54:45.697</time></trkpt><trkpt lat="55.3058820" lon="38.8064580"><time>2020-06-27T08:54:46.693</time></trkpt><trkpt lat="55.3058750" lon="38.8065540"><time>2020-06-27T08:54:47.673</time></trkpt><trkpt lat="55.3058720" lon="38.8066480"><time>2020-06-27T08:54:48.697</time></trkpt><trkpt lat="55.3058690" lon="38.8067480"><time>2020-06-27T08:54:49.690</time></trkpt><trkpt lat="55.3058630" lon="38.8068430"><time>2020-06-27T08:54:50.450</time></trkpt><trkpt lat="55.3058590" lon="38.8069360"><time>2020-06-27T08:54:51.707</time></trkpt><trkpt lat="55.3058560" lon="38.8070290"><time>2020-06-27T08:54:52.693</time></trkpt><trkpt lat="55.3058590" lon="38.8071330"><time>2020-06-27T08:54:53.687</time></trkpt><trkpt lat="55.3058650" lon="38.8072290"><time>2020-06-27T08:54:54.707</time></trkpt><trkpt lat="55.3058680" lon="38.8073290"><time>2020-06-27T08:54:55.707</time></trkpt><trkpt lat="55.3058800" lon="38.8074230"><time>2020-06-27T08:54:56.680</time></trkpt><trkpt lat="55.3058960" lon="38.8075240"><time>2020-06-27T08:54:57.690</time></trkpt><trkpt lat="55.3059090" lon="38.8076300"><time>2020-06-27T08:54:58.687</time></trkpt><trkpt lat="55.3059210" lon="38.8077310"><time>2020-06-27T08:54:59.693</time></trkpt><trkpt lat="55.3059350" lon="38.8078260"><time>2020-06-27T08:55:00.690</time></trkpt><trkpt lat="55.3059460" lon="38.8079200"><time>2020-06-27T08:55:01.697</time></trkpt><trkpt lat="55.3059590" lon="38.8080170"><time>2020-06-27T08:55:02.707</time></trkpt><trkpt lat="55.3059740" lon="38.8081200"><time>2020-06-27T08:55:03.687</time></trkpt><trkpt lat="55.3059920" lon="38.8082190"><time>2020-06-27T08:55:04.697</time></trkpt><trkpt lat="55.3060130" lon="38.8083220"><time>2020-06-27T08:55:05.707</time></trkpt><trkpt lat="55.3060330" lon="38.8084380"><time>2020-06-27T08:55:06.707</time></trkpt><trkpt lat="55.3060560" lon="38.8085530"><time>2020-06-27T08:55:07.690</time></trkpt><trkpt lat="55.3060820" lon="38.8086600"><time>2020-06-27T08:55:08.677</time></trkpt><trkpt lat="55.3060970" lon="38.8087650"><time>2020-06-27T08:55:09.453</time></trkpt><trkpt lat="55.3061090" lon="38.8088730"><time>2020-06-27T08:55:10.693</time></trkpt><trkpt lat="55.3061290" lon="38.8089880"><time>2020-06-27T08:55:11.737</time></trkpt><trkpt lat="55.3061470" lon="38.8090930"><time>2020-06-27T08:55:12.700</time></trkpt><trkpt lat="55.3061670" lon="38.8092080"><time>2020-06-27T08:55:13.697</time></trkpt><trkpt lat="55.3061860" lon="38.8093160"><time>2020-06-27T08:55:14.683</time></trkpt><trkpt lat="55.3062060" lon="38.8094190"><time>2020-06-27T08:55:15.677</time></trkpt><trkpt lat="55.3062260" lon="38.8095210"><time>2020-06-27T08:55:16.687</time></trkpt><trkpt lat="55.3062490" lon="38.8096290"><time>2020-06-27T08:55:17.680</time></trkpt><trkpt lat="55.3062710" lon="38.8097350"><time>2020-06-27T08:55:18.697</time></trkpt><trkpt lat="55.3062880" lon="38.8098430"><time>2020-06-27T08:55:19.447</time></trkpt><trkpt lat="55.3063070" lon="38.8099460"><time>2020-06-27T08:55:20.450</time></trkpt><trkpt lat="55.3063230" lon="38.8100460"><time>2020-06-27T08:55:21.733</time></trkpt><trkpt lat="55.3063400" lon="38.8101450"><time>2020-06-27T08:55:22.453</time></trkpt><trkpt lat="55.3063550" lon="38.8102460"><time>2020-06-27T08:55:23.750</time></trkpt><trkpt lat="55.3063960" lon="38.8103630"><time>2020-06-27T08:55:24.680</time></trkpt><trkpt lat="55.3064150" lon="38.8104680"><time>2020-06-27T08:55:25.677</time></trkpt><trkpt lat="55.3064300" lon="38.8105750"><time>2020-06-27T08:55:26.693</time></trkpt><trkpt lat="55.3064480" lon="38.8106890"><time>2020-06-27T08:55:27.703</time></trkpt><trkpt lat="55.3064640" lon="38.8107950"><time>2020-06-27T08:55:28.703</time></trkpt><trkpt lat="55.3064810" lon="38.8108960"><time>2020-06-27T08:55:29.697</time></trkpt><trkpt lat="55.3065000" lon="38.8109960"><time>2020-06-27T08:55:30.687</time></trkpt><trkpt lat="55.3065260" lon="38.8111100"><time>2020-06-27T08:55:31.680</time></trkpt><trkpt lat="55.3065460" lon="38.8112240"><time>2020-06-27T08:55:32.683</time></trkpt><trkpt lat="55.3065690" lon="38.8113380"><time>2020-06-27T08:55:33.690</time></trkpt><trkpt lat="55.3065950" lon="38.8114410"><time>2020-06-27T08:55:34.697</time></trkpt><trkpt lat="55.3066170" lon="38.8115550"><time>2020-06-27T08:55:35.710</time></trkpt><trkpt lat="55.3066410" lon="38.8116730"><time>2020-06-27T08:55:36.700</time></trkpt><trkpt lat="55.3066640" lon="38.8117890"><time>2020-06-27T08:55:37.683</time></trkpt><trkpt lat="55.3066870" lon="38.8118950"><time>2020-06-27T08:55:38.700</time></trkpt><trkpt lat="55.3067090" lon="38.8120060"><time>2020-06-27T08:55:39.710</time></trkpt><trkpt lat="55.3067260" lon="38.8121200"><time>2020-06-27T08:55:40.690</time></trkpt><trkpt lat="55.3067450" lon="38.8122330"><time>2020-06-27T08:55:41.697</time></trkpt><trkpt lat="55.3067620" lon="38.8123480"><time>2020-06-27T08:55:42.680</time></trkpt><trkpt lat="55.3067870" lon="38.8124630"><time>2020-06-27T08:55:43.693</time></trkpt><trkpt lat="55.3068080" lon="38.8125780"><time>2020-06-27T08:55:44.690</time></trkpt><trkpt lat="55.3068300" lon="38.8126900"><time>2020-06-27T08:55:45.700</time></trkpt><trkpt lat="55.3068480" lon="38.8128100"><time>2020-06-27T08:55:46.697</time></trkpt><trkpt lat="55.3068740" lon="38.8129250"><time>2020-06-27T08:55:47.687</time></trkpt><trkpt lat="55.3068950" lon="38.8130390"><time>2020-06-27T08:55:48.453</time></trkpt><trkpt lat="55.3069220" lon="38.8131600"><time>2020-06-27T08:55:49.723</time></trkpt><trkpt lat="55.3069390" lon="38.8132770"><time>2020-06-27T08:55:50.670</time></trkpt><trkpt lat="55.3069580" lon="38.8133920"><time>2020-06-27T08:55:51.690</time></trkpt><trkpt lat="55.3069860" lon="38.8135080"><time>2020-06-27T08:55:52.680</time></trkpt><trkpt lat="55.3070080" lon="38.8136190"><time>2020-06-27T08:55:53.680</time></trkpt><trkpt lat="55.3070240" lon="38.8137280"><time>2020-06-27T08:55:54.690</time></trkpt><trkpt lat="55.3070460" lon="38.8138490"><time>2020-06-27T08:55:55.677</time></trkpt><trkpt lat="55.3070680" lon="38.8139580"><time>2020-06-27T08:55:56.773</time></trkpt><trkpt lat="55.3070970" lon="38.8140770"><time>2020-06-27T08:55:57.690</time></trkpt><trkpt lat="55.3071140" lon="38.8141810"><time>2020-06-27T08:55:58.687</time></trkpt><trkpt lat="55.3071310" lon="38.8142890"><time>2020-06-27T08:55:59.687</time></trkpt><trkpt lat="55.3071550" lon="38.8143940"><time>2020-06-27T08:56:00.690</time></trkpt><trkpt lat="55.3071700" lon="38.8144960"><time>2020-06-27T08:56:01.687</time></trkpt><trkpt lat="55.3071880" lon="38.8145990"><time>2020-06-27T08:56:02.687</time></trkpt><trkpt lat="55.3072080" lon="38.8147000"><time>2020-06-27T08:56:03.443</time></trkpt><trkpt lat="55.3072330" lon="38.8148180"><time>2020-06-27T08:56:04.697</time></trkpt><trkpt lat="55.3072500" lon="38.8149200"><time>2020-06-27T08:56:05.690</time></trkpt><trkpt lat="55.3072750" lon="38.8150290"><time>2020-06-27T08:56:06.680</time></trkpt><trkpt lat="55.3072900" lon="38.8151320"><time>2020-06-27T08:56:07.690</time></trkpt><trkpt lat="55.3073100" lon="38.8152370"><time>2020-06-27T08:56:08.690</time></trkpt><trkpt lat="55.3073340" lon="38.8153360"><time>2020-06-27T08:56:09.683</time></trkpt><trkpt lat="55.3073570" lon="38.8154340"><time>2020-06-27T08:56:10.453</time></trkpt><trkpt lat="55.3073760" lon="38.8155350"><time>2020-06-27T08:56:11.737</time></trkpt><trkpt lat="55.3074080" lon="38.8156390"><time>2020-06-27T08:56:12.703</time></trkpt><trkpt lat="55.3074300" lon="38.8157350"><time>2020-06-27T08:56:13.707</time></trkpt><trkpt lat="55.3074580" lon="38.8158270"><time>2020-06-27T08:56:14.703</time></trkpt><trkpt lat="55.3074890" lon="38.8159190"><time>2020-06-27T08:56:15.693</time></trkpt><trkpt lat="55.3075230" lon="38.8159990"><time>2020-06-27T08:56:16.683</time></trkpt><trkpt lat="55.3075530" lon="38.8160670"><time>2020-06-27T08:56:17.680</time></trkpt><trkpt lat="55.3075840" lon="38.8161400"><time>2020-06-27T08:56:18.723</time></trkpt><trkpt lat="55.3076120" lon="38.8162070"><time>2020-06-27T08:56:19.453</time></trkpt><trkpt lat="55.3076730" lon="38.8162750"><time>2020-06-27T08:56:20.450</time></trkpt><trkpt lat="55.3077070" lon="38.8163340"><time>2020-06-27T08:56:21.747</time></trkpt><trkpt lat="55.3077610" lon="38.8164260"><time>2020-06-27T08:56:23.697</time></trkpt><trkpt lat="55.3078110" lon="38.8164580"><time>2020-06-27T08:56:25.687</time></trkpt><trkpt lat="55.3078640" lon="38.8165400"><time>2020-06-27T08:56:28.453</time></trkpt><trkpt lat="55.3079110" lon="38.8166120"><time>2020-06-27T08:56:30.693</time></trkpt><trkpt lat="55.3079490" lon="38.8166710"><time>2020-06-27T08:56:32.683</time></trkpt><trkpt lat="55.3079930" lon="38.8167380"><time>2020-06-27T08:56:34.703</time></trkpt><trkpt lat="55.3080370" lon="38.8168120"><time>2020-06-27T08:56:36.683</time></trkpt><trkpt lat="55.3080780" lon="38.8168810"><time>2020-06-27T08:56:38.690</time></trkpt><trkpt lat="55.3081170" lon="38.8169500"><time>2020-06-27T08:56:40.693</time></trkpt><trkpt lat="55.3081590" lon="38.8170110"><time>2020-06-27T08:56:42.700</time></trkpt><trkpt lat="55.3082100" lon="38.8170910"><time>2020-06-27T08:56:44.707</time></trkpt><trkpt lat="55.3082540" lon="38.8171730"><time>2020-06-27T08:56:46.703</time></trkpt><trkpt lat="55.3082860" lon="38.8172350"><time>2020-06-27T08:56:48.677</time></trkpt><trkpt lat="55.3083300" lon="38.8173020"><time>2020-06-27T08:56:50.460</time></trkpt><trkpt lat="55.3083730" lon="38.8173710"><time>2020-06-27T08:56:52.687</time></trkpt><trkpt lat="55.3084130" lon="38.8174290"><time>2020-06-27T08:56:54.677</time></trkpt><trkpt lat="55.3084580" lon="38.8174950"><time>2020-06-27T08:56:57.457</time></trkpt><trkpt lat="55.3084960" lon="38.8175440"><time>2020-06-27T08:56:59.707</time></trkpt><trkpt lat="55.3085360" lon="38.8176250"><time>2020-06-27T08:57:01.707</time></trkpt><trkpt lat="55.3085770" lon="38.8176960"><time>2020-06-27T08:57:03.710</time></trkpt><trkpt lat="55.3086270" lon="38.8177730"><time>2020-06-27T08:57:05.703</time></trkpt><trkpt lat="55.3086810" lon="38.8178490"><time>2020-06-27T08:57:07.717</time></trkpt><trkpt lat="55.3087310" lon="38.8179240"><time>2020-06-27T08:57:09.703</time></trkpt><trkpt lat="55.3087850" lon="38.8180030"><time>2020-06-27T08:57:11.730</time></trkpt><trkpt lat="55.3088410" lon="38.8180840"><time>2020-06-27T08:57:13.707</time></trkpt><trkpt lat="55.3088970" lon="38.8181600"><time>2020-06-27T08:57:15.717</time></trkpt><trkpt lat="55.3089430" lon="38.8182320"><time>2020-06-27T08:57:17.707</time></trkpt><trkpt lat="55.3089950" lon="38.8183150"><time>2020-06-27T08:57:19.477</time></trkpt><trkpt lat="55.3090540" lon="38.8184030"><time>2020-06-27T08:57:21.483</time></trkpt><trkpt lat="55.3091080" lon="38.8184810"><time>2020-06-27T08:57:23.720</time></trkpt><trkpt lat="55.3091630" lon="38.8185680"><time>2020-06-27T08:57:25.697</time></trkpt><trkpt lat="55.3092210" lon="38.8186540"><time>2020-06-27T08:57:27.717</time></trkpt><trkpt lat="55.3092760" lon="38.8187360"><time>2020-06-27T08:57:29.717</time></trkpt><trkpt lat="55.3093370" lon="38.8188260"><time>2020-06-27T08:57:31.753</time></trkpt><trkpt lat="55.3093980" lon="38.8189130"><time>2020-06-27T08:57:33.727</time></trkpt><trkpt lat="55.3094620" lon="38.8190040"><time>2020-06-27T08:57:35.710</time></trkpt><trkpt lat="55.3095330" lon="38.8191000"><time>2020-06-27T08:57:37.713</time></trkpt><trkpt lat="55.3095980" lon="38.8191860"><time>2020-06-27T08:57:39.767</time></trkpt><trkpt lat="55.3096650" lon="38.8192730"><time>2020-06-27T08:57:41.717</time></trkpt><trkpt lat="55.3097340" lon="38.8193660"><time>2020-06-27T08:57:43.717</time></trkpt><trkpt lat="55.3098050" lon="38.8194610"><time>2020-06-27T08:57:45.700</time></trkpt><trkpt lat="55.3098780" lon="38.8195520"><time>2020-06-27T08:57:47.727</time></trkpt><trkpt lat="55.3099450" lon="38.8196330"><time>2020-06-27T08:57:49.717</time></trkpt><trkpt lat="55.3100180" lon="38.8197240"><time>2020-06-27T08:57:51.703</time></trkpt><trkpt lat="55.3100580" lon="38.8197700"><time>2020-06-27T08:57:52.720</time></trkpt><trkpt lat="55.3101170" lon="38.8198390"><time>2020-06-27T08:57:54.687</time></trkpt><trkpt lat="55.3101950" lon="38.8199330"><time>2020-06-27T08:57:56.697</time></trkpt><trkpt lat="55.3102560" lon="38.8200300"><time>2020-06-27T08:57:57.700</time></trkpt><trkpt lat="55.3103080" lon="38.8200840"><time>2020-06-27T08:57:58.663</time></trkpt><trkpt lat="55.3103510" lon="38.8201390"><time>2020-06-27T08:57:59.673</time></trkpt><trkpt lat="55.3103990" lon="38.8202030"><time>2020-06-27T08:58:00.687</time></trkpt><trkpt lat="55.3104460" lon="38.8202590"><time>2020-06-27T08:58:01.683</time></trkpt><trkpt lat="55.3104910" lon="38.8203190"><time>2020-06-27T08:58:02.693</time></trkpt><trkpt lat="55.3105400" lon="38.8203760"><time>2020-06-27T08:58:03.687</time></trkpt><trkpt lat="55.3105820" lon="38.8204380"><time>2020-06-27T08:58:04.677</time></trkpt><trkpt lat="55.3106280" lon="38.8204990"><time>2020-06-27T08:58:05.673</time></trkpt><trkpt lat="55.3106680" lon="38.8205500"><time>2020-06-27T08:58:06.630</time></trkpt><trkpt lat="55.3107090" lon="38.8206180"><time>2020-06-27T08:58:07.673</time></trkpt><trkpt lat="55.3107600" lon="38.8206800"><time>2020-06-27T08:58:08.697</time></trkpt><trkpt lat="55.3108090" lon="38.8207430"><time>2020-06-27T08:58:09.687</time></trkpt><trkpt lat="55.3108590" lon="38.8207990"><time>2020-06-27T08:58:10.677</time></trkpt><trkpt lat="55.3109080" lon="38.8208530"><time>2020-06-27T08:58:11.683</time></trkpt><trkpt lat="55.3109530" lon="38.8209080"><time>2020-06-27T08:58:12.677</time></trkpt><trkpt lat="55.3110010" lon="38.8209660"><time>2020-06-27T08:58:13.453</time></trkpt><trkpt lat="55.3110500" lon="38.8210280"><time>2020-06-27T08:58:14.723</time></trkpt><trkpt lat="55.3110990" lon="38.8210820"><time>2020-06-27T08:58:15.683</time></trkpt><trkpt lat="55.3111470" lon="38.8211340"><time>2020-06-27T08:58:16.677</time></trkpt><trkpt lat="55.3111910" lon="38.8211880"><time>2020-06-27T08:58:17.687</time></trkpt><trkpt lat="55.3112340" lon="38.8212560"><time>2020-06-27T08:58:18.683</time></trkpt><trkpt lat="55.3112760" lon="38.8213130"><time>2020-06-27T08:58:19.683</time></trkpt><trkpt lat="55.3113180" lon="38.8213750"><time>2020-06-27T08:58:20.450</time></trkpt><trkpt lat="55.3113650" lon="38.8214350"><time>2020-06-27T08:58:21.443</time></trkpt><trkpt lat="55.3114110" lon="38.8214900"><time>2020-06-27T08:58:22.847</time></trkpt><trkpt lat="55.3114440" lon="38.8215440"><time>2020-06-27T08:58:23.847</time></trkpt><trkpt lat="55.3114910" lon="38.8216140"><time>2020-06-27T08:58:24.683</time></trkpt><trkpt lat="55.3116460" lon="38.8218290"><time>2020-06-27T08:58:28.777</time></trkpt><trkpt lat="55.3116870" lon="38.8218880"><time>2020-06-27T08:58:29.690</time></trkpt><trkpt lat="55.3117600" lon="38.8220070"><time>2020-06-27T08:58:31.697</time></trkpt><trkpt lat="55.3118000" lon="38.8220570"><time>2020-06-27T08:58:32.693</time></trkpt><trkpt lat="55.3118690" lon="38.8221660"><time>2020-06-27T08:58:34.697</time></trkpt><trkpt lat="55.3119100" lon="38.8222180"><time>2020-06-27T08:58:35.683</time></trkpt><trkpt lat="55.3119530" lon="38.8222670"><time>2020-06-27T08:58:36.683</time></trkpt><trkpt lat="55.3119840" lon="38.8223250"><time>2020-06-27T08:58:37.690</time></trkpt><trkpt lat="55.3120250" lon="38.8223810"><time>2020-06-27T08:58:38.703</time></trkpt><trkpt lat="55.3120670" lon="38.8224350"><time>2020-06-27T08:58:39.700</time></trkpt><trkpt lat="55.3121090" lon="38.8224920"><time>2020-06-27T08:58:40.690</time></trkpt><trkpt lat="55.3121510" lon="38.8225560"><time>2020-06-27T08:58:41.687</time></trkpt><trkpt lat="55.3121950" lon="38.8226130"><time>2020-06-27T08:58:42.683</time></trkpt><trkpt lat="55.3122440" lon="38.8226780"><time>2020-06-27T08:58:43.697</time></trkpt><trkpt lat="55.3122830" lon="38.8227330"><time>2020-06-27T08:58:44.697</time></trkpt><trkpt lat="55.3123490" lon="38.8228210"><time>2020-06-27T08:58:46.687</time></trkpt><trkpt lat="55.3123880" lon="38.8228770"><time>2020-06-27T08:58:47.677</time></trkpt><trkpt lat="55.3124490" lon="38.8229440"><time>2020-06-27T08:58:48.453</time></trkpt><trkpt lat="55.3124840" lon="38.8229990"><time>2020-06-27T08:58:49.737</time></trkpt><trkpt lat="55.3125270" lon="38.8230570"><time>2020-06-27T08:58:50.703</time></trkpt><trkpt lat="55.3125630" lon="38.8231110"><time>2020-06-27T08:58:51.673</time></trkpt><trkpt lat="55.3126080" lon="38.8231660"><time>2020-06-27T08:58:52.683</time></trkpt><trkpt lat="55.3126490" lon="38.8232220"><time>2020-06-27T08:58:53.700</time></trkpt><trkpt lat="55.3126870" lon="38.8232770"><time>2020-06-27T08:58:54.453</time></trkpt><trkpt lat="55.3127550" lon="38.8233650"><time>2020-06-27T08:58:56.693</time></trkpt><trkpt lat="55.3127970" lon="38.8234080"><time>2020-06-27T08:58:57.683</time></trkpt><trkpt lat="55.3128440" lon="38.8234450"><time>2020-06-27T08:58:58.680</time></trkpt><trkpt lat="55.3129160" lon="38.8235480"><time>2020-06-27T08:59:00.697</time></trkpt><trkpt lat="55.3129630" lon="38.8236100"><time>2020-06-27T08:59:01.690</time></trkpt><trkpt lat="55.3130070" lon="38.8236540"><time>2020-06-27T08:59:02.670</time></trkpt><trkpt lat="55.3130460" lon="38.8236970"><time>2020-06-27T08:59:03.450</time></trkpt><trkpt lat="55.3130840" lon="38.8237500"><time>2020-06-27T08:59:04.447</time></trkpt><trkpt lat="55.3131190" lon="38.8238000"><time>2020-06-27T08:59:05.720</time></trkpt><trkpt lat="55.3132010" lon="38.8238840"><time>2020-06-27T08:59:07.680</time></trkpt><trkpt lat="55.3132790" lon="38.8239670"><time>2020-06-27T08:59:09.707</time></trkpt><trkpt lat="55.3133510" lon="38.8240460"><time>2020-06-27T08:59:11.670</time></trkpt><trkpt lat="55.3134200" lon="38.8241440"><time>2020-06-27T08:59:13.450</time></trkpt><trkpt lat="55.3134600" lon="38.8241810"><time>2020-06-27T08:59:14.747</time></trkpt><trkpt lat="55.3134960" lon="38.8242350"><time>2020-06-27T08:59:15.687</time></trkpt><trkpt lat="55.3135330" lon="38.8242890"><time>2020-06-27T08:59:16.677</time></trkpt><trkpt lat="55.3135740" lon="38.8243260"><time>2020-06-27T08:59:17.683</time></trkpt><trkpt lat="55.3136140" lon="38.8243760"><time>2020-06-27T08:59:18.687</time></trkpt><trkpt lat="55.3136570" lon="38.8244210"><time>2020-06-27T08:59:19.677</time></trkpt><trkpt lat="55.3136970" lon="38.8244720"><time>2020-06-27T08:59:20.450</time></trkpt><trkpt lat="55.3137360" lon="38.8245220"><time>2020-06-27T08:59:21.447</time></trkpt><trkpt lat="55.3137770" lon="38.8245730"><time>2020-06-27T08:59:22.677</time></trkpt><trkpt lat="55.3138190" lon="38.8246380"><time>2020-06-27T08:59:23.700</time></trkpt><trkpt lat="55.3138600" lon="38.8246900"><time>2020-06-27T08:59:24.683</time></trkpt><trkpt lat="55.3139050" lon="38.8247360"><time>2020-06-27T08:59:25.687</time></trkpt><trkpt lat="55.3139870" lon="38.8248260"><time>2020-06-27T08:59:27.727</time></trkpt><trkpt lat="55.3140290" lon="38.8248850"><time>2020-06-27T08:59:28.703</time></trkpt><trkpt lat="55.3140690" lon="38.8249350"><time>2020-06-27T08:59:29.693</time></trkpt><trkpt lat="55.3141100" lon="38.8249990"><time>2020-06-27T08:59:30.677</time></trkpt><trkpt lat="55.3141560" lon="38.8250460"><time>2020-06-27T08:59:31.683</time></trkpt><trkpt lat="55.3142040" lon="38.8251060"><time>2020-06-27T08:59:32.450</time></trkpt><trkpt lat="55.3142460" lon="38.8251640"><time>2020-06-27T08:59:33.730</time></trkpt><trkpt lat="55.3142850" lon="38.8252280"><time>2020-06-27T08:59:34.673</time></trkpt><trkpt lat="55.3143290" lon="38.8252840"><time>2020-06-27T08:59:35.680</time></trkpt><trkpt lat="55.3143730" lon="38.8253410"><time>2020-06-27T08:59:36.717</time></trkpt><trkpt lat="55.3144190" lon="38.8253950"><time>2020-06-27T08:59:37.747</time></trkpt><trkpt lat="55.3144690" lon="38.8254570"><time>2020-06-27T08:59:38.697</time></trkpt><trkpt lat="55.3145140" lon="38.8255220"><time>2020-06-27T08:59:39.707</time></trkpt><trkpt lat="55.3145620" lon="38.8255740"><time>2020-06-27T08:59:40.680</time></trkpt><trkpt lat="55.3146070" lon="38.8256470"><time>2020-06-27T08:59:41.683</time></trkpt><trkpt lat="55.3146570" lon="38.8257060"><time>2020-06-27T08:59:42.700</time></trkpt><trkpt lat="55.3146940" lon="38.8257760"><time>2020-06-27T08:59:43.680</time></trkpt><trkpt lat="55.3147430" lon="38.8258300"><time>2020-06-27T08:59:44.677</time></trkpt><trkpt lat="55.3147890" lon="38.8258900"><time>2020-06-27T08:59:45.447</time></trkpt><trkpt lat="55.3148370" lon="38.8259510"><time>2020-06-27T08:59:46.713</time></trkpt><trkpt lat="55.3148840" lon="38.8260170"><time>2020-06-27T08:59:47.703</time></trkpt><trkpt lat="55.3149340" lon="38.8260750"><time>2020-06-27T08:59:48.680</time></trkpt><trkpt lat="55.3149770" lon="38.8261390"><time>2020-06-27T08:59:49.700</time></trkpt><trkpt lat="55.3150240" lon="38.8261840"><time>2020-06-27T08:59:50.690</time></trkpt><trkpt lat="55.3150800" lon="38.8262570"><time>2020-06-27T08:59:51.683</time></trkpt><trkpt lat="55.3151390" lon="38.8263250"><time>2020-06-27T08:59:52.677</time></trkpt><trkpt lat="55.3151870" lon="38.8263880"><time>2020-06-27T08:59:53.690</time></trkpt><trkpt lat="55.3152320" lon="38.8264570"><time>2020-06-27T08:59:54.680</time></trkpt><trkpt lat="55.3152750" lon="38.8265220"><time>2020-06-27T08:59:55.683</time></trkpt><trkpt lat="55.3153310" lon="38.8265960"><time>2020-06-27T08:59:56.673</time></trkpt><trkpt lat="55.3153740" lon="38.8266570"><time>2020-06-27T08:59:57.673</time></trkpt><trkpt lat="55.3154220" lon="38.8267250"><time>2020-06-27T08:59:58.663</time></trkpt><trkpt lat="55.3154710" lon="38.8267910"><time>2020-06-27T08:59:59.660</time></trkpt><trkpt lat="55.3155200" lon="38.8268620"><time>2020-06-27T09:00:00.450</time></trkpt><trkpt lat="55.3155720" lon="38.8269360"><time>2020-06-27T09:00:01.677</time></trkpt><trkpt lat="55.3156250" lon="38.8270070"><time>2020-06-27T09:00:02.683</time></trkpt><trkpt lat="55.3156760" lon="38.8270760"><time>2020-06-27T09:00:03.677</time></trkpt><trkpt lat="55.3157260" lon="38.8271500"><time>2020-06-27T09:00:04.700</time></trkpt><trkpt lat="55.3157810" lon="38.8272220"><time>2020-06-27T09:00:05.680</time></trkpt><trkpt lat="55.3158300" lon="38.8272960"><time>2020-06-27T09:00:06.687</time></trkpt><trkpt lat="55.3158370" lon="38.8274240"><time>2020-06-27T09:00:07.677</time></trkpt><trkpt lat="55.3158190" lon="38.8275290"><time>2020-06-27T09:00:08.687</time></trkpt><trkpt lat="55.3157930" lon="38.8276220"><time>2020-06-27T09:00:09.680</time></trkpt><trkpt lat="55.3157520" lon="38.8277070"><time>2020-06-27T09:00:10.660</time></trkpt><trkpt lat="55.3157100" lon="38.8278030"><time>2020-06-27T09:00:11.687</time></trkpt><trkpt lat="55.3156670" lon="38.8278980"><time>2020-06-27T09:00:12.677</time></trkpt><trkpt lat="55.3156290" lon="38.8280060"><time>2020-06-27T09:00:13.667</time></trkpt><trkpt lat="55.3155880" lon="38.8281040"><time>2020-06-27T09:00:14.673</time></trkpt><trkpt lat="55.3155480" lon="38.8281960"><time>2020-06-27T09:00:15.687</time></trkpt><trkpt lat="55.3155010" lon="38.8282940"><time>2020-06-27T09:00:16.687</time></trkpt><trkpt lat="55.3154620" lon="38.8283940"><time>2020-06-27T09:00:17.690</time></trkpt><trkpt lat="55.3154230" lon="38.8284920"><time>2020-06-27T09:00:18.677</time></trkpt><trkpt lat="55.3153790" lon="38.8285890"><time>2020-06-27T09:00:19.677</time></trkpt><trkpt lat="55.3153370" lon="38.8286880"><time>2020-06-27T09:00:20.677</time></trkpt><trkpt lat="55.3152930" lon="38.8287790"><time>2020-06-27T09:00:21.443</time></trkpt><trkpt lat="55.3152520" lon="38.8288710"><time>2020-06-27T09:00:22.447</time></trkpt><trkpt lat="55.3152030" lon="38.8289690"><time>2020-06-27T09:00:23.737</time></trkpt><trkpt lat="55.3151610" lon="38.8290600"><time>2020-06-27T09:00:24.673</time></trkpt><trkpt lat="55.3151150" lon="38.8291490"><time>2020-06-27T09:00:25.697</time></trkpt><trkpt lat="55.3150670" lon="38.8292470"><time>2020-06-27T09:00:26.670</time></trkpt><trkpt lat="55.3150170" lon="38.8293410"><time>2020-06-27T09:00:27.683</time></trkpt><trkpt lat="55.3149660" lon="38.8294410"><time>2020-06-27T09:00:28.673</time></trkpt><trkpt lat="55.3149160" lon="38.8295360"><time>2020-06-27T09:00:29.443</time></trkpt><trkpt lat="55.3148650" lon="38.8296220"><time>2020-06-27T09:00:30.723</time></trkpt><trkpt lat="55.3148130" lon="38.8297080"><time>2020-06-27T09:00:31.670</time></trkpt><trkpt lat="55.3147580" lon="38.8298030"><time>2020-06-27T09:00:32.673</time></trkpt><trkpt lat="55.3147070" lon="38.8298910"><time>2020-06-27T09:00:33.697</time></trkpt><trkpt lat="55.3146560" lon="38.8299740"><time>2020-06-27T09:00:34.673</time></trkpt><trkpt lat="55.3146030" lon="38.8300590"><time>2020-06-27T09:00:35.683</time></trkpt><trkpt lat="55.3145530" lon="38.8301430"><time>2020-06-27T09:00:36.667</time></trkpt><trkpt lat="55.3144970" lon="38.8302300"><time>2020-06-27T09:00:37.673</time></trkpt><trkpt lat="55.3144530" lon="38.8303290"><time>2020-06-27T09:00:38.667</time></trkpt><trkpt lat="55.3143940" lon="38.8304160"><time>2020-06-27T09:00:39.687</time></trkpt><trkpt lat="55.3143380" lon="38.8305010"><time>2020-06-27T09:00:40.687</time></trkpt><trkpt lat="55.3142820" lon="38.8305800"><time>2020-06-27T09:00:41.677</time></trkpt><trkpt lat="55.3142300" lon="38.8306710"><time>2020-06-27T09:00:42.687</time></trkpt><trkpt lat="55.3141800" lon="38.8307570"><time>2020-06-27T09:00:43.683</time></trkpt><trkpt lat="55.3141300" lon="38.8308430"><time>2020-06-27T09:00:44.670</time></trkpt><trkpt lat="55.3140780" lon="38.8309290"><time>2020-06-27T09:00:45.447</time></trkpt><trkpt lat="55.3140240" lon="38.8310220"><time>2020-06-27T09:00:46.710</time></trkpt><trkpt lat="55.3139700" lon="38.8311040"><time>2020-06-27T09:00:47.687</time></trkpt><trkpt lat="55.3139150" lon="38.8311900"><time>2020-06-27T09:00:48.687</time></trkpt><trkpt lat="55.3138610" lon="38.8312800"><time>2020-06-27T09:00:49.667</time></trkpt><trkpt lat="55.3138050" lon="38.8313670"><time>2020-06-27T09:00:50.667</time></trkpt><trkpt lat="55.3137470" lon="38.8314570"><time>2020-06-27T09:00:51.673</time></trkpt><trkpt lat="55.3136880" lon="38.8315440"><time>2020-06-27T09:00:52.667</time></trkpt><trkpt lat="55.3136300" lon="38.8316340"><time>2020-06-27T09:00:53.687</time></trkpt><trkpt lat="55.3135690" lon="38.8317230"><time>2020-06-27T09:00:54.687</time></trkpt><trkpt lat="55.3135120" lon="38.8318170"><time>2020-06-27T09:00:55.670</time></trkpt><trkpt lat="55.3134510" lon="38.8319050"><time>2020-06-27T09:00:56.667</time></trkpt><trkpt lat="55.3133840" lon="38.8319850"><time>2020-06-27T09:00:57.673</time></trkpt><trkpt lat="55.3133110" lon="38.8320640"><time>2020-06-27T09:00:58.683</time></trkpt><trkpt lat="55.3132410" lon="38.8321430"><time>2020-06-27T09:00:59.657</time></trkpt><trkpt lat="55.3131670" lon="38.8322170"><time>2020-06-27T09:01:00.707</time></trkpt><trkpt lat="55.3130890" lon="38.8322900"><time>2020-06-27T09:01:01.677</time></trkpt><trkpt lat="55.3130120" lon="38.8323660"><time>2020-06-27T09:01:02.690</time></trkpt><trkpt lat="55.3129350" lon="38.8324480"><time>2020-06-27T09:01:03.677</time></trkpt><trkpt lat="55.3128540" lon="38.8325290"><time>2020-06-27T09:01:04.690</time></trkpt><trkpt lat="55.3127730" lon="38.8326060"><time>2020-06-27T09:01:05.687</time></trkpt><trkpt lat="55.3126880" lon="38.8326970"><time>2020-06-27T09:01:06.690</time></trkpt><trkpt lat="55.3125970" lon="38.8327900"><time>2020-06-27T09:01:07.447</time></trkpt><trkpt lat="55.3125080" lon="38.8328840"><time>2020-06-27T09:01:08.713</time></trkpt><trkpt lat="55.3124170" lon="38.8329710"><time>2020-06-27T09:01:09.673</time></trkpt><trkpt lat="55.3123300" lon="38.8330660"><time>2020-06-27T09:01:10.690</time></trkpt><trkpt lat="55.3122470" lon="38.8331460"><time>2020-06-27T09:01:11.673</time></trkpt><trkpt lat="55.3121760" lon="38.8332370"><time>2020-06-27T09:01:12.683</time></trkpt><trkpt lat="55.3121180" lon="38.8333480"><time>2020-06-27T09:01:13.673</time></trkpt><trkpt lat="55.3120850" lon="38.8334940"><time>2020-06-27T09:01:14.683</time></trkpt><trkpt lat="55.3120800" lon="38.8336450"><time>2020-06-27T09:01:15.670</time></trkpt><trkpt lat="55.3120970" lon="38.8337980"><time>2020-06-27T09:01:16.680</time></trkpt><trkpt lat="55.3121240" lon="38.8339390"><time>2020-06-27T09:01:17.443</time></trkpt><trkpt lat="55.3121570" lon="38.8340780"><time>2020-06-27T09:01:18.710</time></trkpt><trkpt lat="55.3121940" lon="38.8342220"><time>2020-06-27T09:01:19.680</time></trkpt><trkpt lat="55.3122260" lon="38.8343580"><time>2020-06-27T09:01:20.447</time></trkpt><trkpt lat="55.3122620" lon="38.8344910"><time>2020-06-27T09:01:21.450</time></trkpt><trkpt lat="55.3123050" lon="38.8346320"><time>2020-06-27T09:01:22.460</time></trkpt><trkpt lat="55.3123440" lon="38.8347650"><time>2020-06-27T09:01:23.733</time></trkpt><trkpt lat="55.3123870" lon="38.8349030"><time>2020-06-27T09:01:24.683</time></trkpt><trkpt lat="55.3124300" lon="38.8350370"><time>2020-06-27T09:01:25.697</time></trkpt><trkpt lat="55.3124690" lon="38.8351730"><time>2020-06-27T09:01:26.707</time></trkpt><trkpt lat="55.3125090" lon="38.8353040"><time>2020-06-27T09:01:27.690</time></trkpt><trkpt lat="55.3125540" lon="38.8354290"><time>2020-06-27T09:01:28.693</time></trkpt><trkpt lat="55.3126010" lon="38.8355440"><time>2020-06-27T09:01:29.680</time></trkpt><trkpt lat="55.3126420" lon="38.8356660"><time>2020-06-27T09:01:30.683</time></trkpt><trkpt lat="55.3126870" lon="38.8357880"><time>2020-06-27T09:01:31.690</time></trkpt><trkpt lat="55.3127230" lon="38.8359040"><time>2020-06-27T09:01:32.707</time></trkpt><trkpt lat="55.3127580" lon="38.8360250"><time>2020-06-27T09:01:33.687</time></trkpt><trkpt lat="55.3128000" lon="38.8361410"><time>2020-06-27T09:01:34.683</time></trkpt><trkpt lat="55.3128380" lon="38.8362650"><time>2020-06-27T09:01:35.447</time></trkpt><trkpt lat="55.3128720" lon="38.8363920"><time>2020-06-27T09:01:36.693</time></trkpt><trkpt lat="55.3129060" lon="38.8365220"><time>2020-06-27T09:01:37.697</time></trkpt><trkpt lat="55.3130610" lon="38.8370280"><time>2020-06-27T09:01:41.750</time></trkpt><trkpt lat="55.3130910" lon="38.8371500"><time>2020-06-27T09:01:42.690</time></trkpt><trkpt lat="55.3131180" lon="38.8372570"><time>2020-06-27T09:01:43.690</time></trkpt><trkpt lat="55.3131450" lon="38.8373660"><time>2020-06-27T09:01:44.683</time></trkpt><trkpt lat="55.3131740" lon="38.8374800"><time>2020-06-27T09:01:45.453</time></trkpt><trkpt lat="55.3132030" lon="38.8375860"><time>2020-06-27T09:01:46.450</time></trkpt><trkpt lat="55.3132300" lon="38.8377050"><time>2020-06-27T09:01:47.730</time></trkpt><trkpt lat="55.3132620" lon="38.8378270"><time>2020-06-27T09:01:48.690</time></trkpt><trkpt lat="55.3132880" lon="38.8379460"><time>2020-06-27T09:01:49.703</time></trkpt><trkpt lat="55.3133170" lon="38.8380690"><time>2020-06-27T09:01:50.703</time></trkpt><trkpt lat="55.3133410" lon="38.8381880"><time>2020-06-27T09:01:51.673</time></trkpt><trkpt lat="55.3133660" lon="38.8383050"><time>2020-06-27T09:01:52.687</time></trkpt><trkpt lat="55.3133970" lon="38.8384180"><time>2020-06-27T09:01:53.673</time></trkpt><trkpt lat="55.3134270" lon="38.8385260"><time>2020-06-27T09:01:54.450</time></trkpt><trkpt lat="55.3134510" lon="38.8386440"><time>2020-06-27T09:01:55.727</time></trkpt><trkpt lat="55.3134740" lon="38.8387650"><time>2020-06-27T09:01:56.703</time></trkpt><trkpt lat="55.3134890" lon="38.8388840"><time>2020-06-27T09:01:57.680</time></trkpt><trkpt lat="55.3134920" lon="38.8390050"><time>2020-06-27T09:01:58.697</time></trkpt><trkpt lat="55.3134740" lon="38.8391170"><time>2020-06-27T09:01:59.687</time></trkpt><trkpt lat="55.3134370" lon="38.8392220"><time>2020-06-27T09:02:00.703</time></trkpt><trkpt lat="55.3133920" lon="38.8393230"><time>2020-06-27T09:02:01.677</time></trkpt><trkpt lat="55.3133420" lon="38.8394420"><time>2020-06-27T09:02:02.677</time></trkpt><trkpt lat="55.3132920" lon="38.8395460"><time>2020-06-27T09:02:03.683</time></trkpt><trkpt lat="55.3132480" lon="38.8396550"><time>2020-06-27T09:02:04.703</time></trkpt><trkpt lat="55.3132050" lon="38.8397500"><time>2020-06-27T09:02:05.707</time></trkpt><trkpt lat="55.3131590" lon="38.8398480"><time>2020-06-27T09:02:06.700</time></trkpt><trkpt lat="55.3131150" lon="38.8399260"><time>2020-06-27T09:02:07.690</time></trkpt><trkpt lat="55.3130680" lon="38.8400130"><time>2020-06-27T09:02:08.693</time></trkpt><trkpt lat="55.3130230" lon="38.8401440"><time>2020-06-27T09:02:09.700</time></trkpt><trkpt lat="55.3129790" lon="38.8402150"><time>2020-06-27T09:02:10.683</time></trkpt><trkpt lat="55.3129430" lon="38.8402950"><time>2020-06-27T09:02:11.710</time></trkpt><trkpt lat="55.3129120" lon="38.8403790"><time>2020-06-27T09:02:12.677</time></trkpt><trkpt lat="55.3128730" lon="38.8404710"><time>2020-06-27T09:02:13.687</time></trkpt><trkpt lat="55.3128320" lon="38.8405490"><time>2020-06-27T09:02:14.693</time></trkpt><trkpt lat="55.3127950" lon="38.8406480"><time>2020-06-27T09:02:15.683</time></trkpt><trkpt lat="55.3127560" lon="38.8407320"><time>2020-06-27T09:02:16.673</time></trkpt><trkpt lat="55.3127050" lon="38.8408140"><time>2020-06-27T09:02:17.697</time></trkpt><trkpt lat="55.3126670" lon="38.8409110"><time>2020-06-27T09:02:18.693</time></trkpt><trkpt lat="55.3126290" lon="38.8410150"><time>2020-06-27T09:02:19.453</time></trkpt><trkpt lat="55.3125810" lon="38.8411150"><time>2020-06-27T09:02:20.447</time></trkpt><trkpt lat="55.3125410" lon="38.8412100"><time>2020-06-27T09:02:21.447</time></trkpt><trkpt lat="55.3124990" lon="38.8413060"><time>2020-06-27T09:02:22.453</time></trkpt><trkpt lat="55.3124550" lon="38.8414050"><time>2020-06-27T09:02:23.453</time></trkpt><trkpt lat="55.3124090" lon="38.8415000"><time>2020-06-27T09:02:24.693</time></trkpt><trkpt lat="55.3123700" lon="38.8415910"><time>2020-06-27T09:02:25.683</time></trkpt><trkpt lat="55.3123240" lon="38.8416950"><time>2020-06-27T09:02:26.687</time></trkpt><trkpt lat="55.3122780" lon="38.8418010"><time>2020-06-27T09:02:27.710</time></trkpt><trkpt lat="55.3122280" lon="38.8419040"><time>2020-06-27T09:02:28.707</time></trkpt><trkpt lat="55.3121820" lon="38.8420110"><time>2020-06-27T09:02:29.690</time></trkpt><trkpt lat="55.3121400" lon="38.8421160"><time>2020-06-27T09:02:30.680</time></trkpt><trkpt lat="55.3120990" lon="38.8422220"><time>2020-06-27T09:02:31.450</time></trkpt><trkpt lat="55.3120550" lon="38.8423300"><time>2020-06-27T09:02:32.680</time></trkpt><trkpt lat="55.3120110" lon="38.8424250"><time>2020-06-27T09:02:33.693</time></trkpt><trkpt lat="55.3119630" lon="38.8425200"><time>2020-06-27T09:02:34.703</time></trkpt><trkpt lat="55.3119160" lon="38.8426070"><time>2020-06-27T09:02:35.690</time></trkpt><trkpt lat="55.3118680" lon="38.8426970"><time>2020-06-27T09:02:36.697</time></trkpt><trkpt lat="55.3118210" lon="38.8427830"><time>2020-06-27T09:02:37.683</time></trkpt><trkpt lat="55.3117800" lon="38.8428630"><time>2020-06-27T09:02:38.730</time></trkpt><trkpt lat="55.3117400" lon="38.8429430"><time>2020-06-27T09:02:39.697</time></trkpt><trkpt lat="55.3117040" lon="38.8430250"><time>2020-06-27T09:02:40.690</time></trkpt><trkpt lat="55.3116670" lon="38.8430980"><time>2020-06-27T09:02:41.700</time></trkpt><trkpt lat="55.3116390" lon="38.8431760"><time>2020-06-27T09:02:42.700</time></trkpt><trkpt lat="55.3115960" lon="38.8432130"><time>2020-06-27T09:02:43.703</time></trkpt><trkpt lat="55.3115360" lon="38.8432830"><time>2020-06-27T09:02:44.697</time></trkpt><trkpt lat="55.3114840" lon="38.8434080"><time>2020-06-27T09:02:46.707</time></trkpt><trkpt lat="55.3114150" lon="38.8434610"><time>2020-06-27T09:02:48.687</time></trkpt><trkpt lat="55.3113860" lon="38.8435600"><time>2020-06-27T09:02:50.677</time></trkpt><trkpt lat="55.3113340" lon="38.8436730"><time>2020-06-27T09:02:52.713</time></trkpt><trkpt lat="55.3112850" lon="38.8437760"><time>2020-06-27T09:02:54.677</time></trkpt><trkpt lat="55.3112500" lon="38.8438360"><time>2020-06-27T09:02:56.693</time></trkpt><trkpt lat="55.3112230" lon="38.8439000"><time>2020-06-27T09:02:58.707</time></trkpt><trkpt lat="55.3111850" lon="38.8439820"><time>2020-06-27T09:03:00.720</time></trkpt><trkpt lat="55.3111460" lon="38.8440540"><time>2020-06-27T09:03:02.483</time></trkpt><trkpt lat="55.3111010" lon="38.8441310"><time>2020-06-27T09:03:04.710</time></trkpt><trkpt lat="55.3110530" lon="38.8442150"><time>2020-06-27T09:03:06.727</time></trkpt><trkpt lat="55.3109970" lon="38.8442980"><time>2020-06-27T09:03:08.733</time></trkpt><trkpt lat="55.3109380" lon="38.8443820"><time>2020-06-27T09:03:10.477</time></trkpt><trkpt lat="55.3108740" lon="38.8444650"><time>2020-06-27T09:03:12.477</time></trkpt><trkpt lat="55.3108140" lon="38.8445340"><time>2020-06-27T09:03:14.730</time></trkpt><trkpt lat="55.3107580" lon="38.8445790"><time>2020-06-27T09:03:16.697</time></trkpt><trkpt lat="55.3107020" lon="38.8446090"><time>2020-06-27T09:03:18.700</time></trkpt><trkpt lat="55.3106400" lon="38.8446400"><time>2020-06-27T09:03:20.713</time></trkpt><trkpt lat="55.3105730" lon="38.8446600"><time>2020-06-27T09:03:22.470</time></trkpt><trkpt lat="55.3105070" lon="38.8446690"><time>2020-06-27T09:03:24.693</time></trkpt><trkpt lat="55.3104420" lon="38.8446700"><time>2020-06-27T09:03:27.697</time></trkpt><trkpt lat="55.3103840" lon="38.8446600"><time>2020-06-27T09:03:29.713</time></trkpt><trkpt lat="55.3103120" lon="38.8446430"><time>2020-06-27T09:03:31.700</time></trkpt><trkpt lat="55.3102400" lon="38.8446080"><time>2020-06-27T09:03:33.473</time></trkpt><trkpt lat="55.3101810" lon="38.8445610"><time>2020-06-27T09:03:35.753</time></trkpt><trkpt lat="55.3101290" lon="38.8444970"><time>2020-06-27T09:03:37.757</time></trkpt><trkpt lat="55.3100810" lon="38.8444250"><time>2020-06-27T09:03:39.717</time></trkpt><trkpt lat="55.3100270" lon="38.8443380"><time>2020-06-27T09:03:41.717</time></trkpt><trkpt lat="55.3099760" lon="38.8442300"><time>2020-06-27T09:03:43.713</time></trkpt><trkpt lat="55.3099290" lon="38.8441150"><time>2020-06-27T09:03:45.710</time></trkpt><trkpt lat="55.3098820" lon="38.8440020"><time>2020-06-27T09:03:47.723</time></trkpt><trkpt lat="55.3098360" lon="38.8438840"><time>2020-06-27T09:03:49.717</time></trkpt><trkpt lat="55.3098110" lon="38.8438160"><time>2020-06-27T09:03:50.700</time></trkpt><trkpt lat="55.3097630" lon="38.8436920"><time>2020-06-27T09:03:52.697</time></trkpt><trkpt lat="55.3097200" lon="38.8435860"><time>2020-06-27T09:03:54.703</time></trkpt><trkpt lat="55.3096760" lon="38.8434720"><time>2020-06-27T09:03:56.703</time></trkpt><trkpt lat="55.3096290" lon="38.8433570"><time>2020-06-27T09:03:58.720</time></trkpt><trkpt lat="55.3095840" lon="38.8432430"><time>2020-06-27T09:04:00.713</time></trkpt><trkpt lat="55.3095340" lon="38.8431270"><time>2020-06-27T09:04:02.703</time></trkpt><trkpt lat="55.3094830" lon="38.8430100"><time>2020-06-27T09:04:04.473</time></trkpt><trkpt lat="55.3094330" lon="38.8428950"><time>2020-06-27T09:04:06.687</time></trkpt><trkpt lat="55.3093770" lon="38.8427720"><time>2020-06-27T09:04:08.717</time></trkpt><trkpt lat="55.3093170" lon="38.8426510"><time>2020-06-27T09:04:10.697</time></trkpt><trkpt lat="55.3092850" lon="38.8425870"><time>2020-06-27T09:04:11.697</time></trkpt><trkpt lat="55.3092550" lon="38.8425270"><time>2020-06-27T09:04:12.707</time></trkpt><trkpt lat="55.3092250" lon="38.8424660"><time>2020-06-27T09:04:13.713</time></trkpt><trkpt lat="55.3091960" lon="38.8424020"><time>2020-06-27T09:04:14.720</time></trkpt><trkpt lat="55.3091670" lon="38.8423400"><time>2020-06-27T09:04:15.707</time></trkpt><trkpt lat="55.3091380" lon="38.8422790"><time>2020-06-27T09:04:16.707</time></trkpt><trkpt lat="55.3091090" lon="38.8422180"><time>2020-06-27T09:04:17.697</time></trkpt><trkpt lat="55.3090790" lon="38.8421530"><time>2020-06-27T09:04:18.707</time></trkpt><trkpt lat="55.3090520" lon="38.8420900"><time>2020-06-27T09:04:19.703</time></trkpt><trkpt lat="55.3089980" lon="38.8419600"><time>2020-06-27T09:04:21.753</time></trkpt><trkpt lat="55.3089450" lon="38.8418310"><time>2020-06-27T09:04:23.507</time></trkpt><trkpt lat="55.3089170" lon="38.8417600"><time>2020-06-27T09:04:24.790</time></trkpt><trkpt lat="55.3088920" lon="38.8416930"><time>2020-06-27T09:04:25.710</time></trkpt><trkpt lat="55.3088390" lon="38.8415550"><time>2020-06-27T09:04:27.707</time></trkpt><trkpt lat="55.3088120" lon="38.8414880"><time>2020-06-27T09:04:28.707</time></trkpt><trkpt lat="55.3087840" lon="38.8414230"><time>2020-06-27T09:04:29.703</time></trkpt><trkpt lat="55.3087230" lon="38.8413110"><time>2020-06-27T09:04:31.707</time></trkpt><trkpt lat="55.3086840" lon="38.8412670"><time>2020-06-27T09:04:32.747</time></trkpt><trkpt lat="55.3085990" lon="38.8412080"><time>2020-06-27T09:04:34.720</time></trkpt><trkpt lat="55.3085530" lon="38.8411990"><time>2020-06-27T09:04:35.713</time></trkpt><trkpt lat="55.3085040" lon="38.8411980"><time>2020-06-27T09:04:36.713</time></trkpt><trkpt lat="55.3084560" lon="38.8412020"><time>2020-06-27T09:04:37.700</time></trkpt><trkpt lat="55.3084060" lon="38.8412130"><time>2020-06-27T09:04:38.727</time></trkpt><trkpt lat="55.3083580" lon="38.8412360"><time>2020-06-27T09:04:39.480</time></trkpt><trkpt lat="55.3082750" lon="38.8412940"><time>2020-06-27T09:04:41.720</time></trkpt><trkpt lat="55.3082300" lon="38.8413230"><time>2020-06-27T09:04:42.710</time></trkpt><trkpt lat="55.3081550" lon="38.8413870"><time>2020-06-27T09:04:44.723</time></trkpt><trkpt lat="55.3081140" lon="38.8414260"><time>2020-06-27T09:04:45.693</time></trkpt><trkpt lat="55.3080730" lon="38.8414660"><time>2020-06-27T09:04:46.477</time></trkpt><trkpt lat="55.3080220" lon="38.8415100"><time>2020-06-27T09:04:47.757</time></trkpt><trkpt lat="55.3079760" lon="38.8415600"><time>2020-06-27T09:04:48.700</time></trkpt><trkpt lat="55.3079330" lon="38.8416110"><time>2020-06-27T09:04:49.710</time></trkpt><trkpt lat="55.3078910" lon="38.8416670"><time>2020-06-27T09:04:50.710</time></trkpt><trkpt lat="55.3078550" lon="38.8417290"><time>2020-06-27T09:04:51.710</time></trkpt><trkpt lat="55.3078250" lon="38.8417920"><time>2020-06-27T09:04:52.707</time></trkpt><trkpt lat="55.3077970" lon="38.8418630"><time>2020-06-27T09:04:53.717</time></trkpt><trkpt lat="55.3077700" lon="38.8419440"><time>2020-06-27T09:04:54.717</time></trkpt><trkpt lat="55.3077440" lon="38.8420300"><time>2020-06-27T09:04:55.710</time></trkpt><trkpt lat="55.3077220" lon="38.8421150"><time>2020-06-27T09:04:56.697</time></trkpt><trkpt lat="55.3077010" lon="38.8422020"><time>2020-06-27T09:04:57.710</time></trkpt><trkpt lat="55.3076800" lon="38.8422870"><time>2020-06-27T09:04:58.707</time></trkpt><trkpt lat="55.3076600" lon="38.8423680"><time>2020-06-27T09:04:59.707</time></trkpt><trkpt lat="55.3076410" lon="38.8424570"><time>2020-06-27T09:05:00.700</time></trkpt><trkpt lat="55.3076210" lon="38.8425330"><time>2020-06-27T09:05:01.487</time></trkpt><trkpt lat="55.3075880" lon="38.8426740"><time>2020-06-27T09:05:03.713</time></trkpt><trkpt lat="55.3075680" lon="38.8427470"><time>2020-06-27T09:05:04.480</time></trkpt><trkpt lat="55.3075470" lon="38.8428300"><time>2020-06-27T09:05:05.723</time></trkpt><trkpt lat="55.3075290" lon="38.8429100"><time>2020-06-27T09:05:06.723</time></trkpt><trkpt lat="55.3075120" lon="38.8429870"><time>2020-06-27T09:05:07.713</time></trkpt><trkpt lat="55.3074960" lon="38.8430720"><time>2020-06-27T09:05:08.480</time></trkpt><trkpt lat="55.3074670" lon="38.8432240"><time>2020-06-27T09:05:10.717</time></trkpt><trkpt lat="55.3074500" lon="38.8432990"><time>2020-06-27T09:05:11.687</time></trkpt><trkpt lat="55.3074330" lon="38.8433730"><time>2020-06-27T09:05:12.690</time></trkpt><trkpt lat="55.3074150" lon="38.8434470"><time>2020-06-27T09:05:13.707</time></trkpt><trkpt lat="55.3073990" lon="38.8435240"><time>2020-06-27T09:05:14.720</time></trkpt><trkpt lat="55.3073830" lon="38.8436070"><time>2020-06-27T09:05:15.710</time></trkpt><trkpt lat="55.3073670" lon="38.8436910"><time>2020-06-27T09:05:16.727</time></trkpt><trkpt lat="55.3073510" lon="38.8437720"><time>2020-06-27T09:05:17.710</time></trkpt><trkpt lat="55.3073310" lon="38.8438560"><time>2020-06-27T09:05:18.727</time></trkpt><trkpt lat="55.3073100" lon="38.8439310"><time>2020-06-27T09:05:19.713</time></trkpt><trkpt lat="55.3072880" lon="38.8440110"><time>2020-06-27T09:05:20.700</time></trkpt><trkpt lat="55.3072670" lon="38.8440870"><time>2020-06-27T09:05:21.723</time></trkpt><trkpt lat="55.3072420" lon="38.8441620"><time>2020-06-27T09:05:22.480</time></trkpt><trkpt lat="55.3072110" lon="38.8442390"><time>2020-06-27T09:05:23.483</time></trkpt><trkpt lat="55.3071810" lon="38.8443140"><time>2020-06-27T09:05:24.763</time></trkpt><trkpt lat="55.3071510" lon="38.8443830"><time>2020-06-27T09:05:25.707</time></trkpt><trkpt lat="55.3071200" lon="38.8444500"><time>2020-06-27T09:05:26.707</time></trkpt><trkpt lat="55.3070850" lon="38.8445140"><time>2020-06-27T09:05:27.483</time></trkpt><trkpt lat="55.3070480" lon="38.8445790"><time>2020-06-27T09:05:28.753</time></trkpt><trkpt lat="55.3069820" lon="38.8446810"><time>2020-06-27T09:05:30.720</time></trkpt><trkpt lat="55.3069460" lon="38.8447390"><time>2020-06-27T09:05:31.727</time></trkpt><trkpt lat="55.3069090" lon="38.8448010"><time>2020-06-27T09:05:32.730</time></trkpt><trkpt lat="55.3068700" lon="38.8448610"><time>2020-06-27T09:05:33.707</time></trkpt><trkpt lat="55.3068330" lon="38.8449140"><time>2020-06-27T09:05:34.720</time></trkpt><trkpt lat="55.3067950" lon="38.8449710"><time>2020-06-27T09:05:35.717</time></trkpt><trkpt lat="55.3067550" lon="38.8450360"><time>2020-06-27T09:05:36.707</time></trkpt><trkpt lat="55.3067190" lon="38.8450990"><time>2020-06-27T09:05:37.713</time></trkpt><trkpt lat="55.3066810" lon="38.8451630"><time>2020-06-27T09:05:38.713</time></trkpt><trkpt lat="55.3066430" lon="38.8452200"><time>2020-06-27T09:05:39.707</time></trkpt><trkpt lat="55.3066070" lon="38.8452740"><time>2020-06-27T09:05:40.717</time></trkpt><trkpt lat="55.3065700" lon="38.8453370"><time>2020-06-27T09:05:41.733</time></trkpt><trkpt lat="55.3065330" lon="38.8454060"><time>2020-06-27T09:05:42.490</time></trkpt><trkpt lat="55.3064970" lon="38.8454730"><time>2020-06-27T09:05:43.747</time></trkpt><trkpt lat="55.3064570" lon="38.8455430"><time>2020-06-27T09:05:44.703</time></trkpt><trkpt lat="55.3064190" lon="38.8456080"><time>2020-06-27T09:05:45.697</time></trkpt><trkpt lat="55.3063800" lon="38.8456750"><time>2020-06-27T09:05:46.703</time></trkpt><trkpt lat="55.3063470" lon="38.8457340"><time>2020-06-27T09:05:47.713</time></trkpt><trkpt lat="55.3063100" lon="38.8457980"><time>2020-06-27T09:05:48.723</time></trkpt><trkpt lat="55.3062730" lon="38.8458620"><time>2020-06-27T09:05:49.480</time></trkpt><trkpt lat="55.3062360" lon="38.8459250"><time>2020-06-27T09:05:50.737</time></trkpt><trkpt lat="55.3061920" lon="38.8459930"><time>2020-06-27T09:05:51.717</time></trkpt><trkpt lat="55.3061460" lon="38.8460630"><time>2020-06-27T09:05:52.720</time></trkpt><trkpt lat="55.3061020" lon="38.8461300"><time>2020-06-27T09:05:53.717</time></trkpt><trkpt lat="55.3060630" lon="38.8461920"><time>2020-06-27T09:05:54.733</time></trkpt><trkpt lat="55.3060230" lon="38.8462630"><time>2020-06-27T09:05:55.720</time></trkpt><trkpt lat="55.3059810" lon="38.8463330"><time>2020-06-27T09:05:56.727</time></trkpt><trkpt lat="55.3059390" lon="38.8464080"><time>2020-06-27T09:05:57.707</time></trkpt><trkpt lat="55.3059030" lon="38.8464700"><time>2020-06-27T09:05:58.703</time></trkpt><trkpt lat="55.3058620" lon="38.8465310"><time>2020-06-27T09:05:59.747</time></trkpt><trkpt lat="55.3058220" lon="38.8465950"><time>2020-06-27T09:06:00.727</time></trkpt><trkpt lat="55.3057830" lon="38.8466580"><time>2020-06-27T09:06:01.710</time></trkpt><trkpt lat="55.3057460" lon="38.8467170"><time>2020-06-27T09:06:02.703</time></trkpt><trkpt lat="55.3057060" lon="38.8467840"><time>2020-06-27T09:06:03.713</time></trkpt><trkpt lat="55.3056680" lon="38.8468500"><time>2020-06-27T09:06:04.497</time></trkpt><trkpt lat="55.3056330" lon="38.8469170"><time>2020-06-27T09:06:05.740</time></trkpt><trkpt lat="55.3055990" lon="38.8469880"><time>2020-06-27T09:06:06.723</time></trkpt><trkpt lat="55.3055610" lon="38.8470590"><time>2020-06-27T09:06:07.717</time></trkpt><trkpt lat="55.3055190" lon="38.8471390"><time>2020-06-27T09:06:08.710</time></trkpt><trkpt lat="55.3054800" lon="38.8472180"><time>2020-06-27T09:06:09.473</time></trkpt><trkpt lat="55.3054430" lon="38.8472890"><time>2020-06-27T09:06:10.757</time></trkpt><trkpt lat="55.3054040" lon="38.8473630"><time>2020-06-27T09:06:11.757</time></trkpt><trkpt lat="55.3053610" lon="38.8474340"><time>2020-06-27T09:06:12.730</time></trkpt><trkpt lat="55.3053200" lon="38.8475030"><time>2020-06-27T09:06:13.710</time></trkpt><trkpt lat="55.3052790" lon="38.8475750"><time>2020-06-27T09:06:14.710</time></trkpt><trkpt lat="55.3052400" lon="38.8476460"><time>2020-06-27T09:06:15.717</time></trkpt><trkpt lat="55.3052000" lon="38.8477210"><time>2020-06-27T09:06:16.717</time></trkpt><trkpt lat="55.3051610" lon="38.8477950"><time>2020-06-27T09:06:17.710</time></trkpt><trkpt lat="55.3051230" lon="38.8478670"><time>2020-06-27T09:06:18.717</time></trkpt><trkpt lat="55.3050860" lon="38.8479380"><time>2020-06-27T09:06:19.720</time></trkpt><trkpt lat="55.3050460" lon="38.8480100"><time>2020-06-27T09:06:20.713</time></trkpt><trkpt lat="55.3050030" lon="38.8480900"><time>2020-06-27T09:06:21.720</time></trkpt><trkpt lat="55.3049410" lon="38.8481980"><time>2020-06-27T09:06:22.477</time></trkpt><trkpt lat="55.3048440" lon="38.8481970"><time>2020-06-27T09:06:23.457</time></trkpt><trkpt lat="55.3048020" lon="38.8482730"><time>2020-06-27T09:06:24.710</time></trkpt><trkpt lat="55.3047560" lon="38.8483540"><time>2020-06-27T09:06:25.663</time></trkpt><trkpt lat="55.3047060" lon="38.8484350"><time>2020-06-27T09:06:26.687</time></trkpt><trkpt lat="55.3046620" lon="38.8485200"><time>2020-06-27T09:06:27.670</time></trkpt><trkpt lat="55.3046120" lon="38.8486260"><time>2020-06-27T09:06:28.680</time></trkpt><trkpt lat="55.3045620" lon="38.8487250"><time>2020-06-27T09:06:29.677</time></trkpt><trkpt lat="55.3045150" lon="38.8488260"><time>2020-06-27T09:06:30.687</time></trkpt><trkpt lat="55.3044640" lon="38.8489080"><time>2020-06-27T09:06:31.677</time></trkpt><trkpt lat="55.3044190" lon="38.8490200"><time>2020-06-27T09:06:32.683</time></trkpt><trkpt lat="55.3043690" lon="38.8491140"><time>2020-06-27T09:06:33.443</time></trkpt><trkpt lat="55.3043120" lon="38.8492100"><time>2020-06-27T09:06:34.690</time></trkpt><trkpt lat="55.3042600" lon="38.8493080"><time>2020-06-27T09:06:35.717</time></trkpt><trkpt lat="55.3042100" lon="38.8493870"><time>2020-06-27T09:06:36.683</time></trkpt><trkpt lat="55.3041590" lon="38.8494780"><time>2020-06-27T09:06:37.680</time></trkpt><trkpt lat="55.3041030" lon="38.8495810"><time>2020-06-27T09:06:38.690</time></trkpt><trkpt lat="55.3040570" lon="38.8496730"><time>2020-06-27T09:06:39.707</time></trkpt><trkpt lat="55.3040060" lon="38.8497790"><time>2020-06-27T09:06:40.693</time></trkpt><trkpt lat="55.3039520" lon="38.8498750"><time>2020-06-27T09:06:41.670</time></trkpt><trkpt lat="55.3039000" lon="38.8499680"><time>2020-06-27T09:06:42.700</time></trkpt><trkpt lat="55.3038580" lon="38.8500620"><time>2020-06-27T09:06:43.683</time></trkpt><trkpt lat="55.3038090" lon="38.8501660"><time>2020-06-27T09:06:44.687</time></trkpt><trkpt lat="55.3037570" lon="38.8502590"><time>2020-06-27T09:06:45.687</time></trkpt><trkpt lat="55.3037100" lon="38.8503510"><time>2020-06-27T09:06:46.693</time></trkpt><trkpt lat="55.3036570" lon="38.8504460"><time>2020-06-27T09:06:47.690</time></trkpt><trkpt lat="55.3035980" lon="38.8505300"><time>2020-06-27T09:06:48.687</time></trkpt><trkpt lat="55.3035500" lon="38.8506190"><time>2020-06-27T09:06:49.707</time></trkpt><trkpt lat="55.3034970" lon="38.8507070"><time>2020-06-27T09:06:50.697</time></trkpt><trkpt lat="55.3034460" lon="38.8507980"><time>2020-06-27T09:06:51.667</time></trkpt><trkpt lat="55.3034010" lon="38.8509150"><time>2020-06-27T09:06:52.683</time></trkpt><trkpt lat="55.3033550" lon="38.8510030"><time>2020-06-27T09:06:53.670</time></trkpt><trkpt lat="55.3033100" lon="38.8510880"><time>2020-06-27T09:06:54.677</time></trkpt><trkpt lat="55.3032560" lon="38.8511700"><time>2020-06-27T09:06:55.673</time></trkpt><trkpt lat="55.3031990" lon="38.8512560"><time>2020-06-27T09:06:56.673</time></trkpt><trkpt lat="55.3031510" lon="38.8513480"><time>2020-06-27T09:06:57.673</time></trkpt><trkpt lat="55.3030990" lon="38.8514420"><time>2020-06-27T09:06:58.677</time></trkpt><trkpt lat="55.3030460" lon="38.8515270"><time>2020-06-27T09:06:59.677</time></trkpt><trkpt lat="55.3029910" lon="38.8516230"><time>2020-06-27T09:07:00.667</time></trkpt><trkpt lat="55.3029390" lon="38.8517160"><time>2020-06-27T09:07:01.693</time></trkpt><trkpt lat="55.3028810" lon="38.8518030"><time>2020-06-27T09:07:02.440</time></trkpt><trkpt lat="55.3028250" lon="38.8518930"><time>2020-06-27T09:07:03.720</time></trkpt><trkpt lat="55.3027730" lon="38.8519730"><time>2020-06-27T09:07:04.683</time></trkpt><trkpt lat="55.3027140" lon="38.8520570"><time>2020-06-27T09:07:05.660</time></trkpt><trkpt lat="55.3026440" lon="38.8521450"><time>2020-06-27T09:07:06.683</time></trkpt><trkpt lat="55.3025950" lon="38.8522360"><time>2020-06-27T09:07:07.667</time></trkpt><trkpt lat="55.3025360" lon="38.8523130"><time>2020-06-27T09:07:08.677</time></trkpt><trkpt lat="55.3024780" lon="38.8523890"><time>2020-06-27T09:07:09.673</time></trkpt><trkpt lat="55.3024200" lon="38.8524710"><time>2020-06-27T09:07:10.687</time></trkpt><trkpt lat="55.3023660" lon="38.8525500"><time>2020-06-27T09:07:11.673</time></trkpt><trkpt lat="55.3023110" lon="38.8526310"><time>2020-06-27T09:07:12.677</time></trkpt><trkpt lat="55.3022490" lon="38.8526880"><time>2020-06-27T09:07:13.673</time></trkpt><trkpt lat="55.3022070" lon="38.8527780"><time>2020-06-27T09:07:14.680</time></trkpt><trkpt lat="55.3021510" lon="38.8528500"><time>2020-06-27T09:07:15.680</time></trkpt><trkpt lat="55.3020940" lon="38.8529230"><time>2020-06-27T09:07:16.667</time></trkpt><trkpt lat="55.3020310" lon="38.8529680"><time>2020-06-27T09:07:17.447</time></trkpt><trkpt lat="55.3019750" lon="38.8530330"><time>2020-06-27T09:07:18.713</time></trkpt><trkpt lat="55.3019210" lon="38.8530960"><time>2020-06-27T09:07:19.680</time></trkpt><trkpt lat="55.3018640" lon="38.8531660"><time>2020-06-27T09:07:20.673</time></trkpt><trkpt lat="55.3018000" lon="38.8532260"><time>2020-06-27T09:07:21.687</time></trkpt><trkpt lat="55.3017470" lon="38.8532930"><time>2020-06-27T09:07:22.667</time></trkpt><trkpt lat="55.3016970" lon="38.8533630"><time>2020-06-27T09:07:23.440</time></trkpt><trkpt lat="55.3016430" lon="38.8534210"><time>2020-06-27T09:07:24.447</time></trkpt><trkpt lat="55.3015860" lon="38.8534870"><time>2020-06-27T09:07:25.710</time></trkpt><trkpt lat="55.3015290" lon="38.8535600"><time>2020-06-27T09:07:26.687</time></trkpt><trkpt lat="55.3014700" lon="38.8536290"><time>2020-06-27T09:07:27.707</time></trkpt><trkpt lat="55.3014120" lon="38.8536970"><time>2020-06-27T09:07:28.707</time></trkpt><trkpt lat="55.3013540" lon="38.8537660"><time>2020-06-27T09:07:29.677</time></trkpt><trkpt lat="55.3013040" lon="38.8538440"><time>2020-06-27T09:07:30.697</time></trkpt><trkpt lat="55.3012520" lon="38.8539190"><time>2020-06-27T09:07:31.673</time></trkpt><trkpt lat="55.3011950" lon="38.8539880"><time>2020-06-27T09:07:32.680</time></trkpt><trkpt lat="55.3011340" lon="38.8540750"><time>2020-06-27T09:07:33.680</time></trkpt><trkpt lat="55.3010770" lon="38.8541380"><time>2020-06-27T09:07:34.707</time></trkpt><trkpt lat="55.3010180" lon="38.8542040"><time>2020-06-27T09:07:35.693</time></trkpt><trkpt lat="55.3009640" lon="38.8542870"><time>2020-06-27T09:07:36.683</time></trkpt><trkpt lat="55.3009170" lon="38.8543570"><time>2020-06-27T09:07:37.693</time></trkpt><trkpt lat="55.3008610" lon="38.8544300"><time>2020-06-27T09:07:38.693</time></trkpt><trkpt lat="55.3008070" lon="38.8544910"><time>2020-06-27T09:07:39.687</time></trkpt><trkpt lat="55.3007480" lon="38.8545530"><time>2020-06-27T09:07:40.687</time></trkpt><trkpt lat="55.3006930" lon="38.8546130"><time>2020-06-27T09:07:41.697</time></trkpt><trkpt lat="55.3006440" lon="38.8546930"><time>2020-06-27T09:07:42.637</time></trkpt><trkpt lat="55.3005910" lon="38.8547600"><time>2020-06-27T09:07:43.450</time></trkpt><trkpt lat="55.3005580" lon="38.8548420"><time>2020-06-27T09:07:44.720</time></trkpt><trkpt lat="55.3005280" lon="38.8549140"><time>2020-06-27T09:07:45.693</time></trkpt><trkpt lat="55.3004690" lon="38.8549070"><time>2020-06-27T09:07:46.687</time></trkpt><trkpt lat="55.3004140" lon="38.8548610"><time>2020-06-27T09:07:47.707</time></trkpt><trkpt lat="55.3003480" lon="38.8547740"><time>2020-06-27T09:07:49.690</time></trkpt><trkpt lat="55.3003030" lon="38.8546870"><time>2020-06-27T09:07:51.687</time></trkpt><trkpt lat="55.3002500" lon="38.8546690"><time>2020-06-27T09:07:52.690</time></trkpt><trkpt lat="55.3001980" lon="38.8546260"><time>2020-06-27T09:07:53.713</time></trkpt><trkpt lat="55.3001520" lon="38.8545840"><time>2020-06-27T09:07:55.443</time></trkpt><trkpt lat="55.3000450" lon="38.8544700"><time>2020-06-27T09:07:58.817</time></trkpt><trkpt lat="55.3000000" lon="38.8544150"><time>2020-06-27T09:07:59.723</time></trkpt><trkpt lat="55.2999500" lon="38.8543480"><time>2020-06-27T09:08:01.733</time></trkpt><trkpt lat="55.2998910" lon="38.8542610"><time>2020-06-27T09:08:03.763</time></trkpt><trkpt lat="55.2998190" lon="38.8541690"><time>2020-06-27T09:08:05.713</time></trkpt><trkpt lat="55.2997720" lon="38.8541180"><time>2020-06-27T09:08:06.710</time></trkpt><trkpt lat="55.2997230" lon="38.8540510"><time>2020-06-27T09:08:07.720</time></trkpt><trkpt lat="55.2996710" lon="38.8540130"><time>2020-06-27T09:08:08.697</time></trkpt><trkpt lat="55.2996230" lon="38.8539810"><time>2020-06-27T09:08:09.697</time></trkpt><trkpt lat="55.2995970" lon="38.8539030"><time>2020-06-27T09:08:10.690</time></trkpt><trkpt lat="55.2995920" lon="38.8536610"><time>2020-06-27T09:08:11.670</time></trkpt><trkpt lat="55.2995330" lon="38.8535510"><time>2020-06-27T09:08:13.667</time></trkpt><trkpt lat="55.2994820" lon="38.8534490"><time>2020-06-27T09:08:15.680</time></trkpt><trkpt lat="55.2994010" lon="38.8533790"><time>2020-06-27T09:08:17.687</time></trkpt><trkpt lat="55.2993450" lon="38.8533810"><time>2020-06-27T09:08:18.677</time></trkpt><trkpt lat="55.2992820" lon="38.8533950"><time>2020-06-27T09:08:20.677</time></trkpt><trkpt lat="55.2991700" lon="38.8533420"><time>2020-06-27T09:08:23.680</time></trkpt><trkpt lat="55.2990940" lon="38.8533170"><time>2020-06-27T09:08:24.677</time></trkpt><trkpt lat="55.2990140" lon="38.8532690"><time>2020-06-27T09:08:26.653</time></trkpt><trkpt lat="55.2989540" lon="38.8531990"><time>2020-06-27T09:08:28.443</time></trkpt><trkpt lat="55.2989000" lon="38.8531690"><time>2020-06-27T09:08:29.447</time></trkpt><trkpt lat="55.2988540" lon="38.8531030"><time>2020-06-27T09:08:31.677</time></trkpt><trkpt lat="55.2988080" lon="38.8530410"><time>2020-06-27T09:08:33.743</time></trkpt><trkpt lat="55.2987620" lon="38.8529700"><time>2020-06-27T09:08:35.720</time></trkpt><trkpt lat="55.2987150" lon="38.8529220"><time>2020-06-27T09:08:37.723</time></trkpt><trkpt lat="55.2986440" lon="38.8528520"><time>2020-06-27T09:08:38.733</time></trkpt><trkpt lat="55.2986050" lon="38.8527670"><time>2020-06-27T09:08:39.693</time></trkpt><trkpt lat="55.2985570" lon="38.8527120"><time>2020-06-27T09:08:41.660</time></trkpt><trkpt lat="55.2984810" lon="38.8526670"><time>2020-06-27T09:08:43.700</time></trkpt><trkpt lat="55.2984390" lon="38.8526330"><time>2020-06-27T09:08:44.673</time></trkpt><trkpt lat="55.2983950" lon="38.8525780"><time>2020-06-27T09:08:46.450</time></trkpt><trkpt lat="55.2983420" lon="38.8525160"><time>2020-06-27T09:08:49.687</time></trkpt><trkpt lat="55.2983010" lon="38.8524370"><time>2020-06-27T09:08:53.717</time></trkpt><trkpt lat="55.2982700" lon="38.8523480"><time>2020-06-27T09:08:55.687</time></trkpt><trkpt lat="55.2982320" lon="38.8522990"><time>2020-06-27T09:08:56.693</time></trkpt><trkpt lat="55.2981810" lon="38.8522550"><time>2020-06-27T09:08:57.717</time></trkpt><trkpt lat="55.2980470" lon="38.8521740"><time>2020-06-27T09:08:58.710</time></trkpt><trkpt lat="55.2979780" lon="38.8520880"><time>2020-06-27T09:09:00.660</time></trkpt><trkpt lat="55.2979250" lon="38.8520330"><time>2020-06-27T09:09:02.673</time></trkpt><trkpt lat="55.2978460" lon="38.8519630"><time>2020-06-27T09:09:05.697</time></trkpt><trkpt lat="55.2978010" lon="38.8518910"><time>2020-06-27T09:09:08.487</time></trkpt><trkpt lat="55.2977580" lon="38.8518260"><time>2020-06-27T09:09:11.690</time></trkpt><trkpt lat="55.2977350" lon="38.8517440"><time>2020-06-27T09:09:13.700</time></trkpt><trkpt lat="55.2976860" lon="38.8516580"><time>2020-06-27T09:09:15.707</time></trkpt><trkpt lat="55.2976360" lon="38.8516260"><time>2020-06-27T09:09:17.710</time></trkpt><trkpt lat="55.2975610" lon="38.8515970"><time>2020-06-27T09:09:19.710</time></trkpt><trkpt lat="55.2975160" lon="38.8515850"><time>2020-06-27T09:09:20.700</time></trkpt><trkpt lat="55.2974660" lon="38.8515360"><time>2020-06-27T09:09:22.697</time></trkpt><trkpt lat="55.2974320" lon="38.8514610"><time>2020-06-27T09:09:24.753</time></trkpt><trkpt lat="55.2973590" lon="38.8513860"><time>2020-06-27T09:09:26.693</time></trkpt><trkpt lat="55.2972940" lon="38.8513300"><time>2020-06-27T09:09:28.717</time></trkpt><trkpt lat="55.2972540" lon="38.8512590"><time>2020-06-27T09:09:30.470</time></trkpt><trkpt lat="55.2971860" lon="38.8511880"><time>2020-06-27T09:09:32.690</time></trkpt><trkpt lat="55.2971400" lon="38.8511560"><time>2020-06-27T09:09:33.720</time></trkpt><trkpt lat="55.2970510" lon="38.8511140"><time>2020-06-27T09:09:35.447</time></trkpt><trkpt lat="55.2970040" lon="38.8510970"><time>2020-06-27T09:09:38.677</time></trkpt><trkpt lat="55.2970110" lon="38.8509810"><time>2020-06-27T09:09:40.683</time></trkpt><trkpt lat="55.2969680" lon="38.8508990"><time>2020-06-27T09:09:42.730</time></trkpt><trkpt lat="55.2969220" lon="38.8508270"><time>2020-06-27T09:09:44.717</time></trkpt><trkpt lat="55.2968560" lon="38.8507680"><time>2020-06-27T09:09:46.457</time></trkpt><trkpt lat="55.2967980" lon="38.8507220"><time>2020-06-27T09:09:48.707</time></trkpt><trkpt lat="55.2967270" lon="38.8506770"><time>2020-06-27T09:09:50.677</time></trkpt><trkpt lat="55.2966610" lon="38.8506470"><time>2020-06-27T09:09:52.670</time></trkpt><trkpt lat="55.2965880" lon="38.8506010"><time>2020-06-27T09:09:54.663</time></trkpt><trkpt lat="55.2965180" lon="38.8505610"><time>2020-06-27T09:09:56.687</time></trkpt><trkpt lat="55.2964320" lon="38.8505610"><time>2020-06-27T09:09:58.697</time></trkpt><trkpt lat="55.2963900" lon="38.8505920"><time>2020-06-27T09:09:59.677</time></trkpt><trkpt lat="55.2963450" lon="38.8506800"><time>2020-06-27T09:10:01.680</time></trkpt><trkpt lat="55.2963120" lon="38.8507410"><time>2020-06-27T09:10:03.680</time></trkpt><trkpt lat="55.2962750" lon="38.8507880"><time>2020-06-27T09:10:05.690</time></trkpt><trkpt lat="55.2962250" lon="38.8508570"><time>2020-06-27T09:10:07.667</time></trkpt><trkpt lat="55.2961690" lon="38.8509070"><time>2020-06-27T09:10:09.697</time></trkpt><trkpt lat="55.2961190" lon="38.8509080"><time>2020-06-27T09:10:12.747</time></trkpt><trkpt lat="55.2960480" lon="38.8509640"><time>2020-06-27T09:10:23.110</time></trkpt><trkpt lat="55.2960220" lon="38.8510420"><time>2020-06-27T09:10:24.460</time></trkpt></trkseg></trk></gpx>